<?xml version="1.0" encoding="UTF-8" standalone="no" ?>
<gpx xmlns="http://www.topografix.com/GPX/1/1" xmlns:xsi="http://www.w3.org/2001/XMLSchema-instance" xsi:schemaLocation="http://www.topografix.com/GPX/1/1 http://www.topografix.com/GPX/1/1/gpx.xsd" version="1.1" creator="VisuGPX - https://www.visugpx.com">
  <metadata>
    <name>Rando organisée la coq'in </name>
    <desc><![CDATA[Randonnée organisée la coq'in au départ de St Romain d'Ay]]></desc>
  </metadata>
  <trk>
    <name><![CDATA[Rando organisée la coq'in avec Nico]]></name>
    <trkseg>
      <trkpt lat="45.16384" lon="4.6625">
        <ele>451.79998779297</ele>
        <time>2022-04-18T06:29:36Z</time>
      </trkpt>
      <trkpt lat="45.16384" lon="4.6625">
        <ele>448.79998779297</ele>
        <time>2022-04-18T06:29:37Z</time>
      </trkpt>
      <trkpt lat="45.16385" lon="4.6625">
        <ele>447.39999389648</ele>
        <time>2022-04-18T06:29:54Z</time>
      </trkpt>
      <trkpt lat="45.16385" lon="4.66255">
        <ele>447.79998779297</ele>
        <time>2022-04-18T06:31:13Z</time>
      </trkpt>
      <trkpt lat="45.16403" lon="4.66234">
        <ele>447.39999389648</ele>
        <time>2022-04-18T06:31:25Z</time>
      </trkpt>
      <trkpt lat="45.16404" lon="4.66227">
        <ele>447.39999389648</ele>
        <time>2022-04-18T06:31:27Z</time>
      </trkpt>
      <trkpt lat="45.16408" lon="4.66224">
        <ele>447.39999389648</ele>
        <time>2022-04-18T06:31:29Z</time>
      </trkpt>
      <trkpt lat="45.16429" lon="4.6621">
        <ele>447.60000610352</ele>
        <time>2022-04-18T06:31:39Z</time>
      </trkpt>
      <trkpt lat="45.16443" lon="4.66189">
        <ele>448.79998779297</ele>
        <time>2022-04-18T06:31:48Z</time>
      </trkpt>
      <trkpt lat="45.16444" lon="4.66149">
        <ele>449.39999389648</ele>
        <time>2022-04-18T06:31:58Z</time>
      </trkpt>
      <trkpt lat="45.16453" lon="4.66139">
        <ele>450.20001220703</ele>
        <time>2022-04-18T06:32:03Z</time>
      </trkpt>
      <trkpt lat="45.1647" lon="4.6612">
        <ele>453.20001220703</ele>
        <time>2022-04-18T06:32:14Z</time>
      </trkpt>
      <trkpt lat="45.16492" lon="4.66103">
        <ele>456.20001220703</ele>
        <time>2022-04-18T06:32:27Z</time>
      </trkpt>
      <trkpt lat="45.16524" lon="4.66093">
        <ele>458.79998779297</ele>
        <time>2022-04-18T06:32:42Z</time>
      </trkpt>
      <trkpt lat="45.16561" lon="4.66067">
        <ele>460.39999389648</ele>
        <time>2022-04-18T06:32:59Z</time>
      </trkpt>
      <trkpt lat="45.16599" lon="4.66045">
        <ele>461.60000610352</ele>
        <time>2022-04-18T06:33:15Z</time>
      </trkpt>
      <trkpt lat="45.16632" lon="4.66032">
        <ele>462.60000610352</ele>
        <time>2022-04-18T06:33:29Z</time>
      </trkpt>
      <trkpt lat="45.16623" lon="4.66016">
        <ele>463.20001220703</ele>
        <time>2022-04-18T06:33:37Z</time>
      </trkpt>
      <trkpt lat="45.16589" lon="4.65917">
        <ele>463</ele>
        <time>2022-04-18T06:34:01Z</time>
      </trkpt>
      <trkpt lat="45.16577" lon="4.65885">
        <ele>461.60000610352</ele>
        <time>2022-04-18T06:34:06Z</time>
      </trkpt>
      <trkpt lat="45.1653" lon="4.65819">
        <ele>457.20001220703</ele>
        <time>2022-04-18T06:34:15Z</time>
      </trkpt>
      <trkpt lat="45.16517" lon="4.65802">
        <ele>454</ele>
        <time>2022-04-18T06:34:18Z</time>
      </trkpt>
      <trkpt lat="45.16509" lon="4.65786">
        <ele>451</ele>
        <time>2022-04-18T06:34:21Z</time>
      </trkpt>
      <trkpt lat="45.16515" lon="4.65769">
        <ele>447.79998779297</ele>
        <time>2022-04-18T06:34:25Z</time>
      </trkpt>
      <trkpt lat="45.16521" lon="4.65753">
        <ele>446.39999389648</ele>
        <time>2022-04-18T06:34:28Z</time>
      </trkpt>
      <trkpt lat="45.16523" lon="4.65737">
        <ele>445.39999389648</ele>
        <time>2022-04-18T06:34:31Z</time>
      </trkpt>
      <trkpt lat="45.16522" lon="4.65733">
        <ele>445.20001220703</ele>
        <time>2022-04-18T06:34:32Z</time>
      </trkpt>
      <trkpt lat="45.16515" lon="4.65722">
        <ele>443.39999389648</ele>
        <time>2022-04-18T06:34:40Z</time>
      </trkpt>
      <trkpt lat="45.16515" lon="4.65722">
        <ele>442</ele>
        <time>2022-04-18T06:34:45Z</time>
      </trkpt>
      <trkpt lat="45.16515" lon="4.65722">
        <ele>441.39999389648</ele>
        <time>2022-04-18T06:35:51Z</time>
      </trkpt>
      <trkpt lat="45.1651" lon="4.65718">
        <ele>441.20001220703</ele>
        <time>2022-04-18T06:35:54Z</time>
      </trkpt>
      <trkpt lat="45.16473" lon="4.65691">
        <ele>439</ele>
        <time>2022-04-18T06:36:03Z</time>
      </trkpt>
      <trkpt lat="45.16442" lon="4.65691">
        <ele>436.79998779297</ele>
        <time>2022-04-18T06:36:08Z</time>
      </trkpt>
      <trkpt lat="45.16422" lon="4.65696">
        <ele>433.20001220703</ele>
        <time>2022-04-18T06:36:12Z</time>
      </trkpt>
      <trkpt lat="45.16423" lon="4.65674">
        <ele>429.79998779297</ele>
        <time>2022-04-18T06:36:18Z</time>
      </trkpt>
      <trkpt lat="45.16431" lon="4.65605">
        <ele>428.60000610352</ele>
        <time>2022-04-18T06:36:28Z</time>
      </trkpt>
      <trkpt lat="45.16437" lon="4.6558">
        <ele>428.39999389648</ele>
        <time>2022-04-18T06:36:31Z</time>
      </trkpt>
      <trkpt lat="45.16442" lon="4.65563">
        <ele>428.20001220703</ele>
        <time>2022-04-18T06:36:33Z</time>
      </trkpt>
      <trkpt lat="45.16432" lon="4.65511">
        <ele>426.60000610352</ele>
        <time>2022-04-18T06:36:40Z</time>
      </trkpt>
      <trkpt lat="45.16427" lon="4.65506">
        <ele>426.39999389648</ele>
        <time>2022-04-18T06:36:41Z</time>
      </trkpt>
      <trkpt lat="45.16418" lon="4.65498">
        <ele>426.20001220703</ele>
        <time>2022-04-18T06:36:43Z</time>
      </trkpt>
      <trkpt lat="45.16405" lon="4.65464">
        <ele>426</ele>
        <time>2022-04-18T06:36:49Z</time>
      </trkpt>
      <trkpt lat="45.16391" lon="4.65384">
        <ele>426</ele>
        <time>2022-04-18T06:36:57Z</time>
      </trkpt>
      <trkpt lat="45.16388" lon="4.65376">
        <ele>425.60000610352</ele>
        <time>2022-04-18T06:36:58Z</time>
      </trkpt>
      <trkpt lat="45.16375" lon="4.65332">
        <ele>423.79998779297</ele>
        <time>2022-04-18T06:37:04Z</time>
      </trkpt>
      <trkpt lat="45.16353" lon="4.6528">
        <ele>423.39999389648</ele>
        <time>2022-04-18T06:37:12Z</time>
      </trkpt>
      <trkpt lat="45.16341" lon="4.65247">
        <ele>423.39999389648</ele>
        <time>2022-04-18T06:37:17Z</time>
      </trkpt>
      <trkpt lat="45.16304" lon="4.65157">
        <ele>421.79998779297</ele>
        <time>2022-04-18T06:37:30Z</time>
      </trkpt>
      <trkpt lat="45.16294" lon="4.65131">
        <ele>420.39999389648</ele>
        <time>2022-04-18T06:37:34Z</time>
      </trkpt>
      <trkpt lat="45.16289" lon="4.65123">
        <ele>420</ele>
        <time>2022-04-18T06:37:37Z</time>
      </trkpt>
      <trkpt lat="45.16277" lon="4.65108">
        <ele>416.79998779297</ele>
        <time>2022-04-18T06:37:47Z</time>
      </trkpt>
      <trkpt lat="45.16266" lon="4.65103">
        <ele>416.20001220703</ele>
        <time>2022-04-18T06:37:54Z</time>
      </trkpt>
      <trkpt lat="45.16265" lon="4.65091">
        <ele>416.39999389648</ele>
        <time>2022-04-18T06:37:58Z</time>
      </trkpt>
      <trkpt lat="45.16266" lon="4.65076">
        <ele>416.79998779297</ele>
        <time>2022-04-18T06:38:02Z</time>
      </trkpt>
      <trkpt lat="45.16253" lon="4.65044">
        <ele>418</ele>
        <time>2022-04-18T06:38:13Z</time>
      </trkpt>
      <trkpt lat="45.1625" lon="4.65035">
        <ele>418.60000610352</ele>
        <time>2022-04-18T06:38:17Z</time>
      </trkpt>
      <trkpt lat="45.16237" lon="4.65015">
        <ele>421.60000610352</ele>
        <time>2022-04-18T06:38:33Z</time>
      </trkpt>
      <trkpt lat="45.16231" lon="4.65007">
        <ele>423.39999389648</ele>
        <time>2022-04-18T06:38:46Z</time>
      </trkpt>
      <trkpt lat="45.16221" lon="4.64981">
        <ele>425.79998779297</ele>
        <time>2022-04-18T06:39:01Z</time>
      </trkpt>
      <trkpt lat="45.16213" lon="4.64951">
        <ele>428.39999389648</ele>
        <time>2022-04-18T06:39:16Z</time>
      </trkpt>
      <trkpt lat="45.162" lon="4.6492">
        <ele>430</ele>
        <time>2022-04-18T06:39:27Z</time>
      </trkpt>
      <trkpt lat="45.16185" lon="4.6488">
        <ele>432</ele>
        <time>2022-04-18T06:39:42Z</time>
      </trkpt>
      <trkpt lat="45.1617" lon="4.64865">
        <ele>435</ele>
        <time>2022-04-18T06:39:54Z</time>
      </trkpt>
      <trkpt lat="45.16156" lon="4.64845">
        <ele>438</ele>
        <time>2022-04-18T06:40:07Z</time>
      </trkpt>
      <trkpt lat="45.16143" lon="4.64826">
        <ele>441</ele>
        <time>2022-04-18T06:40:20Z</time>
      </trkpt>
      <trkpt lat="45.16132" lon="4.6479">
        <ele>443.60000610352</ele>
        <time>2022-04-18T06:40:37Z</time>
      </trkpt>
      <trkpt lat="45.16122" lon="4.64772">
        <ele>446.79998779297</ele>
        <time>2022-04-18T06:40:50Z</time>
      </trkpt>
      <trkpt lat="45.1611" lon="4.64753">
        <ele>450</ele>
        <time>2022-04-18T06:41:03Z</time>
      </trkpt>
      <trkpt lat="45.16087" lon="4.64722">
        <ele>452.20001220703</ele>
        <time>2022-04-18T06:41:23Z</time>
      </trkpt>
      <trkpt lat="45.16073" lon="4.647">
        <ele>454.60000610352</ele>
        <time>2022-04-18T06:41:36Z</time>
      </trkpt>
      <trkpt lat="45.16062" lon="4.64681">
        <ele>455.79998779297</ele>
        <time>2022-04-18T06:41:48Z</time>
      </trkpt>
      <trkpt lat="45.16052" lon="4.64661">
        <ele>457.60000610352</ele>
        <time>2022-04-18T06:41:57Z</time>
      </trkpt>
      <trkpt lat="45.16051" lon="4.64659">
        <ele>457.79998779297</ele>
        <time>2022-04-18T06:41:58Z</time>
      </trkpt>
      <trkpt lat="45.16042" lon="4.64644">
        <ele>458.60000610352</ele>
        <time>2022-04-18T06:42:05Z</time>
      </trkpt>
      <trkpt lat="45.1604" lon="4.64643">
        <ele>458.79998779297</ele>
        <time>2022-04-18T06:42:06Z</time>
      </trkpt>
      <trkpt lat="45.16038" lon="4.64635">
        <ele>460.20001220703</ele>
        <time>2022-04-18T06:42:10Z</time>
      </trkpt>
      <trkpt lat="45.16031" lon="4.64619">
        <ele>463.39999389648</ele>
        <time>2022-04-18T06:42:22Z</time>
      </trkpt>
      <trkpt lat="45.16021" lon="4.64583">
        <ele>464.79998779297</ele>
        <time>2022-04-18T06:42:34Z</time>
      </trkpt>
      <trkpt lat="45.16025" lon="4.6456">
        <ele>464.39999389648</ele>
        <time>2022-04-18T06:42:41Z</time>
      </trkpt>
      <trkpt lat="45.16034" lon="4.64551">
        <ele>465.20001220703</ele>
        <time>2022-04-18T06:42:49Z</time>
      </trkpt>
      <trkpt lat="45.16043" lon="4.64546">
        <ele>466.79998779297</ele>
        <time>2022-04-18T06:42:55Z</time>
      </trkpt>
      <trkpt lat="45.16046" lon="4.64545">
        <ele>467.20001220703</ele>
        <time>2022-04-18T06:42:57Z</time>
      </trkpt>
      <trkpt lat="45.16064" lon="4.64539">
        <ele>469</ele>
        <time>2022-04-18T06:43:06Z</time>
      </trkpt>
      <trkpt lat="45.16067" lon="4.64529">
        <ele>469.60000610352</ele>
        <time>2022-04-18T06:43:10Z</time>
      </trkpt>
      <trkpt lat="45.16059" lon="4.64509">
        <ele>472</ele>
        <time>2022-04-18T06:43:20Z</time>
      </trkpt>
      <trkpt lat="45.16046" lon="4.64488">
        <ele>474</ele>
        <time>2022-04-18T06:43:31Z</time>
      </trkpt>
      <trkpt lat="45.16041" lon="4.64475">
        <ele>475.39999389648</ele>
        <time>2022-04-18T06:43:37Z</time>
      </trkpt>
      <trkpt lat="45.16036" lon="4.64463">
        <ele>476.20001220703</ele>
        <time>2022-04-18T06:43:42Z</time>
      </trkpt>
      <trkpt lat="45.16025" lon="4.64457">
        <ele>478</ele>
        <time>2022-04-18T06:43:50Z</time>
      </trkpt>
      <trkpt lat="45.16022" lon="4.64456">
        <ele>478.20001220703</ele>
        <time>2022-04-18T06:43:52Z</time>
      </trkpt>
      <trkpt lat="45.16011" lon="4.64442">
        <ele>480.20001220703</ele>
        <time>2022-04-18T06:43:59Z</time>
      </trkpt>
      <trkpt lat="45.15994" lon="4.64423">
        <ele>482.20001220703</ele>
        <time>2022-04-18T06:44:09Z</time>
      </trkpt>
      <trkpt lat="45.15979" lon="4.64401">
        <ele>483</ele>
        <time>2022-04-18T06:44:19Z</time>
      </trkpt>
      <trkpt lat="45.15967" lon="4.64361">
        <ele>483.60000610352</ele>
        <time>2022-04-18T06:44:31Z</time>
      </trkpt>
      <trkpt lat="45.15967" lon="4.64359">
        <ele>483.60000610352</ele>
        <time>2022-04-18T06:44:32Z</time>
      </trkpt>
      <trkpt lat="45.15963" lon="4.64315">
        <ele>484.60000610352</ele>
        <time>2022-04-18T06:44:43Z</time>
      </trkpt>
      <trkpt lat="45.15959" lon="4.64297">
        <ele>484.60000610352</ele>
        <time>2022-04-18T06:44:48Z</time>
      </trkpt>
      <trkpt lat="45.15943" lon="4.64282">
        <ele>487</ele>
        <time>2022-04-18T06:45:00Z</time>
      </trkpt>
      <trkpt lat="45.15952" lon="4.64269">
        <ele>488</ele>
        <time>2022-04-18T06:45:06Z</time>
      </trkpt>
      <trkpt lat="45.15959" lon="4.64228">
        <ele>489</ele>
        <time>2022-04-18T06:45:17Z</time>
      </trkpt>
      <trkpt lat="45.15928" lon="4.64155">
        <ele>489.20001220703</ele>
        <time>2022-04-18T06:45:34Z</time>
      </trkpt>
      <trkpt lat="45.1592" lon="4.64128">
        <ele>489.60000610352</ele>
        <time>2022-04-18T06:45:39Z</time>
      </trkpt>
      <trkpt lat="45.15912" lon="4.64099">
        <ele>489.60000610352</ele>
        <time>2022-04-18T06:45:44Z</time>
      </trkpt>
      <trkpt lat="45.15905" lon="4.64071">
        <ele>489.20001220703</ele>
        <time>2022-04-18T06:45:48Z</time>
      </trkpt>
      <trkpt lat="45.15901" lon="4.64023">
        <ele>487.20001220703</ele>
        <time>2022-04-18T06:45:54Z</time>
      </trkpt>
      <trkpt lat="45.15912" lon="4.64004">
        <ele>485.60000610352</ele>
        <time>2022-04-18T06:45:57Z</time>
      </trkpt>
      <trkpt lat="45.15923" lon="4.63995">
        <ele>485.20001220703</ele>
        <time>2022-04-18T06:45:59Z</time>
      </trkpt>
      <trkpt lat="45.15952" lon="4.63974">
        <ele>482.39999389648</ele>
        <time>2022-04-18T06:46:04Z</time>
      </trkpt>
      <trkpt lat="45.15956" lon="4.63968">
        <ele>482.20001220703</ele>
        <time>2022-04-18T06:46:05Z</time>
      </trkpt>
      <trkpt lat="45.15955" lon="4.63925">
        <ele>479</ele>
        <time>2022-04-18T06:46:10Z</time>
      </trkpt>
      <trkpt lat="45.15953" lon="4.63916">
        <ele>478.79998779297</ele>
        <time>2022-04-18T06:46:11Z</time>
      </trkpt>
      <trkpt lat="45.1593" lon="4.63826">
        <ele>476</ele>
        <time>2022-04-18T06:46:22Z</time>
      </trkpt>
      <trkpt lat="45.15904" lon="4.63658">
        <ele>474.60000610352</ele>
        <time>2022-04-18T06:46:45Z</time>
      </trkpt>
      <trkpt lat="45.15902" lon="4.63623">
        <ele>474.60000610352</ele>
        <time>2022-04-18T06:46:51Z</time>
      </trkpt>
      <trkpt lat="45.15927" lon="4.63598">
        <ele>474.39999389648</ele>
        <time>2022-04-18T06:46:58Z</time>
      </trkpt>
      <trkpt lat="45.15918" lon="4.63547">
        <ele>473</ele>
        <time>2022-04-18T06:47:04Z</time>
      </trkpt>
      <trkpt lat="45.15905" lon="4.63536">
        <ele>472</ele>
        <time>2022-04-18T06:47:06Z</time>
      </trkpt>
      <trkpt lat="45.15892" lon="4.63526">
        <ele>470.79998779297</ele>
        <time>2022-04-18T06:47:08Z</time>
      </trkpt>
      <trkpt lat="45.15867" lon="4.63523">
        <ele>469.79998779297</ele>
        <time>2022-04-18T06:47:11Z</time>
      </trkpt>
      <trkpt lat="45.15826" lon="4.6355">
        <ele>466.39999389648</ele>
        <time>2022-04-18T06:47:16Z</time>
      </trkpt>
      <trkpt lat="45.15812" lon="4.63553">
        <ele>463.20001220703</ele>
        <time>2022-04-18T06:47:19Z</time>
      </trkpt>
      <trkpt lat="45.1581" lon="4.63538">
        <ele>459.79998779297</ele>
        <time>2022-04-18T06:47:22Z</time>
      </trkpt>
      <trkpt lat="45.15809" lon="4.63527">
        <ele>458.39999389648</ele>
        <time>2022-04-18T06:47:25Z</time>
      </trkpt>
      <trkpt lat="45.15822" lon="4.63491">
        <ele>459</ele>
        <time>2022-04-18T06:47:37Z</time>
      </trkpt>
      <trkpt lat="45.1584" lon="4.63459">
        <ele>460.79998779297</ele>
        <time>2022-04-18T06:47:47Z</time>
      </trkpt>
      <trkpt lat="45.15846" lon="4.63434">
        <ele>461.79998779297</ele>
        <time>2022-04-18T06:47:53Z</time>
      </trkpt>
      <trkpt lat="45.15836" lon="4.63425">
        <ele>462.39999389648</ele>
        <time>2022-04-18T06:47:57Z</time>
      </trkpt>
      <trkpt lat="45.15793" lon="4.63418">
        <ele>465.39999389648</ele>
        <time>2022-04-18T06:48:13Z</time>
      </trkpt>
      <trkpt lat="45.15764" lon="4.63405">
        <ele>468.20001220703</ele>
        <time>2022-04-18T06:48:26Z</time>
      </trkpt>
      <trkpt lat="45.1574" lon="4.63407">
        <ele>471.20001220703</ele>
        <time>2022-04-18T06:48:39Z</time>
      </trkpt>
      <trkpt lat="45.15707" lon="4.63428">
        <ele>474.20001220703</ele>
        <time>2022-04-18T06:48:54Z</time>
      </trkpt>
      <trkpt lat="45.15677" lon="4.63417">
        <ele>477</ele>
        <time>2022-04-18T06:49:09Z</time>
      </trkpt>
      <trkpt lat="45.15655" lon="4.63396">
        <ele>479.60000610352</ele>
        <time>2022-04-18T06:49:23Z</time>
      </trkpt>
      <trkpt lat="45.15632" lon="4.63379">
        <ele>482.60000610352</ele>
        <time>2022-04-18T06:49:36Z</time>
      </trkpt>
      <trkpt lat="45.15606" lon="4.63363">
        <ele>485.20001220703</ele>
        <time>2022-04-18T06:49:50Z</time>
      </trkpt>
      <trkpt lat="45.15579" lon="4.63334">
        <ele>488</ele>
        <time>2022-04-18T06:50:05Z</time>
      </trkpt>
      <trkpt lat="45.15558" lon="4.63311">
        <ele>490.20001220703</ele>
        <time>2022-04-18T06:50:17Z</time>
      </trkpt>
      <trkpt lat="45.15541" lon="4.63288">
        <ele>492.79998779297</ele>
        <time>2022-04-18T06:50:29Z</time>
      </trkpt>
      <trkpt lat="45.15539" lon="4.63286">
        <ele>493</ele>
        <time>2022-04-18T06:50:30Z</time>
      </trkpt>
      <trkpt lat="45.15533" lon="4.63279">
        <ele>493.60000610352</ele>
        <time>2022-04-18T06:50:34Z</time>
      </trkpt>
      <trkpt lat="45.15512" lon="4.63253">
        <ele>496.20001220703</ele>
        <time>2022-04-18T06:50:47Z</time>
      </trkpt>
      <trkpt lat="45.15494" lon="4.63223">
        <ele>498.60000610352</ele>
        <time>2022-04-18T06:51:00Z</time>
      </trkpt>
      <trkpt lat="45.15477" lon="4.63186">
        <ele>499.79998779297</ele>
        <time>2022-04-18T06:51:11Z</time>
      </trkpt>
      <trkpt lat="45.15456" lon="4.63135">
        <ele>500.20001220703</ele>
        <time>2022-04-18T06:51:24Z</time>
      </trkpt>
      <trkpt lat="45.15441" lon="4.63106">
        <ele>500.60000610352</ele>
        <time>2022-04-18T06:51:35Z</time>
      </trkpt>
      <trkpt lat="45.15426" lon="4.63084">
        <ele>500.79998779297</ele>
        <time>2022-04-18T06:51:43Z</time>
      </trkpt>
      <trkpt lat="45.15428" lon="4.63095">
        <ele>502.20001220703</ele>
        <time>2022-04-18T06:51:51Z</time>
      </trkpt>
      <trkpt lat="45.15419" lon="4.63098">
        <ele>503.39999389648</ele>
        <time>2022-04-18T06:52:00Z</time>
      </trkpt>
      <trkpt lat="45.15398" lon="4.63078">
        <ele>505.20001220703</ele>
        <time>2022-04-18T06:52:11Z</time>
      </trkpt>
      <trkpt lat="45.15384" lon="4.63077">
        <ele>506.39999389648</ele>
        <time>2022-04-18T06:52:17Z</time>
      </trkpt>
      <trkpt lat="45.15392" lon="4.63091">
        <ele>508.60000610352</ele>
        <time>2022-04-18T06:52:25Z</time>
      </trkpt>
      <trkpt lat="45.15403" lon="4.63119">
        <ele>510.39999389648</ele>
        <time>2022-04-18T06:52:37Z</time>
      </trkpt>
      <trkpt lat="45.15405" lon="4.63153">
        <ele>512.20001220703</ele>
        <time>2022-04-18T06:52:48Z</time>
      </trkpt>
      <trkpt lat="45.154" lon="4.63182">
        <ele>513.59997558594</ele>
        <time>2022-04-18T06:52:57Z</time>
      </trkpt>
      <trkpt lat="45.154" lon="4.63214">
        <ele>515.59997558594</ele>
        <time>2022-04-18T06:53:08Z</time>
      </trkpt>
      <trkpt lat="45.1541" lon="4.63246">
        <ele>517.79998779297</ele>
        <time>2022-04-18T06:53:20Z</time>
      </trkpt>
      <trkpt lat="45.15432" lon="4.63272">
        <ele>520.79998779297</ele>
        <time>2022-04-18T06:53:34Z</time>
      </trkpt>
      <trkpt lat="45.15434" lon="4.63274">
        <ele>521</ele>
        <time>2022-04-18T06:53:35Z</time>
      </trkpt>
      <trkpt lat="45.1543" lon="4.63285">
        <ele>522.40002441406</ele>
        <time>2022-04-18T06:53:43Z</time>
      </trkpt>
      <trkpt lat="45.15404" lon="4.63279">
        <ele>524.59997558594</ele>
        <time>2022-04-18T06:53:56Z</time>
      </trkpt>
      <trkpt lat="45.15365" lon="4.63263">
        <ele>527.20001220703</ele>
        <time>2022-04-18T06:54:15Z</time>
      </trkpt>
      <trkpt lat="45.15339" lon="4.6325">
        <ele>528.79998779297</ele>
        <time>2022-04-18T06:54:28Z</time>
      </trkpt>
      <trkpt lat="45.15319" lon="4.63242">
        <ele>532</ele>
        <time>2022-04-18T06:54:40Z</time>
      </trkpt>
      <trkpt lat="45.15299" lon="4.63237">
        <ele>535</ele>
        <time>2022-04-18T06:54:50Z</time>
      </trkpt>
      <trkpt lat="45.15267" lon="4.63231">
        <ele>537.79998779297</ele>
        <time>2022-04-18T06:55:07Z</time>
      </trkpt>
      <trkpt lat="45.15243" lon="4.63227">
        <ele>540.79998779297</ele>
        <time>2022-04-18T06:55:20Z</time>
      </trkpt>
      <trkpt lat="45.15212" lon="4.63221">
        <ele>543.79998779297</ele>
        <time>2022-04-18T06:55:36Z</time>
      </trkpt>
      <trkpt lat="45.15187" lon="4.63206">
        <ele>545.59997558594</ele>
        <time>2022-04-18T06:55:50Z</time>
      </trkpt>
      <trkpt lat="45.15163" lon="4.63191">
        <ele>548.59997558594</ele>
        <time>2022-04-18T06:56:04Z</time>
      </trkpt>
      <trkpt lat="45.15136" lon="4.63207">
        <ele>549.79998779297</ele>
        <time>2022-04-18T06:56:13Z</time>
      </trkpt>
      <trkpt lat="45.15117" lon="4.63204">
        <ele>549.40002441406</ele>
        <time>2022-04-18T06:56:18Z</time>
      </trkpt>
      <trkpt lat="45.15087" lon="4.63183">
        <ele>550.20001220703</ele>
        <time>2022-04-18T06:56:31Z</time>
      </trkpt>
      <trkpt lat="45.1504" lon="4.63179">
        <ele>553.20001220703</ele>
        <time>2022-04-18T06:56:50Z</time>
      </trkpt>
      <trkpt lat="45.15006" lon="4.63176">
        <ele>556.20001220703</ele>
        <time>2022-04-18T06:57:04Z</time>
      </trkpt>
      <trkpt lat="45.14978" lon="4.63156">
        <ele>559.20001220703</ele>
        <time>2022-04-18T06:57:18Z</time>
      </trkpt>
      <trkpt lat="45.14952" lon="4.63137">
        <ele>561.79998779297</ele>
        <time>2022-04-18T06:57:32Z</time>
      </trkpt>
      <trkpt lat="45.14925" lon="4.63123">
        <ele>564.79998779297</ele>
        <time>2022-04-18T06:57:45Z</time>
      </trkpt>
      <trkpt lat="45.1491" lon="4.63132">
        <ele>565.40002441406</ele>
        <time>2022-04-18T06:57:51Z</time>
      </trkpt>
      <trkpt lat="45.14914" lon="4.63151">
        <ele>565.20001220703</ele>
        <time>2022-04-18T06:57:58Z</time>
      </trkpt>
      <trkpt lat="45.14914" lon="4.63153">
        <ele>565.40002441406</ele>
        <time>2022-04-18T06:57:59Z</time>
      </trkpt>
      <trkpt lat="45.14922" lon="4.63168">
        <ele>567</ele>
        <time>2022-04-18T06:58:08Z</time>
      </trkpt>
      <trkpt lat="45.14925" lon="4.63176">
        <ele>568</ele>
        <time>2022-04-18T06:58:12Z</time>
      </trkpt>
      <trkpt lat="45.14927" lon="4.63181">
        <ele>569</ele>
        <time>2022-04-18T06:58:14Z</time>
      </trkpt>
      <trkpt lat="45.14929" lon="4.63193">
        <ele>569.79998779297</ele>
        <time>2022-04-18T06:58:21Z</time>
      </trkpt>
      <trkpt lat="45.14935" lon="4.63215">
        <ele>570.79998779297</ele>
        <time>2022-04-18T06:58:27Z</time>
      </trkpt>
      <trkpt lat="45.14937" lon="4.63217">
        <ele>570.79998779297</ele>
        <time>2022-04-18T06:58:28Z</time>
      </trkpt>
      <trkpt lat="45.1494" lon="4.63233">
        <ele>571.79998779297</ele>
        <time>2022-04-18T06:58:34Z</time>
      </trkpt>
      <trkpt lat="45.14942" lon="4.63248">
        <ele>572.59997558594</ele>
        <time>2022-04-18T06:58:39Z</time>
      </trkpt>
      <trkpt lat="45.14948" lon="4.63269">
        <ele>573.40002441406</ele>
        <time>2022-04-18T06:58:45Z</time>
      </trkpt>
      <trkpt lat="45.14951" lon="4.63284">
        <ele>574.20001220703</ele>
        <time>2022-04-18T06:58:52Z</time>
      </trkpt>
      <trkpt lat="45.14953" lon="4.63289">
        <ele>574.40002441406</ele>
        <time>2022-04-18T06:58:54Z</time>
      </trkpt>
      <trkpt lat="45.1496" lon="4.63306">
        <ele>575</ele>
        <time>2022-04-18T06:58:59Z</time>
      </trkpt>
      <trkpt lat="45.14968" lon="4.63325">
        <ele>575.79998779297</ele>
        <time>2022-04-18T06:59:06Z</time>
      </trkpt>
      <trkpt lat="45.14979" lon="4.63346">
        <ele>576.79998779297</ele>
        <time>2022-04-18T06:59:13Z</time>
      </trkpt>
      <trkpt lat="45.1499" lon="4.63371">
        <ele>577.40002441406</ele>
        <time>2022-04-18T06:59:20Z</time>
      </trkpt>
      <trkpt lat="45.14996" lon="4.63401">
        <ele>579.20001220703</ele>
        <time>2022-04-18T06:59:31Z</time>
      </trkpt>
      <trkpt lat="45.15" lon="4.63431">
        <ele>580.20001220703</ele>
        <time>2022-04-18T06:59:41Z</time>
      </trkpt>
      <trkpt lat="45.15001" lon="4.63447">
        <ele>581</ele>
        <time>2022-04-18T06:59:46Z</time>
      </trkpt>
      <trkpt lat="45.15008" lon="4.63466">
        <ele>581.79998779297</ele>
        <time>2022-04-18T06:59:52Z</time>
      </trkpt>
      <trkpt lat="45.15007" lon="4.63469">
        <ele>582</ele>
        <time>2022-04-18T06:59:53Z</time>
      </trkpt>
      <trkpt lat="45.15002" lon="4.63492">
        <ele>583</ele>
        <time>2022-04-18T06:59:59Z</time>
      </trkpt>
      <trkpt lat="45.15" lon="4.63508">
        <ele>584</ele>
        <time>2022-04-18T07:00:05Z</time>
      </trkpt>
      <trkpt lat="45.14997" lon="4.63527">
        <ele>585.59997558594</ele>
        <time>2022-04-18T07:00:14Z</time>
      </trkpt>
      <trkpt lat="45.14991" lon="4.63563">
        <ele>586.59997558594</ele>
        <time>2022-04-18T07:00:24Z</time>
      </trkpt>
      <trkpt lat="45.14981" lon="4.63608">
        <ele>588.20001220703</ele>
        <time>2022-04-18T07:00:38Z</time>
      </trkpt>
      <trkpt lat="45.14967" lon="4.63645">
        <ele>589.40002441406</ele>
        <time>2022-04-18T07:00:51Z</time>
      </trkpt>
      <trkpt lat="45.14929" lon="4.63712">
        <ele>592</ele>
        <time>2022-04-18T07:01:15Z</time>
      </trkpt>
      <trkpt lat="45.14895" lon="4.63745">
        <ele>593</ele>
        <time>2022-04-18T07:01:28Z</time>
      </trkpt>
      <trkpt lat="45.14878" lon="4.63741">
        <ele>592.79998779297</ele>
        <time>2022-04-18T07:01:33Z</time>
      </trkpt>
      <trkpt lat="45.14841" lon="4.63715">
        <ele>593.20001220703</ele>
        <time>2022-04-18T07:01:49Z</time>
      </trkpt>
      <trkpt lat="45.14811" lon="4.63687">
        <ele>596</ele>
        <time>2022-04-18T07:02:05Z</time>
      </trkpt>
      <trkpt lat="45.14795" lon="4.6366">
        <ele>599</ele>
        <time>2022-04-18T07:02:18Z</time>
      </trkpt>
      <trkpt lat="45.14784" lon="4.63641">
        <ele>602</ele>
        <time>2022-04-18T07:02:28Z</time>
      </trkpt>
      <trkpt lat="45.14769" lon="4.63613">
        <ele>603.79998779297</ele>
        <time>2022-04-18T07:02:41Z</time>
      </trkpt>
      <trkpt lat="45.14738" lon="4.63605">
        <ele>605</ele>
        <time>2022-04-18T07:02:51Z</time>
      </trkpt>
      <trkpt lat="45.14726" lon="4.63591">
        <ele>604.59997558594</ele>
        <time>2022-04-18T07:02:55Z</time>
      </trkpt>
      <trkpt lat="45.14704" lon="4.6357">
        <ele>604.20001220703</ele>
        <time>2022-04-18T07:03:02Z</time>
      </trkpt>
      <trkpt lat="45.14682" lon="4.63574">
        <ele>603.79998779297</ele>
        <time>2022-04-18T07:03:07Z</time>
      </trkpt>
      <trkpt lat="45.14673" lon="4.63578">
        <ele>604</ele>
        <time>2022-04-18T07:03:09Z</time>
      </trkpt>
      <trkpt lat="45.14659" lon="4.63579">
        <ele>603.59997558594</ele>
        <time>2022-04-18T07:03:12Z</time>
      </trkpt>
      <trkpt lat="45.1461" lon="4.63573">
        <ele>602.20001220703</ele>
        <time>2022-04-18T07:03:23Z</time>
      </trkpt>
      <trkpt lat="45.14559" lon="4.63576">
        <ele>603</ele>
        <time>2022-04-18T07:03:38Z</time>
      </trkpt>
      <trkpt lat="45.14524" lon="4.63588">
        <ele>606</ele>
        <time>2022-04-18T07:03:54Z</time>
      </trkpt>
      <trkpt lat="45.14493" lon="4.63622">
        <ele>608</ele>
        <time>2022-04-18T07:04:10Z</time>
      </trkpt>
      <trkpt lat="45.14459" lon="4.63679">
        <ele>609</ele>
        <time>2022-04-18T07:04:27Z</time>
      </trkpt>
      <trkpt lat="45.14441" lon="4.63778">
        <ele>607.40002441406</ele>
        <time>2022-04-18T07:04:47Z</time>
      </trkpt>
      <trkpt lat="45.14418" lon="4.63858">
        <ele>605.79998779297</ele>
        <time>2022-04-18T07:05:01Z</time>
      </trkpt>
      <trkpt lat="45.14401" lon="4.63889">
        <ele>606.59997558594</ele>
        <time>2022-04-18T07:05:11Z</time>
      </trkpt>
      <trkpt lat="45.14377" lon="4.63921">
        <ele>608.59997558594</ele>
        <time>2022-04-18T07:05:23Z</time>
      </trkpt>
      <trkpt lat="45.14366" lon="4.6393">
        <ele>609.40002441406</ele>
        <time>2022-04-18T07:05:28Z</time>
      </trkpt>
      <trkpt lat="45.14327" lon="4.63944">
        <ele>610.40002441406</ele>
        <time>2022-04-18T07:05:44Z</time>
      </trkpt>
      <trkpt lat="45.14306" lon="4.63924">
        <ele>613</ele>
        <time>2022-04-18T07:05:59Z</time>
      </trkpt>
      <trkpt lat="45.14286" lon="4.63919">
        <ele>616</ele>
        <time>2022-04-18T07:06:11Z</time>
      </trkpt>
      <trkpt lat="45.1425" lon="4.63927">
        <ele>618.79998779297</ele>
        <time>2022-04-18T07:06:30Z</time>
      </trkpt>
      <trkpt lat="45.14223" lon="4.63931">
        <ele>621.20001220703</ele>
        <time>2022-04-18T07:06:46Z</time>
      </trkpt>
      <trkpt lat="45.14209" lon="4.63941">
        <ele>622</ele>
        <time>2022-04-18T07:06:57Z</time>
      </trkpt>
      <trkpt lat="45.14191" lon="4.63955">
        <ele>623.79998779297</ele>
        <time>2022-04-18T07:07:06Z</time>
      </trkpt>
      <trkpt lat="45.14172" lon="4.63965">
        <ele>624.59997558594</ele>
        <time>2022-04-18T07:07:13Z</time>
      </trkpt>
      <trkpt lat="45.14162" lon="4.63973">
        <ele>624.59997558594</ele>
        <time>2022-04-18T07:07:16Z</time>
      </trkpt>
      <trkpt lat="45.14134" lon="4.63989">
        <ele>624.20001220703</ele>
        <time>2022-04-18T07:07:21Z</time>
      </trkpt>
      <trkpt lat="45.14093" lon="4.63994">
        <ele>621.40002441406</ele>
        <time>2022-04-18T07:07:27Z</time>
      </trkpt>
      <trkpt lat="45.14072" lon="4.63962">
        <ele>619</ele>
        <time>2022-04-18T07:07:33Z</time>
      </trkpt>
      <trkpt lat="45.14055" lon="4.63953">
        <ele>618.79998779297</ele>
        <time>2022-04-18T07:07:39Z</time>
      </trkpt>
      <trkpt lat="45.14049" lon="4.63954">
        <ele>619</ele>
        <time>2022-04-18T07:07:41Z</time>
      </trkpt>
      <trkpt lat="45.14032" lon="4.63942">
        <ele>621</ele>
        <time>2022-04-18T07:07:49Z</time>
      </trkpt>
      <trkpt lat="45.14008" lon="4.63942">
        <ele>624</ele>
        <time>2022-04-18T07:08:01Z</time>
      </trkpt>
      <trkpt lat="45.13985" lon="4.63943">
        <ele>626.40002441406</ele>
        <time>2022-04-18T07:08:12Z</time>
      </trkpt>
      <trkpt lat="45.13977" lon="4.63942">
        <ele>627.40002441406</ele>
        <time>2022-04-18T07:08:18Z</time>
      </trkpt>
      <trkpt lat="45.13973" lon="4.63945">
        <ele>627.79998779297</ele>
        <time>2022-04-18T07:08:20Z</time>
      </trkpt>
      <trkpt lat="45.13964" lon="4.63948">
        <ele>628.40002441406</ele>
        <time>2022-04-18T07:08:24Z</time>
      </trkpt>
      <trkpt lat="45.1396" lon="4.6395">
        <ele>628.79998779297</ele>
        <time>2022-04-18T07:08:26Z</time>
      </trkpt>
      <trkpt lat="45.13951" lon="4.63954">
        <ele>629.59997558594</ele>
        <time>2022-04-18T07:08:30Z</time>
      </trkpt>
      <trkpt lat="45.13929" lon="4.63963">
        <ele>631.59997558594</ele>
        <time>2022-04-18T07:08:41Z</time>
      </trkpt>
      <trkpt lat="45.13911" lon="4.63962">
        <ele>633.20001220703</ele>
        <time>2022-04-18T07:08:51Z</time>
      </trkpt>
      <trkpt lat="45.13892" lon="4.63959">
        <ele>635.40002441406</ele>
        <time>2022-04-18T07:09:02Z</time>
      </trkpt>
      <trkpt lat="45.13877" lon="4.63949">
        <ele>638.79998779297</ele>
        <time>2022-04-18T07:09:14Z</time>
      </trkpt>
      <trkpt lat="45.13859" lon="4.63943">
        <ele>642</ele>
        <time>2022-04-18T07:09:25Z</time>
      </trkpt>
      <trkpt lat="45.13829" lon="4.6392">
        <ele>643.79998779297</ele>
        <time>2022-04-18T07:09:40Z</time>
      </trkpt>
      <trkpt lat="45.13797" lon="4.63878">
        <ele>643.59997558594</ele>
        <time>2022-04-18T07:09:50Z</time>
      </trkpt>
      <trkpt lat="45.13788" lon="4.63864">
        <ele>643.20001220703</ele>
        <time>2022-04-18T07:09:52Z</time>
      </trkpt>
      <trkpt lat="45.13755" lon="4.63807">
        <ele>640.79998779297</ele>
        <time>2022-04-18T07:09:59Z</time>
      </trkpt>
      <trkpt lat="45.13732" lon="4.63784">
        <ele>639.79998779297</ele>
        <time>2022-04-18T07:10:02Z</time>
      </trkpt>
      <trkpt lat="45.13692" lon="4.63749">
        <ele>635.59997558594</ele>
        <time>2022-04-18T07:10:07Z</time>
      </trkpt>
      <trkpt lat="45.13669" lon="4.63729">
        <ele>633.79998779297</ele>
        <time>2022-04-18T07:10:10Z</time>
      </trkpt>
      <trkpt lat="45.13636" lon="4.63683">
        <ele>632</ele>
        <time>2022-04-18T07:10:16Z</time>
      </trkpt>
      <trkpt lat="45.1362" lon="4.63655">
        <ele>631.20001220703</ele>
        <time>2022-04-18T07:10:20Z</time>
      </trkpt>
      <trkpt lat="45.13603" lon="4.63621">
        <ele>631</ele>
        <time>2022-04-18T07:10:28Z</time>
      </trkpt>
      <trkpt lat="45.13578" lon="4.63604">
        <ele>631.40002441406</ele>
        <time>2022-04-18T07:10:35Z</time>
      </trkpt>
      <trkpt lat="45.13557" lon="4.63573">
        <ele>630.59997558594</ele>
        <time>2022-04-18T07:10:46Z</time>
      </trkpt>
      <trkpt lat="45.13539" lon="4.63549">
        <ele>633.59997558594</ele>
        <time>2022-04-18T07:10:57Z</time>
      </trkpt>
      <trkpt lat="45.13475" lon="4.63512">
        <ele>633.40002441406</ele>
        <time>2022-04-18T07:11:09Z</time>
      </trkpt>
      <trkpt lat="45.13418" lon="4.63456">
        <ele>630.20001220703</ele>
        <time>2022-04-18T07:11:18Z</time>
      </trkpt>
      <trkpt lat="45.13385" lon="4.63413">
        <ele>629</ele>
        <time>2022-04-18T07:11:24Z</time>
      </trkpt>
      <trkpt lat="45.13377" lon="4.63391">
        <ele>627.79998779297</ele>
        <time>2022-04-18T07:11:28Z</time>
      </trkpt>
      <trkpt lat="45.13357" lon="4.63316">
        <ele>627.59997558594</ele>
        <time>2022-04-18T07:11:45Z</time>
      </trkpt>
      <trkpt lat="45.13324" lon="4.63241">
        <ele>630.59997558594</ele>
        <time>2022-04-18T07:12:04Z</time>
      </trkpt>
      <trkpt lat="45.13298" lon="4.63206">
        <ele>632.79998779297</ele>
        <time>2022-04-18T07:12:16Z</time>
      </trkpt>
      <trkpt lat="45.13265" lon="4.63163">
        <ele>633.40002441406</ele>
        <time>2022-04-18T07:12:29Z</time>
      </trkpt>
      <trkpt lat="45.13241" lon="4.63114">
        <ele>636.40002441406</ele>
        <time>2022-04-18T07:12:44Z</time>
      </trkpt>
      <trkpt lat="45.1323" lon="4.63085">
        <ele>639</ele>
        <time>2022-04-18T07:12:56Z</time>
      </trkpt>
      <trkpt lat="45.1321" lon="4.63064">
        <ele>641.59997558594</ele>
        <time>2022-04-18T07:13:08Z</time>
      </trkpt>
      <trkpt lat="45.13207" lon="4.6306">
        <ele>641.79998779297</ele>
        <time>2022-04-18T07:13:10Z</time>
      </trkpt>
      <trkpt lat="45.13186" lon="4.63038">
        <ele>644.59997558594</ele>
        <time>2022-04-18T07:13:22Z</time>
      </trkpt>
      <trkpt lat="45.13174" lon="4.6303">
        <ele>645.79998779297</ele>
        <time>2022-04-18T07:13:27Z</time>
      </trkpt>
      <trkpt lat="45.1315" lon="4.63031">
        <ele>646.20001220703</ele>
        <time>2022-04-18T07:13:32Z</time>
      </trkpt>
      <trkpt lat="45.13119" lon="4.63031">
        <ele>644.20001220703</ele>
        <time>2022-04-18T07:13:38Z</time>
      </trkpt>
      <trkpt lat="45.13115" lon="4.6303">
        <ele>644</ele>
        <time>2022-04-18T07:13:39Z</time>
      </trkpt>
      <trkpt lat="45.1308" lon="4.62998">
        <ele>643.79998779297</ele>
        <time>2022-04-18T07:13:51Z</time>
      </trkpt>
      <trkpt lat="45.13045" lon="4.62955">
        <ele>645.40002441406</ele>
        <time>2022-04-18T07:14:06Z</time>
      </trkpt>
      <trkpt lat="45.13032" lon="4.6292">
        <ele>645.59997558594</ele>
        <time>2022-04-18T07:14:15Z</time>
      </trkpt>
      <trkpt lat="45.13013" lon="4.62873">
        <ele>646</ele>
        <time>2022-04-18T07:14:23Z</time>
      </trkpt>
      <trkpt lat="45.13009" lon="4.62817">
        <ele>644</ele>
        <time>2022-04-18T07:14:31Z</time>
      </trkpt>
      <trkpt lat="45.13004" lon="4.62805">
        <ele>643.59997558594</ele>
        <time>2022-04-18T07:14:33Z</time>
      </trkpt>
      <trkpt lat="45.12999" lon="4.62789">
        <ele>643.59997558594</ele>
        <time>2022-04-18T07:14:35Z</time>
      </trkpt>
      <trkpt lat="45.12986" lon="4.62759">
        <ele>643.20001220703</ele>
        <time>2022-04-18T07:14:39Z</time>
      </trkpt>
      <trkpt lat="45.12975" lon="4.62728">
        <ele>642.40002441406</ele>
        <time>2022-04-18T07:14:43Z</time>
      </trkpt>
      <trkpt lat="45.12971" lon="4.6271">
        <ele>641.20001220703</ele>
        <time>2022-04-18T07:14:45Z</time>
      </trkpt>
      <trkpt lat="45.12972" lon="4.62696">
        <ele>640.20001220703</ele>
        <time>2022-04-18T07:14:47Z</time>
      </trkpt>
      <trkpt lat="45.12979" lon="4.62663">
        <ele>637.20001220703</ele>
        <time>2022-04-18T07:14:52Z</time>
      </trkpt>
      <trkpt lat="45.12984" lon="4.62647">
        <ele>636</ele>
        <time>2022-04-18T07:14:55Z</time>
      </trkpt>
      <trkpt lat="45.12987" lon="4.62595">
        <ele>635.59997558594</ele>
        <time>2022-04-18T07:15:04Z</time>
      </trkpt>
      <trkpt lat="45.12988" lon="4.62578">
        <ele>634.59997558594</ele>
        <time>2022-04-18T07:15:07Z</time>
      </trkpt>
      <trkpt lat="45.12982" lon="4.62576">
        <ele>633.59997558594</ele>
        <time>2022-04-18T07:15:12Z</time>
      </trkpt>
      <trkpt lat="45.12975" lon="4.62586">
        <ele>633.40002441406</ele>
        <time>2022-04-18T07:15:18Z</time>
      </trkpt>
      <trkpt lat="45.12971" lon="4.62591">
        <ele>635</ele>
        <time>2022-04-18T07:15:23Z</time>
      </trkpt>
      <trkpt lat="45.12969" lon="4.62596">
        <ele>636</ele>
        <time>2022-04-18T07:15:25Z</time>
      </trkpt>
      <trkpt lat="45.12951" lon="4.62615">
        <ele>637</ele>
        <time>2022-04-18T07:15:29Z</time>
      </trkpt>
      <trkpt lat="45.12938" lon="4.62625">
        <ele>638</ele>
        <time>2022-04-18T07:15:34Z</time>
      </trkpt>
      <trkpt lat="45.12936" lon="4.62627">
        <ele>638.40002441406</ele>
        <time>2022-04-18T07:15:36Z</time>
      </trkpt>
      <trkpt lat="45.12928" lon="4.62635">
        <ele>639.40002441406</ele>
        <time>2022-04-18T07:15:40Z</time>
      </trkpt>
      <trkpt lat="45.12925" lon="4.62637">
        <ele>640</ele>
        <time>2022-04-18T07:15:42Z</time>
      </trkpt>
      <trkpt lat="45.12921" lon="4.62629">
        <ele>642.40002441406</ele>
        <time>2022-04-18T07:15:50Z</time>
      </trkpt>
      <trkpt lat="45.12925" lon="4.62619">
        <ele>643.59997558594</ele>
        <time>2022-04-18T07:15:55Z</time>
      </trkpt>
      <trkpt lat="45.12931" lon="4.62595">
        <ele>645.79998779297</ele>
        <time>2022-04-18T07:16:04Z</time>
      </trkpt>
      <trkpt lat="45.1293" lon="4.62588">
        <ele>647.59997558594</ele>
        <time>2022-04-18T07:16:11Z</time>
      </trkpt>
      <trkpt lat="45.12919" lon="4.62586">
        <ele>650.40002441406</ele>
        <time>2022-04-18T07:16:20Z</time>
      </trkpt>
      <trkpt lat="45.12905" lon="4.62585">
        <ele>653</ele>
        <time>2022-04-18T07:16:30Z</time>
      </trkpt>
      <trkpt lat="45.12901" lon="4.62585">
        <ele>655.20001220703</ele>
        <time>2022-04-18T07:16:40Z</time>
      </trkpt>
      <trkpt lat="45.129" lon="4.62585">
        <ele>657.40002441406</ele>
        <time>2022-04-18T07:16:52Z</time>
      </trkpt>
      <trkpt lat="45.12897" lon="4.62585">
        <ele>657.59997558594</ele>
        <time>2022-04-18T07:16:53Z</time>
      </trkpt>
      <trkpt lat="45.12886" lon="4.62585">
        <ele>659</ele>
        <time>2022-04-18T07:17:02Z</time>
      </trkpt>
      <trkpt lat="45.12877" lon="4.62587">
        <ele>660</ele>
        <time>2022-04-18T07:17:07Z</time>
      </trkpt>
      <trkpt lat="45.12871" lon="4.62589">
        <ele>662</ele>
        <time>2022-04-18T07:17:14Z</time>
      </trkpt>
      <trkpt lat="45.12857" lon="4.62588">
        <ele>662.79998779297</ele>
        <time>2022-04-18T07:17:18Z</time>
      </trkpt>
      <trkpt lat="45.12854" lon="4.62587">
        <ele>663.59997558594</ele>
        <time>2022-04-18T07:17:22Z</time>
      </trkpt>
      <trkpt lat="45.1284" lon="4.62591">
        <ele>664.40002441406</ele>
        <time>2022-04-18T07:17:26Z</time>
      </trkpt>
      <trkpt lat="45.12823" lon="4.62598">
        <ele>665.59997558594</ele>
        <time>2022-04-18T07:17:31Z</time>
      </trkpt>
      <trkpt lat="45.12819" lon="4.62597">
        <ele>667.40002441406</ele>
        <time>2022-04-18T07:17:38Z</time>
      </trkpt>
      <trkpt lat="45.12819" lon="4.62597">
        <ele>667.59997558594</ele>
        <time>2022-04-18T07:17:39Z</time>
      </trkpt>
      <trkpt lat="45.12814" lon="4.62598">
        <ele>669.20001220703</ele>
        <time>2022-04-18T07:17:48Z</time>
      </trkpt>
      <trkpt lat="45.12809" lon="4.62602">
        <ele>669.40002441406</ele>
        <time>2022-04-18T07:17:52Z</time>
      </trkpt>
      <trkpt lat="45.128" lon="4.62607">
        <ele>669.79998779297</ele>
        <time>2022-04-18T07:17:56Z</time>
      </trkpt>
      <trkpt lat="45.12796" lon="4.62608">
        <ele>670</ele>
        <time>2022-04-18T07:17:58Z</time>
      </trkpt>
      <trkpt lat="45.12784" lon="4.62616">
        <ele>670.79998779297</ele>
        <time>2022-04-18T07:18:05Z</time>
      </trkpt>
      <trkpt lat="45.12781" lon="4.62616">
        <ele>671.59997558594</ele>
        <time>2022-04-18T07:18:09Z</time>
      </trkpt>
      <trkpt lat="45.12769" lon="4.62625">
        <ele>672</ele>
        <time>2022-04-18T07:18:13Z</time>
      </trkpt>
      <trkpt lat="45.12764" lon="4.62633">
        <ele>672.20001220703</ele>
        <time>2022-04-18T07:18:14Z</time>
      </trkpt>
      <trkpt lat="45.12751" lon="4.62654">
        <ele>672.20001220703</ele>
        <time>2022-04-18T07:18:19Z</time>
      </trkpt>
      <trkpt lat="45.12747" lon="4.62674">
        <ele>672</ele>
        <time>2022-04-18T07:18:24Z</time>
      </trkpt>
      <trkpt lat="45.12744" lon="4.62681">
        <ele>672.40002441406</ele>
        <time>2022-04-18T07:18:27Z</time>
      </trkpt>
      <trkpt lat="45.12734" lon="4.62697">
        <ele>673.40002441406</ele>
        <time>2022-04-18T07:18:34Z</time>
      </trkpt>
      <trkpt lat="45.12733" lon="4.62701">
        <ele>673.59997558594</ele>
        <time>2022-04-18T07:18:36Z</time>
      </trkpt>
      <trkpt lat="45.12726" lon="4.62715">
        <ele>675.79998779297</ele>
        <time>2022-04-18T07:18:43Z</time>
      </trkpt>
      <trkpt lat="45.12724" lon="4.6272">
        <ele>677</ele>
        <time>2022-04-18T07:18:48Z</time>
      </trkpt>
      <trkpt lat="45.12718" lon="4.62734">
        <ele>678</ele>
        <time>2022-04-18T07:18:52Z</time>
      </trkpt>
      <trkpt lat="45.12717" lon="4.62737">
        <ele>679</ele>
        <time>2022-04-18T07:18:55Z</time>
      </trkpt>
      <trkpt lat="45.12709" lon="4.62747">
        <ele>680.79998779297</ele>
        <time>2022-04-18T07:19:01Z</time>
      </trkpt>
      <trkpt lat="45.12708" lon="4.62752">
        <ele>681.79998779297</ele>
        <time>2022-04-18T07:19:04Z</time>
      </trkpt>
      <trkpt lat="45.12708" lon="4.62753">
        <ele>682.79998779297</ele>
        <time>2022-04-18T07:19:08Z</time>
      </trkpt>
      <trkpt lat="45.12697" lon="4.62764">
        <ele>684.40002441406</ele>
        <time>2022-04-18T07:19:16Z</time>
      </trkpt>
      <trkpt lat="45.12692" lon="4.62768">
        <ele>685.20001220703</ele>
        <time>2022-04-18T07:19:19Z</time>
      </trkpt>
      <trkpt lat="45.12688" lon="4.62773">
        <ele>686.20001220703</ele>
        <time>2022-04-18T07:19:23Z</time>
      </trkpt>
      <trkpt lat="45.12685" lon="4.62776">
        <ele>686.59997558594</ele>
        <time>2022-04-18T07:19:25Z</time>
      </trkpt>
      <trkpt lat="45.1268" lon="4.62781">
        <ele>688.20001220703</ele>
        <time>2022-04-18T07:19:34Z</time>
      </trkpt>
      <trkpt lat="45.12679" lon="4.62782">
        <ele>689</ele>
        <time>2022-04-18T07:19:38Z</time>
      </trkpt>
      <trkpt lat="45.12671" lon="4.62796">
        <ele>690.20001220703</ele>
        <time>2022-04-18T07:19:44Z</time>
      </trkpt>
      <trkpt lat="45.12658" lon="4.62815">
        <ele>691.20001220703</ele>
        <time>2022-04-18T07:19:50Z</time>
      </trkpt>
      <trkpt lat="45.12653" lon="4.62832">
        <ele>692</ele>
        <time>2022-04-18T07:19:54Z</time>
      </trkpt>
      <trkpt lat="45.12653" lon="4.62835">
        <ele>692</ele>
        <time>2022-04-18T07:19:55Z</time>
      </trkpt>
      <trkpt lat="45.12649" lon="4.62847">
        <ele>692.79998779297</ele>
        <time>2022-04-18T07:19:59Z</time>
      </trkpt>
      <trkpt lat="45.12644" lon="4.62853">
        <ele>693</ele>
        <time>2022-04-18T07:20:03Z</time>
      </trkpt>
      <trkpt lat="45.12637" lon="4.62875">
        <ele>693.79998779297</ele>
        <time>2022-04-18T07:20:09Z</time>
      </trkpt>
      <trkpt lat="45.12621" lon="4.62898">
        <ele>694.59997558594</ele>
        <time>2022-04-18T07:20:21Z</time>
      </trkpt>
      <trkpt lat="45.1258" lon="4.62916">
        <ele>695.79998779297</ele>
        <time>2022-04-18T07:20:38Z</time>
      </trkpt>
      <trkpt lat="45.12562" lon="4.62902">
        <ele>698</ele>
        <time>2022-04-18T07:20:50Z</time>
      </trkpt>
      <trkpt lat="45.12545" lon="4.62864">
        <ele>701.20001220703</ele>
        <time>2022-04-18T07:21:05Z</time>
      </trkpt>
      <trkpt lat="45.1252" lon="4.62825">
        <ele>703.40002441406</ele>
        <time>2022-04-18T07:21:18Z</time>
      </trkpt>
      <trkpt lat="45.12497" lon="4.62786">
        <ele>703.20001220703</ele>
        <time>2022-04-18T07:21:29Z</time>
      </trkpt>
      <trkpt lat="45.12469" lon="4.62767">
        <ele>703.79998779297</ele>
        <time>2022-04-18T07:21:37Z</time>
      </trkpt>
      <trkpt lat="45.12456" lon="4.62763">
        <ele>703.79998779297</ele>
        <time>2022-04-18T07:21:40Z</time>
      </trkpt>
      <trkpt lat="45.12412" lon="4.6275">
        <ele>703</ele>
        <time>2022-04-18T07:21:47Z</time>
      </trkpt>
      <trkpt lat="45.1239" lon="4.6276">
        <ele>702</ele>
        <time>2022-04-18T07:21:53Z</time>
      </trkpt>
      <trkpt lat="45.12391" lon="4.62764">
        <ele>701.59997558594</ele>
        <time>2022-04-18T07:21:54Z</time>
      </trkpt>
      <trkpt lat="45.12398" lon="4.62787">
        <ele>702.59997558594</ele>
        <time>2022-04-18T07:22:00Z</time>
      </trkpt>
      <trkpt lat="45.12396" lon="4.62791">
        <ele>702.79998779297</ele>
        <time>2022-04-18T07:22:02Z</time>
      </trkpt>
      <trkpt lat="45.12391" lon="4.62783">
        <ele>704</ele>
        <time>2022-04-18T07:22:08Z</time>
      </trkpt>
      <trkpt lat="45.12385" lon="4.62777">
        <ele>705.40002441406</ele>
        <time>2022-04-18T07:22:13Z</time>
      </trkpt>
      <trkpt lat="45.12381" lon="4.62775">
        <ele>706.20001220703</ele>
        <time>2022-04-18T07:22:16Z</time>
      </trkpt>
      <trkpt lat="45.1238" lon="4.62774">
        <ele>706.40002441406</ele>
        <time>2022-04-18T07:22:17Z</time>
      </trkpt>
      <trkpt lat="45.12375" lon="4.62775">
        <ele>707.59997558594</ele>
        <time>2022-04-18T07:22:21Z</time>
      </trkpt>
      <trkpt lat="45.1237" lon="4.62781">
        <ele>708</ele>
        <time>2022-04-18T07:22:25Z</time>
      </trkpt>
      <trkpt lat="45.12361" lon="4.62797">
        <ele>709.59997558594</ele>
        <time>2022-04-18T07:22:31Z</time>
      </trkpt>
      <trkpt lat="45.12341" lon="4.62809">
        <ele>710</ele>
        <time>2022-04-18T07:22:36Z</time>
      </trkpt>
      <trkpt lat="45.12333" lon="4.62825">
        <ele>710.20001220703</ele>
        <time>2022-04-18T07:22:44Z</time>
      </trkpt>
      <trkpt lat="45.12313" lon="4.62855">
        <ele>711</ele>
        <time>2022-04-18T07:22:55Z</time>
      </trkpt>
      <trkpt lat="45.12284" lon="4.62869">
        <ele>712</ele>
        <time>2022-04-18T07:23:06Z</time>
      </trkpt>
      <trkpt lat="45.1226" lon="4.62868">
        <ele>713</ele>
        <time>2022-04-18T07:23:14Z</time>
      </trkpt>
      <trkpt lat="45.12241" lon="4.62867">
        <ele>713.40002441406</ele>
        <time>2022-04-18T07:23:19Z</time>
      </trkpt>
      <trkpt lat="45.1223" lon="4.62862">
        <ele>713.59997558594</ele>
        <time>2022-04-18T07:23:23Z</time>
      </trkpt>
      <trkpt lat="45.12218" lon="4.62856">
        <ele>714</ele>
        <time>2022-04-18T07:23:28Z</time>
      </trkpt>
      <trkpt lat="45.12215" lon="4.62854">
        <ele>714.20001220703</ele>
        <time>2022-04-18T07:23:29Z</time>
      </trkpt>
      <trkpt lat="45.12198" lon="4.62857">
        <ele>715</ele>
        <time>2022-04-18T07:23:34Z</time>
      </trkpt>
      <trkpt lat="45.12184" lon="4.62854">
        <ele>716.59997558594</ele>
        <time>2022-04-18T07:23:41Z</time>
      </trkpt>
      <trkpt lat="45.12182" lon="4.62854">
        <ele>716.59997558594</ele>
        <time>2022-04-18T07:23:42Z</time>
      </trkpt>
      <trkpt lat="45.12167" lon="4.62851">
        <ele>718.79998779297</ele>
        <time>2022-04-18T07:23:49Z</time>
      </trkpt>
      <trkpt lat="45.12162" lon="4.62845">
        <ele>719.59997558594</ele>
        <time>2022-04-18T07:23:54Z</time>
      </trkpt>
      <trkpt lat="45.12158" lon="4.62842">
        <ele>720</ele>
        <time>2022-04-18T07:23:59Z</time>
      </trkpt>
      <trkpt lat="45.12149" lon="4.62841">
        <ele>721.79998779297</ele>
        <time>2022-04-18T07:24:05Z</time>
      </trkpt>
      <trkpt lat="45.12141" lon="4.62837">
        <ele>723.40002441406</ele>
        <time>2022-04-18T07:24:10Z</time>
      </trkpt>
      <trkpt lat="45.12137" lon="4.62837">
        <ele>724</ele>
        <time>2022-04-18T07:24:14Z</time>
      </trkpt>
      <trkpt lat="45.12133" lon="4.62835">
        <ele>725.40002441406</ele>
        <time>2022-04-18T07:24:19Z</time>
      </trkpt>
      <trkpt lat="45.1213" lon="4.62834">
        <ele>726.59997558594</ele>
        <time>2022-04-18T07:24:24Z</time>
      </trkpt>
      <trkpt lat="45.1213" lon="4.62834">
        <ele>727</ele>
        <time>2022-04-18T07:24:25Z</time>
      </trkpt>
      <trkpt lat="45.12116" lon="4.62838">
        <ele>727.40002441406</ele>
        <time>2022-04-18T07:24:30Z</time>
      </trkpt>
      <trkpt lat="45.12113" lon="4.62838">
        <ele>727.40002441406</ele>
        <time>2022-04-18T07:24:31Z</time>
      </trkpt>
      <trkpt lat="45.12109" lon="4.62844">
        <ele>727.59997558594</ele>
        <time>2022-04-18T07:24:33Z</time>
      </trkpt>
      <trkpt lat="45.12113" lon="4.62879">
        <ele>727</ele>
        <time>2022-04-18T07:24:38Z</time>
      </trkpt>
      <trkpt lat="45.12116" lon="4.6292">
        <ele>726</ele>
        <time>2022-04-18T07:24:43Z</time>
      </trkpt>
      <trkpt lat="45.12122" lon="4.6296">
        <ele>725.20001220703</ele>
        <time>2022-04-18T07:24:49Z</time>
      </trkpt>
      <trkpt lat="45.12123" lon="4.6299">
        <ele>724.79998779297</ele>
        <time>2022-04-18T07:24:55Z</time>
      </trkpt>
      <trkpt lat="45.12123" lon="4.62999">
        <ele>725</ele>
        <time>2022-04-18T07:24:58Z</time>
      </trkpt>
      <trkpt lat="45.12121" lon="4.63004">
        <ele>725.40002441406</ele>
        <time>2022-04-18T07:24:59Z</time>
      </trkpt>
      <trkpt lat="45.12115" lon="4.63027">
        <ele>726.20001220703</ele>
        <time>2022-04-18T07:25:04Z</time>
      </trkpt>
      <trkpt lat="45.12114" lon="4.63031">
        <ele>726.20001220703</ele>
        <time>2022-04-18T07:25:05Z</time>
      </trkpt>
      <trkpt lat="45.12107" lon="4.63066">
        <ele>726.59997558594</ele>
        <time>2022-04-18T07:25:12Z</time>
      </trkpt>
      <trkpt lat="45.12097" lon="4.63094">
        <ele>727</ele>
        <time>2022-04-18T07:25:18Z</time>
      </trkpt>
      <trkpt lat="45.12091" lon="4.63106">
        <ele>727.20001220703</ele>
        <time>2022-04-18T07:25:21Z</time>
      </trkpt>
      <trkpt lat="45.12088" lon="4.63111">
        <ele>727.40002441406</ele>
        <time>2022-04-18T07:25:25Z</time>
      </trkpt>
      <trkpt lat="45.12082" lon="4.6312">
        <ele>727.40002441406</ele>
        <time>2022-04-18T07:25:29Z</time>
      </trkpt>
      <trkpt lat="45.1207" lon="4.63143">
        <ele>727.40002441406</ele>
        <time>2022-04-18T07:25:33Z</time>
      </trkpt>
      <trkpt lat="45.12049" lon="4.63211">
        <ele>726.40002441406</ele>
        <time>2022-04-18T07:25:43Z</time>
      </trkpt>
      <trkpt lat="45.12041" lon="4.63233">
        <ele>726.59997558594</ele>
        <time>2022-04-18T07:26:00Z</time>
      </trkpt>
      <trkpt lat="45.12039" lon="4.63237">
        <ele>726</ele>
        <time>2022-04-18T07:29:32Z</time>
      </trkpt>
      <trkpt lat="45.12026" lon="4.63269">
        <ele>726</ele>
        <time>2022-04-18T07:30:14Z</time>
      </trkpt>
      <trkpt lat="45.11993" lon="4.63323">
        <ele>725.59997558594</ele>
        <time>2022-04-18T07:30:23Z</time>
      </trkpt>
      <trkpt lat="45.1197" lon="4.6337">
        <ele>724.40002441406</ele>
        <time>2022-04-18T07:30:29Z</time>
      </trkpt>
      <trkpt lat="45.11964" lon="4.63377">
        <ele>724</ele>
        <time>2022-04-18T07:30:30Z</time>
      </trkpt>
      <trkpt lat="45.11932" lon="4.63384">
        <ele>721</ele>
        <time>2022-04-18T07:30:35Z</time>
      </trkpt>
      <trkpt lat="45.11926" lon="4.63384">
        <ele>720.59997558594</ele>
        <time>2022-04-18T07:30:36Z</time>
      </trkpt>
      <trkpt lat="45.11907" lon="4.63397">
        <ele>717.59997558594</ele>
        <time>2022-04-18T07:30:39Z</time>
      </trkpt>
      <trkpt lat="45.11901" lon="4.63404">
        <ele>717.20001220703</ele>
        <time>2022-04-18T07:30:40Z</time>
      </trkpt>
      <trkpt lat="45.11867" lon="4.6344">
        <ele>715</ele>
        <time>2022-04-18T07:30:45Z</time>
      </trkpt>
      <trkpt lat="45.11843" lon="4.63458">
        <ele>711.40002441406</ele>
        <time>2022-04-18T07:30:48Z</time>
      </trkpt>
      <trkpt lat="45.11802" lon="4.63487">
        <ele>707.79998779297</ele>
        <time>2022-04-18T07:30:53Z</time>
      </trkpt>
      <trkpt lat="45.11777" lon="4.63506">
        <ele>704</ele>
        <time>2022-04-18T07:30:56Z</time>
      </trkpt>
      <trkpt lat="45.11744" lon="4.63514">
        <ele>700.40002441406</ele>
        <time>2022-04-18T07:31:00Z</time>
      </trkpt>
      <trkpt lat="45.11715" lon="4.63502">
        <ele>697</ele>
        <time>2022-04-18T07:31:04Z</time>
      </trkpt>
      <trkpt lat="45.11703" lon="4.63493">
        <ele>694.59997558594</ele>
        <time>2022-04-18T07:31:06Z</time>
      </trkpt>
      <trkpt lat="45.11688" lon="4.63461">
        <ele>691.40002441406</ele>
        <time>2022-04-18T07:31:10Z</time>
      </trkpt>
      <trkpt lat="45.11687" lon="4.6345">
        <ele>691</ele>
        <time>2022-04-18T07:31:11Z</time>
      </trkpt>
      <trkpt lat="45.11686" lon="4.63441">
        <ele>690</ele>
        <time>2022-04-18T07:31:12Z</time>
      </trkpt>
      <trkpt lat="45.11681" lon="4.63417">
        <ele>689</ele>
        <time>2022-04-18T07:31:14Z</time>
      </trkpt>
      <trkpt lat="45.11653" lon="4.63376">
        <ele>686.79998779297</ele>
        <time>2022-04-18T07:31:21Z</time>
      </trkpt>
      <trkpt lat="45.11638" lon="4.6338">
        <ele>686</ele>
        <time>2022-04-18T07:31:23Z</time>
      </trkpt>
      <trkpt lat="45.11548" lon="4.63392">
        <ele>683.40002441406</ele>
        <time>2022-04-18T07:31:33Z</time>
      </trkpt>
      <trkpt lat="45.11529" lon="4.63393">
        <ele>681.79998779297</ele>
        <time>2022-04-18T07:31:36Z</time>
      </trkpt>
      <trkpt lat="45.11513" lon="4.63398">
        <ele>678.59997558594</ele>
        <time>2022-04-18T07:31:40Z</time>
      </trkpt>
      <trkpt lat="45.11495" lon="4.63403">
        <ele>679</ele>
        <time>2022-04-18T07:31:50Z</time>
      </trkpt>
      <trkpt lat="45.11474" lon="4.63403">
        <ele>681.79998779297</ele>
        <time>2022-04-18T07:32:03Z</time>
      </trkpt>
      <trkpt lat="45.11452" lon="4.634">
        <ele>684.79998779297</ele>
        <time>2022-04-18T07:32:16Z</time>
      </trkpt>
      <trkpt lat="45.11436" lon="4.63396">
        <ele>688.20001220703</ele>
        <time>2022-04-18T07:32:25Z</time>
      </trkpt>
      <trkpt lat="45.1142" lon="4.63393">
        <ele>691.20001220703</ele>
        <time>2022-04-18T07:32:35Z</time>
      </trkpt>
      <trkpt lat="45.11403" lon="4.63403">
        <ele>694.20001220703</ele>
        <time>2022-04-18T07:32:47Z</time>
      </trkpt>
      <trkpt lat="45.11388" lon="4.63407">
        <ele>697.20001220703</ele>
        <time>2022-04-18T07:33:00Z</time>
      </trkpt>
      <trkpt lat="45.1138" lon="4.63408">
        <ele>698.20001220703</ele>
        <time>2022-04-18T07:33:07Z</time>
      </trkpt>
      <trkpt lat="45.11372" lon="4.63405">
        <ele>699.59997558594</ele>
        <time>2022-04-18T07:33:13Z</time>
      </trkpt>
      <trkpt lat="45.11365" lon="4.63395">
        <ele>701</ele>
        <time>2022-04-18T07:33:20Z</time>
      </trkpt>
      <trkpt lat="45.11362" lon="4.63384">
        <ele>701.79998779297</ele>
        <time>2022-04-18T07:33:25Z</time>
      </trkpt>
      <trkpt lat="45.11357" lon="4.63379">
        <ele>702.59997558594</ele>
        <time>2022-04-18T07:33:29Z</time>
      </trkpt>
      <trkpt lat="45.11348" lon="4.63376">
        <ele>703.40002441406</ele>
        <time>2022-04-18T07:33:32Z</time>
      </trkpt>
      <trkpt lat="45.11341" lon="4.63364">
        <ele>704.40002441406</ele>
        <time>2022-04-18T07:33:37Z</time>
      </trkpt>
      <trkpt lat="45.11333" lon="4.63352">
        <ele>705.20001220703</ele>
        <time>2022-04-18T07:33:42Z</time>
      </trkpt>
      <trkpt lat="45.11331" lon="4.63347">
        <ele>705.59997558594</ele>
        <time>2022-04-18T07:33:44Z</time>
      </trkpt>
      <trkpt lat="45.11314" lon="4.63336">
        <ele>706.59997558594</ele>
        <time>2022-04-18T07:33:51Z</time>
      </trkpt>
      <trkpt lat="45.11292" lon="4.6332">
        <ele>708</ele>
        <time>2022-04-18T07:34:04Z</time>
      </trkpt>
      <trkpt lat="45.11272" lon="4.63314">
        <ele>710.40002441406</ele>
        <time>2022-04-18T07:34:16Z</time>
      </trkpt>
      <trkpt lat="45.11251" lon="4.63329">
        <ele>713.40002441406</ele>
        <time>2022-04-18T07:34:30Z</time>
      </trkpt>
      <trkpt lat="45.11246" lon="4.63354">
        <ele>715</ele>
        <time>2022-04-18T07:34:42Z</time>
      </trkpt>
      <trkpt lat="45.11246" lon="4.63355">
        <ele>715</ele>
        <time>2022-04-18T07:34:43Z</time>
      </trkpt>
      <trkpt lat="45.11253" lon="4.63362">
        <ele>716.40002441406</ele>
        <time>2022-04-18T07:34:48Z</time>
      </trkpt>
      <trkpt lat="45.11268" lon="4.63382">
        <ele>719.59997558594</ele>
        <time>2022-04-18T07:35:00Z</time>
      </trkpt>
      <trkpt lat="45.11279" lon="4.63409">
        <ele>722.20001220703</ele>
        <time>2022-04-18T07:35:14Z</time>
      </trkpt>
      <trkpt lat="45.11293" lon="4.63447">
        <ele>724.79998779297</ele>
        <time>2022-04-18T07:35:31Z</time>
      </trkpt>
      <trkpt lat="45.11302" lon="4.63473">
        <ele>727.20001220703</ele>
        <time>2022-04-18T07:35:45Z</time>
      </trkpt>
      <trkpt lat="45.11307" lon="4.6349">
        <ele>730.20001220703</ele>
        <time>2022-04-18T07:35:55Z</time>
      </trkpt>
      <trkpt lat="45.11309" lon="4.63494">
        <ele>731</ele>
        <time>2022-04-18T07:35:58Z</time>
      </trkpt>
      <trkpt lat="45.11313" lon="4.635">
        <ele>731.79998779297</ele>
        <time>2022-04-18T07:36:03Z</time>
      </trkpt>
      <trkpt lat="45.11318" lon="4.63518">
        <ele>734.79998779297</ele>
        <time>2022-04-18T07:36:14Z</time>
      </trkpt>
      <trkpt lat="45.11327" lon="4.63542">
        <ele>737.20001220703</ele>
        <time>2022-04-18T07:36:25Z</time>
      </trkpt>
      <trkpt lat="45.11328" lon="4.63543">
        <ele>737.59997558594</ele>
        <time>2022-04-18T07:36:26Z</time>
      </trkpt>
      <trkpt lat="45.11332" lon="4.63559">
        <ele>739.20001220703</ele>
        <time>2022-04-18T07:36:35Z</time>
      </trkpt>
      <trkpt lat="45.11337" lon="4.63585">
        <ele>742.40002441406</ele>
        <time>2022-04-18T07:36:49Z</time>
      </trkpt>
      <trkpt lat="45.11337" lon="4.63601">
        <ele>743.40002441406</ele>
        <time>2022-04-18T07:36:56Z</time>
      </trkpt>
      <trkpt lat="45.11337" lon="4.63622">
        <ele>745</ele>
        <time>2022-04-18T07:37:05Z</time>
      </trkpt>
      <trkpt lat="45.11335" lon="4.63629">
        <ele>746</ele>
        <time>2022-04-18T07:37:10Z</time>
      </trkpt>
      <trkpt lat="45.11333" lon="4.63642">
        <ele>747.79998779297</ele>
        <time>2022-04-18T07:37:18Z</time>
      </trkpt>
      <trkpt lat="45.11332" lon="4.63656">
        <ele>749.59997558594</ele>
        <time>2022-04-18T07:37:27Z</time>
      </trkpt>
      <trkpt lat="45.11334" lon="4.63679">
        <ele>752.40002441406</ele>
        <time>2022-04-18T07:37:40Z</time>
      </trkpt>
      <trkpt lat="45.11332" lon="4.63687">
        <ele>753.59997558594</ele>
        <time>2022-04-18T07:37:46Z</time>
      </trkpt>
      <trkpt lat="45.11332" lon="4.63697">
        <ele>754.59997558594</ele>
        <time>2022-04-18T07:37:50Z</time>
      </trkpt>
      <trkpt lat="45.11339" lon="4.6372">
        <ele>756</ele>
        <time>2022-04-18T07:37:59Z</time>
      </trkpt>
      <trkpt lat="45.11341" lon="4.63722">
        <ele>756</ele>
        <time>2022-04-18T07:38:00Z</time>
      </trkpt>
      <trkpt lat="45.11341" lon="4.63726">
        <ele>756.40002441406</ele>
        <time>2022-04-18T07:38:03Z</time>
      </trkpt>
      <trkpt lat="45.11344" lon="4.63746">
        <ele>757.40002441406</ele>
        <time>2022-04-18T07:38:10Z</time>
      </trkpt>
      <trkpt lat="45.11345" lon="4.63751">
        <ele>757.79998779297</ele>
        <time>2022-04-18T07:38:12Z</time>
      </trkpt>
      <trkpt lat="45.11346" lon="4.63768">
        <ele>758.20001220703</ele>
        <time>2022-04-18T07:38:17Z</time>
      </trkpt>
      <trkpt lat="45.11358" lon="4.63791">
        <ele>758.59997558594</ele>
        <time>2022-04-18T07:38:24Z</time>
      </trkpt>
      <trkpt lat="45.11366" lon="4.6381">
        <ele>758.59997558594</ele>
        <time>2022-04-18T07:38:29Z</time>
      </trkpt>
      <trkpt lat="45.11369" lon="4.63834">
        <ele>758.79998779297</ele>
        <time>2022-04-18T07:38:35Z</time>
      </trkpt>
      <trkpt lat="45.11389" lon="4.63887">
        <ele>761.20001220703</ele>
        <time>2022-04-18T07:38:54Z</time>
      </trkpt>
      <trkpt lat="45.1139" lon="4.6389">
        <ele>761.40002441406</ele>
        <time>2022-04-18T07:38:55Z</time>
      </trkpt>
      <trkpt lat="45.11392" lon="4.63932">
        <ele>763.59997558594</ele>
        <time>2022-04-18T07:39:07Z</time>
      </trkpt>
      <trkpt lat="45.11386" lon="4.63957">
        <ele>763.59997558594</ele>
        <time>2022-04-18T07:39:11Z</time>
      </trkpt>
      <trkpt lat="45.11373" lon="4.63987">
        <ele>763</ele>
        <time>2022-04-18T07:39:15Z</time>
      </trkpt>
      <trkpt lat="45.11366" lon="4.63998">
        <ele>762.20001220703</ele>
        <time>2022-04-18T07:39:17Z</time>
      </trkpt>
      <trkpt lat="45.11334" lon="4.64044">
        <ele>760.40002441406</ele>
        <time>2022-04-18T07:39:23Z</time>
      </trkpt>
      <trkpt lat="45.1131" lon="4.64088">
        <ele>757</ele>
        <time>2022-04-18T07:39:28Z</time>
      </trkpt>
      <trkpt lat="45.11303" lon="4.64114">
        <ele>755.59997558594</ele>
        <time>2022-04-18T07:39:31Z</time>
      </trkpt>
      <trkpt lat="45.113" lon="4.64126">
        <ele>755.40002441406</ele>
        <time>2022-04-18T07:39:33Z</time>
      </trkpt>
      <trkpt lat="45.11297" lon="4.64162">
        <ele>755.59997558594</ele>
        <time>2022-04-18T07:39:39Z</time>
      </trkpt>
      <trkpt lat="45.11296" lon="4.64177">
        <ele>756.20001220703</ele>
        <time>2022-04-18T07:39:42Z</time>
      </trkpt>
      <trkpt lat="45.11306" lon="4.64233">
        <ele>759</ele>
        <time>2022-04-18T07:39:55Z</time>
      </trkpt>
      <trkpt lat="45.11329" lon="4.64272">
        <ele>758.79998779297</ele>
        <time>2022-04-18T07:40:04Z</time>
      </trkpt>
      <trkpt lat="45.11364" lon="4.64295">
        <ele>758.20001220703</ele>
        <time>2022-04-18T07:40:14Z</time>
      </trkpt>
      <trkpt lat="45.11367" lon="4.64298">
        <ele>758.20001220703</ele>
        <time>2022-04-18T07:40:16Z</time>
      </trkpt>
      <trkpt lat="45.11379" lon="4.64305">
        <ele>759.59997558594</ele>
        <time>2022-04-18T07:40:25Z</time>
      </trkpt>
      <trkpt lat="45.1138" lon="4.64307">
        <ele>760.20001220703</ele>
        <time>2022-04-18T07:40:26Z</time>
      </trkpt>
      <trkpt lat="45.11386" lon="4.64318">
        <ele>762.40002441406</ele>
        <time>2022-04-18T07:40:31Z</time>
      </trkpt>
      <trkpt lat="45.11388" lon="4.6432">
        <ele>762.79998779297</ele>
        <time>2022-04-18T07:40:32Z</time>
      </trkpt>
      <trkpt lat="45.11396" lon="4.64338">
        <ele>764.40002441406</ele>
        <time>2022-04-18T07:40:38Z</time>
      </trkpt>
      <trkpt lat="45.11396" lon="4.64342">
        <ele>764.79998779297</ele>
        <time>2022-04-18T07:40:40Z</time>
      </trkpt>
      <trkpt lat="45.11397" lon="4.64345">
        <ele>765</ele>
        <time>2022-04-18T07:40:41Z</time>
      </trkpt>
      <trkpt lat="45.11399" lon="4.64371">
        <ele>767.20001220703</ele>
        <time>2022-04-18T07:40:52Z</time>
      </trkpt>
      <trkpt lat="45.11401" lon="4.64382">
        <ele>767.79998779297</ele>
        <time>2022-04-18T07:40:57Z</time>
      </trkpt>
      <trkpt lat="45.11401" lon="4.64386">
        <ele>768.20001220703</ele>
        <time>2022-04-18T07:40:59Z</time>
      </trkpt>
      <trkpt lat="45.11405" lon="4.64401">
        <ele>769.79998779297</ele>
        <time>2022-04-18T07:41:07Z</time>
      </trkpt>
      <trkpt lat="45.1141" lon="4.64408">
        <ele>771</ele>
        <time>2022-04-18T07:41:12Z</time>
      </trkpt>
      <trkpt lat="45.11421" lon="4.64411">
        <ele>772.59997558594</ele>
        <time>2022-04-18T07:41:19Z</time>
      </trkpt>
      <trkpt lat="45.11442" lon="4.64417">
        <ele>775</ele>
        <time>2022-04-18T07:41:33Z</time>
      </trkpt>
      <trkpt lat="45.11454" lon="4.64446">
        <ele>777.59997558594</ele>
        <time>2022-04-18T07:41:48Z</time>
      </trkpt>
      <trkpt lat="45.11449" lon="4.64473">
        <ele>779.40002441406</ele>
        <time>2022-04-18T07:42:00Z</time>
      </trkpt>
      <trkpt lat="45.11439" lon="4.64497">
        <ele>780.79998779297</ele>
        <time>2022-04-18T07:42:11Z</time>
      </trkpt>
      <trkpt lat="45.11424" lon="4.6452">
        <ele>782</ele>
        <time>2022-04-18T07:42:22Z</time>
      </trkpt>
      <trkpt lat="45.11394" lon="4.64547">
        <ele>784.20001220703</ele>
        <time>2022-04-18T07:42:39Z</time>
      </trkpt>
      <trkpt lat="45.11379" lon="4.64561">
        <ele>784.20001220703</ele>
        <time>2022-04-18T07:42:43Z</time>
      </trkpt>
      <trkpt lat="45.11362" lon="4.6458">
        <ele>783</ele>
        <time>2022-04-18T07:42:48Z</time>
      </trkpt>
      <trkpt lat="45.11358" lon="4.64578">
        <ele>781.79998779297</ele>
        <time>2022-04-18T07:42:50Z</time>
      </trkpt>
      <trkpt lat="45.11356" lon="4.64571">
        <ele>781.20001220703</ele>
        <time>2022-04-18T07:42:53Z</time>
      </trkpt>
      <trkpt lat="45.11361" lon="4.64529">
        <ele>782.40002441406</ele>
        <time>2022-04-18T07:43:11Z</time>
      </trkpt>
      <trkpt lat="45.11361" lon="4.64523">
        <ele>783.40002441406</ele>
        <time>2022-04-18T07:43:44Z</time>
      </trkpt>
      <trkpt lat="45.11361" lon="4.6452">
        <ele>783.40002441406</ele>
        <time>2022-04-18T07:44:01Z</time>
      </trkpt>
      <trkpt lat="45.1136" lon="4.64515">
        <ele>783.20001220703</ele>
        <time>2022-04-18T07:45:16Z</time>
      </trkpt>
      <trkpt lat="45.11359" lon="4.64516">
        <ele>783.20001220703</ele>
        <time>2022-04-18T07:46:30Z</time>
      </trkpt>
      <trkpt lat="45.1136" lon="4.64514">
        <ele>783.79998779297</ele>
        <time>2022-04-18T07:47:50Z</time>
      </trkpt>
      <trkpt lat="45.1136" lon="4.64515">
        <ele>785.20001220703</ele>
        <time>2022-04-18T07:49:34Z</time>
      </trkpt>
      <trkpt lat="45.1136" lon="4.64515">
        <ele>782.79998779297</ele>
        <time>2022-04-18T07:50:50Z</time>
      </trkpt>
      <trkpt lat="45.11359" lon="4.6452">
        <ele>783.59997558594</ele>
        <time>2022-04-18T07:53:13Z</time>
      </trkpt>
      <trkpt lat="45.11359" lon="4.6452">
        <ele>783.79998779297</ele>
        <time>2022-04-18T07:53:54Z</time>
      </trkpt>
      <trkpt lat="45.11351" lon="4.64577">
        <ele>783.79998779297</ele>
        <time>2022-04-18T07:54:07Z</time>
      </trkpt>
      <trkpt lat="45.11337" lon="4.64612">
        <ele>783.20001220703</ele>
        <time>2022-04-18T07:54:12Z</time>
      </trkpt>
      <trkpt lat="45.11334" lon="4.64619">
        <ele>782.79998779297</ele>
        <time>2022-04-18T07:54:13Z</time>
      </trkpt>
      <trkpt lat="45.1133" lon="4.64638">
        <ele>782</ele>
        <time>2022-04-18T07:54:16Z</time>
      </trkpt>
      <trkpt lat="45.11327" lon="4.64663">
        <ele>781</ele>
        <time>2022-04-18T07:54:20Z</time>
      </trkpt>
      <trkpt lat="45.11326" lon="4.6467">
        <ele>780.79998779297</ele>
        <time>2022-04-18T07:54:21Z</time>
      </trkpt>
      <trkpt lat="45.11333" lon="4.64712">
        <ele>779.79998779297</ele>
        <time>2022-04-18T07:54:27Z</time>
      </trkpt>
      <trkpt lat="45.11384" lon="4.64839">
        <ele>778.59997558594</ele>
        <time>2022-04-18T07:54:46Z</time>
      </trkpt>
      <trkpt lat="45.11387" lon="4.64851">
        <ele>778.20001220703</ele>
        <time>2022-04-18T07:54:48Z</time>
      </trkpt>
      <trkpt lat="45.11398" lon="4.649">
        <ele>780.40002441406</ele>
        <time>2022-04-18T07:55:00Z</time>
      </trkpt>
      <trkpt lat="45.11399" lon="4.64947">
        <ele>782.20001220703</ele>
        <time>2022-04-18T07:55:10Z</time>
      </trkpt>
      <trkpt lat="45.11398" lon="4.6496">
        <ele>782.20001220703</ele>
        <time>2022-04-18T07:55:12Z</time>
      </trkpt>
      <trkpt lat="45.11396" lon="4.64978">
        <ele>782.40002441406</ele>
        <time>2022-04-18T07:55:15Z</time>
      </trkpt>
      <trkpt lat="45.11396" lon="4.64988">
        <ele>782.40002441406</ele>
        <time>2022-04-18T07:55:17Z</time>
      </trkpt>
      <trkpt lat="45.11381" lon="4.65054">
        <ele>781.79998779297</ele>
        <time>2022-04-18T07:55:28Z</time>
      </trkpt>
      <trkpt lat="45.11364" lon="4.65101">
        <ele>782.20001220703</ele>
        <time>2022-04-18T07:55:37Z</time>
      </trkpt>
      <trkpt lat="45.11347" lon="4.65149">
        <ele>781.79998779297</ele>
        <time>2022-04-18T07:55:45Z</time>
      </trkpt>
      <trkpt lat="45.11313" lon="4.65215">
        <ele>781.40002441406</ele>
        <time>2022-04-18T07:55:58Z</time>
      </trkpt>
      <trkpt lat="45.1129" lon="4.65245">
        <ele>782</ele>
        <time>2022-04-18T07:56:07Z</time>
      </trkpt>
      <trkpt lat="45.11276" lon="4.65257">
        <ele>782.59997558594</ele>
        <time>2022-04-18T07:56:12Z</time>
      </trkpt>
      <trkpt lat="45.11271" lon="4.65301">
        <ele>782.40002441406</ele>
        <time>2022-04-18T07:56:22Z</time>
      </trkpt>
      <trkpt lat="45.11251" lon="4.65341">
        <ele>782.40002441406</ele>
        <time>2022-04-18T07:56:31Z</time>
      </trkpt>
      <trkpt lat="45.1125" lon="4.65346">
        <ele>782.59997558594</ele>
        <time>2022-04-18T07:56:33Z</time>
      </trkpt>
      <trkpt lat="45.11242" lon="4.65356">
        <ele>782.79998779297</ele>
        <time>2022-04-18T07:56:36Z</time>
      </trkpt>
      <trkpt lat="45.1121" lon="4.654">
        <ele>783.20001220703</ele>
        <time>2022-04-18T07:56:47Z</time>
      </trkpt>
      <trkpt lat="45.11152" lon="4.6549">
        <ele>782</ele>
        <time>2022-04-18T07:57:01Z</time>
      </trkpt>
      <trkpt lat="45.11144" lon="4.65504">
        <ele>781.79998779297</ele>
        <time>2022-04-18T07:57:03Z</time>
      </trkpt>
      <trkpt lat="45.11127" lon="4.65545">
        <ele>781.59997558594</ele>
        <time>2022-04-18T07:57:08Z</time>
      </trkpt>
      <trkpt lat="45.11083" lon="4.6563">
        <ele>781</ele>
        <time>2022-04-18T07:57:21Z</time>
      </trkpt>
      <trkpt lat="45.11078" lon="4.6565">
        <ele>781.59997558594</ele>
        <time>2022-04-18T07:57:24Z</time>
      </trkpt>
      <trkpt lat="45.11072" lon="4.65668">
        <ele>782</ele>
        <time>2022-04-18T07:57:27Z</time>
      </trkpt>
      <trkpt lat="45.11068" lon="4.6568">
        <ele>782.59997558594</ele>
        <time>2022-04-18T07:57:29Z</time>
      </trkpt>
      <trkpt lat="45.11057" lon="4.65718">
        <ele>783.40002441406</ele>
        <time>2022-04-18T07:57:35Z</time>
      </trkpt>
      <trkpt lat="45.11056" lon="4.65724">
        <ele>783.40002441406</ele>
        <time>2022-04-18T07:57:36Z</time>
      </trkpt>
      <trkpt lat="45.11048" lon="4.6577">
        <ele>783.79998779297</ele>
        <time>2022-04-18T07:57:42Z</time>
      </trkpt>
      <trkpt lat="45.11035" lon="4.65818">
        <ele>783.79998779297</ele>
        <time>2022-04-18T07:57:47Z</time>
      </trkpt>
      <trkpt lat="45.11016" lon="4.65868">
        <ele>782</ele>
        <time>2022-04-18T07:57:53Z</time>
      </trkpt>
      <trkpt lat="45.10996" lon="4.65934">
        <ele>780</ele>
        <time>2022-04-18T07:58:02Z</time>
      </trkpt>
      <trkpt lat="45.10995" lon="4.65941">
        <ele>779.79998779297</ele>
        <time>2022-04-18T07:58:03Z</time>
      </trkpt>
      <trkpt lat="45.10973" lon="4.66008">
        <ele>779.79998779297</ele>
        <time>2022-04-18T07:58:12Z</time>
      </trkpt>
      <trkpt lat="45.10966" lon="4.66023">
        <ele>779.59997558594</ele>
        <time>2022-04-18T07:58:18Z</time>
      </trkpt>
      <trkpt lat="45.10992" lon="4.65992">
        <ele>779.79998779297</ele>
        <time>2022-04-18T07:58:29Z</time>
      </trkpt>
      <trkpt lat="45.10996" lon="4.65982">
        <ele>780</ele>
        <time>2022-04-18T07:58:31Z</time>
      </trkpt>
      <trkpt lat="45.1102" lon="4.65958">
        <ele>781</ele>
        <time>2022-04-18T07:58:40Z</time>
      </trkpt>
      <trkpt lat="45.11048" lon="4.6595">
        <ele>783.20001220703</ele>
        <time>2022-04-18T07:58:51Z</time>
      </trkpt>
      <trkpt lat="45.11072" lon="4.65959">
        <ele>786</ele>
        <time>2022-04-18T07:59:02Z</time>
      </trkpt>
      <trkpt lat="45.11087" lon="4.65971">
        <ele>788.20001220703</ele>
        <time>2022-04-18T07:59:11Z</time>
      </trkpt>
      <trkpt lat="45.11133" lon="4.65986">
        <ele>789</ele>
        <time>2022-04-18T07:59:24Z</time>
      </trkpt>
      <trkpt lat="45.11149" lon="4.6599">
        <ele>788.79998779297</ele>
        <time>2022-04-18T07:59:27Z</time>
      </trkpt>
      <trkpt lat="45.11167" lon="4.65989">
        <ele>788.59997558594</ele>
        <time>2022-04-18T07:59:30Z</time>
      </trkpt>
      <trkpt lat="45.11192" lon="4.6598">
        <ele>786.79998779297</ele>
        <time>2022-04-18T07:59:34Z</time>
      </trkpt>
      <trkpt lat="45.11198" lon="4.65979">
        <ele>786.59997558594</ele>
        <time>2022-04-18T07:59:35Z</time>
      </trkpt>
      <trkpt lat="45.11221" lon="4.65974">
        <ele>785.20001220703</ele>
        <time>2022-04-18T07:59:40Z</time>
      </trkpt>
      <trkpt lat="45.11241" lon="4.65957">
        <ele>785</ele>
        <time>2022-04-18T07:59:45Z</time>
      </trkpt>
      <trkpt lat="45.11253" lon="4.65938">
        <ele>784.79998779297</ele>
        <time>2022-04-18T07:59:48Z</time>
      </trkpt>
      <trkpt lat="45.11297" lon="4.65904">
        <ele>783.40002441406</ele>
        <time>2022-04-18T07:59:56Z</time>
      </trkpt>
      <trkpt lat="45.11313" lon="4.65904">
        <ele>782.59997558594</ele>
        <time>2022-04-18T07:59:59Z</time>
      </trkpt>
      <trkpt lat="45.11336" lon="4.65916">
        <ele>783.79998779297</ele>
        <time>2022-04-18T08:00:06Z</time>
      </trkpt>
      <trkpt lat="45.11346" lon="4.65924">
        <ele>784.59997558594</ele>
        <time>2022-04-18T08:00:10Z</time>
      </trkpt>
      <trkpt lat="45.1137" lon="4.65953">
        <ele>786.40002441406</ele>
        <time>2022-04-18T08:00:19Z</time>
      </trkpt>
      <trkpt lat="45.11398" lon="4.65977">
        <ele>787.40002441406</ele>
        <time>2022-04-18T08:00:29Z</time>
      </trkpt>
      <trkpt lat="45.11433" lon="4.65982">
        <ele>787.79998779297</ele>
        <time>2022-04-18T08:00:37Z</time>
      </trkpt>
      <trkpt lat="45.11452" lon="4.65979">
        <ele>787.79998779297</ele>
        <time>2022-04-18T08:00:41Z</time>
      </trkpt>
      <trkpt lat="45.11487" lon="4.66003">
        <ele>787</ele>
        <time>2022-04-18T08:00:53Z</time>
      </trkpt>
      <trkpt lat="45.11497" lon="4.66058">
        <ele>784.59997558594</ele>
        <time>2022-04-18T08:00:59Z</time>
      </trkpt>
      <trkpt lat="45.115" lon="4.66075">
        <ele>783.59997558594</ele>
        <time>2022-04-18T08:01:01Z</time>
      </trkpt>
      <trkpt lat="45.11514" lon="4.66099">
        <ele>781.59997558594</ele>
        <time>2022-04-18T08:01:05Z</time>
      </trkpt>
      <trkpt lat="45.1152" lon="4.66107">
        <ele>781.20001220703</ele>
        <time>2022-04-18T08:01:07Z</time>
      </trkpt>
      <trkpt lat="45.1153" lon="4.66128">
        <ele>781.20001220703</ele>
        <time>2022-04-18T08:01:12Z</time>
      </trkpt>
      <trkpt lat="45.1155" lon="4.66178">
        <ele>779.79998779297</ele>
        <time>2022-04-18T08:01:19Z</time>
      </trkpt>
      <trkpt lat="45.1157" lon="4.662">
        <ele>778.40002441406</ele>
        <time>2022-04-18T08:01:23Z</time>
      </trkpt>
      <trkpt lat="45.11586" lon="4.6621">
        <ele>775.59997558594</ele>
        <time>2022-04-18T08:01:27Z</time>
      </trkpt>
      <trkpt lat="45.11588" lon="4.66212">
        <ele>775.40002441406</ele>
        <time>2022-04-18T08:01:28Z</time>
      </trkpt>
      <trkpt lat="45.11607" lon="4.66246">
        <ele>775.20001220703</ele>
        <time>2022-04-18T08:01:35Z</time>
      </trkpt>
      <trkpt lat="45.11625" lon="4.66286">
        <ele>774.59997558594</ele>
        <time>2022-04-18T08:01:40Z</time>
      </trkpt>
      <trkpt lat="45.11635" lon="4.6632">
        <ele>772.59997558594</ele>
        <time>2022-04-18T08:01:43Z</time>
      </trkpt>
      <trkpt lat="45.11652" lon="4.66402">
        <ele>767.59997558594</ele>
        <time>2022-04-18T08:01:49Z</time>
      </trkpt>
      <trkpt lat="45.11655" lon="4.66417">
        <ele>767</ele>
        <time>2022-04-18T08:01:50Z</time>
      </trkpt>
      <trkpt lat="45.11657" lon="4.66424">
        <ele>766.79998779297</ele>
        <time>2022-04-18T08:01:51Z</time>
      </trkpt>
      <trkpt lat="45.11666" lon="4.66449">
        <ele>766.20001220703</ele>
        <time>2022-04-18T08:01:54Z</time>
      </trkpt>
      <trkpt lat="45.11684" lon="4.66478">
        <ele>766.59997558594</ele>
        <time>2022-04-18T08:01:59Z</time>
      </trkpt>
      <trkpt lat="45.11695" lon="4.66492">
        <ele>766.59997558594</ele>
        <time>2022-04-18T08:02:02Z</time>
      </trkpt>
      <trkpt lat="45.11731" lon="4.66557">
        <ele>765.40002441406</ele>
        <time>2022-04-18T08:02:11Z</time>
      </trkpt>
      <trkpt lat="45.11737" lon="4.66589">
        <ele>765.40002441406</ele>
        <time>2022-04-18T08:02:20Z</time>
      </trkpt>
      <trkpt lat="45.11748" lon="4.66627">
        <ele>768.20001220703</ele>
        <time>2022-04-18T08:02:30Z</time>
      </trkpt>
      <trkpt lat="45.11754" lon="4.6665">
        <ele>769.20001220703</ele>
        <time>2022-04-18T08:02:34Z</time>
      </trkpt>
      <trkpt lat="45.11771" lon="4.66689">
        <ele>770.79998779297</ele>
        <time>2022-04-18T08:02:43Z</time>
      </trkpt>
      <trkpt lat="45.11778" lon="4.66703">
        <ele>770.79998779297</ele>
        <time>2022-04-18T08:02:45Z</time>
      </trkpt>
      <trkpt lat="45.11785" lon="4.66712">
        <ele>770.79998779297</ele>
        <time>2022-04-18T08:02:46Z</time>
      </trkpt>
      <trkpt lat="45.11803" lon="4.66741">
        <ele>770</ele>
        <time>2022-04-18T08:02:49Z</time>
      </trkpt>
      <trkpt lat="45.11813" lon="4.6676">
        <ele>769.20001220703</ele>
        <time>2022-04-18T08:02:51Z</time>
      </trkpt>
      <trkpt lat="45.11834" lon="4.66808">
        <ele>766</ele>
        <time>2022-04-18T08:02:56Z</time>
      </trkpt>
      <trkpt lat="45.11853" lon="4.66834">
        <ele>763</ele>
        <time>2022-04-18T08:03:01Z</time>
      </trkpt>
      <trkpt lat="45.11856" lon="4.66837">
        <ele>760.59997558594</ele>
        <time>2022-04-18T08:03:05Z</time>
      </trkpt>
      <trkpt lat="45.11857" lon="4.66838">
        <ele>759.40002441406</ele>
        <time>2022-04-18T08:03:11Z</time>
      </trkpt>
      <trkpt lat="45.11872" lon="4.66861">
        <ele>759.40002441406</ele>
        <time>2022-04-18T08:03:20Z</time>
      </trkpt>
      <trkpt lat="45.11889" lon="4.66904">
        <ele>759.79998779297</ele>
        <time>2022-04-18T08:03:28Z</time>
      </trkpt>
      <trkpt lat="45.11905" lon="4.66934">
        <ele>758.79998779297</ele>
        <time>2022-04-18T08:03:31Z</time>
      </trkpt>
      <trkpt lat="45.11912" lon="4.66956">
        <ele>755</ele>
        <time>2022-04-18T08:03:34Z</time>
      </trkpt>
      <trkpt lat="45.11919" lon="4.66987">
        <ele>751.59997558594</ele>
        <time>2022-04-18T08:03:37Z</time>
      </trkpt>
      <trkpt lat="45.11932" lon="4.67022">
        <ele>748.20001220703</ele>
        <time>2022-04-18T08:03:40Z</time>
      </trkpt>
      <trkpt lat="45.11933" lon="4.67029">
        <ele>747.20001220703</ele>
        <time>2022-04-18T08:03:41Z</time>
      </trkpt>
      <trkpt lat="45.1194" lon="4.67061">
        <ele>744.20001220703</ele>
        <time>2022-04-18T08:03:45Z</time>
      </trkpt>
      <trkpt lat="45.1194" lon="4.67086">
        <ele>743.79998779297</ele>
        <time>2022-04-18T08:03:51Z</time>
      </trkpt>
      <trkpt lat="45.11948" lon="4.67104">
        <ele>745.79998779297</ele>
        <time>2022-04-18T08:03:58Z</time>
      </trkpt>
      <trkpt lat="45.11949" lon="4.67108">
        <ele>746.40002441406</ele>
        <time>2022-04-18T08:04:00Z</time>
      </trkpt>
      <trkpt lat="45.11949" lon="4.67131">
        <ele>749.40002441406</ele>
        <time>2022-04-18T08:04:10Z</time>
      </trkpt>
      <trkpt lat="45.11951" lon="4.67156">
        <ele>752.20001220703</ele>
        <time>2022-04-18T08:04:19Z</time>
      </trkpt>
      <trkpt lat="45.11951" lon="4.67186">
        <ele>753.59997558594</ele>
        <time>2022-04-18T08:04:26Z</time>
      </trkpt>
      <trkpt lat="45.11957" lon="4.6722">
        <ele>754.59997558594</ele>
        <time>2022-04-18T08:04:34Z</time>
      </trkpt>
      <trkpt lat="45.1197" lon="4.67254">
        <ele>754.79998779297</ele>
        <time>2022-04-18T08:04:40Z</time>
      </trkpt>
      <trkpt lat="45.11976" lon="4.67281">
        <ele>754.79998779297</ele>
        <time>2022-04-18T08:04:44Z</time>
      </trkpt>
      <trkpt lat="45.11977" lon="4.67303">
        <ele>754.20001220703</ele>
        <time>2022-04-18T08:04:48Z</time>
      </trkpt>
      <trkpt lat="45.11981" lon="4.67333">
        <ele>755.20001220703</ele>
        <time>2022-04-18T08:04:56Z</time>
      </trkpt>
      <trkpt lat="45.1198" lon="4.67335">
        <ele>755.59997558594</ele>
        <time>2022-04-18T08:04:57Z</time>
      </trkpt>
      <trkpt lat="45.11978" lon="4.67345">
        <ele>756.20001220703</ele>
        <time>2022-04-18T08:05:01Z</time>
      </trkpt>
      <trkpt lat="45.11999" lon="4.67399">
        <ele>755.79998779297</ele>
        <time>2022-04-18T08:05:10Z</time>
      </trkpt>
      <trkpt lat="45.12003" lon="4.67416">
        <ele>755.20001220703</ele>
        <time>2022-04-18T08:05:12Z</time>
      </trkpt>
      <trkpt lat="45.12014" lon="4.67443">
        <ele>754.40002441406</ele>
        <time>2022-04-18T08:05:15Z</time>
      </trkpt>
      <trkpt lat="45.1204" lon="4.67484">
        <ele>751.79998779297</ele>
        <time>2022-04-18T08:05:20Z</time>
      </trkpt>
      <trkpt lat="45.1206" lon="4.67515">
        <ele>747.59997558594</ele>
        <time>2022-04-18T08:05:24Z</time>
      </trkpt>
      <trkpt lat="45.12078" lon="4.67544">
        <ele>743.59997558594</ele>
        <time>2022-04-18T08:05:27Z</time>
      </trkpt>
      <trkpt lat="45.12095" lon="4.67573">
        <ele>740.20001220703</ele>
        <time>2022-04-18T08:05:30Z</time>
      </trkpt>
      <trkpt lat="45.12102" lon="4.67594">
        <ele>736.40002441406</ele>
        <time>2022-04-18T08:05:32Z</time>
      </trkpt>
      <trkpt lat="45.1211" lon="4.67612">
        <ele>734</ele>
        <time>2022-04-18T08:05:34Z</time>
      </trkpt>
      <trkpt lat="45.12121" lon="4.67649">
        <ele>730.40002441406</ele>
        <time>2022-04-18T08:05:38Z</time>
      </trkpt>
      <trkpt lat="45.12126" lon="4.67676">
        <ele>726.20001220703</ele>
        <time>2022-04-18T08:05:41Z</time>
      </trkpt>
      <trkpt lat="45.12126" lon="4.67686">
        <ele>725.40002441406</ele>
        <time>2022-04-18T08:05:42Z</time>
      </trkpt>
      <trkpt lat="45.12127" lon="4.67703">
        <ele>723.59997558594</ele>
        <time>2022-04-18T08:05:44Z</time>
      </trkpt>
      <trkpt lat="45.1214" lon="4.67723">
        <ele>719.79998779297</ele>
        <time>2022-04-18T08:05:47Z</time>
      </trkpt>
      <trkpt lat="45.12146" lon="4.67725">
        <ele>718.40002441406</ele>
        <time>2022-04-18T08:05:48Z</time>
      </trkpt>
      <trkpt lat="45.1215" lon="4.67728">
        <ele>718</ele>
        <time>2022-04-18T08:05:49Z</time>
      </trkpt>
      <trkpt lat="45.12161" lon="4.67728">
        <ele>716.59997558594</ele>
        <time>2022-04-18T08:05:51Z</time>
      </trkpt>
      <trkpt lat="45.12173" lon="4.67724">
        <ele>713.79998779297</ele>
        <time>2022-04-18T08:05:53Z</time>
      </trkpt>
      <trkpt lat="45.122" lon="4.67713">
        <ele>710.59997558594</ele>
        <time>2022-04-18T08:05:57Z</time>
      </trkpt>
      <trkpt lat="45.12209" lon="4.67709">
        <ele>710</ele>
        <time>2022-04-18T08:05:58Z</time>
      </trkpt>
      <trkpt lat="45.12247" lon="4.67705">
        <ele>706.59997558594</ele>
        <time>2022-04-18T08:06:03Z</time>
      </trkpt>
      <trkpt lat="45.12248" lon="4.67706">
        <ele>703.40002441406</ele>
        <time>2022-04-18T08:06:06Z</time>
      </trkpt>
      <trkpt lat="45.12247" lon="4.67706">
        <ele>703.20001220703</ele>
        <time>2022-04-18T08:06:07Z</time>
      </trkpt>
      <trkpt lat="45.12246" lon="4.67706">
        <ele>702.79998779297</ele>
        <time>2022-04-18T08:06:08Z</time>
      </trkpt>
      <trkpt lat="45.12263" lon="4.67693">
        <ele>701</ele>
        <time>2022-04-18T08:06:18Z</time>
      </trkpt>
      <trkpt lat="45.12267" lon="4.67693">
        <ele>700.79998779297</ele>
        <time>2022-04-18T08:06:19Z</time>
      </trkpt>
      <trkpt lat="45.12283" lon="4.67682">
        <ele>699.40002441406</ele>
        <time>2022-04-18T08:06:23Z</time>
      </trkpt>
      <trkpt lat="45.12289" lon="4.6765">
        <ele>697.20001220703</ele>
        <time>2022-04-18T08:06:28Z</time>
      </trkpt>
      <trkpt lat="45.12289" lon="4.67642">
        <ele>696.59997558594</ele>
        <time>2022-04-18T08:06:29Z</time>
      </trkpt>
      <trkpt lat="45.12298" lon="4.67616">
        <ele>694.79998779297</ele>
        <time>2022-04-18T08:06:33Z</time>
      </trkpt>
      <trkpt lat="45.12302" lon="4.6761">
        <ele>694</ele>
        <time>2022-04-18T08:06:34Z</time>
      </trkpt>
      <trkpt lat="45.12319" lon="4.67578">
        <ele>691.59997558594</ele>
        <time>2022-04-18T08:06:39Z</time>
      </trkpt>
      <trkpt lat="45.12334" lon="4.67538">
        <ele>688.40002441406</ele>
        <time>2022-04-18T08:06:44Z</time>
      </trkpt>
      <trkpt lat="45.12346" lon="4.67527">
        <ele>685.40002441406</ele>
        <time>2022-04-18T08:06:49Z</time>
      </trkpt>
      <trkpt lat="45.12347" lon="4.67525">
        <ele>685.20001220703</ele>
        <time>2022-04-18T08:06:50Z</time>
      </trkpt>
      <trkpt lat="45.12354" lon="4.67518">
        <ele>685</ele>
        <time>2022-04-18T08:06:54Z</time>
      </trkpt>
      <trkpt lat="45.12362" lon="4.67516">
        <ele>685.20001220703</ele>
        <time>2022-04-18T08:06:59Z</time>
      </trkpt>
      <trkpt lat="45.12365" lon="4.67516">
        <ele>685.40002441406</ele>
        <time>2022-04-18T08:07:01Z</time>
      </trkpt>
      <trkpt lat="45.12367" lon="4.67519">
        <ele>685.79998779297</ele>
        <time>2022-04-18T08:07:17Z</time>
      </trkpt>
      <trkpt lat="45.12367" lon="4.67519">
        <ele>685.40002441406</ele>
        <time>2022-04-18T08:08:05Z</time>
      </trkpt>
      <trkpt lat="45.12391" lon="4.67533">
        <ele>686</ele>
        <time>2022-04-18T08:08:15Z</time>
      </trkpt>
      <trkpt lat="45.12423" lon="4.67561">
        <ele>685.79998779297</ele>
        <time>2022-04-18T08:08:23Z</time>
      </trkpt>
      <trkpt lat="45.12458" lon="4.67641">
        <ele>682.40002441406</ele>
        <time>2022-04-18T08:08:32Z</time>
      </trkpt>
      <trkpt lat="45.12467" lon="4.67704">
        <ele>679.40002441406</ele>
        <time>2022-04-18T08:08:37Z</time>
      </trkpt>
      <trkpt lat="45.12469" lon="4.67729">
        <ele>678</ele>
        <time>2022-04-18T08:08:39Z</time>
      </trkpt>
      <trkpt lat="45.12465" lon="4.67762">
        <ele>676.59997558594</ele>
        <time>2022-04-18T08:08:42Z</time>
      </trkpt>
      <trkpt lat="45.12464" lon="4.67779">
        <ele>675.59997558594</ele>
        <time>2022-04-18T08:08:44Z</time>
      </trkpt>
      <trkpt lat="45.12469" lon="4.67818">
        <ele>672.20001220703</ele>
        <time>2022-04-18T08:08:48Z</time>
      </trkpt>
      <trkpt lat="45.12478" lon="4.67858">
        <ele>669.40002441406</ele>
        <time>2022-04-18T08:08:52Z</time>
      </trkpt>
      <trkpt lat="45.12488" lon="4.67877">
        <ele>667.40002441406</ele>
        <time>2022-04-18T08:08:55Z</time>
      </trkpt>
      <trkpt lat="45.12517" lon="4.67904">
        <ele>666.59997558594</ele>
        <time>2022-04-18T08:09:00Z</time>
      </trkpt>
      <trkpt lat="45.12528" lon="4.67913">
        <ele>666.59997558594</ele>
        <time>2022-04-18T08:09:02Z</time>
      </trkpt>
      <trkpt lat="45.12569" lon="4.67935">
        <ele>666.20001220703</ele>
        <time>2022-04-18T08:09:08Z</time>
      </trkpt>
      <trkpt lat="45.12575" lon="4.6794">
        <ele>666</ele>
        <time>2022-04-18T08:09:09Z</time>
      </trkpt>
      <trkpt lat="45.1264" lon="4.67982">
        <ele>664.79998779297</ele>
        <time>2022-04-18T08:09:18Z</time>
      </trkpt>
      <trkpt lat="45.12672" lon="4.68034">
        <ele>662.40002441406</ele>
        <time>2022-04-18T08:09:25Z</time>
      </trkpt>
      <trkpt lat="45.12705" lon="4.68059">
        <ele>662.59997558594</ele>
        <time>2022-04-18T08:09:32Z</time>
      </trkpt>
      <trkpt lat="45.12718" lon="4.68079">
        <ele>662.40002441406</ele>
        <time>2022-04-18T08:09:35Z</time>
      </trkpt>
      <trkpt lat="45.1274" lon="4.68119">
        <ele>659.40002441406</ele>
        <time>2022-04-18T08:09:40Z</time>
      </trkpt>
      <trkpt lat="45.12761" lon="4.68131">
        <ele>656.20001220703</ele>
        <time>2022-04-18T08:09:44Z</time>
      </trkpt>
      <trkpt lat="45.12772" lon="4.68159">
        <ele>653.20001220703</ele>
        <time>2022-04-18T08:09:49Z</time>
      </trkpt>
      <trkpt lat="45.12776" lon="4.68186">
        <ele>650.79998779297</ele>
        <time>2022-04-18T08:09:52Z</time>
      </trkpt>
      <trkpt lat="45.12779" lon="4.68204">
        <ele>649.59997558594</ele>
        <time>2022-04-18T08:09:54Z</time>
      </trkpt>
      <trkpt lat="45.12786" lon="4.68218">
        <ele>648.40002441406</ele>
        <time>2022-04-18T08:09:56Z</time>
      </trkpt>
      <trkpt lat="45.12812" lon="4.68231">
        <ele>646.59997558594</ele>
        <time>2022-04-18T08:10:01Z</time>
      </trkpt>
      <trkpt lat="45.12815" lon="4.68233">
        <ele>645.59997558594</ele>
        <time>2022-04-18T08:10:02Z</time>
      </trkpt>
      <trkpt lat="45.12828" lon="4.68238">
        <ele>642.40002441406</ele>
        <time>2022-04-18T08:10:06Z</time>
      </trkpt>
      <trkpt lat="45.12836" lon="4.68237">
        <ele>641.40002441406</ele>
        <time>2022-04-18T08:10:08Z</time>
      </trkpt>
      <trkpt lat="45.1284" lon="4.6824">
        <ele>640.20001220703</ele>
        <time>2022-04-18T08:10:10Z</time>
      </trkpt>
      <trkpt lat="45.12857" lon="4.68246">
        <ele>636.79998779297</ele>
        <time>2022-04-18T08:10:16Z</time>
      </trkpt>
      <trkpt lat="45.12895" lon="4.68232">
        <ele>634.79998779297</ele>
        <time>2022-04-18T08:10:24Z</time>
      </trkpt>
      <trkpt lat="45.12934" lon="4.6823">
        <ele>631.59997558594</ele>
        <time>2022-04-18T08:10:30Z</time>
      </trkpt>
      <trkpt lat="45.12946" lon="4.68235">
        <ele>630</ele>
        <time>2022-04-18T08:10:32Z</time>
      </trkpt>
      <trkpt lat="45.12976" lon="4.68251">
        <ele>626.79998779297</ele>
        <time>2022-04-18T08:10:35Z</time>
      </trkpt>
      <trkpt lat="45.13" lon="4.68255">
        <ele>624.40002441406</ele>
        <time>2022-04-18T08:10:39Z</time>
      </trkpt>
      <trkpt lat="45.13022" lon="4.6825">
        <ele>622</ele>
        <time>2022-04-18T08:10:43Z</time>
      </trkpt>
      <trkpt lat="45.13028" lon="4.68248">
        <ele>621.59997558594</ele>
        <time>2022-04-18T08:10:44Z</time>
      </trkpt>
      <trkpt lat="45.13046" lon="4.68237">
        <ele>621</ele>
        <time>2022-04-18T08:10:47Z</time>
      </trkpt>
      <trkpt lat="45.13084" lon="4.68231">
        <ele>617.20001220703</ele>
        <time>2022-04-18T08:10:51Z</time>
      </trkpt>
      <trkpt lat="45.13103" lon="4.6824">
        <ele>614.20001220703</ele>
        <time>2022-04-18T08:10:55Z</time>
      </trkpt>
      <trkpt lat="45.1311" lon="4.68241">
        <ele>613</ele>
        <time>2022-04-18T08:10:57Z</time>
      </trkpt>
      <trkpt lat="45.13119" lon="4.68236">
        <ele>612</ele>
        <time>2022-04-18T08:10:59Z</time>
      </trkpt>
      <trkpt lat="45.1314" lon="4.68238">
        <ele>610.20001220703</ele>
        <time>2022-04-18T08:11:04Z</time>
      </trkpt>
      <trkpt lat="45.13174" lon="4.68257">
        <ele>608</ele>
        <time>2022-04-18T08:11:10Z</time>
      </trkpt>
      <trkpt lat="45.13202" lon="4.6827">
        <ele>606.79998779297</ele>
        <time>2022-04-18T08:11:14Z</time>
      </trkpt>
      <trkpt lat="45.13206" lon="4.68275">
        <ele>606.59997558594</ele>
        <time>2022-04-18T08:11:15Z</time>
      </trkpt>
      <trkpt lat="45.13226" lon="4.68324">
        <ele>604.59997558594</ele>
        <time>2022-04-18T08:11:22Z</time>
      </trkpt>
      <trkpt lat="45.13238" lon="4.68331">
        <ele>603.20001220703</ele>
        <time>2022-04-18T08:11:24Z</time>
      </trkpt>
      <trkpt lat="45.13245" lon="4.68334">
        <ele>601.79998779297</ele>
        <time>2022-04-18T08:11:25Z</time>
      </trkpt>
      <trkpt lat="45.1327" lon="4.6834">
        <ele>598.40002441406</ele>
        <time>2022-04-18T08:11:28Z</time>
      </trkpt>
      <trkpt lat="45.13282" lon="4.68343">
        <ele>596.20001220703</ele>
        <time>2022-04-18T08:11:30Z</time>
      </trkpt>
      <trkpt lat="45.13305" lon="4.68353">
        <ele>592.20001220703</ele>
        <time>2022-04-18T08:11:33Z</time>
      </trkpt>
      <trkpt lat="45.13319" lon="4.68358">
        <ele>589.40002441406</ele>
        <time>2022-04-18T08:11:36Z</time>
      </trkpt>
      <trkpt lat="45.13342" lon="4.68369">
        <ele>585.59997558594</ele>
        <time>2022-04-18T08:11:39Z</time>
      </trkpt>
      <trkpt lat="45.13365" lon="4.68366">
        <ele>582</ele>
        <time>2022-04-18T08:11:42Z</time>
      </trkpt>
      <trkpt lat="45.13384" lon="4.68366">
        <ele>579.40002441406</ele>
        <time>2022-04-18T08:11:44Z</time>
      </trkpt>
      <trkpt lat="45.13428" lon="4.68372">
        <ele>575.40002441406</ele>
        <time>2022-04-18T08:11:48Z</time>
      </trkpt>
      <trkpt lat="45.13443" lon="4.68376">
        <ele>572</ele>
        <time>2022-04-18T08:11:50Z</time>
      </trkpt>
      <trkpt lat="45.13446" lon="4.68378">
        <ele>570</ele>
        <time>2022-04-18T08:11:51Z</time>
      </trkpt>
      <trkpt lat="45.13453" lon="4.68381">
        <ele>567.79998779297</ele>
        <time>2022-04-18T08:11:53Z</time>
      </trkpt>
      <trkpt lat="45.13474" lon="4.68408">
        <ele>565.40002441406</ele>
        <time>2022-04-18T08:11:59Z</time>
      </trkpt>
      <trkpt lat="45.13514" lon="4.68463">
        <ele>563.59997558594</ele>
        <time>2022-04-18T08:12:08Z</time>
      </trkpt>
      <trkpt lat="45.13523" lon="4.68481">
        <ele>561</ele>
        <time>2022-04-18T08:12:10Z</time>
      </trkpt>
      <trkpt lat="45.13551" lon="4.68513">
        <ele>558.40002441406</ele>
        <time>2022-04-18T08:12:15Z</time>
      </trkpt>
      <trkpt lat="45.13604" lon="4.68548">
        <ele>557</ele>
        <time>2022-04-18T08:12:24Z</time>
      </trkpt>
      <trkpt lat="45.13652" lon="4.68578">
        <ele>558</ele>
        <time>2022-04-18T08:12:34Z</time>
      </trkpt>
      <trkpt lat="45.1368" lon="4.68595">
        <ele>557.40002441406</ele>
        <time>2022-04-18T08:12:39Z</time>
      </trkpt>
      <trkpt lat="45.13715" lon="4.68614">
        <ele>554.20001220703</ele>
        <time>2022-04-18T08:12:44Z</time>
      </trkpt>
      <trkpt lat="45.13742" lon="4.68629">
        <ele>551.20001220703</ele>
        <time>2022-04-18T08:12:48Z</time>
      </trkpt>
      <trkpt lat="45.13759" lon="4.68642">
        <ele>550.40002441406</ele>
        <time>2022-04-18T08:12:51Z</time>
      </trkpt>
      <trkpt lat="45.13786" lon="4.68676">
        <ele>549.59997558594</ele>
        <time>2022-04-18T08:12:57Z</time>
      </trkpt>
      <trkpt lat="45.1379" lon="4.68686">
        <ele>549.40002441406</ele>
        <time>2022-04-18T08:12:58Z</time>
      </trkpt>
      <trkpt lat="45.13822" lon="4.68734">
        <ele>548</ele>
        <time>2022-04-18T08:13:05Z</time>
      </trkpt>
      <trkpt lat="45.13841" lon="4.68756">
        <ele>547.40002441406</ele>
        <time>2022-04-18T08:13:09Z</time>
      </trkpt>
      <trkpt lat="45.13868" lon="4.68816">
        <ele>548</ele>
        <time>2022-04-18T08:13:19Z</time>
      </trkpt>
      <trkpt lat="45.13897" lon="4.68882">
        <ele>550.40002441406</ele>
        <time>2022-04-18T08:13:34Z</time>
      </trkpt>
      <trkpt lat="45.13918" lon="4.68925">
        <ele>551.79998779297</ele>
        <time>2022-04-18T08:13:44Z</time>
      </trkpt>
      <trkpt lat="45.13922" lon="4.68936">
        <ele>551.79998779297</ele>
        <time>2022-04-18T08:13:46Z</time>
      </trkpt>
      <trkpt lat="45.13941" lon="4.68974">
        <ele>551.59997558594</ele>
        <time>2022-04-18T08:13:53Z</time>
      </trkpt>
      <trkpt lat="45.13966" lon="4.69029">
        <ele>549.20001220703</ele>
        <time>2022-04-18T08:14:03Z</time>
      </trkpt>
      <trkpt lat="45.13969" lon="4.69038">
        <ele>549</ele>
        <time>2022-04-18T08:14:04Z</time>
      </trkpt>
      <trkpt lat="45.13996" lon="4.69119">
        <ele>545</ele>
        <time>2022-04-18T08:14:12Z</time>
      </trkpt>
      <trkpt lat="45.1402" lon="4.69145">
        <ele>543.20001220703</ele>
        <time>2022-04-18T08:14:18Z</time>
      </trkpt>
      <trkpt lat="45.14022" lon="4.69149">
        <ele>542.40002441406</ele>
        <time>2022-04-18T08:14:19Z</time>
      </trkpt>
      <trkpt lat="45.14034" lon="4.69179">
        <ele>540.40002441406</ele>
        <time>2022-04-18T08:14:25Z</time>
      </trkpt>
      <trkpt lat="45.14045" lon="4.69204">
        <ele>539.40002441406</ele>
        <time>2022-04-18T08:14:29Z</time>
      </trkpt>
      <trkpt lat="45.1407" lon="4.69254">
        <ele>537.20001220703</ele>
        <time>2022-04-18T08:14:37Z</time>
      </trkpt>
      <trkpt lat="45.14088" lon="4.69316">
        <ele>534.79998779297</ele>
        <time>2022-04-18T08:14:44Z</time>
      </trkpt>
      <trkpt lat="45.14096" lon="4.69344">
        <ele>531.40002441406</ele>
        <time>2022-04-18T08:14:47Z</time>
      </trkpt>
      <trkpt lat="45.14106" lon="4.69387">
        <ele>528.79998779297</ele>
        <time>2022-04-18T08:14:52Z</time>
      </trkpt>
      <trkpt lat="45.14118" lon="4.69444">
        <ele>528</ele>
        <time>2022-04-18T08:15:01Z</time>
      </trkpt>
      <trkpt lat="45.14142" lon="4.69529">
        <ele>527</ele>
        <time>2022-04-18T08:15:11Z</time>
      </trkpt>
      <trkpt lat="45.14158" lon="4.69603">
        <ele>524</ele>
        <time>2022-04-18T08:15:18Z</time>
      </trkpt>
      <trkpt lat="45.14178" lon="4.69664">
        <ele>521.79998779297</ele>
        <time>2022-04-18T08:15:24Z</time>
      </trkpt>
      <trkpt lat="45.14199" lon="4.69709">
        <ele>519.40002441406</ele>
        <time>2022-04-18T08:15:29Z</time>
      </trkpt>
      <trkpt lat="45.14242" lon="4.69781">
        <ele>516.59997558594</ele>
        <time>2022-04-18T08:15:39Z</time>
      </trkpt>
      <trkpt lat="45.14253" lon="4.69813">
        <ele>516.20001220703</ele>
        <time>2022-04-18T08:15:43Z</time>
      </trkpt>
      <trkpt lat="45.14267" lon="4.69874">
        <ele>514.59997558594</ele>
        <time>2022-04-18T08:15:49Z</time>
      </trkpt>
      <trkpt lat="45.14275" lon="4.69899">
        <ele>513.59997558594</ele>
        <time>2022-04-18T08:15:51Z</time>
      </trkpt>
      <trkpt lat="45.14285" lon="4.69949">
        <ele>510.39999389648</ele>
        <time>2022-04-18T08:15:55Z</time>
      </trkpt>
      <trkpt lat="45.14299" lon="4.69989">
        <ele>506.60000610352</ele>
        <time>2022-04-18T08:15:59Z</time>
      </trkpt>
      <trkpt lat="45.14295" lon="4.70015">
        <ele>503.20001220703</ele>
        <time>2022-04-18T08:16:02Z</time>
      </trkpt>
      <trkpt lat="45.14287" lon="4.70051">
        <ele>499.20001220703</ele>
        <time>2022-04-18T08:16:05Z</time>
      </trkpt>
      <trkpt lat="45.14284" lon="4.70094">
        <ele>495.39999389648</ele>
        <time>2022-04-18T08:16:08Z</time>
      </trkpt>
      <trkpt lat="45.14278" lon="4.7018">
        <ele>491.39999389648</ele>
        <time>2022-04-18T08:16:14Z</time>
      </trkpt>
      <trkpt lat="45.14273" lon="4.70245">
        <ele>489.20001220703</ele>
        <time>2022-04-18T08:16:19Z</time>
      </trkpt>
      <trkpt lat="45.14267" lon="4.70279">
        <ele>487.79998779297</ele>
        <time>2022-04-18T08:16:22Z</time>
      </trkpt>
      <trkpt lat="45.14276" lon="4.70319">
        <ele>486</ele>
        <time>2022-04-18T08:16:27Z</time>
      </trkpt>
      <trkpt lat="45.14308" lon="4.70356">
        <ele>483.39999389648</ele>
        <time>2022-04-18T08:16:33Z</time>
      </trkpt>
      <trkpt lat="45.14343" lon="4.70376">
        <ele>482</ele>
        <time>2022-04-18T08:16:38Z</time>
      </trkpt>
      <trkpt lat="45.1442" lon="4.70422">
        <ele>478.39999389648</ele>
        <time>2022-04-18T08:16:50Z</time>
      </trkpt>
      <trkpt lat="45.14445" lon="4.70438">
        <ele>477.39999389648</ele>
        <time>2022-04-18T08:16:54Z</time>
      </trkpt>
      <trkpt lat="45.14543" lon="4.70497">
        <ele>474.20001220703</ele>
        <time>2022-04-18T08:17:10Z</time>
      </trkpt>
      <trkpt lat="45.146" lon="4.70532">
        <ele>472.20001220703</ele>
        <time>2022-04-18T08:17:20Z</time>
      </trkpt>
      <trkpt lat="45.14658" lon="4.70591">
        <ele>470.20001220703</ele>
        <time>2022-04-18T08:17:34Z</time>
      </trkpt>
      <trkpt lat="45.1466" lon="4.70592">
        <ele>469.79998779297</ele>
        <time>2022-04-18T08:17:35Z</time>
      </trkpt>
      <trkpt lat="45.14683" lon="4.70615">
        <ele>468.79998779297</ele>
        <time>2022-04-18T08:17:46Z</time>
      </trkpt>
      <trkpt lat="45.14695" lon="4.70613">
        <ele>468.60000610352</ele>
        <time>2022-04-18T08:17:49Z</time>
      </trkpt>
      <trkpt lat="45.14699" lon="4.7061">
        <ele>468.60000610352</ele>
        <time>2022-04-18T08:17:50Z</time>
      </trkpt>
      <trkpt lat="45.14731" lon="4.70596">
        <ele>468</ele>
        <time>2022-04-18T08:17:56Z</time>
      </trkpt>
      <trkpt lat="45.14807" lon="4.70575">
        <ele>464.60000610352</ele>
        <time>2022-04-18T08:18:08Z</time>
      </trkpt>
      <trkpt lat="45.14813" lon="4.70574">
        <ele>464.39999389648</ele>
        <time>2022-04-18T08:18:09Z</time>
      </trkpt>
      <trkpt lat="45.14826" lon="4.70569">
        <ele>463.79998779297</ele>
        <time>2022-04-18T08:18:11Z</time>
      </trkpt>
      <trkpt lat="45.14853" lon="4.70564">
        <ele>462</ele>
        <time>2022-04-18T08:18:15Z</time>
      </trkpt>
      <trkpt lat="45.14872" lon="4.70569">
        <ele>460.79998779297</ele>
        <time>2022-04-18T08:18:18Z</time>
      </trkpt>
      <trkpt lat="45.14903" lon="4.7057">
        <ele>459</ele>
        <time>2022-04-18T08:18:23Z</time>
      </trkpt>
      <trkpt lat="45.1491" lon="4.70575">
        <ele>458.60000610352</ele>
        <time>2022-04-18T08:18:24Z</time>
      </trkpt>
      <trkpt lat="45.14945" lon="4.70587">
        <ele>457.60000610352</ele>
        <time>2022-04-18T08:18:28Z</time>
      </trkpt>
      <trkpt lat="45.14983" lon="4.70595">
        <ele>455.20001220703</ele>
        <time>2022-04-18T08:18:32Z</time>
      </trkpt>
      <trkpt lat="45.14998" lon="4.70598">
        <ele>453.20001220703</ele>
        <time>2022-04-18T08:18:34Z</time>
      </trkpt>
      <trkpt lat="45.15007" lon="4.70599">
        <ele>453</ele>
        <time>2022-04-18T08:18:35Z</time>
      </trkpt>
      <trkpt lat="45.15032" lon="4.70582">
        <ele>450.39999389648</ele>
        <time>2022-04-18T08:18:40Z</time>
      </trkpt>
      <trkpt lat="45.15035" lon="4.70574">
        <ele>450.20001220703</ele>
        <time>2022-04-18T08:18:41Z</time>
      </trkpt>
      <trkpt lat="45.15066" lon="4.70564">
        <ele>448.39999389648</ele>
        <time>2022-04-18T08:18:49Z</time>
      </trkpt>
      <trkpt lat="45.15088" lon="4.70578">
        <ele>447.60000610352</ele>
        <time>2022-04-18T08:18:52Z</time>
      </trkpt>
      <trkpt lat="45.15116" lon="4.70591">
        <ele>443.39999389648</ele>
        <time>2022-04-18T08:18:56Z</time>
      </trkpt>
      <trkpt lat="45.15189" lon="4.70609">
        <ele>441.39999389648</ele>
        <time>2022-04-18T08:19:06Z</time>
      </trkpt>
      <trkpt lat="45.1524" lon="4.70624">
        <ele>437.79998779297</ele>
        <time>2022-04-18T08:19:12Z</time>
      </trkpt>
      <trkpt lat="45.15248" lon="4.70627">
        <ele>436.39999389648</ele>
        <time>2022-04-18T08:19:13Z</time>
      </trkpt>
      <trkpt lat="45.15262" lon="4.70643">
        <ele>435</ele>
        <time>2022-04-18T08:19:16Z</time>
      </trkpt>
      <trkpt lat="45.15265" lon="4.70649">
        <ele>434.79998779297</ele>
        <time>2022-04-18T08:19:17Z</time>
      </trkpt>
      <trkpt lat="45.15272" lon="4.70661">
        <ele>435.39999389648</ele>
        <time>2022-04-18T08:19:19Z</time>
      </trkpt>
      <trkpt lat="45.15294" lon="4.70664">
        <ele>435.79998779297</ele>
        <time>2022-04-18T08:19:24Z</time>
      </trkpt>
      <trkpt lat="45.15329" lon="4.70681">
        <ele>434.79998779297</ele>
        <time>2022-04-18T08:19:30Z</time>
      </trkpt>
      <trkpt lat="45.15351" lon="4.70704">
        <ele>433.20001220703</ele>
        <time>2022-04-18T08:19:33Z</time>
      </trkpt>
      <trkpt lat="45.15377" lon="4.70758">
        <ele>428.60000610352</ele>
        <time>2022-04-18T08:19:38Z</time>
      </trkpt>
      <trkpt lat="45.15389" lon="4.70781">
        <ele>427.60000610352</ele>
        <time>2022-04-18T08:19:40Z</time>
      </trkpt>
      <trkpt lat="45.15411" lon="4.70805">
        <ele>424.39999389648</ele>
        <time>2022-04-18T08:19:43Z</time>
      </trkpt>
      <trkpt lat="45.15419" lon="4.7081">
        <ele>423.39999389648</ele>
        <time>2022-04-18T08:19:44Z</time>
      </trkpt>
      <trkpt lat="45.15433" lon="4.70817">
        <ele>421.60000610352</ele>
        <time>2022-04-18T08:19:46Z</time>
      </trkpt>
      <trkpt lat="45.15457" lon="4.7082">
        <ele>418.39999389648</ele>
        <time>2022-04-18T08:19:50Z</time>
      </trkpt>
      <trkpt lat="45.15467" lon="4.70836">
        <ele>415</ele>
        <time>2022-04-18T08:19:54Z</time>
      </trkpt>
      <trkpt lat="45.15472" lon="4.70858">
        <ele>413.39999389648</ele>
        <time>2022-04-18T08:19:57Z</time>
      </trkpt>
      <trkpt lat="45.15476" lon="4.70899">
        <ele>412.39999389648</ele>
        <time>2022-04-18T08:20:02Z</time>
      </trkpt>
      <trkpt lat="45.15476" lon="4.70919">
        <ele>412.20001220703</ele>
        <time>2022-04-18T08:20:05Z</time>
      </trkpt>
      <trkpt lat="45.15481" lon="4.70973">
        <ele>415.20001220703</ele>
        <time>2022-04-18T08:20:16Z</time>
      </trkpt>
      <trkpt lat="45.15487" lon="4.71014">
        <ele>418.39999389648</ele>
        <time>2022-04-18T08:20:26Z</time>
      </trkpt>
      <trkpt lat="45.15498" lon="4.71073">
        <ele>421.39999389648</ele>
        <time>2022-04-18T08:20:41Z</time>
      </trkpt>
      <trkpt lat="45.1551" lon="4.71119">
        <ele>422.60000610352</ele>
        <time>2022-04-18T08:20:51Z</time>
      </trkpt>
      <trkpt lat="45.15529" lon="4.7119">
        <ele>424.20001220703</ele>
        <time>2022-04-18T08:21:06Z</time>
      </trkpt>
      <trkpt lat="45.15548" lon="4.71257">
        <ele>425.20001220703</ele>
        <time>2022-04-18T08:21:20Z</time>
      </trkpt>
      <trkpt lat="45.156" lon="4.71348">
        <ele>426.60000610352</ele>
        <time>2022-04-18T08:21:40Z</time>
      </trkpt>
      <trkpt lat="45.15605" lon="4.71353">
        <ele>426.39999389648</ele>
        <time>2022-04-18T08:21:41Z</time>
      </trkpt>
      <trkpt lat="45.15642" lon="4.71388">
        <ele>424.60000610352</ele>
        <time>2022-04-18T08:21:48Z</time>
      </trkpt>
      <trkpt lat="45.15678" lon="4.71412">
        <ele>423</ele>
        <time>2022-04-18T08:21:54Z</time>
      </trkpt>
      <trkpt lat="45.15703" lon="4.71454">
        <ele>422</ele>
        <time>2022-04-18T08:22:00Z</time>
      </trkpt>
      <trkpt lat="45.15738" lon="4.7152">
        <ele>423.20001220703</ele>
        <time>2022-04-18T08:22:12Z</time>
      </trkpt>
      <trkpt lat="45.15759" lon="4.71564">
        <ele>424.39999389648</ele>
        <time>2022-04-18T08:22:20Z</time>
      </trkpt>
      <trkpt lat="45.15769" lon="4.71626">
        <ele>425</ele>
        <time>2022-04-18T08:22:29Z</time>
      </trkpt>
      <trkpt lat="45.15775" lon="4.71686">
        <ele>425</ele>
        <time>2022-04-18T08:22:37Z</time>
      </trkpt>
      <trkpt lat="45.15798" lon="4.71819">
        <ele>425.60000610352</ele>
        <time>2022-04-18T08:22:57Z</time>
      </trkpt>
      <trkpt lat="45.15798" lon="4.71838">
        <ele>426.39999389648</ele>
        <time>2022-04-18T08:23:00Z</time>
      </trkpt>
      <trkpt lat="45.15796" lon="4.71916">
        <ele>427</ele>
        <time>2022-04-18T08:23:11Z</time>
      </trkpt>
      <trkpt lat="45.15838" lon="4.71934">
        <ele>425.79998779297</ele>
        <time>2022-04-18T08:23:22Z</time>
      </trkpt>
      <trkpt lat="45.15923" lon="4.71929">
        <ele>427.20001220703</ele>
        <time>2022-04-18T08:23:40Z</time>
      </trkpt>
      <trkpt lat="45.15927" lon="4.71932">
        <ele>427.39999389648</ele>
        <time>2022-04-18T08:23:41Z</time>
      </trkpt>
      <trkpt lat="45.15936" lon="4.71949">
        <ele>427.39999389648</ele>
        <time>2022-04-18T08:23:44Z</time>
      </trkpt>
      <trkpt lat="45.15938" lon="4.71953">
        <ele>427.39999389648</ele>
        <time>2022-04-18T08:23:45Z</time>
      </trkpt>
      <trkpt lat="45.15959" lon="4.71959">
        <ele>427.20001220703</ele>
        <time>2022-04-18T08:23:52Z</time>
      </trkpt>
      <trkpt lat="45.15987" lon="4.71985">
        <ele>426.60000610352</ele>
        <time>2022-04-18T08:23:59Z</time>
      </trkpt>
      <trkpt lat="45.15999" lon="4.71985">
        <ele>426.20001220703</ele>
        <time>2022-04-18T08:24:01Z</time>
      </trkpt>
      <trkpt lat="45.16015" lon="4.71984">
        <ele>425.79998779297</ele>
        <time>2022-04-18T08:24:04Z</time>
      </trkpt>
      <trkpt lat="45.16031" lon="4.71987">
        <ele>425.20001220703</ele>
        <time>2022-04-18T08:24:07Z</time>
      </trkpt>
      <trkpt lat="45.16062" lon="4.71995">
        <ele>424.79998779297</ele>
        <time>2022-04-18T08:24:12Z</time>
      </trkpt>
      <trkpt lat="45.16087" lon="4.71993">
        <ele>424</ele>
        <time>2022-04-18T08:24:16Z</time>
      </trkpt>
      <trkpt lat="45.16104" lon="4.72005">
        <ele>421.20001220703</ele>
        <time>2022-04-18T08:24:21Z</time>
      </trkpt>
      <trkpt lat="45.16104" lon="4.72011">
        <ele>420</ele>
        <time>2022-04-18T08:24:22Z</time>
      </trkpt>
      <trkpt lat="45.16106" lon="4.72073">
        <ele>418.60000610352</ele>
        <time>2022-04-18T08:24:30Z</time>
      </trkpt>
      <trkpt lat="45.16098" lon="4.72101">
        <ele>418.20001220703</ele>
        <time>2022-04-18T08:24:34Z</time>
      </trkpt>
      <trkpt lat="45.16062" lon="4.72163">
        <ele>416.79998779297</ele>
        <time>2022-04-18T08:24:43Z</time>
      </trkpt>
      <trkpt lat="45.16049" lon="4.72206">
        <ele>415.60000610352</ele>
        <time>2022-04-18T08:24:48Z</time>
      </trkpt>
      <trkpt lat="45.16042" lon="4.72224">
        <ele>415</ele>
        <time>2022-04-18T08:24:51Z</time>
      </trkpt>
      <trkpt lat="45.16053" lon="4.72231">
        <ele>413.79998779297</ele>
        <time>2022-04-18T08:24:55Z</time>
      </trkpt>
      <trkpt lat="45.16116" lon="4.72221">
        <ele>410.60000610352</ele>
        <time>2022-04-18T08:25:04Z</time>
      </trkpt>
      <trkpt lat="45.16157" lon="4.72218">
        <ele>408.39999389648</ele>
        <time>2022-04-18T08:25:09Z</time>
      </trkpt>
      <trkpt lat="45.16184" lon="4.72243">
        <ele>405</ele>
        <time>2022-04-18T08:25:16Z</time>
      </trkpt>
      <trkpt lat="45.16174" lon="4.72257">
        <ele>403.79998779297</ele>
        <time>2022-04-18T08:25:19Z</time>
      </trkpt>
      <trkpt lat="45.1617" lon="4.72262">
        <ele>403.39999389648</ele>
        <time>2022-04-18T08:25:20Z</time>
      </trkpt>
      <trkpt lat="45.16149" lon="4.72279">
        <ele>403</ele>
        <time>2022-04-18T08:25:24Z</time>
      </trkpt>
      <trkpt lat="45.16137" lon="4.72316">
        <ele>402.39999389648</ele>
        <time>2022-04-18T08:25:29Z</time>
      </trkpt>
      <trkpt lat="45.16138" lon="4.72332">
        <ele>402</ele>
        <time>2022-04-18T08:25:31Z</time>
      </trkpt>
      <trkpt lat="45.16131" lon="4.72369">
        <ele>403</ele>
        <time>2022-04-18T08:25:38Z</time>
      </trkpt>
      <trkpt lat="45.16116" lon="4.72393">
        <ele>404.39999389648</ele>
        <time>2022-04-18T08:25:43Z</time>
      </trkpt>
      <trkpt lat="45.16098" lon="4.72427">
        <ele>404.79998779297</ele>
        <time>2022-04-18T08:25:49Z</time>
      </trkpt>
      <trkpt lat="45.1608" lon="4.72474">
        <ele>405.39999389648</ele>
        <time>2022-04-18T08:25:57Z</time>
      </trkpt>
      <trkpt lat="45.16076" lon="4.72525">
        <ele>407</ele>
        <time>2022-04-18T08:26:09Z</time>
      </trkpt>
      <trkpt lat="45.1608" lon="4.72583">
        <ele>410</ele>
        <time>2022-04-18T08:26:24Z</time>
      </trkpt>
      <trkpt lat="45.1608" lon="4.72645">
        <ele>412.79998779297</ele>
        <time>2022-04-18T08:26:39Z</time>
      </trkpt>
      <trkpt lat="45.16079" lon="4.72699">
        <ele>414.39999389648</ele>
        <time>2022-04-18T08:26:51Z</time>
      </trkpt>
      <trkpt lat="45.16063" lon="4.72783">
        <ele>414.79998779297</ele>
        <time>2022-04-18T08:27:08Z</time>
      </trkpt>
      <trkpt lat="45.16046" lon="4.72848">
        <ele>416.60000610352</ele>
        <time>2022-04-18T08:27:23Z</time>
      </trkpt>
      <trkpt lat="45.16056" lon="4.7292">
        <ele>418.60000610352</ele>
        <time>2022-04-18T08:27:40Z</time>
      </trkpt>
      <trkpt lat="45.16049" lon="4.72956">
        <ele>420</ele>
        <time>2022-04-18T08:27:51Z</time>
      </trkpt>
      <trkpt lat="45.16051" lon="4.72962">
        <ele>420.79998779297</ele>
        <time>2022-04-18T08:27:54Z</time>
      </trkpt>
      <trkpt lat="45.16071" lon="4.72983">
        <ele>423.60000610352</ele>
        <time>2022-04-18T08:28:06Z</time>
      </trkpt>
      <trkpt lat="45.16083" lon="4.72996">
        <ele>425.39999389648</ele>
        <time>2022-04-18T08:28:14Z</time>
      </trkpt>
      <trkpt lat="45.1611" lon="4.72984">
        <ele>428</ele>
        <time>2022-04-18T08:28:26Z</time>
      </trkpt>
      <trkpt lat="45.16137" lon="4.72988">
        <ele>429.60000610352</ele>
        <time>2022-04-18T08:28:38Z</time>
      </trkpt>
      <trkpt lat="45.16182" lon="4.72986">
        <ele>431.60000610352</ele>
        <time>2022-04-18T08:28:53Z</time>
      </trkpt>
      <trkpt lat="45.16242" lon="4.72975">
        <ele>431.20001220703</ele>
        <time>2022-04-18T08:29:06Z</time>
      </trkpt>
      <trkpt lat="45.16252" lon="4.72974">
        <ele>431</ele>
        <time>2022-04-18T08:29:08Z</time>
      </trkpt>
      <trkpt lat="45.16293" lon="4.7298">
        <ele>430.39999389648</ele>
        <time>2022-04-18T08:29:16Z</time>
      </trkpt>
      <trkpt lat="45.16317" lon="4.72986">
        <ele>430.39999389648</ele>
        <time>2022-04-18T08:29:21Z</time>
      </trkpt>
      <trkpt lat="45.16335" lon="4.72995">
        <ele>430.20001220703</ele>
        <time>2022-04-18T08:29:25Z</time>
      </trkpt>
      <trkpt lat="45.16368" lon="4.73035">
        <ele>429</ele>
        <time>2022-04-18T08:29:35Z</time>
      </trkpt>
      <trkpt lat="45.16375" lon="4.73022">
        <ele>428.39999389648</ele>
        <time>2022-04-18T08:29:38Z</time>
      </trkpt>
      <trkpt lat="45.16385" lon="4.73001">
        <ele>427.20001220703</ele>
        <time>2022-04-18T08:29:42Z</time>
      </trkpt>
      <trkpt lat="45.16391" lon="4.72979">
        <ele>426.20001220703</ele>
        <time>2022-04-18T08:29:45Z</time>
      </trkpt>
      <trkpt lat="45.16397" lon="4.72951">
        <ele>422.39999389648</ele>
        <time>2022-04-18T08:29:49Z</time>
      </trkpt>
      <trkpt lat="45.16398" lon="4.72951">
        <ele>419.60000610352</ele>
        <time>2022-04-18T08:29:55Z</time>
      </trkpt>
      <trkpt lat="45.164" lon="4.72952">
        <ele>419.39999389648</ele>
        <time>2022-04-18T08:29:56Z</time>
      </trkpt>
      <trkpt lat="45.16423" lon="4.72996">
        <ele>418.20001220703</ele>
        <time>2022-04-18T08:30:04Z</time>
      </trkpt>
      <trkpt lat="45.16437" lon="4.73008">
        <ele>416.39999389648</ele>
        <time>2022-04-18T08:30:08Z</time>
      </trkpt>
      <trkpt lat="45.16461" lon="4.73025">
        <ele>412.79998779297</ele>
        <time>2022-04-18T08:30:14Z</time>
      </trkpt>
      <trkpt lat="45.16511" lon="4.73072">
        <ele>409.79998779297</ele>
        <time>2022-04-18T08:30:24Z</time>
      </trkpt>
      <trkpt lat="45.16524" lon="4.73091">
        <ele>408.60000610352</ele>
        <time>2022-04-18T08:30:27Z</time>
      </trkpt>
      <trkpt lat="45.16527" lon="4.73121">
        <ele>407.60000610352</ele>
        <time>2022-04-18T08:30:31Z</time>
      </trkpt>
      <trkpt lat="45.16527" lon="4.7313">
        <ele>407.39999389648</ele>
        <time>2022-04-18T08:30:32Z</time>
      </trkpt>
      <trkpt lat="45.16557" lon="4.73171">
        <ele>405</ele>
        <time>2022-04-18T08:30:39Z</time>
      </trkpt>
      <trkpt lat="45.16582" lon="4.73158">
        <ele>401.60000610352</ele>
        <time>2022-04-18T08:30:43Z</time>
      </trkpt>
      <trkpt lat="45.16587" lon="4.73141">
        <ele>400.39999389648</ele>
        <time>2022-04-18T08:30:45Z</time>
      </trkpt>
      <trkpt lat="45.1661" lon="4.73118">
        <ele>398.79998779297</ele>
        <time>2022-04-18T08:30:50Z</time>
      </trkpt>
      <trkpt lat="45.16662" lon="4.73096">
        <ele>397.20001220703</ele>
        <time>2022-04-18T08:30:58Z</time>
      </trkpt>
      <trkpt lat="45.16685" lon="4.73091">
        <ele>394.20001220703</ele>
        <time>2022-04-18T08:31:02Z</time>
      </trkpt>
      <trkpt lat="45.1669" lon="4.7309">
        <ele>393.20001220703</ele>
        <time>2022-04-18T08:31:03Z</time>
      </trkpt>
      <trkpt lat="45.16714" lon="4.73106">
        <ele>389.60000610352</ele>
        <time>2022-04-18T08:31:09Z</time>
      </trkpt>
      <trkpt lat="45.16719" lon="4.73113">
        <ele>389.20001220703</ele>
        <time>2022-04-18T08:31:10Z</time>
      </trkpt>
      <trkpt lat="45.16752" lon="4.73139">
        <ele>387.79998779297</ele>
        <time>2022-04-18T08:31:15Z</time>
      </trkpt>
      <trkpt lat="45.16772" lon="4.7314">
        <ele>387.20001220703</ele>
        <time>2022-04-18T08:31:18Z</time>
      </trkpt>
      <trkpt lat="45.16779" lon="4.73138">
        <ele>387</ele>
        <time>2022-04-18T08:31:19Z</time>
      </trkpt>
      <trkpt lat="45.1683" lon="4.73134">
        <ele>384.79998779297</ele>
        <time>2022-04-18T08:31:25Z</time>
      </trkpt>
      <trkpt lat="45.16837" lon="4.73138">
        <ele>384</ele>
        <time>2022-04-18T08:31:26Z</time>
      </trkpt>
      <trkpt lat="45.16844" lon="4.73141">
        <ele>383.60000610352</ele>
        <time>2022-04-18T08:31:27Z</time>
      </trkpt>
      <trkpt lat="45.16867" lon="4.73158">
        <ele>379.39999389648</ele>
        <time>2022-04-18T08:31:32Z</time>
      </trkpt>
      <trkpt lat="45.16869" lon="4.73166">
        <ele>378.20001220703</ele>
        <time>2022-04-18T08:31:33Z</time>
      </trkpt>
      <trkpt lat="45.16873" lon="4.73192">
        <ele>376.20001220703</ele>
        <time>2022-04-18T08:31:36Z</time>
      </trkpt>
      <trkpt lat="45.16878" lon="4.73212">
        <ele>372.79998779297</ele>
        <time>2022-04-18T08:31:39Z</time>
      </trkpt>
      <trkpt lat="45.16877" lon="4.73219">
        <ele>372</ele>
        <time>2022-04-18T08:31:40Z</time>
      </trkpt>
      <trkpt lat="45.16876" lon="4.73228">
        <ele>371.60000610352</ele>
        <time>2022-04-18T08:31:41Z</time>
      </trkpt>
      <trkpt lat="45.16876" lon="4.73243">
        <ele>369.39999389648</ele>
        <time>2022-04-18T08:31:43Z</time>
      </trkpt>
      <trkpt lat="45.16867" lon="4.73265">
        <ele>365.79998779297</ele>
        <time>2022-04-18T08:31:47Z</time>
      </trkpt>
      <trkpt lat="45.16858" lon="4.73292">
        <ele>362.20001220703</ele>
        <time>2022-04-18T08:31:51Z</time>
      </trkpt>
      <trkpt lat="45.16858" lon="4.73298">
        <ele>360.39999389648</ele>
        <time>2022-04-18T08:31:53Z</time>
      </trkpt>
      <trkpt lat="45.1687" lon="4.73302">
        <ele>359</ele>
        <time>2022-04-18T08:31:56Z</time>
      </trkpt>
      <trkpt lat="45.16902" lon="4.73307">
        <ele>360</ele>
        <time>2022-04-18T08:32:03Z</time>
      </trkpt>
      <trkpt lat="45.16908" lon="4.73309">
        <ele>360.39999389648</ele>
        <time>2022-04-18T08:32:04Z</time>
      </trkpt>
      <trkpt lat="45.16927" lon="4.73316">
        <ele>361.60000610352</ele>
        <time>2022-04-18T08:32:09Z</time>
      </trkpt>
      <trkpt lat="45.16969" lon="4.73329">
        <ele>360.79998779297</ele>
        <time>2022-04-18T08:32:16Z</time>
      </trkpt>
      <trkpt lat="45.16974" lon="4.73329">
        <ele>359.20001220703</ele>
        <time>2022-04-18T08:32:18Z</time>
      </trkpt>
      <trkpt lat="45.16977" lon="4.73335">
        <ele>358</ele>
        <time>2022-04-18T08:32:20Z</time>
      </trkpt>
      <trkpt lat="45.1698" lon="4.7334">
        <ele>356.79998779297</ele>
        <time>2022-04-18T08:32:21Z</time>
      </trkpt>
      <trkpt lat="45.16985" lon="4.73371">
        <ele>353.60000610352</ele>
        <time>2022-04-18T08:32:25Z</time>
      </trkpt>
      <trkpt lat="45.16984" lon="4.73394">
        <ele>350.60000610352</ele>
        <time>2022-04-18T08:32:29Z</time>
      </trkpt>
      <trkpt lat="45.16984" lon="4.73407">
        <ele>348.79998779297</ele>
        <time>2022-04-18T08:32:32Z</time>
      </trkpt>
      <trkpt lat="45.16985" lon="4.73412">
        <ele>348.39999389648</ele>
        <time>2022-04-18T08:32:33Z</time>
      </trkpt>
      <trkpt lat="45.17002" lon="4.73426">
        <ele>347</ele>
        <time>2022-04-18T08:32:37Z</time>
      </trkpt>
      <trkpt lat="45.1702" lon="4.73428">
        <ele>345.20001220703</ele>
        <time>2022-04-18T08:32:40Z</time>
      </trkpt>
      <trkpt lat="45.1706" lon="4.73429">
        <ele>342.20001220703</ele>
        <time>2022-04-18T08:32:45Z</time>
      </trkpt>
      <trkpt lat="45.17094" lon="4.73414">
        <ele>339.20001220703</ele>
        <time>2022-04-18T08:32:50Z</time>
      </trkpt>
      <trkpt lat="45.17107" lon="4.7341">
        <ele>338.20001220703</ele>
        <time>2022-04-18T08:32:52Z</time>
      </trkpt>
      <trkpt lat="45.17134" lon="4.73399">
        <ele>337.20001220703</ele>
        <time>2022-04-18T08:32:55Z</time>
      </trkpt>
      <trkpt lat="45.17169" lon="4.73409">
        <ele>334.79998779297</ele>
        <time>2022-04-18T08:32:59Z</time>
      </trkpt>
      <trkpt lat="45.17194" lon="4.73423">
        <ele>333</ele>
        <time>2022-04-18T08:33:02Z</time>
      </trkpt>
      <trkpt lat="45.17224" lon="4.73452">
        <ele>329</ele>
        <time>2022-04-18T08:33:07Z</time>
      </trkpt>
      <trkpt lat="45.1725" lon="4.73473">
        <ele>326</ele>
        <time>2022-04-18T08:33:11Z</time>
      </trkpt>
      <trkpt lat="45.17287" lon="4.73485">
        <ele>322.60000610352</ele>
        <time>2022-04-18T08:33:15Z</time>
      </trkpt>
      <trkpt lat="45.17301" lon="4.73494">
        <ele>319.60000610352</ele>
        <time>2022-04-18T08:33:17Z</time>
      </trkpt>
      <trkpt lat="45.17307" lon="4.735">
        <ele>318.39999389648</ele>
        <time>2022-04-18T08:33:18Z</time>
      </trkpt>
      <trkpt lat="45.17319" lon="4.73511">
        <ele>314.79998779297</ele>
        <time>2022-04-18T08:33:20Z</time>
      </trkpt>
      <trkpt lat="45.17338" lon="4.73519">
        <ele>310.79998779297</ele>
        <time>2022-04-18T08:33:23Z</time>
      </trkpt>
      <trkpt lat="45.17343" lon="4.73519">
        <ele>307.60000610352</ele>
        <time>2022-04-18T08:33:25Z</time>
      </trkpt>
      <trkpt lat="45.17344" lon="4.7352">
        <ele>304.20001220703</ele>
        <time>2022-04-18T08:33:28Z</time>
      </trkpt>
      <trkpt lat="45.17345" lon="4.73524">
        <ele>302</ele>
        <time>2022-04-18T08:33:34Z</time>
      </trkpt>
      <trkpt lat="45.17335" lon="4.73532">
        <ele>303</ele>
        <time>2022-04-18T08:33:43Z</time>
      </trkpt>
      <trkpt lat="45.17332" lon="4.73535">
        <ele>303.39999389648</ele>
        <time>2022-04-18T08:33:45Z</time>
      </trkpt>
      <trkpt lat="45.17321" lon="4.73542">
        <ele>306.20001220703</ele>
        <time>2022-04-18T08:33:53Z</time>
      </trkpt>
      <trkpt lat="45.17314" lon="4.73555">
        <ele>309.39999389648</ele>
        <time>2022-04-18T08:34:01Z</time>
      </trkpt>
      <trkpt lat="45.17313" lon="4.73556">
        <ele>309.60000610352</ele>
        <time>2022-04-18T08:34:02Z</time>
      </trkpt>
      <trkpt lat="45.17306" lon="4.73565">
        <ele>311.39999389648</ele>
        <time>2022-04-18T08:34:08Z</time>
      </trkpt>
      <trkpt lat="45.17307" lon="4.73576">
        <ele>312</ele>
        <time>2022-04-18T08:34:12Z</time>
      </trkpt>
      <trkpt lat="45.17309" lon="4.73585">
        <ele>312.60000610352</ele>
        <time>2022-04-18T08:34:14Z</time>
      </trkpt>
      <trkpt lat="45.17301" lon="4.73614">
        <ele>312.60000610352</ele>
        <time>2022-04-18T08:34:18Z</time>
      </trkpt>
      <trkpt lat="45.17294" lon="4.73634">
        <ele>311.79998779297</ele>
        <time>2022-04-18T08:34:21Z</time>
      </trkpt>
      <trkpt lat="45.17299" lon="4.73642">
        <ele>310.39999389648</ele>
        <time>2022-04-18T08:34:24Z</time>
      </trkpt>
      <trkpt lat="45.17302" lon="4.73642">
        <ele>309.79998779297</ele>
        <time>2022-04-18T08:34:25Z</time>
      </trkpt>
      <trkpt lat="45.17308" lon="4.73641">
        <ele>309.20001220703</ele>
        <time>2022-04-18T08:34:27Z</time>
      </trkpt>
      <trkpt lat="45.17327" lon="4.73639">
        <ele>308.79998779297</ele>
        <time>2022-04-18T08:34:34Z</time>
      </trkpt>
      <trkpt lat="45.17337" lon="4.73639">
        <ele>308.60000610352</ele>
        <time>2022-04-18T08:34:36Z</time>
      </trkpt>
      <trkpt lat="45.17402" lon="4.73635">
        <ele>308.20001220703</ele>
        <time>2022-04-18T08:34:47Z</time>
      </trkpt>
      <trkpt lat="45.17416" lon="4.73638">
        <ele>307.60000610352</ele>
        <time>2022-04-18T08:34:49Z</time>
      </trkpt>
      <trkpt lat="45.17455" lon="4.73675">
        <ele>305.39999389648</ele>
        <time>2022-04-18T08:34:55Z</time>
      </trkpt>
      <trkpt lat="45.17473" lon="4.73697">
        <ele>302.39999389648</ele>
        <time>2022-04-18T08:34:58Z</time>
      </trkpt>
      <trkpt lat="45.17478" lon="4.73704">
        <ele>302.20001220703</ele>
        <time>2022-04-18T08:34:59Z</time>
      </trkpt>
      <trkpt lat="45.17531" lon="4.7377">
        <ele>300.20001220703</ele>
        <time>2022-04-18T08:35:10Z</time>
      </trkpt>
      <trkpt lat="45.1756" lon="4.73822">
        <ele>300.39999389648</ele>
        <time>2022-04-18T08:35:19Z</time>
      </trkpt>
      <trkpt lat="45.17582" lon="4.73855">
        <ele>302.79998779297</ele>
        <time>2022-04-18T08:35:29Z</time>
      </trkpt>
      <trkpt lat="45.17608" lon="4.73883">
        <ele>303.39999389648</ele>
        <time>2022-04-18T08:35:38Z</time>
      </trkpt>
      <trkpt lat="45.17634" lon="4.73898">
        <ele>303.20001220703</ele>
        <time>2022-04-18T08:35:42Z</time>
      </trkpt>
      <trkpt lat="45.17697" lon="4.73927">
        <ele>300.20001220703</ele>
        <time>2022-04-18T08:35:52Z</time>
      </trkpt>
      <trkpt lat="45.17706" lon="4.73941">
        <ele>300.79998779297</ele>
        <time>2022-04-18T08:35:56Z</time>
      </trkpt>
      <trkpt lat="45.17709" lon="4.73952">
        <ele>302</ele>
        <time>2022-04-18T08:35:59Z</time>
      </trkpt>
      <trkpt lat="45.17708" lon="4.73973">
        <ele>303.60000610352</ele>
        <time>2022-04-18T08:36:05Z</time>
      </trkpt>
      <trkpt lat="45.17722" lon="4.73972">
        <ele>304.60000610352</ele>
        <time>2022-04-18T08:36:11Z</time>
      </trkpt>
      <trkpt lat="45.17732" lon="4.73954">
        <ele>305.39999389648</ele>
        <time>2022-04-18T08:36:16Z</time>
      </trkpt>
      <trkpt lat="45.1774" lon="4.73925">
        <ele>307.20001220703</ele>
        <time>2022-04-18T08:36:24Z</time>
      </trkpt>
      <trkpt lat="45.17764" lon="4.73909">
        <ele>308.79998779297</ele>
        <time>2022-04-18T08:36:35Z</time>
      </trkpt>
      <trkpt lat="45.17786" lon="4.73892">
        <ele>311</ele>
        <time>2022-04-18T08:36:43Z</time>
      </trkpt>
      <trkpt lat="45.178" lon="4.73885">
        <ele>312.20001220703</ele>
        <time>2022-04-18T08:36:49Z</time>
      </trkpt>
      <trkpt lat="45.17813" lon="4.73879">
        <ele>312.60000610352</ele>
        <time>2022-04-18T08:36:54Z</time>
      </trkpt>
      <trkpt lat="45.17817" lon="4.73876">
        <ele>312.79998779297</ele>
        <time>2022-04-18T08:36:55Z</time>
      </trkpt>
      <trkpt lat="45.17835" lon="4.73857">
        <ele>313.60000610352</ele>
        <time>2022-04-18T08:37:02Z</time>
      </trkpt>
      <trkpt lat="45.17839" lon="4.73854">
        <ele>313.79998779297</ele>
        <time>2022-04-18T08:37:04Z</time>
      </trkpt>
      <trkpt lat="45.17851" lon="4.73845">
        <ele>315.39999389648</ele>
        <time>2022-04-18T08:37:10Z</time>
      </trkpt>
      <trkpt lat="45.17872" lon="4.73852">
        <ele>317.20001220703</ele>
        <time>2022-04-18T08:37:20Z</time>
      </trkpt>
      <trkpt lat="45.17883" lon="4.73875">
        <ele>320.39999389648</ele>
        <time>2022-04-18T08:37:31Z</time>
      </trkpt>
      <trkpt lat="45.17895" lon="4.739">
        <ele>323.20001220703</ele>
        <time>2022-04-18T08:37:44Z</time>
      </trkpt>
      <trkpt lat="45.17896" lon="4.73902">
        <ele>323.39999389648</ele>
        <time>2022-04-18T08:37:45Z</time>
      </trkpt>
      <trkpt lat="45.17896" lon="4.73911">
        <ele>324.60000610352</ele>
        <time>2022-04-18T08:37:49Z</time>
      </trkpt>
      <trkpt lat="45.17896" lon="4.7392">
        <ele>325.60000610352</ele>
        <time>2022-04-18T08:37:54Z</time>
      </trkpt>
      <trkpt lat="45.17903" lon="4.73944">
        <ele>328.60000610352</ele>
        <time>2022-04-18T08:38:04Z</time>
      </trkpt>
      <trkpt lat="45.17912" lon="4.73953">
        <ele>329.60000610352</ele>
        <time>2022-04-18T08:38:11Z</time>
      </trkpt>
      <trkpt lat="45.17917" lon="4.73947">
        <ele>329.79998779297</ele>
        <time>2022-04-18T08:38:15Z</time>
      </trkpt>
      <trkpt lat="45.17924" lon="4.73938">
        <ele>329.79998779297</ele>
        <time>2022-04-18T08:38:18Z</time>
      </trkpt>
      <trkpt lat="45.1796" lon="4.73916">
        <ele>328.39999389648</ele>
        <time>2022-04-18T08:38:24Z</time>
      </trkpt>
      <trkpt lat="45.17972" lon="4.73904">
        <ele>323.60000610352</ele>
        <time>2022-04-18T08:38:28Z</time>
      </trkpt>
      <trkpt lat="45.17976" lon="4.73902">
        <ele>320.20001220703</ele>
        <time>2022-04-18T08:38:31Z</time>
      </trkpt>
      <trkpt lat="45.17977" lon="4.739">
        <ele>317</ele>
        <time>2022-04-18T08:38:39Z</time>
      </trkpt>
      <trkpt lat="45.17977" lon="4.739">
        <ele>315.60000610352</ele>
        <time>2022-04-18T08:39:32Z</time>
      </trkpt>
      <trkpt lat="45.17998" lon="4.73899">
        <ele>315</ele>
        <time>2022-04-18T08:39:41Z</time>
      </trkpt>
      <trkpt lat="45.17996" lon="4.73896">
        <ele>314.39999389648</ele>
        <time>2022-04-18T08:39:42Z</time>
      </trkpt>
      <trkpt lat="45.17994" lon="4.73892">
        <ele>313.60000610352</ele>
        <time>2022-04-18T08:39:43Z</time>
      </trkpt>
      <trkpt lat="45.17976" lon="4.73843">
        <ele>309.39999389648</ele>
        <time>2022-04-18T08:39:49Z</time>
      </trkpt>
      <trkpt lat="45.1797" lon="4.73826">
        <ele>307.60000610352</ele>
        <time>2022-04-18T08:39:51Z</time>
      </trkpt>
      <trkpt lat="45.17971" lon="4.73808">
        <ele>304</ele>
        <time>2022-04-18T08:39:54Z</time>
      </trkpt>
      <trkpt lat="45.17978" lon="4.73799">
        <ele>301</ele>
        <time>2022-04-18T08:39:56Z</time>
      </trkpt>
      <trkpt lat="45.17983" lon="4.73792">
        <ele>300.20001220703</ele>
        <time>2022-04-18T08:39:57Z</time>
      </trkpt>
      <trkpt lat="45.18001" lon="4.73761">
        <ele>296.60000610352</ele>
        <time>2022-04-18T08:40:01Z</time>
      </trkpt>
      <trkpt lat="45.18009" lon="4.73745">
        <ele>293</ele>
        <time>2022-04-18T08:40:04Z</time>
      </trkpt>
      <trkpt lat="45.18009" lon="4.73741">
        <ele>291.39999389648</ele>
        <time>2022-04-18T08:40:05Z</time>
      </trkpt>
      <trkpt lat="45.18007" lon="4.73726">
        <ele>288.39999389648</ele>
        <time>2022-04-18T08:40:08Z</time>
      </trkpt>
      <trkpt lat="45.18006" lon="4.73717">
        <ele>286.79998779297</ele>
        <time>2022-04-18T08:40:11Z</time>
      </trkpt>
      <trkpt lat="45.18006" lon="4.73717">
        <ele>285.60000610352</ele>
        <time>2022-04-18T08:40:13Z</time>
      </trkpt>
      <trkpt lat="45.18005" lon="4.73716">
        <ele>285.39999389648</ele>
        <time>2022-04-18T08:40:14Z</time>
      </trkpt>
      <trkpt lat="45.18007" lon="4.73712">
        <ele>285.39999389648</ele>
        <time>2022-04-18T08:40:25Z</time>
      </trkpt>
      <trkpt lat="45.18017" lon="4.73692">
        <ele>286.79998779297</ele>
        <time>2022-04-18T08:40:37Z</time>
      </trkpt>
      <trkpt lat="45.18018" lon="4.73685">
        <ele>285.79998779297</ele>
        <time>2022-04-18T08:40:47Z</time>
      </trkpt>
      <trkpt lat="45.18018" lon="4.73681">
        <ele>284.39999389648</ele>
        <time>2022-04-18T08:40:55Z</time>
      </trkpt>
      <trkpt lat="45.18016" lon="4.73661">
        <ele>286.20001220703</ele>
        <time>2022-04-18T08:41:08Z</time>
      </trkpt>
      <trkpt lat="45.18018" lon="4.73659">
        <ele>288.39999389648</ele>
        <time>2022-04-18T08:41:22Z</time>
      </trkpt>
      <trkpt lat="45.18021" lon="4.73661">
        <ele>288.60000610352</ele>
        <time>2022-04-18T08:41:25Z</time>
      </trkpt>
      <trkpt lat="45.18025" lon="4.73667">
        <ele>292</ele>
        <time>2022-04-18T08:41:35Z</time>
      </trkpt>
      <trkpt lat="45.18028" lon="4.73671">
        <ele>292.60000610352</ele>
        <time>2022-04-18T08:41:41Z</time>
      </trkpt>
      <trkpt lat="45.18035" lon="4.73678">
        <ele>293.79998779297</ele>
        <time>2022-04-18T08:41:47Z</time>
      </trkpt>
      <trkpt lat="45.18037" lon="4.7368">
        <ele>295</ele>
        <time>2022-04-18T08:41:57Z</time>
      </trkpt>
      <trkpt lat="45.18047" lon="4.73693">
        <ele>295.79998779297</ele>
        <time>2022-04-18T08:42:06Z</time>
      </trkpt>
      <trkpt lat="45.1806" lon="4.73691">
        <ele>297.39999389648</ele>
        <time>2022-04-18T08:42:15Z</time>
      </trkpt>
      <trkpt lat="45.18065" lon="4.73688">
        <ele>298</ele>
        <time>2022-04-18T08:42:19Z</time>
      </trkpt>
      <trkpt lat="45.18077" lon="4.73681">
        <ele>300.20001220703</ele>
        <time>2022-04-18T08:42:27Z</time>
      </trkpt>
      <trkpt lat="45.18098" lon="4.73659">
        <ele>302.20001220703</ele>
        <time>2022-04-18T08:42:41Z</time>
      </trkpt>
      <trkpt lat="45.18113" lon="4.73633">
        <ele>303.39999389648</ele>
        <time>2022-04-18T08:42:52Z</time>
      </trkpt>
      <trkpt lat="45.18119" lon="4.73629">
        <ele>303.60000610352</ele>
        <time>2022-04-18T08:42:55Z</time>
      </trkpt>
      <trkpt lat="45.18125" lon="4.73624">
        <ele>304.20001220703</ele>
        <time>2022-04-18T08:42:58Z</time>
      </trkpt>
      <trkpt lat="45.18139" lon="4.73596">
        <ele>305.20001220703</ele>
        <time>2022-04-18T08:43:06Z</time>
      </trkpt>
      <trkpt lat="45.18143" lon="4.73591">
        <ele>305.20001220703</ele>
        <time>2022-04-18T08:43:07Z</time>
      </trkpt>
      <trkpt lat="45.18151" lon="4.73579">
        <ele>305.20001220703</ele>
        <time>2022-04-18T08:43:09Z</time>
      </trkpt>
      <trkpt lat="45.18159" lon="4.73566">
        <ele>305</ele>
        <time>2022-04-18T08:43:11Z</time>
      </trkpt>
      <trkpt lat="45.18177" lon="4.73552">
        <ele>304.39999389648</ele>
        <time>2022-04-18T08:43:18Z</time>
      </trkpt>
      <trkpt lat="45.18186" lon="4.73551">
        <ele>305.79998779297</ele>
        <time>2022-04-18T08:43:25Z</time>
      </trkpt>
      <trkpt lat="45.18196" lon="4.73553">
        <ele>308.79998779297</ele>
        <time>2022-04-18T08:43:33Z</time>
      </trkpt>
      <trkpt lat="45.1821" lon="4.73569">
        <ele>311.79998779297</ele>
        <time>2022-04-18T08:43:42Z</time>
      </trkpt>
      <trkpt lat="45.18222" lon="4.73581">
        <ele>313.39999389648</ele>
        <time>2022-04-18T08:43:49Z</time>
      </trkpt>
      <trkpt lat="45.1823" lon="4.73579">
        <ele>314.60000610352</ele>
        <time>2022-04-18T08:43:55Z</time>
      </trkpt>
      <trkpt lat="45.18239" lon="4.7358">
        <ele>315.20001220703</ele>
        <time>2022-04-18T08:43:59Z</time>
      </trkpt>
      <trkpt lat="45.18241" lon="4.73577">
        <ele>315.60000610352</ele>
        <time>2022-04-18T08:44:02Z</time>
      </trkpt>
      <trkpt lat="45.18247" lon="4.73573">
        <ele>316.79998779297</ele>
        <time>2022-04-18T08:44:06Z</time>
      </trkpt>
      <trkpt lat="45.18244" lon="4.73562">
        <ele>318.39999389648</ele>
        <time>2022-04-18T08:44:12Z</time>
      </trkpt>
      <trkpt lat="45.1824" lon="4.73556">
        <ele>319.60000610352</ele>
        <time>2022-04-18T08:44:17Z</time>
      </trkpt>
      <trkpt lat="45.18238" lon="4.73547">
        <ele>321</ele>
        <time>2022-04-18T08:44:23Z</time>
      </trkpt>
      <trkpt lat="45.18248" lon="4.73545">
        <ele>323.20001220703</ele>
        <time>2022-04-18T08:44:33Z</time>
      </trkpt>
      <trkpt lat="45.18264" lon="4.73542">
        <ele>326</ele>
        <time>2022-04-18T08:44:46Z</time>
      </trkpt>
      <trkpt lat="45.18285" lon="4.73539">
        <ele>329</ele>
        <time>2022-04-18T08:45:01Z</time>
      </trkpt>
      <trkpt lat="45.18302" lon="4.73521">
        <ele>332</ele>
        <time>2022-04-18T08:45:18Z</time>
      </trkpt>
      <trkpt lat="45.18312" lon="4.73509">
        <ele>335</ele>
        <time>2022-04-18T08:45:29Z</time>
      </trkpt>
      <trkpt lat="45.18313" lon="4.73508">
        <ele>335.60000610352</ele>
        <time>2022-04-18T08:45:31Z</time>
      </trkpt>
      <trkpt lat="45.18323" lon="4.73498">
        <ele>338.60000610352</ele>
        <time>2022-04-18T08:45:42Z</time>
      </trkpt>
      <trkpt lat="45.18324" lon="4.73497">
        <ele>339.39999389648</ele>
        <time>2022-04-18T08:45:44Z</time>
      </trkpt>
      <trkpt lat="45.18338" lon="4.73484">
        <ele>342.39999389648</ele>
        <time>2022-04-18T08:45:57Z</time>
      </trkpt>
      <trkpt lat="45.18341" lon="4.73481">
        <ele>342.79998779297</ele>
        <time>2022-04-18T08:46:00Z</time>
      </trkpt>
      <trkpt lat="45.18353" lon="4.73476">
        <ele>344.20001220703</ele>
        <time>2022-04-18T08:46:09Z</time>
      </trkpt>
      <trkpt lat="45.18358" lon="4.73476">
        <ele>344.79998779297</ele>
        <time>2022-04-18T08:46:12Z</time>
      </trkpt>
      <trkpt lat="45.18369" lon="4.73494">
        <ele>347.20001220703</ele>
        <time>2022-04-18T08:46:22Z</time>
      </trkpt>
      <trkpt lat="45.18383" lon="4.73517">
        <ele>349.60000610352</ele>
        <time>2022-04-18T08:46:37Z</time>
      </trkpt>
      <trkpt lat="45.18389" lon="4.73522">
        <ele>350.20001220703</ele>
        <time>2022-04-18T08:46:41Z</time>
      </trkpt>
      <trkpt lat="45.18401" lon="4.73519">
        <ele>351.60000610352</ele>
        <time>2022-04-18T08:46:50Z</time>
      </trkpt>
      <trkpt lat="45.18419" lon="4.73521">
        <ele>354.60000610352</ele>
        <time>2022-04-18T08:47:03Z</time>
      </trkpt>
      <trkpt lat="45.18444" lon="4.73522">
        <ele>357</ele>
        <time>2022-04-18T08:47:16Z</time>
      </trkpt>
      <trkpt lat="45.18455" lon="4.73522">
        <ele>358</ele>
        <time>2022-04-18T08:47:22Z</time>
      </trkpt>
      <trkpt lat="45.18463" lon="4.73523">
        <ele>358.79998779297</ele>
        <time>2022-04-18T08:47:27Z</time>
      </trkpt>
      <trkpt lat="45.18493" lon="4.73542">
        <ele>360.79998779297</ele>
        <time>2022-04-18T08:47:43Z</time>
      </trkpt>
      <trkpt lat="45.18508" lon="4.73556">
        <ele>361.79998779297</ele>
        <time>2022-04-18T08:47:52Z</time>
      </trkpt>
      <trkpt lat="45.18501" lon="4.73594">
        <ele>361.79998779297</ele>
        <time>2022-04-18T08:47:59Z</time>
      </trkpt>
      <trkpt lat="45.18499" lon="4.73604">
        <ele>361.79998779297</ele>
        <time>2022-04-18T08:48:00Z</time>
      </trkpt>
      <trkpt lat="45.18477" lon="4.73658">
        <ele>359.79998779297</ele>
        <time>2022-04-18T08:48:06Z</time>
      </trkpt>
      <trkpt lat="45.18486" lon="4.73685">
        <ele>356.20001220703</ele>
        <time>2022-04-18T08:48:09Z</time>
      </trkpt>
      <trkpt lat="45.18505" lon="4.73732">
        <ele>353.79998779297</ele>
        <time>2022-04-18T08:48:15Z</time>
      </trkpt>
      <trkpt lat="45.18503" lon="4.73763">
        <ele>353.39999389648</ele>
        <time>2022-04-18T08:48:19Z</time>
      </trkpt>
      <trkpt lat="45.18516" lon="4.73789">
        <ele>353.39999389648</ele>
        <time>2022-04-18T08:48:24Z</time>
      </trkpt>
      <trkpt lat="45.18563" lon="4.73804">
        <ele>355.20001220703</ele>
        <time>2022-04-18T08:48:38Z</time>
      </trkpt>
      <trkpt lat="45.18566" lon="4.73806">
        <ele>355.39999389648</ele>
        <time>2022-04-18T08:48:39Z</time>
      </trkpt>
      <trkpt lat="45.18601" lon="4.73825">
        <ele>357.39999389648</ele>
        <time>2022-04-18T08:48:50Z</time>
      </trkpt>
      <trkpt lat="45.18641" lon="4.73832">
        <ele>359.20001220703</ele>
        <time>2022-04-18T08:49:04Z</time>
      </trkpt>
      <trkpt lat="45.18682" lon="4.73825">
        <ele>362.20001220703</ele>
        <time>2022-04-18T08:49:18Z</time>
      </trkpt>
      <trkpt lat="45.1871" lon="4.73811">
        <ele>364.39999389648</ele>
        <time>2022-04-18T08:49:31Z</time>
      </trkpt>
      <trkpt lat="45.18714" lon="4.73804">
        <ele>365.20001220703</ele>
        <time>2022-04-18T08:49:36Z</time>
      </trkpt>
      <trkpt lat="45.1874" lon="4.73809">
        <ele>367</ele>
        <time>2022-04-18T08:49:46Z</time>
      </trkpt>
      <trkpt lat="45.18746" lon="4.73814">
        <ele>367</ele>
        <time>2022-04-18T08:49:48Z</time>
      </trkpt>
      <trkpt lat="45.18777" lon="4.73829">
        <ele>366</ele>
        <time>2022-04-18T08:49:58Z</time>
      </trkpt>
      <trkpt lat="45.18797" lon="4.73787">
        <ele>363.79998779297</ele>
        <time>2022-04-18T08:50:11Z</time>
      </trkpt>
      <trkpt lat="45.18808" lon="4.73777">
        <ele>363.60000610352</ele>
        <time>2022-04-18T08:50:15Z</time>
      </trkpt>
      <trkpt lat="45.18832" lon="4.73778">
        <ele>363.79998779297</ele>
        <time>2022-04-18T08:50:25Z</time>
      </trkpt>
      <trkpt lat="45.18835" lon="4.73779">
        <ele>363.79998779297</ele>
        <time>2022-04-18T08:50:27Z</time>
      </trkpt>
      <trkpt lat="45.18839" lon="4.73764">
        <ele>364</ele>
        <time>2022-04-18T08:50:32Z</time>
      </trkpt>
      <trkpt lat="45.18838" lon="4.73757">
        <ele>364</ele>
        <time>2022-04-18T08:50:34Z</time>
      </trkpt>
      <trkpt lat="45.18831" lon="4.73736">
        <ele>365.20001220703</ele>
        <time>2022-04-18T08:50:47Z</time>
      </trkpt>
      <trkpt lat="45.18829" lon="4.73732">
        <ele>366.39999389648</ele>
        <time>2022-04-18T08:51:10Z</time>
      </trkpt>
      <trkpt lat="45.18832" lon="4.73733">
        <ele>365.20001220703</ele>
        <time>2022-04-18T08:51:50Z</time>
      </trkpt>
      <trkpt lat="45.18833" lon="4.73732">
        <ele>364.20001220703</ele>
        <time>2022-04-18T08:54:15Z</time>
      </trkpt>
      <trkpt lat="45.18834" lon="4.7373">
        <ele>366</ele>
        <time>2022-04-18T08:54:52Z</time>
      </trkpt>
      <trkpt lat="45.18831" lon="4.7373">
        <ele>366</ele>
        <time>2022-04-18T08:57:23Z</time>
      </trkpt>
      <trkpt lat="45.18828" lon="4.73729">
        <ele>366.20001220703</ele>
        <time>2022-04-18T08:57:44Z</time>
      </trkpt>
      <trkpt lat="45.18829" lon="4.73729">
        <ele>366.20001220703</ele>
        <time>2022-04-18T08:59:20Z</time>
      </trkpt>
      <trkpt lat="45.18839" lon="4.7375">
        <ele>365.79998779297</ele>
        <time>2022-04-18T08:59:32Z</time>
      </trkpt>
      <trkpt lat="45.18837" lon="4.73755">
        <ele>365.60000610352</ele>
        <time>2022-04-18T08:59:34Z</time>
      </trkpt>
      <trkpt lat="45.18834" lon="4.73765">
        <ele>365.20001220703</ele>
        <time>2022-04-18T08:59:37Z</time>
      </trkpt>
      <trkpt lat="45.18846" lon="4.73774">
        <ele>365</ele>
        <time>2022-04-18T08:59:43Z</time>
      </trkpt>
      <trkpt lat="45.18849" lon="4.73777">
        <ele>365</ele>
        <time>2022-04-18T08:59:44Z</time>
      </trkpt>
      <trkpt lat="45.18864" lon="4.73787">
        <ele>364.20001220703</ele>
        <time>2022-04-18T08:59:50Z</time>
      </trkpt>
      <trkpt lat="45.18859" lon="4.73815">
        <ele>362.79998779297</ele>
        <time>2022-04-18T08:59:56Z</time>
      </trkpt>
      <trkpt lat="45.18876" lon="4.73829">
        <ele>361.39999389648</ele>
        <time>2022-04-18T09:00:00Z</time>
      </trkpt>
      <trkpt lat="45.18889" lon="4.73834">
        <ele>360.60000610352</ele>
        <time>2022-04-18T09:00:02Z</time>
      </trkpt>
      <trkpt lat="45.18902" lon="4.73842">
        <ele>358.79998779297</ele>
        <time>2022-04-18T09:00:04Z</time>
      </trkpt>
      <trkpt lat="45.18933" lon="4.73844">
        <ele>354.79998779297</ele>
        <time>2022-04-18T09:00:08Z</time>
      </trkpt>
      <trkpt lat="45.18955" lon="4.7384">
        <ele>353.60000610352</ele>
        <time>2022-04-18T09:00:11Z</time>
      </trkpt>
      <trkpt lat="45.1897" lon="4.73841">
        <ele>352.20001220703</ele>
        <time>2022-04-18T09:00:13Z</time>
      </trkpt>
      <trkpt lat="45.18994" lon="4.73869">
        <ele>351.39999389648</ele>
        <time>2022-04-18T09:00:19Z</time>
      </trkpt>
      <trkpt lat="45.19013" lon="4.73881">
        <ele>351.60000610352</ele>
        <time>2022-04-18T09:00:26Z</time>
      </trkpt>
      <trkpt lat="45.1902" lon="4.73899">
        <ele>352</ele>
        <time>2022-04-18T09:00:31Z</time>
      </trkpt>
      <trkpt lat="45.19024" lon="4.73913">
        <ele>352.20001220703</ele>
        <time>2022-04-18T09:00:34Z</time>
      </trkpt>
      <trkpt lat="45.19036" lon="4.73993">
        <ele>352</ele>
        <time>2022-04-18T09:00:49Z</time>
      </trkpt>
      <trkpt lat="45.19038" lon="4.74048">
        <ele>351.60000610352</ele>
        <time>2022-04-18T09:00:58Z</time>
      </trkpt>
      <trkpt lat="45.19041" lon="4.7407">
        <ele>351.60000610352</ele>
        <time>2022-04-18T09:01:02Z</time>
      </trkpt>
      <trkpt lat="45.19044" lon="4.74114">
        <ele>351.39999389648</ele>
        <time>2022-04-18T09:01:08Z</time>
      </trkpt>
      <trkpt lat="45.19053" lon="4.74203">
        <ele>349.79998779297</ele>
        <time>2022-04-18T09:01:18Z</time>
      </trkpt>
      <trkpt lat="45.19083" lon="4.74304">
        <ele>346.39999389648</ele>
        <time>2022-04-18T09:01:30Z</time>
      </trkpt>
      <trkpt lat="45.19129" lon="4.74433">
        <ele>343</ele>
        <time>2022-04-18T09:01:44Z</time>
      </trkpt>
      <trkpt lat="45.19145" lon="4.74494">
        <ele>341.39999389648</ele>
        <time>2022-04-18T09:01:50Z</time>
      </trkpt>
      <trkpt lat="45.19151" lon="4.74514">
        <ele>340.79998779297</ele>
        <time>2022-04-18T09:01:52Z</time>
      </trkpt>
      <trkpt lat="45.1916" lon="4.74535">
        <ele>340</ele>
        <time>2022-04-18T09:01:54Z</time>
      </trkpt>
      <trkpt lat="45.19165" lon="4.74545">
        <ele>339.79998779297</ele>
        <time>2022-04-18T09:01:55Z</time>
      </trkpt>
      <trkpt lat="45.19181" lon="4.74588">
        <ele>339.60000610352</ele>
        <time>2022-04-18T09:02:01Z</time>
      </trkpt>
      <trkpt lat="45.19185" lon="4.74598">
        <ele>339.79998779297</ele>
        <time>2022-04-18T09:02:03Z</time>
      </trkpt>
      <trkpt lat="45.1922" lon="4.74655">
        <ele>341.60000610352</ele>
        <time>2022-04-18T09:02:18Z</time>
      </trkpt>
      <trkpt lat="45.19235" lon="4.74694">
        <ele>344.60000610352</ele>
        <time>2022-04-18T09:02:30Z</time>
      </trkpt>
      <trkpt lat="45.19255" lon="4.74739">
        <ele>347.39999389648</ele>
        <time>2022-04-18T09:02:46Z</time>
      </trkpt>
      <trkpt lat="45.19275" lon="4.74784">
        <ele>349</ele>
        <time>2022-04-18T09:03:00Z</time>
      </trkpt>
      <trkpt lat="45.19292" lon="4.74835">
        <ele>351.79998779297</ele>
        <time>2022-04-18T09:03:15Z</time>
      </trkpt>
      <trkpt lat="45.19322" lon="4.74868">
        <ele>352.79998779297</ele>
        <time>2022-04-18T09:03:29Z</time>
      </trkpt>
      <trkpt lat="45.19356" lon="4.74905">
        <ele>354.60000610352</ele>
        <time>2022-04-18T09:03:44Z</time>
      </trkpt>
      <trkpt lat="45.19377" lon="4.74905">
        <ele>356.79998779297</ele>
        <time>2022-04-18T09:03:55Z</time>
      </trkpt>
      <trkpt lat="45.19384" lon="4.74904">
        <ele>358</ele>
        <time>2022-04-18T09:03:59Z</time>
      </trkpt>
      <trkpt lat="45.1939" lon="4.74912">
        <ele>359</ele>
        <time>2022-04-18T09:04:03Z</time>
      </trkpt>
      <trkpt lat="45.19405" lon="4.74946">
        <ele>361</ele>
        <time>2022-04-18T09:04:14Z</time>
      </trkpt>
      <trkpt lat="45.19429" lon="4.74985">
        <ele>361.20001220703</ele>
        <time>2022-04-18T09:04:24Z</time>
      </trkpt>
      <trkpt lat="45.19437" lon="4.75001">
        <ele>361.20001220703</ele>
        <time>2022-04-18T09:04:27Z</time>
      </trkpt>
      <trkpt lat="45.1945" lon="4.75019">
        <ele>361</ele>
        <time>2022-04-18T09:04:31Z</time>
      </trkpt>
      <trkpt lat="45.19471" lon="4.75108">
        <ele>359.60000610352</ele>
        <time>2022-04-18T09:04:45Z</time>
      </trkpt>
      <trkpt lat="45.1947" lon="4.75117">
        <ele>359.39999389648</ele>
        <time>2022-04-18T09:04:46Z</time>
      </trkpt>
      <trkpt lat="45.1947" lon="4.75126">
        <ele>359.39999389648</ele>
        <time>2022-04-18T09:04:47Z</time>
      </trkpt>
      <trkpt lat="45.19491" lon="4.75168">
        <ele>358</ele>
        <time>2022-04-18T09:04:53Z</time>
      </trkpt>
      <trkpt lat="45.19551" lon="4.75234">
        <ele>356</ele>
        <time>2022-04-18T09:05:10Z</time>
      </trkpt>
      <trkpt lat="45.19585" lon="4.75271">
        <ele>357.20001220703</ele>
        <time>2022-04-18T09:05:20Z</time>
      </trkpt>
      <trkpt lat="45.19618" lon="4.75321">
        <ele>357.39999389648</ele>
        <time>2022-04-18T09:05:30Z</time>
      </trkpt>
      <trkpt lat="45.19674" lon="4.75374">
        <ele>357.79998779297</ele>
        <time>2022-04-18T09:05:44Z</time>
      </trkpt>
      <trkpt lat="45.1969" lon="4.75384">
        <ele>358</ele>
        <time>2022-04-18T09:05:48Z</time>
      </trkpt>
      <trkpt lat="45.19701" lon="4.75401">
        <ele>358.60000610352</ele>
        <time>2022-04-18T09:05:52Z</time>
      </trkpt>
      <trkpt lat="45.19703" lon="4.75406">
        <ele>358.79998779297</ele>
        <time>2022-04-18T09:05:53Z</time>
      </trkpt>
      <trkpt lat="45.19714" lon="4.75537">
        <ele>359.60000610352</ele>
        <time>2022-04-18T09:06:13Z</time>
      </trkpt>
      <trkpt lat="45.19698" lon="4.75632">
        <ele>361.20001220703</ele>
        <time>2022-04-18T09:06:30Z</time>
      </trkpt>
      <trkpt lat="45.19647" lon="4.75768">
        <ele>361.79998779297</ele>
        <time>2022-04-18T09:06:52Z</time>
      </trkpt>
      <trkpt lat="45.19596" lon="4.75902">
        <ele>359.79998779297</ele>
        <time>2022-04-18T09:07:10Z</time>
      </trkpt>
      <trkpt lat="45.1957" lon="4.75923">
        <ele>359.39999389648</ele>
        <time>2022-04-18T09:07:15Z</time>
      </trkpt>
      <trkpt lat="45.1953" lon="4.7593">
        <ele>358.39999389648</ele>
        <time>2022-04-18T09:07:21Z</time>
      </trkpt>
      <trkpt lat="45.1944" lon="4.75955">
        <ele>356.79998779297</ele>
        <time>2022-04-18T09:07:35Z</time>
      </trkpt>
      <trkpt lat="45.19417" lon="4.75941">
        <ele>356.20001220703</ele>
        <time>2022-04-18T09:07:39Z</time>
      </trkpt>
      <trkpt lat="45.19364" lon="4.75896">
        <ele>355.60000610352</ele>
        <time>2022-04-18T09:07:48Z</time>
      </trkpt>
      <trkpt lat="45.19342" lon="4.75889">
        <ele>354.39999389648</ele>
        <time>2022-04-18T09:07:52Z</time>
      </trkpt>
      <trkpt lat="45.19331" lon="4.75891">
        <ele>353.79998779297</ele>
        <time>2022-04-18T09:07:54Z</time>
      </trkpt>
      <trkpt lat="45.19304" lon="4.75911">
        <ele>352.39999389648</ele>
        <time>2022-04-18T09:07:59Z</time>
      </trkpt>
      <trkpt lat="45.19294" lon="4.75922">
        <ele>351.79998779297</ele>
        <time>2022-04-18T09:08:01Z</time>
      </trkpt>
      <trkpt lat="45.19269" lon="4.75937">
        <ele>350.20001220703</ele>
        <time>2022-04-18T09:08:06Z</time>
      </trkpt>
      <trkpt lat="45.19236" lon="4.75951">
        <ele>347.60000610352</ele>
        <time>2022-04-18T09:08:14Z</time>
      </trkpt>
      <trkpt lat="45.1923" lon="4.75927">
        <ele>346.60000610352</ele>
        <time>2022-04-18T09:08:17Z</time>
      </trkpt>
      <trkpt lat="45.19229" lon="4.75916">
        <ele>346.39999389648</ele>
        <time>2022-04-18T09:08:18Z</time>
      </trkpt>
      <trkpt lat="45.19226" lon="4.75868">
        <ele>343.39999389648</ele>
        <time>2022-04-18T09:08:22Z</time>
      </trkpt>
      <trkpt lat="45.1924" lon="4.75821">
        <ele>340.20001220703</ele>
        <time>2022-04-18T09:08:27Z</time>
      </trkpt>
      <trkpt lat="45.19244" lon="4.75812">
        <ele>338.60000610352</ele>
        <time>2022-04-18T09:08:29Z</time>
      </trkpt>
      <trkpt lat="45.19238" lon="4.75804">
        <ele>335.20001220703</ele>
        <time>2022-04-18T09:08:32Z</time>
      </trkpt>
      <trkpt lat="45.19199" lon="4.75779">
        <ele>331.79998779297</ele>
        <time>2022-04-18T09:08:38Z</time>
      </trkpt>
      <trkpt lat="45.19192" lon="4.75775">
        <ele>331.39999389648</ele>
        <time>2022-04-18T09:08:39Z</time>
      </trkpt>
      <trkpt lat="45.19173" lon="4.75781">
        <ele>327.79998779297</ele>
        <time>2022-04-18T09:08:42Z</time>
      </trkpt>
      <trkpt lat="45.19154" lon="4.75814">
        <ele>324.79998779297</ele>
        <time>2022-04-18T09:08:46Z</time>
      </trkpt>
      <trkpt lat="45.19152" lon="4.75841">
        <ele>322.79998779297</ele>
        <time>2022-04-18T09:08:49Z</time>
      </trkpt>
      <trkpt lat="45.19152" lon="4.7585">
        <ele>322.60000610352</ele>
        <time>2022-04-18T09:08:50Z</time>
      </trkpt>
      <trkpt lat="45.19152" lon="4.75866">
        <ele>321.20001220703</ele>
        <time>2022-04-18T09:08:52Z</time>
      </trkpt>
      <trkpt lat="45.19148" lon="4.75885">
        <ele>316.39999389648</ele>
        <time>2022-04-18T09:08:56Z</time>
      </trkpt>
      <trkpt lat="45.19148" lon="4.75886">
        <ele>312.79998779297</ele>
        <time>2022-04-18T09:08:59Z</time>
      </trkpt>
      <trkpt lat="45.19148" lon="4.75889">
        <ele>311.39999389648</ele>
        <time>2022-04-18T09:09:02Z</time>
      </trkpt>
      <trkpt lat="45.19143" lon="4.75897">
        <ele>309.20001220703</ele>
        <time>2022-04-18T09:09:15Z</time>
      </trkpt>
      <trkpt lat="45.19141" lon="4.759">
        <ele>309</ele>
        <time>2022-04-18T09:09:18Z</time>
      </trkpt>
      <trkpt lat="45.19133" lon="4.75908">
        <ele>308.60000610352</ele>
        <time>2022-04-18T09:09:21Z</time>
      </trkpt>
      <trkpt lat="45.19099" lon="4.75959">
        <ele>306.39999389648</ele>
        <time>2022-04-18T09:09:29Z</time>
      </trkpt>
      <trkpt lat="45.19081" lon="4.75977">
        <ele>304.60000610352</ele>
        <time>2022-04-18T09:09:36Z</time>
      </trkpt>
      <trkpt lat="45.19075" lon="4.75984">
        <ele>306</ele>
        <time>2022-04-18T09:09:40Z</time>
      </trkpt>
      <trkpt lat="45.19068" lon="4.75995">
        <ele>308.79998779297</ele>
        <time>2022-04-18T09:09:46Z</time>
      </trkpt>
      <trkpt lat="45.19069" lon="4.76028">
        <ele>311.39999389648</ele>
        <time>2022-04-18T09:09:58Z</time>
      </trkpt>
      <trkpt lat="45.19072" lon="4.76045">
        <ele>314.39999389648</ele>
        <time>2022-04-18T09:10:07Z</time>
      </trkpt>
      <trkpt lat="45.19078" lon="4.76075">
        <ele>317.39999389648</ele>
        <time>2022-04-18T09:10:20Z</time>
      </trkpt>
      <trkpt lat="45.19083" lon="4.76102">
        <ele>317.79998779297</ele>
        <time>2022-04-18T09:10:27Z</time>
      </trkpt>
      <trkpt lat="45.19079" lon="4.76137">
        <ele>317</ele>
        <time>2022-04-18T09:10:32Z</time>
      </trkpt>
      <trkpt lat="45.19094" lon="4.76165">
        <ele>315.60000610352</ele>
        <time>2022-04-18T09:10:40Z</time>
      </trkpt>
      <trkpt lat="45.1911" lon="4.76199">
        <ele>316.79998779297</ele>
        <time>2022-04-18T09:10:54Z</time>
      </trkpt>
      <trkpt lat="45.19113" lon="4.76206">
        <ele>318.60000610352</ele>
        <time>2022-04-18T09:10:59Z</time>
      </trkpt>
      <trkpt lat="45.19115" lon="4.76211">
        <ele>320.20001220703</ele>
        <time>2022-04-18T09:11:02Z</time>
      </trkpt>
      <trkpt lat="45.19121" lon="4.76225">
        <ele>323.39999389648</ele>
        <time>2022-04-18T09:11:10Z</time>
      </trkpt>
      <trkpt lat="45.1913" lon="4.76242">
        <ele>326.39999389648</ele>
        <time>2022-04-18T09:11:21Z</time>
      </trkpt>
      <trkpt lat="45.19131" lon="4.76243">
        <ele>326.60000610352</ele>
        <time>2022-04-18T09:11:22Z</time>
      </trkpt>
      <trkpt lat="45.19146" lon="4.76274">
        <ele>328.39999389648</ele>
        <time>2022-04-18T09:11:38Z</time>
      </trkpt>
      <trkpt lat="45.1916" lon="4.76307">
        <ele>328.79998779297</ele>
        <time>2022-04-18T09:11:50Z</time>
      </trkpt>
      <trkpt lat="45.19185" lon="4.76361">
        <ele>329</ele>
        <time>2022-04-18T09:12:08Z</time>
      </trkpt>
      <trkpt lat="45.19194" lon="4.76382">
        <ele>329.20001220703</ele>
        <time>2022-04-18T09:12:14Z</time>
      </trkpt>
      <trkpt lat="45.19193" lon="4.76407">
        <ele>329.60000610352</ele>
        <time>2022-04-18T09:12:20Z</time>
      </trkpt>
      <trkpt lat="45.19207" lon="4.76426">
        <ele>329.79998779297</ele>
        <time>2022-04-18T09:12:29Z</time>
      </trkpt>
      <trkpt lat="45.19221" lon="4.76431">
        <ele>331</ele>
        <time>2022-04-18T09:12:39Z</time>
      </trkpt>
      <trkpt lat="45.19224" lon="4.76428">
        <ele>331.20001220703</ele>
        <time>2022-04-18T09:12:41Z</time>
      </trkpt>
      <trkpt lat="45.19256" lon="4.76409">
        <ele>334.20001220703</ele>
        <time>2022-04-18T09:12:58Z</time>
      </trkpt>
      <trkpt lat="45.19277" lon="4.76397">
        <ele>336.39999389648</ele>
        <time>2022-04-18T09:13:11Z</time>
      </trkpt>
      <trkpt lat="45.19293" lon="4.76384">
        <ele>339.60000610352</ele>
        <time>2022-04-18T09:13:23Z</time>
      </trkpt>
      <trkpt lat="45.19301" lon="4.76378">
        <ele>341.79998779297</ele>
        <time>2022-04-18T09:13:31Z</time>
      </trkpt>
      <trkpt lat="45.19304" lon="4.76375">
        <ele>343.39999389648</ele>
        <time>2022-04-18T09:13:35Z</time>
      </trkpt>
      <trkpt lat="45.19326" lon="4.76394">
        <ele>345</ele>
        <time>2022-04-18T09:13:45Z</time>
      </trkpt>
      <trkpt lat="45.19371" lon="4.76432">
        <ele>345.79998779297</ele>
        <time>2022-04-18T09:14:00Z</time>
      </trkpt>
      <trkpt lat="45.19404" lon="4.7646">
        <ele>346.20001220703</ele>
        <time>2022-04-18T09:14:10Z</time>
      </trkpt>
      <trkpt lat="45.1945" lon="4.7654">
        <ele>346.79998779297</ele>
        <time>2022-04-18T09:14:27Z</time>
      </trkpt>
      <trkpt lat="45.19483" lon="4.76574">
        <ele>343.79998779297</ele>
        <time>2022-04-18T09:14:33Z</time>
      </trkpt>
      <trkpt lat="45.19491" lon="4.76574">
        <ele>342.60000610352</ele>
        <time>2022-04-18T09:14:34Z</time>
      </trkpt>
      <trkpt lat="45.1951" lon="4.76574">
        <ele>339.20001220703</ele>
        <time>2022-04-18T09:14:36Z</time>
      </trkpt>
      <trkpt lat="45.1952" lon="4.76576">
        <ele>337.60000610352</ele>
        <time>2022-04-18T09:14:37Z</time>
      </trkpt>
      <trkpt lat="45.19547" lon="4.76592">
        <ele>333.60000610352</ele>
        <time>2022-04-18T09:14:41Z</time>
      </trkpt>
      <trkpt lat="45.19549" lon="4.76607">
        <ele>329.79998779297</ele>
        <time>2022-04-18T09:14:44Z</time>
      </trkpt>
      <trkpt lat="45.19548" lon="4.7661">
        <ele>329.60000610352</ele>
        <time>2022-04-18T09:14:45Z</time>
      </trkpt>
      <trkpt lat="45.19547" lon="4.76612">
        <ele>329.39999389648</ele>
        <time>2022-04-18T09:14:46Z</time>
      </trkpt>
      <trkpt lat="45.19545" lon="4.76616">
        <ele>329.20001220703</ele>
        <time>2022-04-18T09:14:49Z</time>
      </trkpt>
      <trkpt lat="45.19541" lon="4.7663">
        <ele>330.39999389648</ele>
        <time>2022-04-18T09:14:55Z</time>
      </trkpt>
      <trkpt lat="45.19538" lon="4.76642">
        <ele>332</ele>
        <time>2022-04-18T09:15:01Z</time>
      </trkpt>
      <trkpt lat="45.19535" lon="4.76667">
        <ele>336</ele>
        <time>2022-04-18T09:15:13Z</time>
      </trkpt>
      <trkpt lat="45.19535" lon="4.76669">
        <ele>336.20001220703</ele>
        <time>2022-04-18T09:15:14Z</time>
      </trkpt>
      <trkpt lat="45.19538" lon="4.76683">
        <ele>339.20001220703</ele>
        <time>2022-04-18T09:15:22Z</time>
      </trkpt>
      <trkpt lat="45.19539" lon="4.76687">
        <ele>340.20001220703</ele>
        <time>2022-04-18T09:15:24Z</time>
      </trkpt>
      <trkpt lat="45.19548" lon="4.76719">
        <ele>342.79998779297</ele>
        <time>2022-04-18T09:15:40Z</time>
      </trkpt>
      <trkpt lat="45.19563" lon="4.76735">
        <ele>345.79998779297</ele>
        <time>2022-04-18T09:15:54Z</time>
      </trkpt>
      <trkpt lat="45.19582" lon="4.76737">
        <ele>348.79998779297</ele>
        <time>2022-04-18T09:16:07Z</time>
      </trkpt>
      <trkpt lat="45.19595" lon="4.76731">
        <ele>350.20001220703</ele>
        <time>2022-04-18T09:16:16Z</time>
      </trkpt>
      <trkpt lat="45.1961" lon="4.76763">
        <ele>351.39999389648</ele>
        <time>2022-04-18T09:16:25Z</time>
      </trkpt>
      <trkpt lat="45.19653" lon="4.76865">
        <ele>351.20001220703</ele>
        <time>2022-04-18T09:16:45Z</time>
      </trkpt>
      <trkpt lat="45.19661" lon="4.76886">
        <ele>351</ele>
        <time>2022-04-18T09:16:49Z</time>
      </trkpt>
      <trkpt lat="45.1968" lon="4.76917">
        <ele>351</ele>
        <time>2022-04-18T09:16:56Z</time>
      </trkpt>
      <trkpt lat="45.19717" lon="4.76962">
        <ele>351.20001220703</ele>
        <time>2022-04-18T09:17:08Z</time>
      </trkpt>
      <trkpt lat="45.19756" lon="4.77005">
        <ele>351.60000610352</ele>
        <time>2022-04-18T09:17:20Z</time>
      </trkpt>
      <trkpt lat="45.19767" lon="4.77017">
        <ele>351.39999389648</ele>
        <time>2022-04-18T09:17:24Z</time>
      </trkpt>
      <trkpt lat="45.19768" lon="4.77036">
        <ele>351.39999389648</ele>
        <time>2022-04-18T09:17:28Z</time>
      </trkpt>
      <trkpt lat="45.19765" lon="4.77132">
        <ele>350</ele>
        <time>2022-04-18T09:17:41Z</time>
      </trkpt>
      <trkpt lat="45.19769" lon="4.77184">
        <ele>349.20001220703</ele>
        <time>2022-04-18T09:17:48Z</time>
      </trkpt>
      <trkpt lat="45.19772" lon="4.77226">
        <ele>348.39999389648</ele>
        <time>2022-04-18T09:17:54Z</time>
      </trkpt>
      <trkpt lat="45.19768" lon="4.77251">
        <ele>347.79998779297</ele>
        <time>2022-04-18T09:17:58Z</time>
      </trkpt>
      <trkpt lat="45.1976" lon="4.77276">
        <ele>347.79998779297</ele>
        <time>2022-04-18T09:18:02Z</time>
      </trkpt>
      <trkpt lat="45.19728" lon="4.77348">
        <ele>346.20001220703</ele>
        <time>2022-04-18T09:18:10Z</time>
      </trkpt>
      <trkpt lat="45.19715" lon="4.77388">
        <ele>343.79998779297</ele>
        <time>2022-04-18T09:18:14Z</time>
      </trkpt>
      <trkpt lat="45.19685" lon="4.77444">
        <ele>340.79998779297</ele>
        <time>2022-04-18T09:18:22Z</time>
      </trkpt>
      <trkpt lat="45.1967" lon="4.77478">
        <ele>339.79998779297</ele>
        <time>2022-04-18T09:18:30Z</time>
      </trkpt>
      <trkpt lat="45.19633" lon="4.77556">
        <ele>338.79998779297</ele>
        <time>2022-04-18T09:18:43Z</time>
      </trkpt>
      <trkpt lat="45.19627" lon="4.77568">
        <ele>338.39999389648</ele>
        <time>2022-04-18T09:18:45Z</time>
      </trkpt>
      <trkpt lat="45.19595" lon="4.77664">
        <ele>335.20001220703</ele>
        <time>2022-04-18T09:18:57Z</time>
      </trkpt>
      <trkpt lat="45.19593" lon="4.77673">
        <ele>335</ele>
        <time>2022-04-18T09:18:58Z</time>
      </trkpt>
      <trkpt lat="45.1959" lon="4.77699">
        <ele>333.79998779297</ele>
        <time>2022-04-18T09:19:01Z</time>
      </trkpt>
      <trkpt lat="45.19571" lon="4.77812">
        <ele>330.60000610352</ele>
        <time>2022-04-18T09:19:13Z</time>
      </trkpt>
      <trkpt lat="45.19568" lon="4.77835">
        <ele>329.39999389648</ele>
        <time>2022-04-18T09:19:15Z</time>
      </trkpt>
      <trkpt lat="45.19566" lon="4.77845">
        <ele>329.20001220703</ele>
        <time>2022-04-18T09:19:16Z</time>
      </trkpt>
      <trkpt lat="45.19561" lon="4.77866">
        <ele>326.79998779297</ele>
        <time>2022-04-18T09:19:18Z</time>
      </trkpt>
      <trkpt lat="45.19561" lon="4.77904">
        <ele>324</ele>
        <time>2022-04-18T09:19:22Z</time>
      </trkpt>
      <trkpt lat="45.19559" lon="4.77922">
        <ele>320.60000610352</ele>
        <time>2022-04-18T09:19:25Z</time>
      </trkpt>
      <trkpt lat="45.19552" lon="4.77935">
        <ele>319</ele>
        <time>2022-04-18T09:19:28Z</time>
      </trkpt>
      <trkpt lat="45.19543" lon="4.77945">
        <ele>315.60000610352</ele>
        <time>2022-04-18T09:19:34Z</time>
      </trkpt>
      <trkpt lat="45.19533" lon="4.77938">
        <ele>314.79998779297</ele>
        <time>2022-04-18T09:19:37Z</time>
      </trkpt>
      <trkpt lat="45.19514" lon="4.77945">
        <ele>313.20001220703</ele>
        <time>2022-04-18T09:19:40Z</time>
      </trkpt>
      <trkpt lat="45.19501" lon="4.77953">
        <ele>312.39999389648</ele>
        <time>2022-04-18T09:19:42Z</time>
      </trkpt>
      <trkpt lat="45.19488" lon="4.7796">
        <ele>308.20001220703</ele>
        <time>2022-04-18T09:19:45Z</time>
      </trkpt>
      <trkpt lat="45.19484" lon="4.77966">
        <ele>305.60000610352</ele>
        <time>2022-04-18T09:19:47Z</time>
      </trkpt>
      <trkpt lat="45.19483" lon="4.77971">
        <ele>301.60000610352</ele>
        <time>2022-04-18T09:19:50Z</time>
      </trkpt>
      <trkpt lat="45.19481" lon="4.77975">
        <ele>299.60000610352</ele>
        <time>2022-04-18T09:19:53Z</time>
      </trkpt>
      <trkpt lat="45.19484" lon="4.7798">
        <ele>298</ele>
        <time>2022-04-18T09:19:56Z</time>
      </trkpt>
      <trkpt lat="45.19485" lon="4.77986">
        <ele>295</ele>
        <time>2022-04-18T09:20:04Z</time>
      </trkpt>
      <trkpt lat="45.19484" lon="4.77993">
        <ele>294.20001220703</ele>
        <time>2022-04-18T09:20:08Z</time>
      </trkpt>
      <trkpt lat="45.1948" lon="4.78001">
        <ele>292.20001220703</ele>
        <time>2022-04-18T09:20:13Z</time>
      </trkpt>
      <trkpt lat="45.19478" lon="4.78001">
        <ele>292</ele>
        <time>2022-04-18T09:20:14Z</time>
      </trkpt>
      <trkpt lat="45.19466" lon="4.78004">
        <ele>289</ele>
        <time>2022-04-18T09:20:21Z</time>
      </trkpt>
      <trkpt lat="45.19464" lon="4.78006">
        <ele>287.39999389648</ele>
        <time>2022-04-18T09:20:23Z</time>
      </trkpt>
      <trkpt lat="45.19461" lon="4.78007">
        <ele>285.79998779297</ele>
        <time>2022-04-18T09:20:26Z</time>
      </trkpt>
      <trkpt lat="45.19458" lon="4.78011">
        <ele>282.20001220703</ele>
        <time>2022-04-18T09:20:36Z</time>
      </trkpt>
      <trkpt lat="45.19458" lon="4.78012">
        <ele>282.20001220703</ele>
        <time>2022-04-18T09:20:37Z</time>
      </trkpt>
      <trkpt lat="45.19459" lon="4.78015">
        <ele>281.39999389648</ele>
        <time>2022-04-18T09:20:40Z</time>
      </trkpt>
      <trkpt lat="45.19462" lon="4.78026">
        <ele>278.20001220703</ele>
        <time>2022-04-18T09:20:55Z</time>
      </trkpt>
      <trkpt lat="45.19464" lon="4.78036">
        <ele>276.60000610352</ele>
        <time>2022-04-18T09:21:07Z</time>
      </trkpt>
      <trkpt lat="45.19478" lon="4.78065">
        <ele>273.60000610352</ele>
        <time>2022-04-18T09:21:19Z</time>
      </trkpt>
      <trkpt lat="45.19488" lon="4.78079">
        <ele>272</ele>
        <time>2022-04-18T09:21:22Z</time>
      </trkpt>
      <trkpt lat="45.19504" lon="4.78114">
        <ele>268.39999389648</ele>
        <time>2022-04-18T09:21:27Z</time>
      </trkpt>
      <trkpt lat="45.19504" lon="4.78122">
        <ele>267.79998779297</ele>
        <time>2022-04-18T09:21:28Z</time>
      </trkpt>
      <trkpt lat="45.19505" lon="4.78128">
        <ele>267</ele>
        <time>2022-04-18T09:21:29Z</time>
      </trkpt>
      <trkpt lat="45.19506" lon="4.78134">
        <ele>266.79998779297</ele>
        <time>2022-04-18T09:21:30Z</time>
      </trkpt>
      <trkpt lat="45.19507" lon="4.78145">
        <ele>265.60000610352</ele>
        <time>2022-04-18T09:21:33Z</time>
      </trkpt>
      <trkpt lat="45.19499" lon="4.78153">
        <ele>264.20001220703</ele>
        <time>2022-04-18T09:21:36Z</time>
      </trkpt>
      <trkpt lat="45.19493" lon="4.78154">
        <ele>264</ele>
        <time>2022-04-18T09:21:37Z</time>
      </trkpt>
      <trkpt lat="45.1949" lon="4.78162">
        <ele>263</ele>
        <time>2022-04-18T09:21:42Z</time>
      </trkpt>
      <trkpt lat="45.1949" lon="4.78171">
        <ele>262.79998779297</ele>
        <time>2022-04-18T09:21:47Z</time>
      </trkpt>
      <trkpt lat="45.1949" lon="4.78173">
        <ele>262.79998779297</ele>
        <time>2022-04-18T09:21:48Z</time>
      </trkpt>
      <trkpt lat="45.19485" lon="4.78189">
        <ele>263.79998779297</ele>
        <time>2022-04-18T09:21:55Z</time>
      </trkpt>
      <trkpt lat="45.19483" lon="4.782">
        <ele>264.39999389648</ele>
        <time>2022-04-18T09:22:03Z</time>
      </trkpt>
      <trkpt lat="45.19471" lon="4.7821">
        <ele>263</ele>
        <time>2022-04-18T09:22:09Z</time>
      </trkpt>
      <trkpt lat="45.19471" lon="4.78225">
        <ele>261.20001220703</ele>
        <time>2022-04-18T09:22:12Z</time>
      </trkpt>
      <trkpt lat="45.1949" lon="4.78237">
        <ele>259</ele>
        <time>2022-04-18T09:22:16Z</time>
      </trkpt>
      <trkpt lat="45.1951" lon="4.78269">
        <ele>255.80000305176</ele>
        <time>2022-04-18T09:22:22Z</time>
      </trkpt>
      <trkpt lat="45.19508" lon="4.78273">
        <ele>255.60000610352</ele>
        <time>2022-04-18T09:22:23Z</time>
      </trkpt>
      <trkpt lat="45.19505" lon="4.78277">
        <ele>255</ele>
        <time>2022-04-18T09:22:24Z</time>
      </trkpt>
      <trkpt lat="45.19501" lon="4.7828">
        <ele>254.80000305176</ele>
        <time>2022-04-18T09:22:25Z</time>
      </trkpt>
      <trkpt lat="45.19497" lon="4.78313">
        <ele>251.60000610352</ele>
        <time>2022-04-18T09:22:31Z</time>
      </trkpt>
      <trkpt lat="45.19502" lon="4.78322">
        <ele>250.60000610352</ele>
        <time>2022-04-18T09:22:33Z</time>
      </trkpt>
      <trkpt lat="45.19518" lon="4.78345">
        <ele>248</ele>
        <time>2022-04-18T09:22:37Z</time>
      </trkpt>
      <trkpt lat="45.19525" lon="4.78364">
        <ele>245.19999694824</ele>
        <time>2022-04-18T09:22:41Z</time>
      </trkpt>
      <trkpt lat="45.19523" lon="4.78381">
        <ele>243.80000305176</ele>
        <time>2022-04-18T09:22:44Z</time>
      </trkpt>
      <trkpt lat="45.19525" lon="4.78401">
        <ele>242.39999389648</ele>
        <time>2022-04-18T09:22:47Z</time>
      </trkpt>
      <trkpt lat="45.19525" lon="4.78411">
        <ele>240.60000610352</ele>
        <time>2022-04-18T09:22:49Z</time>
      </trkpt>
      <trkpt lat="45.19516" lon="4.78435">
        <ele>238</ele>
        <time>2022-04-18T09:22:53Z</time>
      </trkpt>
      <trkpt lat="45.19513" lon="4.7844">
        <ele>236.60000610352</ele>
        <time>2022-04-18T09:22:54Z</time>
      </trkpt>
      <trkpt lat="45.19497" lon="4.78458">
        <ele>232.19999694824</ele>
        <time>2022-04-18T09:22:58Z</time>
      </trkpt>
      <trkpt lat="45.1948" lon="4.78478">
        <ele>229.19999694824</ele>
        <time>2022-04-18T09:23:01Z</time>
      </trkpt>
      <trkpt lat="45.19474" lon="4.78485">
        <ele>228.80000305176</ele>
        <time>2022-04-18T09:23:02Z</time>
      </trkpt>
      <trkpt lat="45.19459" lon="4.78512">
        <ele>226</ele>
        <time>2022-04-18T09:23:05Z</time>
      </trkpt>
      <trkpt lat="45.19452" lon="4.78538">
        <ele>222.60000610352</ele>
        <time>2022-04-18T09:23:08Z</time>
      </trkpt>
      <trkpt lat="45.19448" lon="4.78556">
        <ele>219.60000610352</ele>
        <time>2022-04-18T09:23:10Z</time>
      </trkpt>
      <trkpt lat="45.19447" lon="4.78564">
        <ele>218.80000305176</ele>
        <time>2022-04-18T09:23:11Z</time>
      </trkpt>
      <trkpt lat="45.19438" lon="4.7859">
        <ele>215.80000305176</ele>
        <time>2022-04-18T09:23:14Z</time>
      </trkpt>
      <trkpt lat="45.19432" lon="4.78608">
        <ele>214.39999389648</ele>
        <time>2022-04-18T09:23:16Z</time>
      </trkpt>
      <trkpt lat="45.19426" lon="4.78636">
        <ele>210.60000610352</ele>
        <time>2022-04-18T09:23:19Z</time>
      </trkpt>
      <trkpt lat="45.19423" lon="4.7866">
        <ele>207.39999389648</ele>
        <time>2022-04-18T09:23:22Z</time>
      </trkpt>
      <trkpt lat="45.19426" lon="4.78681">
        <ele>204.19999694824</ele>
        <time>2022-04-18T09:23:25Z</time>
      </trkpt>
      <trkpt lat="45.19426" lon="4.78703">
        <ele>199.80000305176</ele>
        <time>2022-04-18T09:23:28Z</time>
      </trkpt>
      <trkpt lat="45.19426" lon="4.78709">
        <ele>199.19999694824</ele>
        <time>2022-04-18T09:23:29Z</time>
      </trkpt>
      <trkpt lat="45.19429" lon="4.78729">
        <ele>196.80000305176</ele>
        <time>2022-04-18T09:23:32Z</time>
      </trkpt>
      <trkpt lat="45.19428" lon="4.78746">
        <ele>193.80000305176</ele>
        <time>2022-04-18T09:23:35Z</time>
      </trkpt>
      <trkpt lat="45.19427" lon="4.78751">
        <ele>193.19999694824</ele>
        <time>2022-04-18T09:23:36Z</time>
      </trkpt>
      <trkpt lat="45.19422" lon="4.78776">
        <ele>189.80000305176</ele>
        <time>2022-04-18T09:23:40Z</time>
      </trkpt>
      <trkpt lat="45.19421" lon="4.78783">
        <ele>189.39999389648</ele>
        <time>2022-04-18T09:23:41Z</time>
      </trkpt>
      <trkpt lat="45.19412" lon="4.7881">
        <ele>185.60000610352</ele>
        <time>2022-04-18T09:23:45Z</time>
      </trkpt>
      <trkpt lat="45.19403" lon="4.78829">
        <ele>182.60000610352</ele>
        <time>2022-04-18T09:23:49Z</time>
      </trkpt>
      <trkpt lat="45.19402" lon="4.78834">
        <ele>182.39999389648</ele>
        <time>2022-04-18T09:23:50Z</time>
      </trkpt>
      <trkpt lat="45.19399" lon="4.78842">
        <ele>181.60000610352</ele>
        <time>2022-04-18T09:23:52Z</time>
      </trkpt>
      <trkpt lat="45.19391" lon="4.78846">
        <ele>179.60000610352</ele>
        <time>2022-04-18T09:23:55Z</time>
      </trkpt>
      <trkpt lat="45.1938" lon="4.78853">
        <ele>178.39999389648</ele>
        <time>2022-04-18T09:23:59Z</time>
      </trkpt>
      <trkpt lat="45.1935" lon="4.78882">
        <ele>175.19999694824</ele>
        <time>2022-04-18T09:24:07Z</time>
      </trkpt>
      <trkpt lat="45.19345" lon="4.78892">
        <ele>174</ele>
        <time>2022-04-18T09:24:09Z</time>
      </trkpt>
      <trkpt lat="45.19341" lon="4.78901">
        <ele>170.60000610352</ele>
        <time>2022-04-18T09:24:12Z</time>
      </trkpt>
      <trkpt lat="45.19339" lon="4.78905">
        <ele>169.19999694824</ele>
        <time>2022-04-18T09:24:14Z</time>
      </trkpt>
      <trkpt lat="45.19337" lon="4.78905">
        <ele>168</ele>
        <time>2022-04-18T09:24:16Z</time>
      </trkpt>
      <trkpt lat="45.19338" lon="4.7888">
        <ele>164.60000610352</ele>
        <time>2022-04-18T09:24:21Z</time>
      </trkpt>
      <trkpt lat="45.19336" lon="4.78867">
        <ele>163.39999389648</ele>
        <time>2022-04-18T09:24:24Z</time>
      </trkpt>
      <trkpt lat="45.19324" lon="4.78845">
        <ele>159.60000610352</ele>
        <time>2022-04-18T09:24:30Z</time>
      </trkpt>
      <trkpt lat="45.19314" lon="4.78835">
        <ele>156.39999389648</ele>
        <time>2022-04-18T09:24:34Z</time>
      </trkpt>
      <trkpt lat="45.19303" lon="4.7882">
        <ele>153.60000610352</ele>
        <time>2022-04-18T09:24:39Z</time>
      </trkpt>
      <trkpt lat="45.19301" lon="4.78825">
        <ele>152</ele>
        <time>2022-04-18T09:24:43Z</time>
      </trkpt>
      <trkpt lat="45.19312" lon="4.78875">
        <ele>149.19999694824</ele>
        <time>2022-04-18T09:24:54Z</time>
      </trkpt>
      <trkpt lat="45.19312" lon="4.78895">
        <ele>147.19999694824</ele>
        <time>2022-04-18T09:24:57Z</time>
      </trkpt>
      <trkpt lat="45.19312" lon="4.78901">
        <ele>145.60000610352</ele>
        <time>2022-04-18T09:24:58Z</time>
      </trkpt>
      <trkpt lat="45.19292" lon="4.78932">
        <ele>142.60000610352</ele>
        <time>2022-04-18T09:25:03Z</time>
      </trkpt>
      <trkpt lat="45.19288" lon="4.78959">
        <ele>139.19999694824</ele>
        <time>2022-04-18T09:25:07Z</time>
      </trkpt>
      <trkpt lat="45.1928" lon="4.78981">
        <ele>137.60000610352</ele>
        <time>2022-04-18T09:25:10Z</time>
      </trkpt>
      <trkpt lat="45.19274" lon="4.78994">
        <ele>137.39999389648</ele>
        <time>2022-04-18T09:25:12Z</time>
      </trkpt>
      <trkpt lat="45.19249" lon="4.7903">
        <ele>135.60000610352</ele>
        <time>2022-04-18T09:25:22Z</time>
      </trkpt>
      <trkpt lat="45.19243" lon="4.79053">
        <ele>134.39999389648</ele>
        <time>2022-04-18T09:25:26Z</time>
      </trkpt>
      <trkpt lat="45.1924" lon="4.7907">
        <ele>132.80000305176</ele>
        <time>2022-04-18T09:25:29Z</time>
      </trkpt>
      <trkpt lat="45.19231" lon="4.79129">
        <ele>130</ele>
        <time>2022-04-18T09:25:38Z</time>
      </trkpt>
      <trkpt lat="45.19225" lon="4.79147">
        <ele>129.60000610352</ele>
        <time>2022-04-18T09:25:47Z</time>
      </trkpt>
      <trkpt lat="45.19219" lon="4.79184">
        <ele>129.39999389648</ele>
        <time>2022-04-18T09:26:43Z</time>
      </trkpt>
      <trkpt lat="45.19213" lon="4.79226">
        <ele>129.80000305176</ele>
        <time>2022-04-18T09:26:52Z</time>
      </trkpt>
      <trkpt lat="45.19203" lon="4.79267">
        <ele>129.80000305176</ele>
        <time>2022-04-18T09:26:58Z</time>
      </trkpt>
      <trkpt lat="45.19196" lon="4.79298">
        <ele>129.60000610352</ele>
        <time>2022-04-18T09:27:02Z</time>
      </trkpt>
      <trkpt lat="45.19191" lon="4.7932">
        <ele>129.60000610352</ele>
        <time>2022-04-18T09:27:05Z</time>
      </trkpt>
      <trkpt lat="45.19186" lon="4.79339">
        <ele>129.60000610352</ele>
        <time>2022-04-18T09:27:08Z</time>
      </trkpt>
      <trkpt lat="45.19176" lon="4.79369">
        <ele>128.60000610352</ele>
        <time>2022-04-18T09:27:13Z</time>
      </trkpt>
      <trkpt lat="45.19167" lon="4.79368">
        <ele>127.80000305176</ele>
        <time>2022-04-18T09:27:17Z</time>
      </trkpt>
      <trkpt lat="45.19158" lon="4.79366">
        <ele>127.59999847412</ele>
        <time>2022-04-18T09:27:20Z</time>
      </trkpt>
      <trkpt lat="45.19144" lon="4.79396">
        <ele>127.80000305176</ele>
        <time>2022-04-18T09:27:27Z</time>
      </trkpt>
      <trkpt lat="45.19141" lon="4.79451">
        <ele>128</ele>
        <time>2022-04-18T09:27:38Z</time>
      </trkpt>
      <trkpt lat="45.19142" lon="4.79457">
        <ele>128.19999694824</ele>
        <time>2022-04-18T09:27:39Z</time>
      </trkpt>
      <trkpt lat="45.19144" lon="4.79495">
        <ele>128.19999694824</ele>
        <time>2022-04-18T09:27:45Z</time>
      </trkpt>
      <trkpt lat="45.1916" lon="4.79582">
        <ele>128.80000305176</ele>
        <time>2022-04-18T09:27:58Z</time>
      </trkpt>
      <trkpt lat="45.19185" lon="4.79691">
        <ele>128</ele>
        <time>2022-04-18T09:28:14Z</time>
      </trkpt>
      <trkpt lat="45.19188" lon="4.79711">
        <ele>128</ele>
        <time>2022-04-18T09:28:17Z</time>
      </trkpt>
      <trkpt lat="45.19183" lon="4.79768">
        <ele>127.80000305176</ele>
        <time>2022-04-18T09:28:26Z</time>
      </trkpt>
      <trkpt lat="45.19165" lon="4.79833">
        <ele>126.80000305176</ele>
        <time>2022-04-18T09:28:38Z</time>
      </trkpt>
      <trkpt lat="45.19157" lon="4.79841">
        <ele>127</ele>
        <time>2022-04-18T09:28:41Z</time>
      </trkpt>
      <trkpt lat="45.19165" lon="4.79853">
        <ele>127.80000305176</ele>
        <time>2022-04-18T09:28:49Z</time>
      </trkpt>
      <trkpt lat="45.19168" lon="4.79857">
        <ele>127.59999847412</ele>
        <time>2022-04-18T09:28:53Z</time>
      </trkpt>
      <trkpt lat="45.19158" lon="4.79865">
        <ele>125.40000152588</ele>
        <time>2022-04-18T09:29:05Z</time>
      </trkpt>
      <trkpt lat="45.19157" lon="4.79864">
        <ele>125.80000305176</ele>
        <time>2022-04-18T09:29:08Z</time>
      </trkpt>
      <trkpt lat="45.19155" lon="4.79863">
        <ele>126</ele>
        <time>2022-04-18T09:29:10Z</time>
      </trkpt>
      <trkpt lat="45.19142" lon="4.79859">
        <ele>127.40000152588</ele>
        <time>2022-04-18T09:29:22Z</time>
      </trkpt>
      <trkpt lat="45.19135" lon="4.79881">
        <ele>126.40000152588</ele>
        <time>2022-04-18T09:29:29Z</time>
      </trkpt>
      <trkpt lat="45.19139" lon="4.79889">
        <ele>125.80000305176</ele>
        <time>2022-04-18T09:29:34Z</time>
      </trkpt>
      <trkpt lat="45.19125" lon="4.79921">
        <ele>126.59999847412</ele>
        <time>2022-04-18T09:29:43Z</time>
      </trkpt>
      <trkpt lat="45.19086" lon="4.80018">
        <ele>127.40000152588</ele>
        <time>2022-04-18T09:30:02Z</time>
      </trkpt>
      <trkpt lat="45.19056" lon="4.80072">
        <ele>127.19999694824</ele>
        <time>2022-04-18T09:30:14Z</time>
      </trkpt>
      <trkpt lat="45.1904" lon="4.80069">
        <ele>127</ele>
        <time>2022-04-18T09:30:18Z</time>
      </trkpt>
      <trkpt lat="45.19034" lon="4.80087">
        <ele>125.59999847412</ele>
        <time>2022-04-18T09:30:23Z</time>
      </trkpt>
      <trkpt lat="45.19033" lon="4.80099">
        <ele>125</ele>
        <time>2022-04-18T09:30:25Z</time>
      </trkpt>
      <trkpt lat="45.1902" lon="4.80123">
        <ele>124.59999847412</ele>
        <time>2022-04-18T09:30:32Z</time>
      </trkpt>
      <trkpt lat="45.19001" lon="4.80128">
        <ele>124.40000152588</ele>
        <time>2022-04-18T09:30:37Z</time>
      </trkpt>
      <trkpt lat="45.18978" lon="4.80135">
        <ele>124.80000305176</ele>
        <time>2022-04-18T09:30:46Z</time>
      </trkpt>
      <trkpt lat="45.18981" lon="4.80172">
        <ele>124.40000152588</ele>
        <time>2022-04-18T09:31:04Z</time>
      </trkpt>
      <trkpt lat="45.18997" lon="4.80179">
        <ele>124.40000152588</ele>
        <time>2022-04-18T09:31:09Z</time>
      </trkpt>
      <trkpt lat="45.19012" lon="4.80186">
        <ele>124.40000152588</ele>
        <time>2022-04-18T09:31:14Z</time>
      </trkpt>
      <trkpt lat="45.19033" lon="4.80213">
        <ele>125.40000152588</ele>
        <time>2022-04-18T09:31:23Z</time>
      </trkpt>
      <trkpt lat="45.19033" lon="4.80217">
        <ele>125.59999847412</ele>
        <time>2022-04-18T09:31:24Z</time>
      </trkpt>
      <trkpt lat="45.19013" lon="4.80303">
        <ele>127.40000152588</ele>
        <time>2022-04-18T09:31:40Z</time>
      </trkpt>
      <trkpt lat="45.18961" lon="4.80449">
        <ele>127</ele>
        <time>2022-04-18T09:32:04Z</time>
      </trkpt>
      <trkpt lat="45.18876" lon="4.80599">
        <ele>127.19999694824</ele>
        <time>2022-04-18T09:32:31Z</time>
      </trkpt>
      <trkpt lat="45.18754" lon="4.80728">
        <ele>127.19999694824</ele>
        <time>2022-04-18T09:33:00Z</time>
      </trkpt>
      <trkpt lat="45.18546" lon="4.80916">
        <ele>127.40000152588</ele>
        <time>2022-04-18T09:33:44Z</time>
      </trkpt>
      <trkpt lat="45.18379" lon="4.81073">
        <ele>126.40000152588</ele>
        <time>2022-04-18T09:34:18Z</time>
      </trkpt>
      <trkpt lat="45.18328" lon="4.81111">
        <ele>126.80000305176</ele>
        <time>2022-04-18T09:34:29Z</time>
      </trkpt>
      <trkpt lat="45.18314" lon="4.81116">
        <ele>127.19999694824</ele>
        <time>2022-04-18T09:34:32Z</time>
      </trkpt>
      <trkpt lat="45.18304" lon="4.81119">
        <ele>127.40000152588</ele>
        <time>2022-04-18T09:34:34Z</time>
      </trkpt>
      <trkpt lat="45.18249" lon="4.81122">
        <ele>127.59999847412</ele>
        <time>2022-04-18T09:34:43Z</time>
      </trkpt>
      <trkpt lat="45.18119" lon="4.81107">
        <ele>127</ele>
        <time>2022-04-18T09:35:06Z</time>
      </trkpt>
      <trkpt lat="45.17936" lon="4.8104">
        <ele>127.40000152588</ele>
        <time>2022-04-18T09:35:39Z</time>
      </trkpt>
      <trkpt lat="45.17897" lon="4.8102">
        <ele>127.40000152588</ele>
        <time>2022-04-18T09:35:45Z</time>
      </trkpt>
      <trkpt lat="45.17604" lon="4.80859">
        <ele>126.40000152588</ele>
        <time>2022-04-18T09:36:38Z</time>
      </trkpt>
      <trkpt lat="45.17458" lon="4.80782">
        <ele>127</ele>
        <time>2022-04-18T09:37:04Z</time>
      </trkpt>
      <trkpt lat="45.17311" lon="4.80702">
        <ele>127</ele>
        <time>2022-04-18T09:37:30Z</time>
      </trkpt>
      <trkpt lat="45.17091" lon="4.80627">
        <ele>127.19999694824</ele>
        <time>2022-04-18T09:38:07Z</time>
      </trkpt>
      <trkpt lat="45.17018" lon="4.80616">
        <ele>126.80000305176</ele>
        <time>2022-04-18T09:38:19Z</time>
      </trkpt>
      <trkpt lat="45.16957" lon="4.80624">
        <ele>127.40000152588</ele>
        <time>2022-04-18T09:38:30Z</time>
      </trkpt>
      <trkpt lat="45.16915" lon="4.80624">
        <ele>129.60000610352</ele>
        <time>2022-04-18T09:38:41Z</time>
      </trkpt>
      <trkpt lat="45.16882" lon="4.80642">
        <ele>131.80000305176</ele>
        <time>2022-04-18T09:38:53Z</time>
      </trkpt>
      <trkpt lat="45.16852" lon="4.8067">
        <ele>132.60000610352</ele>
        <time>2022-04-18T09:39:06Z</time>
      </trkpt>
      <trkpt lat="45.16843" lon="4.80673">
        <ele>129.39999389648</ele>
        <time>2022-04-18T09:39:11Z</time>
      </trkpt>
      <trkpt lat="45.16834" lon="4.80675">
        <ele>128.39999389648</ele>
        <time>2022-04-18T09:39:15Z</time>
      </trkpt>
      <trkpt lat="45.16802" lon="4.80691">
        <ele>128</ele>
        <time>2022-04-18T09:39:29Z</time>
      </trkpt>
      <trkpt lat="45.16785" lon="4.80704">
        <ele>127.80000305176</ele>
        <time>2022-04-18T09:39:36Z</time>
      </trkpt>
      <trkpt lat="45.16757" lon="4.8072">
        <ele>128</ele>
        <time>2022-04-18T09:39:48Z</time>
      </trkpt>
      <trkpt lat="45.16743" lon="4.80733">
        <ele>128.60000610352</ele>
        <time>2022-04-18T09:39:55Z</time>
      </trkpt>
      <trkpt lat="45.16734" lon="4.80745">
        <ele>128</ele>
        <time>2022-04-18T09:40:09Z</time>
      </trkpt>
      <trkpt lat="45.16724" lon="4.80756">
        <ele>129.19999694824</ele>
        <time>2022-04-18T09:40:21Z</time>
      </trkpt>
      <trkpt lat="45.16707" lon="4.80776">
        <ele>128.60000610352</ele>
        <time>2022-04-18T09:40:34Z</time>
      </trkpt>
      <trkpt lat="45.1668" lon="4.80795">
        <ele>128.39999389648</ele>
        <time>2022-04-18T09:40:50Z</time>
      </trkpt>
      <trkpt lat="45.16678" lon="4.80797">
        <ele>128</ele>
        <time>2022-04-18T09:40:53Z</time>
      </trkpt>
      <trkpt lat="45.16667" lon="4.80804">
        <ele>127.19999694824</ele>
        <time>2022-04-18T09:41:00Z</time>
      </trkpt>
      <trkpt lat="45.16636" lon="4.80822">
        <ele>127.19999694824</ele>
        <time>2022-04-18T09:41:13Z</time>
      </trkpt>
      <trkpt lat="45.16626" lon="4.8082">
        <ele>127.59999847412</ele>
        <time>2022-04-18T09:41:21Z</time>
      </trkpt>
      <trkpt lat="45.16617" lon="4.80828">
        <ele>127.59999847412</ele>
        <time>2022-04-18T09:41:28Z</time>
      </trkpt>
      <trkpt lat="45.16584" lon="4.80851">
        <ele>127.59999847412</ele>
        <time>2022-04-18T09:41:44Z</time>
      </trkpt>
      <trkpt lat="45.16568" lon="4.80858">
        <ele>128.19999694824</ele>
        <time>2022-04-18T09:41:56Z</time>
      </trkpt>
      <trkpt lat="45.16558" lon="4.80861">
        <ele>128.19999694824</ele>
        <time>2022-04-18T09:42:00Z</time>
      </trkpt>
      <trkpt lat="45.16556" lon="4.80861">
        <ele>128</ele>
        <time>2022-04-18T09:42:03Z</time>
      </trkpt>
      <trkpt lat="45.16544" lon="4.80864">
        <ele>128</ele>
        <time>2022-04-18T09:42:08Z</time>
      </trkpt>
      <trkpt lat="45.16513" lon="4.8088">
        <ele>129.39999389648</ele>
        <time>2022-04-18T09:42:22Z</time>
      </trkpt>
      <trkpt lat="45.16498" lon="4.80889">
        <ele>130.19999694824</ele>
        <time>2022-04-18T09:42:27Z</time>
      </trkpt>
      <trkpt lat="45.16472" lon="4.80909">
        <ele>130.80000305176</ele>
        <time>2022-04-18T09:42:34Z</time>
      </trkpt>
      <trkpt lat="45.16467" lon="4.80917">
        <ele>130.19999694824</ele>
        <time>2022-04-18T09:42:37Z</time>
      </trkpt>
      <trkpt lat="45.16444" lon="4.80925">
        <ele>128.39999389648</ele>
        <time>2022-04-18T09:42:45Z</time>
      </trkpt>
      <trkpt lat="45.16437" lon="4.80928">
        <ele>127.80000305176</ele>
        <time>2022-04-18T09:42:51Z</time>
      </trkpt>
      <trkpt lat="45.1643" lon="4.80935">
        <ele>127.40000152588</ele>
        <time>2022-04-18T09:42:56Z</time>
      </trkpt>
      <trkpt lat="45.16414" lon="4.80954">
        <ele>127.59999847412</ele>
        <time>2022-04-18T09:43:08Z</time>
      </trkpt>
      <trkpt lat="45.16408" lon="4.80958">
        <ele>127.80000305176</ele>
        <time>2022-04-18T09:43:11Z</time>
      </trkpt>
      <trkpt lat="45.16392" lon="4.80973">
        <ele>127.80000305176</ele>
        <time>2022-04-18T09:43:17Z</time>
      </trkpt>
      <trkpt lat="45.16371" lon="4.80994">
        <ele>127.80000305176</ele>
        <time>2022-04-18T09:43:27Z</time>
      </trkpt>
      <trkpt lat="45.16366" lon="4.80996">
        <ele>128</ele>
        <time>2022-04-18T09:43:30Z</time>
      </trkpt>
      <trkpt lat="45.16347" lon="4.81012">
        <ele>128.39999389648</ele>
        <time>2022-04-18T09:43:39Z</time>
      </trkpt>
      <trkpt lat="45.16305" lon="4.81029">
        <ele>128.39999389648</ele>
        <time>2022-04-18T09:44:00Z</time>
      </trkpt>
      <trkpt lat="45.16283" lon="4.8104">
        <ele>129.39999389648</ele>
        <time>2022-04-18T09:44:09Z</time>
      </trkpt>
      <trkpt lat="45.16245" lon="4.81074">
        <ele>129.19999694824</ele>
        <time>2022-04-18T09:44:24Z</time>
      </trkpt>
      <trkpt lat="45.16231" lon="4.81093">
        <ele>129.60000610352</ele>
        <time>2022-04-18T09:44:34Z</time>
      </trkpt>
      <trkpt lat="45.162" lon="4.81125">
        <ele>129.39999389648</ele>
        <time>2022-04-18T09:44:47Z</time>
      </trkpt>
      <trkpt lat="45.16182" lon="4.81148">
        <ele>128.60000610352</ele>
        <time>2022-04-18T09:44:56Z</time>
      </trkpt>
      <trkpt lat="45.16176" lon="4.81157">
        <ele>128.39999389648</ele>
        <time>2022-04-18T09:44:58Z</time>
      </trkpt>
      <trkpt lat="45.16156" lon="4.81185">
        <ele>128.19999694824</ele>
        <time>2022-04-18T09:45:06Z</time>
      </trkpt>
      <trkpt lat="45.16127" lon="4.81235">
        <ele>127.80000305176</ele>
        <time>2022-04-18T09:45:17Z</time>
      </trkpt>
      <trkpt lat="45.16126" lon="4.81242">
        <ele>127.59999847412</ele>
        <time>2022-04-18T09:45:18Z</time>
      </trkpt>
      <trkpt lat="45.16113" lon="4.81268">
        <ele>127</ele>
        <time>2022-04-18T09:45:23Z</time>
      </trkpt>
      <trkpt lat="45.16097" lon="4.81291">
        <ele>126.80000305176</ele>
        <time>2022-04-18T09:45:32Z</time>
      </trkpt>
      <trkpt lat="45.16079" lon="4.81322">
        <ele>128.80000305176</ele>
        <time>2022-04-18T09:45:45Z</time>
      </trkpt>
      <trkpt lat="45.1605" lon="4.81366">
        <ele>131.80000305176</ele>
        <time>2022-04-18T09:46:00Z</time>
      </trkpt>
      <trkpt lat="45.16046" lon="4.81368">
        <ele>132.19999694824</ele>
        <time>2022-04-18T09:46:02Z</time>
      </trkpt>
      <trkpt lat="45.16038" lon="4.81348">
        <ele>132.80000305176</ele>
        <time>2022-04-18T09:46:10Z</time>
      </trkpt>
      <trkpt lat="45.16034" lon="4.81338">
        <ele>133</ele>
        <time>2022-04-18T09:46:13Z</time>
      </trkpt>
      <trkpt lat="45.16022" lon="4.8131">
        <ele>133.80000305176</ele>
        <time>2022-04-18T09:46:20Z</time>
      </trkpt>
      <trkpt lat="45.16007" lon="4.81322">
        <ele>134.19999694824</ele>
        <time>2022-04-18T09:46:25Z</time>
      </trkpt>
      <trkpt lat="45.15962" lon="4.81374">
        <ele>133.60000610352</ele>
        <time>2022-04-18T09:46:37Z</time>
      </trkpt>
      <trkpt lat="45.15822" lon="4.81492">
        <ele>131.80000305176</ele>
        <time>2022-04-18T09:47:06Z</time>
      </trkpt>
      <trkpt lat="45.15718" lon="4.81549">
        <ele>130.19999694824</ele>
        <time>2022-04-18T09:47:26Z</time>
      </trkpt>
      <trkpt lat="45.15633" lon="4.81578">
        <ele>128.80000305176</ele>
        <time>2022-04-18T09:47:41Z</time>
      </trkpt>
      <trkpt lat="45.15483" lon="4.81597">
        <ele>127.59999847412</ele>
        <time>2022-04-18T09:48:06Z</time>
      </trkpt>
      <trkpt lat="45.15412" lon="4.81584">
        <ele>128.80000305176</ele>
        <time>2022-04-18T09:48:21Z</time>
      </trkpt>
      <trkpt lat="45.15361" lon="4.81572">
        <ele>131.19999694824</ele>
        <time>2022-04-18T09:48:35Z</time>
      </trkpt>
      <trkpt lat="45.15357" lon="4.8157">
        <ele>131.39999389648</ele>
        <time>2022-04-18T09:48:36Z</time>
      </trkpt>
      <trkpt lat="45.15288" lon="4.81547">
        <ele>130.80000305176</ele>
        <time>2022-04-18T09:48:48Z</time>
      </trkpt>
      <trkpt lat="45.15203" lon="4.81506">
        <ele>130</ele>
        <time>2022-04-18T09:49:04Z</time>
      </trkpt>
      <trkpt lat="45.15171" lon="4.81494">
        <ele>130</ele>
        <time>2022-04-18T09:49:09Z</time>
      </trkpt>
      <trkpt lat="45.15092" lon="4.81457">
        <ele>129</ele>
        <time>2022-04-18T09:49:23Z</time>
      </trkpt>
      <trkpt lat="45.15081" lon="4.8145">
        <ele>129</ele>
        <time>2022-04-18T09:49:25Z</time>
      </trkpt>
      <trkpt lat="45.15075" lon="4.81447">
        <ele>128.80000305176</ele>
        <time>2022-04-18T09:49:26Z</time>
      </trkpt>
      <trkpt lat="45.14961" lon="4.81396">
        <ele>126.19999694824</ele>
        <time>2022-04-18T09:49:43Z</time>
      </trkpt>
      <trkpt lat="45.14859" lon="4.81342">
        <ele>127.19999694824</ele>
        <time>2022-04-18T09:50:02Z</time>
      </trkpt>
      <trkpt lat="45.14855" lon="4.8134">
        <ele>127.40000152588</ele>
        <time>2022-04-18T09:50:03Z</time>
      </trkpt>
      <trkpt lat="45.14765" lon="4.81293">
        <ele>127.40000152588</ele>
        <time>2022-04-18T09:50:24Z</time>
      </trkpt>
      <trkpt lat="45.14703" lon="4.81267">
        <ele>128.80000305176</ele>
        <time>2022-04-18T09:50:37Z</time>
      </trkpt>
      <trkpt lat="45.1461" lon="4.8123">
        <ele>126</ele>
        <time>2022-04-18T09:50:52Z</time>
      </trkpt>
      <trkpt lat="45.14596" lon="4.81221">
        <ele>125.80000305176</ele>
        <time>2022-04-18T09:50:55Z</time>
      </trkpt>
      <trkpt lat="45.14595" lon="4.81182">
        <ele>125.59999847412</ele>
        <time>2022-04-18T09:51:03Z</time>
      </trkpt>
      <trkpt lat="45.14595" lon="4.81177">
        <ele>125.59999847412</ele>
        <time>2022-04-18T09:51:04Z</time>
      </trkpt>
      <trkpt lat="45.14595" lon="4.81163">
        <ele>125.80000305176</ele>
        <time>2022-04-18T09:51:09Z</time>
      </trkpt>
      <trkpt lat="45.14594" lon="4.81172">
        <ele>126.40000152588</ele>
        <time>2022-04-18T09:51:12Z</time>
      </trkpt>
      <trkpt lat="45.14574" lon="4.81175">
        <ele>127</ele>
        <time>2022-04-18T09:51:19Z</time>
      </trkpt>
      <trkpt lat="45.14561" lon="4.81169">
        <ele>127.19999694824</ele>
        <time>2022-04-18T09:51:23Z</time>
      </trkpt>
      <trkpt lat="45.14507" lon="4.81135">
        <ele>128.39999389648</ele>
        <time>2022-04-18T09:51:37Z</time>
      </trkpt>
      <trkpt lat="45.14406" lon="4.81085">
        <ele>128.39999389648</ele>
        <time>2022-04-18T09:51:58Z</time>
      </trkpt>
      <trkpt lat="45.14316" lon="4.81037">
        <ele>126.80000305176</ele>
        <time>2022-04-18T09:52:14Z</time>
      </trkpt>
      <trkpt lat="45.14307" lon="4.81006">
        <ele>125.59999847412</ele>
        <time>2022-04-18T09:52:20Z</time>
      </trkpt>
      <trkpt lat="45.1431" lon="4.8099">
        <ele>125.40000152588</ele>
        <time>2022-04-18T09:52:23Z</time>
      </trkpt>
      <trkpt lat="45.14328" lon="4.80895">
        <ele>127.59999847412</ele>
        <time>2022-04-18T09:52:44Z</time>
      </trkpt>
      <trkpt lat="45.14329" lon="4.80895">
        <ele>127.80000305176</ele>
        <time>2022-04-18T09:52:45Z</time>
      </trkpt>
      <trkpt lat="45.14334" lon="4.80899">
        <ele>128.80000305176</ele>
        <time>2022-04-18T09:52:48Z</time>
      </trkpt>
      <trkpt lat="45.14353" lon="4.80913">
        <ele>130</ele>
        <time>2022-04-18T09:52:58Z</time>
      </trkpt>
      <trkpt lat="45.14363" lon="4.8091">
        <ele>130</ele>
        <time>2022-04-18T09:53:02Z</time>
      </trkpt>
      <trkpt lat="45.14383" lon="4.80887">
        <ele>131.39999389648</ele>
        <time>2022-04-18T09:53:14Z</time>
      </trkpt>
      <trkpt lat="45.14404" lon="4.80873">
        <ele>131.60000610352</ele>
        <time>2022-04-18T09:53:23Z</time>
      </trkpt>
      <trkpt lat="45.14413" lon="4.80876">
        <ele>132.80000305176</ele>
        <time>2022-04-18T09:53:29Z</time>
      </trkpt>
      <trkpt lat="45.14412" lon="4.80859">
        <ele>135.80000305176</ele>
        <time>2022-04-18T09:53:38Z</time>
      </trkpt>
      <trkpt lat="45.1441" lon="4.80857">
        <ele>136</ele>
        <time>2022-04-18T09:53:39Z</time>
      </trkpt>
      <trkpt lat="45.14385" lon="4.80836">
        <ele>137.19999694824</ele>
        <time>2022-04-18T09:53:54Z</time>
      </trkpt>
      <trkpt lat="45.14363" lon="4.80818">
        <ele>138.39999389648</ele>
        <time>2022-04-18T09:54:06Z</time>
      </trkpt>
      <trkpt lat="45.14339" lon="4.80772">
        <ele>139.39999389648</ele>
        <time>2022-04-18T09:54:23Z</time>
      </trkpt>
      <trkpt lat="45.14327" lon="4.80736">
        <ele>140</ele>
        <time>2022-04-18T09:54:33Z</time>
      </trkpt>
      <trkpt lat="45.1432" lon="4.80693">
        <ele>139.80000305176</ele>
        <time>2022-04-18T09:54:41Z</time>
      </trkpt>
      <trkpt lat="45.14319" lon="4.80683">
        <ele>139.80000305176</ele>
        <time>2022-04-18T09:54:45Z</time>
      </trkpt>
      <trkpt lat="45.14325" lon="4.80665">
        <ele>142.39999389648</ele>
        <time>2022-04-18T09:54:55Z</time>
      </trkpt>
      <trkpt lat="45.14331" lon="4.8066">
        <ele>143.19999694824</ele>
        <time>2022-04-18T09:54:59Z</time>
      </trkpt>
      <trkpt lat="45.14333" lon="4.80654">
        <ele>143.80000305176</ele>
        <time>2022-04-18T09:55:02Z</time>
      </trkpt>
      <trkpt lat="45.14335" lon="4.80636">
        <ele>146</ele>
        <time>2022-04-18T09:55:11Z</time>
      </trkpt>
      <trkpt lat="45.14336" lon="4.80634">
        <ele>146.19999694824</ele>
        <time>2022-04-18T09:55:12Z</time>
      </trkpt>
      <trkpt lat="45.14348" lon="4.80616">
        <ele>149.19999694824</ele>
        <time>2022-04-18T09:55:25Z</time>
      </trkpt>
      <trkpt lat="45.14351" lon="4.80613">
        <ele>149.80000305176</ele>
        <time>2022-04-18T09:55:28Z</time>
      </trkpt>
      <trkpt lat="45.14359" lon="4.80598">
        <ele>152.60000610352</ele>
        <time>2022-04-18T09:55:40Z</time>
      </trkpt>
      <trkpt lat="45.14364" lon="4.80594">
        <ele>153.80000305176</ele>
        <time>2022-04-18T09:55:44Z</time>
      </trkpt>
      <trkpt lat="45.14367" lon="4.80586">
        <ele>155</ele>
        <time>2022-04-18T09:55:49Z</time>
      </trkpt>
      <trkpt lat="45.14369" lon="4.80581">
        <ele>155.39999389648</ele>
        <time>2022-04-18T09:55:52Z</time>
      </trkpt>
      <trkpt lat="45.14375" lon="4.80571">
        <ele>158.60000610352</ele>
        <time>2022-04-18T09:56:03Z</time>
      </trkpt>
      <trkpt lat="45.14375" lon="4.80571">
        <ele>160.19999694824</ele>
        <time>2022-04-18T09:56:09Z</time>
      </trkpt>
      <trkpt lat="45.14378" lon="4.80574">
        <ele>163.80000305176</ele>
        <time>2022-04-18T09:56:28Z</time>
      </trkpt>
      <trkpt lat="45.1438" lon="4.80575">
        <ele>164</ele>
        <time>2022-04-18T09:56:29Z</time>
      </trkpt>
      <trkpt lat="45.1439" lon="4.80583">
        <ele>165.39999389648</ele>
        <time>2022-04-18T09:56:36Z</time>
      </trkpt>
      <trkpt lat="45.14396" lon="4.80581">
        <ele>166.60000610352</ele>
        <time>2022-04-18T09:56:45Z</time>
      </trkpt>
      <trkpt lat="45.14396" lon="4.80576">
        <ele>167.39999389648</ele>
        <time>2022-04-18T09:56:54Z</time>
      </trkpt>
      <trkpt lat="45.14391" lon="4.80567">
        <ele>167.60000610352</ele>
        <time>2022-04-18T09:57:00Z</time>
      </trkpt>
      <trkpt lat="45.14375" lon="4.80539">
        <ele>170</ele>
        <time>2022-04-18T09:57:17Z</time>
      </trkpt>
      <trkpt lat="45.14353" lon="4.80522">
        <ele>171.80000305176</ele>
        <time>2022-04-18T09:57:31Z</time>
      </trkpt>
      <trkpt lat="45.14348" lon="4.80518">
        <ele>172</ele>
        <time>2022-04-18T09:57:34Z</time>
      </trkpt>
      <trkpt lat="45.14347" lon="4.80499">
        <ele>173</ele>
        <time>2022-04-18T09:57:42Z</time>
      </trkpt>
      <trkpt lat="45.14357" lon="4.80463">
        <ele>176</ele>
        <time>2022-04-18T09:57:57Z</time>
      </trkpt>
      <trkpt lat="45.14365" lon="4.80425">
        <ele>177.19999694824</ele>
        <time>2022-04-18T09:58:11Z</time>
      </trkpt>
      <trkpt lat="45.14365" lon="4.80403">
        <ele>178.60000610352</ele>
        <time>2022-04-18T09:58:20Z</time>
      </trkpt>
      <trkpt lat="45.14359" lon="4.80392">
        <ele>179.39999389648</ele>
        <time>2022-04-18T09:58:26Z</time>
      </trkpt>
      <trkpt lat="45.14354" lon="4.80375">
        <ele>181.39999389648</ele>
        <time>2022-04-18T09:58:33Z</time>
      </trkpt>
      <trkpt lat="45.14351" lon="4.80334">
        <ele>183</ele>
        <time>2022-04-18T09:58:46Z</time>
      </trkpt>
      <trkpt lat="45.1435" lon="4.80288">
        <ele>184.19999694824</ele>
        <time>2022-04-18T09:59:01Z</time>
      </trkpt>
      <trkpt lat="45.14363" lon="4.80252">
        <ele>187</ele>
        <time>2022-04-18T09:59:16Z</time>
      </trkpt>
      <trkpt lat="45.14388" lon="4.80239">
        <ele>190</ele>
        <time>2022-04-18T09:59:29Z</time>
      </trkpt>
      <trkpt lat="45.14406" lon="4.80219">
        <ele>191.80000305176</ele>
        <time>2022-04-18T09:59:41Z</time>
      </trkpt>
      <trkpt lat="45.14434" lon="4.80204">
        <ele>193.60000610352</ele>
        <time>2022-04-18T09:59:55Z</time>
      </trkpt>
      <trkpt lat="45.14454" lon="4.80192">
        <ele>195.19999694824</ele>
        <time>2022-04-18T10:00:07Z</time>
      </trkpt>
      <trkpt lat="45.14457" lon="4.8019">
        <ele>195.80000305176</ele>
        <time>2022-04-18T10:00:10Z</time>
      </trkpt>
      <trkpt lat="45.14463" lon="4.80182">
        <ele>196.39999389648</ele>
        <time>2022-04-18T10:00:15Z</time>
      </trkpt>
      <trkpt lat="45.14474" lon="4.80168">
        <ele>197.60000610352</ele>
        <time>2022-04-18T10:00:23Z</time>
      </trkpt>
      <trkpt lat="45.14475" lon="4.80157">
        <ele>198.60000610352</ele>
        <time>2022-04-18T10:00:28Z</time>
      </trkpt>
      <trkpt lat="45.14473" lon="4.80146">
        <ele>199.60000610352</ele>
        <time>2022-04-18T10:00:33Z</time>
      </trkpt>
      <trkpt lat="45.14474" lon="4.80135">
        <ele>200.19999694824</ele>
        <time>2022-04-18T10:00:37Z</time>
      </trkpt>
      <trkpt lat="45.14471" lon="4.80118">
        <ele>200.80000305176</ele>
        <time>2022-04-18T10:00:43Z</time>
      </trkpt>
      <trkpt lat="45.14464" lon="4.80106">
        <ele>201.19999694824</ele>
        <time>2022-04-18T10:00:49Z</time>
      </trkpt>
      <trkpt lat="45.14464" lon="4.801">
        <ele>201.60000610352</ele>
        <time>2022-04-18T10:00:51Z</time>
      </trkpt>
      <trkpt lat="45.14469" lon="4.8009">
        <ele>202.39999389648</ele>
        <time>2022-04-18T10:00:57Z</time>
      </trkpt>
      <trkpt lat="45.14474" lon="4.80101">
        <ele>203.60000610352</ele>
        <time>2022-04-18T10:01:03Z</time>
      </trkpt>
      <trkpt lat="45.14487" lon="4.80121">
        <ele>204.80000305176</ele>
        <time>2022-04-18T10:01:13Z</time>
      </trkpt>
      <trkpt lat="45.14491" lon="4.8013">
        <ele>205.39999389648</ele>
        <time>2022-04-18T10:01:17Z</time>
      </trkpt>
      <trkpt lat="45.14496" lon="4.80162">
        <ele>207.60000610352</ele>
        <time>2022-04-18T10:01:30Z</time>
      </trkpt>
      <trkpt lat="45.14487" lon="4.80189">
        <ele>209.39999389648</ele>
        <time>2022-04-18T10:01:41Z</time>
      </trkpt>
      <trkpt lat="45.14486" lon="4.80195">
        <ele>210</ele>
        <time>2022-04-18T10:01:45Z</time>
      </trkpt>
      <trkpt lat="45.1448" lon="4.80209">
        <ele>210.60000610352</ele>
        <time>2022-04-18T10:01:50Z</time>
      </trkpt>
      <trkpt lat="45.14476" lon="4.80217">
        <ele>211.39999389648</ele>
        <time>2022-04-18T10:01:54Z</time>
      </trkpt>
      <trkpt lat="45.14456" lon="4.80242">
        <ele>212.60000610352</ele>
        <time>2022-04-18T10:02:06Z</time>
      </trkpt>
      <trkpt lat="45.14433" lon="4.8026">
        <ele>214.19999694824</ele>
        <time>2022-04-18T10:02:16Z</time>
      </trkpt>
      <trkpt lat="45.14424" lon="4.80267">
        <ele>214.60000610352</ele>
        <time>2022-04-18T10:02:20Z</time>
      </trkpt>
      <trkpt lat="45.14416" lon="4.80273">
        <ele>215</ele>
        <time>2022-04-18T10:02:24Z</time>
      </trkpt>
      <trkpt lat="45.14393" lon="4.80299">
        <ele>216</ele>
        <time>2022-04-18T10:02:34Z</time>
      </trkpt>
      <trkpt lat="45.14391" lon="4.80323">
        <ele>216</ele>
        <time>2022-04-18T10:02:39Z</time>
      </trkpt>
      <trkpt lat="45.144" lon="4.80366">
        <ele>216.19999694824</ele>
        <time>2022-04-18T10:02:47Z</time>
      </trkpt>
      <trkpt lat="45.14411" lon="4.80433">
        <ele>216</ele>
        <time>2022-04-18T10:03:00Z</time>
      </trkpt>
      <trkpt lat="45.14431" lon="4.80454">
        <ele>217.80000305176</ele>
        <time>2022-04-18T10:03:10Z</time>
      </trkpt>
      <trkpt lat="45.14456" lon="4.80467">
        <ele>219.60000610352</ele>
        <time>2022-04-18T10:03:21Z</time>
      </trkpt>
      <trkpt lat="45.1448" lon="4.80483">
        <ele>221.60000610352</ele>
        <time>2022-04-18T10:03:33Z</time>
      </trkpt>
      <trkpt lat="45.14501" lon="4.80497">
        <ele>222.60000610352</ele>
        <time>2022-04-18T10:03:43Z</time>
      </trkpt>
      <trkpt lat="45.14508" lon="4.805">
        <ele>223</ele>
        <time>2022-04-18T10:03:46Z</time>
      </trkpt>
      <trkpt lat="45.14514" lon="4.80506">
        <ele>223.60000610352</ele>
        <time>2022-04-18T10:03:50Z</time>
      </trkpt>
      <trkpt lat="45.14547" lon="4.80511">
        <ele>225.39999389648</ele>
        <time>2022-04-18T10:04:03Z</time>
      </trkpt>
      <trkpt lat="45.14577" lon="4.80508">
        <ele>226.80000305176</ele>
        <time>2022-04-18T10:04:15Z</time>
      </trkpt>
      <trkpt lat="45.14605" lon="4.80519">
        <ele>229</ele>
        <time>2022-04-18T10:04:28Z</time>
      </trkpt>
      <trkpt lat="45.14635" lon="4.80517">
        <ele>231</ele>
        <time>2022-04-18T10:04:41Z</time>
      </trkpt>
      <trkpt lat="45.14642" lon="4.80513">
        <ele>231.60000610352</ele>
        <time>2022-04-18T10:04:45Z</time>
      </trkpt>
      <trkpt lat="45.14648" lon="4.80513">
        <ele>232.19999694824</ele>
        <time>2022-04-18T10:04:49Z</time>
      </trkpt>
      <trkpt lat="45.1467" lon="4.80508">
        <ele>235</ele>
        <time>2022-04-18T10:05:02Z</time>
      </trkpt>
      <trkpt lat="45.14686" lon="4.80515">
        <ele>237</ele>
        <time>2022-04-18T10:05:15Z</time>
      </trkpt>
      <trkpt lat="45.14688" lon="4.80516">
        <ele>237.39999389648</ele>
        <time>2022-04-18T10:05:17Z</time>
      </trkpt>
      <trkpt lat="45.14702" lon="4.80517">
        <ele>239.60000610352</ele>
        <time>2022-04-18T10:05:29Z</time>
      </trkpt>
      <trkpt lat="45.14716" lon="4.80512">
        <ele>242.19999694824</ele>
        <time>2022-04-18T10:05:37Z</time>
      </trkpt>
      <trkpt lat="45.1472" lon="4.80512">
        <ele>243.80000305176</ele>
        <time>2022-04-18T10:05:40Z</time>
      </trkpt>
      <trkpt lat="45.14731" lon="4.80511">
        <ele>246.19999694824</ele>
        <time>2022-04-18T10:05:49Z</time>
      </trkpt>
      <trkpt lat="45.14741" lon="4.80507">
        <ele>248</ele>
        <time>2022-04-18T10:05:57Z</time>
      </trkpt>
      <trkpt lat="45.14751" lon="4.80497">
        <ele>250.19999694824</ele>
        <time>2022-04-18T10:06:07Z</time>
      </trkpt>
      <trkpt lat="45.14756" lon="4.80493">
        <ele>253</ele>
        <time>2022-04-18T10:06:21Z</time>
      </trkpt>
      <trkpt lat="45.1476" lon="4.80493">
        <ele>253.60000610352</ele>
        <time>2022-04-18T10:06:25Z</time>
      </trkpt>
      <trkpt lat="45.14765" lon="4.8049">
        <ele>255.80000305176</ele>
        <time>2022-04-18T10:06:37Z</time>
      </trkpt>
      <trkpt lat="45.14767" lon="4.80487">
        <ele>255.80000305176</ele>
        <time>2022-04-18T10:06:39Z</time>
      </trkpt>
      <trkpt lat="45.14776" lon="4.80481">
        <ele>258.79998779297</ele>
        <time>2022-04-18T10:06:51Z</time>
      </trkpt>
      <trkpt lat="45.14779" lon="4.80481">
        <ele>259.60000610352</ele>
        <time>2022-04-18T10:07:00Z</time>
      </trkpt>
      <trkpt lat="45.14795" lon="4.80481">
        <ele>260.39999389648</ele>
        <time>2022-04-18T10:07:09Z</time>
      </trkpt>
      <trkpt lat="45.14807" lon="4.80471">
        <ele>261.79998779297</ele>
        <time>2022-04-18T10:07:16Z</time>
      </trkpt>
      <trkpt lat="45.14809" lon="4.8047">
        <ele>262.79998779297</ele>
        <time>2022-04-18T10:07:19Z</time>
      </trkpt>
      <trkpt lat="45.14819" lon="4.80466">
        <ele>265.79998779297</ele>
        <time>2022-04-18T10:07:27Z</time>
      </trkpt>
      <trkpt lat="45.14821" lon="4.80466">
        <ele>265.79998779297</ele>
        <time>2022-04-18T10:07:28Z</time>
      </trkpt>
      <trkpt lat="45.14834" lon="4.8048">
        <ele>268.79998779297</ele>
        <time>2022-04-18T10:07:41Z</time>
      </trkpt>
      <trkpt lat="45.14842" lon="4.80488">
        <ele>270</ele>
        <time>2022-04-18T10:07:48Z</time>
      </trkpt>
      <trkpt lat="45.14851" lon="4.80498">
        <ele>272.39999389648</ele>
        <time>2022-04-18T10:07:57Z</time>
      </trkpt>
      <trkpt lat="45.14859" lon="4.805">
        <ele>274.39999389648</ele>
        <time>2022-04-18T10:08:04Z</time>
      </trkpt>
      <trkpt lat="45.14866" lon="4.80496">
        <ele>277.39999389648</ele>
        <time>2022-04-18T10:08:18Z</time>
      </trkpt>
      <trkpt lat="45.1487" lon="4.80493">
        <ele>280.20001220703</ele>
        <time>2022-04-18T10:08:48Z</time>
      </trkpt>
      <trkpt lat="45.14871" lon="4.80492">
        <ele>280.39999389648</ele>
        <time>2022-04-18T10:08:50Z</time>
      </trkpt>
      <trkpt lat="45.14886" lon="4.80482">
        <ele>282</ele>
        <time>2022-04-18T10:08:59Z</time>
      </trkpt>
      <trkpt lat="45.14902" lon="4.80474">
        <ele>284.79998779297</ele>
        <time>2022-04-18T10:09:10Z</time>
      </trkpt>
      <trkpt lat="45.14913" lon="4.80469">
        <ele>287.79998779297</ele>
        <time>2022-04-18T10:09:19Z</time>
      </trkpt>
      <trkpt lat="45.14921" lon="4.80462">
        <ele>289.79998779297</ele>
        <time>2022-04-18T10:09:29Z</time>
      </trkpt>
      <trkpt lat="45.14933" lon="4.80453">
        <ele>291.79998779297</ele>
        <time>2022-04-18T10:09:38Z</time>
      </trkpt>
      <trkpt lat="45.14938" lon="4.8045">
        <ele>293.39999389648</ele>
        <time>2022-04-18T10:09:44Z</time>
      </trkpt>
      <trkpt lat="45.14949" lon="4.80443">
        <ele>294.60000610352</ele>
        <time>2022-04-18T10:09:52Z</time>
      </trkpt>
      <trkpt lat="45.14962" lon="4.80434">
        <ele>297.39999389648</ele>
        <time>2022-04-18T10:10:04Z</time>
      </trkpt>
      <trkpt lat="45.14963" lon="4.80434">
        <ele>298</ele>
        <time>2022-04-18T10:10:06Z</time>
      </trkpt>
      <trkpt lat="45.14971" lon="4.80429">
        <ele>299</ele>
        <time>2022-04-18T10:10:12Z</time>
      </trkpt>
      <trkpt lat="45.14985" lon="4.80418">
        <ele>301</ele>
        <time>2022-04-18T10:10:20Z</time>
      </trkpt>
      <trkpt lat="45.14988" lon="4.80414">
        <ele>301.60000610352</ele>
        <time>2022-04-18T10:10:23Z</time>
      </trkpt>
      <trkpt lat="45.14997" lon="4.80408">
        <ele>303</ele>
        <time>2022-04-18T10:10:32Z</time>
      </trkpt>
      <trkpt lat="45.15016" lon="4.80401">
        <ele>304.39999389648</ele>
        <time>2022-04-18T10:10:44Z</time>
      </trkpt>
      <trkpt lat="45.15017" lon="4.804">
        <ele>304.60000610352</ele>
        <time>2022-04-18T10:10:45Z</time>
      </trkpt>
      <trkpt lat="45.15019" lon="4.804">
        <ele>305</ele>
        <time>2022-04-18T10:10:47Z</time>
      </trkpt>
      <trkpt lat="45.15024" lon="4.80396">
        <ele>305.79998779297</ele>
        <time>2022-04-18T10:10:53Z</time>
      </trkpt>
      <trkpt lat="45.1504" lon="4.80379">
        <ele>307.20001220703</ele>
        <time>2022-04-18T10:11:03Z</time>
      </trkpt>
      <trkpt lat="45.15045" lon="4.80374">
        <ele>309</ele>
        <time>2022-04-18T10:11:11Z</time>
      </trkpt>
      <trkpt lat="45.15055" lon="4.8037">
        <ele>309.39999389648</ele>
        <time>2022-04-18T10:11:14Z</time>
      </trkpt>
      <trkpt lat="45.15057" lon="4.80373">
        <ele>309.79998779297</ele>
        <time>2022-04-18T10:11:16Z</time>
      </trkpt>
      <trkpt lat="45.15061" lon="4.80372">
        <ele>310.20001220703</ele>
        <time>2022-04-18T10:11:19Z</time>
      </trkpt>
      <trkpt lat="45.15066" lon="4.80377">
        <ele>311.39999389648</ele>
        <time>2022-04-18T10:11:26Z</time>
      </trkpt>
      <trkpt lat="45.15085" lon="4.80369">
        <ele>313</ele>
        <time>2022-04-18T10:11:36Z</time>
      </trkpt>
      <trkpt lat="45.15102" lon="4.80361">
        <ele>314.60000610352</ele>
        <time>2022-04-18T10:11:45Z</time>
      </trkpt>
      <trkpt lat="45.15112" lon="4.80357">
        <ele>315.20001220703</ele>
        <time>2022-04-18T10:11:50Z</time>
      </trkpt>
      <trkpt lat="45.1512" lon="4.80354">
        <ele>316.39999389648</ele>
        <time>2022-04-18T10:11:58Z</time>
      </trkpt>
      <trkpt lat="45.15138" lon="4.80346">
        <ele>318.39999389648</ele>
        <time>2022-04-18T10:12:09Z</time>
      </trkpt>
      <trkpt lat="45.15155" lon="4.80342">
        <ele>321.39999389648</ele>
        <time>2022-04-18T10:12:22Z</time>
      </trkpt>
      <trkpt lat="45.15174" lon="4.80339">
        <ele>324.20001220703</ele>
        <time>2022-04-18T10:12:33Z</time>
      </trkpt>
      <trkpt lat="45.15192" lon="4.80338">
        <ele>326.79998779297</ele>
        <time>2022-04-18T10:12:46Z</time>
      </trkpt>
      <trkpt lat="45.15209" lon="4.80337">
        <ele>329.20001220703</ele>
        <time>2022-04-18T10:12:59Z</time>
      </trkpt>
      <trkpt lat="45.15227" lon="4.80333">
        <ele>332.20001220703</ele>
        <time>2022-04-18T10:13:12Z</time>
      </trkpt>
      <trkpt lat="45.15248" lon="4.8033">
        <ele>335.20001220703</ele>
        <time>2022-04-18T10:13:26Z</time>
      </trkpt>
      <trkpt lat="45.15275" lon="4.80329">
        <ele>337.60000610352</ele>
        <time>2022-04-18T10:13:44Z</time>
      </trkpt>
      <trkpt lat="45.15298" lon="4.80326">
        <ele>340.20001220703</ele>
        <time>2022-04-18T10:13:59Z</time>
      </trkpt>
      <trkpt lat="45.15312" lon="4.8032">
        <ele>343.20001220703</ele>
        <time>2022-04-18T10:14:09Z</time>
      </trkpt>
      <trkpt lat="45.15335" lon="4.80317">
        <ele>346</ele>
        <time>2022-04-18T10:14:25Z</time>
      </trkpt>
      <trkpt lat="45.15353" lon="4.80323">
        <ele>348.60000610352</ele>
        <time>2022-04-18T10:14:38Z</time>
      </trkpt>
      <trkpt lat="45.15371" lon="4.80324">
        <ele>350.60000610352</ele>
        <time>2022-04-18T10:14:50Z</time>
      </trkpt>
      <trkpt lat="45.1539" lon="4.80317">
        <ele>353.79998779297</ele>
        <time>2022-04-18T10:15:03Z</time>
      </trkpt>
      <trkpt lat="45.15409" lon="4.80306">
        <ele>356.79998779297</ele>
        <time>2022-04-18T10:15:16Z</time>
      </trkpt>
      <trkpt lat="45.15421" lon="4.80279">
        <ele>359.39999389648</ele>
        <time>2022-04-18T10:15:31Z</time>
      </trkpt>
      <trkpt lat="45.15425" lon="4.80247">
        <ele>361.20001220703</ele>
        <time>2022-04-18T10:15:45Z</time>
      </trkpt>
      <trkpt lat="45.1543" lon="4.80214">
        <ele>362.39999389648</ele>
        <time>2022-04-18T10:15:58Z</time>
      </trkpt>
      <trkpt lat="45.15443" lon="4.80168">
        <ele>363.39999389648</ele>
        <time>2022-04-18T10:16:13Z</time>
      </trkpt>
      <trkpt lat="45.15466" lon="4.80112">
        <ele>364.60000610352</ele>
        <time>2022-04-18T10:16:28Z</time>
      </trkpt>
      <trkpt lat="45.15518" lon="4.80065">
        <ele>365.20001220703</ele>
        <time>2022-04-18T10:16:46Z</time>
      </trkpt>
      <trkpt lat="45.15564" lon="4.80013">
        <ele>366.79998779297</ele>
        <time>2022-04-18T10:17:04Z</time>
      </trkpt>
      <trkpt lat="45.15575" lon="4.79993">
        <ele>367</ele>
        <time>2022-04-18T10:17:08Z</time>
      </trkpt>
      <trkpt lat="45.15589" lon="4.79933">
        <ele>365.79998779297</ele>
        <time>2022-04-18T10:17:18Z</time>
      </trkpt>
      <trkpt lat="45.15583" lon="4.79824">
        <ele>367.20001220703</ele>
        <time>2022-04-18T10:17:39Z</time>
      </trkpt>
      <trkpt lat="45.15574" lon="4.79767">
        <ele>368</ele>
        <time>2022-04-18T10:17:49Z</time>
      </trkpt>
      <trkpt lat="45.15597" lon="4.797">
        <ele>368.20001220703</ele>
        <time>2022-04-18T10:18:01Z</time>
      </trkpt>
      <trkpt lat="45.15644" lon="4.79623">
        <ele>369.79998779297</ele>
        <time>2022-04-18T10:18:20Z</time>
      </trkpt>
      <trkpt lat="45.15678" lon="4.79576">
        <ele>372.79998779297</ele>
        <time>2022-04-18T10:18:35Z</time>
      </trkpt>
      <trkpt lat="45.1572" lon="4.79526">
        <ele>375.79998779297</ele>
        <time>2022-04-18T10:18:53Z</time>
      </trkpt>
      <trkpt lat="45.15753" lon="4.79462">
        <ele>378</ele>
        <time>2022-04-18T10:19:11Z</time>
      </trkpt>
      <trkpt lat="45.15788" lon="4.79382">
        <ele>378</ele>
        <time>2022-04-18T10:19:27Z</time>
      </trkpt>
      <trkpt lat="45.15803" lon="4.79355">
        <ele>377.79998779297</ele>
        <time>2022-04-18T10:19:32Z</time>
      </trkpt>
      <trkpt lat="45.15812" lon="4.79292">
        <ele>376.60000610352</ele>
        <time>2022-04-18T10:19:42Z</time>
      </trkpt>
      <trkpt lat="45.15817" lon="4.79195">
        <ele>377.60000610352</ele>
        <time>2022-04-18T10:20:00Z</time>
      </trkpt>
      <trkpt lat="45.15817" lon="4.79127">
        <ele>380.20001220703</ele>
        <time>2022-04-18T10:20:16Z</time>
      </trkpt>
      <trkpt lat="45.15811" lon="4.79074">
        <ele>383.20001220703</ele>
        <time>2022-04-18T10:20:31Z</time>
      </trkpt>
      <trkpt lat="45.15803" lon="4.79033">
        <ele>384.39999389648</ele>
        <time>2022-04-18T10:20:42Z</time>
      </trkpt>
      <trkpt lat="45.15788" lon="4.79026">
        <ele>384.39999389648</ele>
        <time>2022-04-18T10:20:47Z</time>
      </trkpt>
      <trkpt lat="45.15775" lon="4.79028">
        <ele>384.79998779297</ele>
        <time>2022-04-18T10:20:52Z</time>
      </trkpt>
      <trkpt lat="45.15767" lon="4.79017">
        <ele>385.20001220703</ele>
        <time>2022-04-18T10:20:56Z</time>
      </trkpt>
      <trkpt lat="45.15709" lon="4.78882">
        <ele>383</ele>
        <time>2022-04-18T10:21:20Z</time>
      </trkpt>
      <trkpt lat="45.15687" lon="4.78842">
        <ele>381.79998779297</ele>
        <time>2022-04-18T10:21:25Z</time>
      </trkpt>
      <trkpt lat="45.15659" lon="4.78795">
        <ele>380.39999389648</ele>
        <time>2022-04-18T10:21:31Z</time>
      </trkpt>
      <trkpt lat="45.15598" lon="4.78719">
        <ele>378.79998779297</ele>
        <time>2022-04-18T10:21:45Z</time>
      </trkpt>
      <trkpt lat="45.15577" lon="4.7872">
        <ele>379</ele>
        <time>2022-04-18T10:21:49Z</time>
      </trkpt>
      <trkpt lat="45.15557" lon="4.78705">
        <ele>379.20001220703</ele>
        <time>2022-04-18T10:21:53Z</time>
      </trkpt>
      <trkpt lat="45.15532" lon="4.78692">
        <ele>379</ele>
        <time>2022-04-18T10:21:57Z</time>
      </trkpt>
      <trkpt lat="45.15469" lon="4.78668">
        <ele>375.79998779297</ele>
        <time>2022-04-18T10:22:05Z</time>
      </trkpt>
      <trkpt lat="45.15369" lon="4.78624">
        <ele>371.79998779297</ele>
        <time>2022-04-18T10:22:17Z</time>
      </trkpt>
      <trkpt lat="45.15345" lon="4.78613">
        <ele>370.79998779297</ele>
        <time>2022-04-18T10:22:20Z</time>
      </trkpt>
      <trkpt lat="45.15242" lon="4.78555">
        <ele>367.79998779297</ele>
        <time>2022-04-18T10:22:33Z</time>
      </trkpt>
      <trkpt lat="45.15196" lon="4.7853">
        <ele>364.20001220703</ele>
        <time>2022-04-18T10:22:39Z</time>
      </trkpt>
      <trkpt lat="45.15168" lon="4.78517">
        <ele>362</ele>
        <time>2022-04-18T10:22:43Z</time>
      </trkpt>
      <trkpt lat="45.15155" lon="4.7851">
        <ele>358.60000610352</ele>
        <time>2022-04-18T10:22:45Z</time>
      </trkpt>
      <trkpt lat="45.15139" lon="4.78498">
        <ele>356.20001220703</ele>
        <time>2022-04-18T10:22:48Z</time>
      </trkpt>
      <trkpt lat="45.15129" lon="4.78483">
        <ele>353</ele>
        <time>2022-04-18T10:22:51Z</time>
      </trkpt>
      <trkpt lat="45.15124" lon="4.78477">
        <ele>350.60000610352</ele>
        <time>2022-04-18T10:22:53Z</time>
      </trkpt>
      <trkpt lat="45.15113" lon="4.78481">
        <ele>347</ele>
        <time>2022-04-18T10:22:56Z</time>
      </trkpt>
      <trkpt lat="45.15094" lon="4.78498">
        <ele>343.60000610352</ele>
        <time>2022-04-18T10:23:00Z</time>
      </trkpt>
      <trkpt lat="45.15086" lon="4.785">
        <ele>342.60000610352</ele>
        <time>2022-04-18T10:23:01Z</time>
      </trkpt>
      <trkpt lat="45.15066" lon="4.78504">
        <ele>339.60000610352</ele>
        <time>2022-04-18T10:23:04Z</time>
      </trkpt>
      <trkpt lat="45.15049" lon="4.78501">
        <ele>336.20001220703</ele>
        <time>2022-04-18T10:23:07Z</time>
      </trkpt>
      <trkpt lat="45.15032" lon="4.78496">
        <ele>332.60000610352</ele>
        <time>2022-04-18T10:23:10Z</time>
      </trkpt>
      <trkpt lat="45.15013" lon="4.78502">
        <ele>330.79998779297</ele>
        <time>2022-04-18T10:23:13Z</time>
      </trkpt>
      <trkpt lat="45.15007" lon="4.78507">
        <ele>329.60000610352</ele>
        <time>2022-04-18T10:23:14Z</time>
      </trkpt>
      <trkpt lat="45.15001" lon="4.78512">
        <ele>328.20001220703</ele>
        <time>2022-04-18T10:23:15Z</time>
      </trkpt>
      <trkpt lat="45.14992" lon="4.78516">
        <ele>325</ele>
        <time>2022-04-18T10:23:17Z</time>
      </trkpt>
      <trkpt lat="45.14978" lon="4.78511">
        <ele>321.79998779297</ele>
        <time>2022-04-18T10:23:21Z</time>
      </trkpt>
      <trkpt lat="45.14978" lon="4.78507">
        <ele>321.60000610352</ele>
        <time>2022-04-18T10:23:22Z</time>
      </trkpt>
      <trkpt lat="45.14984" lon="4.78489">
        <ele>319</ele>
        <time>2022-04-18T10:23:25Z</time>
      </trkpt>
      <trkpt lat="45.14988" lon="4.78478">
        <ele>317.60000610352</ele>
        <time>2022-04-18T10:23:27Z</time>
      </trkpt>
      <trkpt lat="45.14985" lon="4.78469">
        <ele>314.39999389648</ele>
        <time>2022-04-18T10:23:30Z</time>
      </trkpt>
      <trkpt lat="45.14968" lon="4.78482">
        <ele>312.60000610352</ele>
        <time>2022-04-18T10:23:34Z</time>
      </trkpt>
      <trkpt lat="45.14934" lon="4.78523">
        <ele>308</ele>
        <time>2022-04-18T10:23:40Z</time>
      </trkpt>
      <trkpt lat="45.14914" lon="4.78548">
        <ele>304.39999389648</ele>
        <time>2022-04-18T10:23:44Z</time>
      </trkpt>
      <trkpt lat="45.14908" lon="4.78553">
        <ele>304.20001220703</ele>
        <time>2022-04-18T10:23:45Z</time>
      </trkpt>
      <trkpt lat="45.14894" lon="4.78564">
        <ele>300.60000610352</ele>
        <time>2022-04-18T10:23:49Z</time>
      </trkpt>
      <trkpt lat="45.14889" lon="4.78551">
        <ele>296.39999389648</ele>
        <time>2022-04-18T10:23:53Z</time>
      </trkpt>
      <trkpt lat="45.1489" lon="4.78546">
        <ele>295.39999389648</ele>
        <time>2022-04-18T10:23:54Z</time>
      </trkpt>
      <trkpt lat="45.14892" lon="4.78529">
        <ele>294</ele>
        <time>2022-04-18T10:23:57Z</time>
      </trkpt>
      <trkpt lat="45.14911" lon="4.78484">
        <ele>289.79998779297</ele>
        <time>2022-04-18T10:24:04Z</time>
      </trkpt>
      <trkpt lat="45.14925" lon="4.78451">
        <ele>287.20001220703</ele>
        <time>2022-04-18T10:24:08Z</time>
      </trkpt>
      <trkpt lat="45.14936" lon="4.78429">
        <ele>284</ele>
        <time>2022-04-18T10:24:11Z</time>
      </trkpt>
      <trkpt lat="45.14957" lon="4.78394">
        <ele>280</ele>
        <time>2022-04-18T10:24:16Z</time>
      </trkpt>
      <trkpt lat="45.14971" lon="4.78378">
        <ele>277.60000610352</ele>
        <time>2022-04-18T10:24:19Z</time>
      </trkpt>
      <trkpt lat="45.14976" lon="4.78374">
        <ele>277.39999389648</ele>
        <time>2022-04-18T10:24:20Z</time>
      </trkpt>
      <trkpt lat="45.14999" lon="4.78358">
        <ele>275.20001220703</ele>
        <time>2022-04-18T10:24:25Z</time>
      </trkpt>
      <trkpt lat="45.15031" lon="4.78336">
        <ele>272.20001220703</ele>
        <time>2022-04-18T10:24:32Z</time>
      </trkpt>
      <trkpt lat="45.15057" lon="4.78316">
        <ele>272.39999389648</ele>
        <time>2022-04-18T10:24:40Z</time>
      </trkpt>
      <trkpt lat="45.15071" lon="4.78299">
        <ele>273.39999389648</ele>
        <time>2022-04-18T10:24:46Z</time>
      </trkpt>
      <trkpt lat="45.1509" lon="4.78281">
        <ele>274.79998779297</ele>
        <time>2022-04-18T10:24:54Z</time>
      </trkpt>
      <trkpt lat="45.15094" lon="4.78278">
        <ele>275</ele>
        <time>2022-04-18T10:24:56Z</time>
      </trkpt>
      <trkpt lat="45.15108" lon="4.78275">
        <ele>276.20001220703</ele>
        <time>2022-04-18T10:25:03Z</time>
      </trkpt>
      <trkpt lat="45.15112" lon="4.78262">
        <ele>276.60000610352</ele>
        <time>2022-04-18T10:25:09Z</time>
      </trkpt>
      <trkpt lat="45.15124" lon="4.78248">
        <ele>273.39999389648</ele>
        <time>2022-04-18T10:25:19Z</time>
      </trkpt>
      <trkpt lat="45.15124" lon="4.78248">
        <ele>270.20001220703</ele>
        <time>2022-04-18T10:25:23Z</time>
      </trkpt>
      <trkpt lat="45.15124" lon="4.78248">
        <ele>269.39999389648</ele>
        <time>2022-04-18T10:25:38Z</time>
      </trkpt>
      <trkpt lat="45.15123" lon="4.78247">
        <ele>272.60000610352</ele>
        <time>2022-04-18T10:25:56Z</time>
      </trkpt>
      <trkpt lat="45.15121" lon="4.78245">
        <ele>275.60000610352</ele>
        <time>2022-04-18T10:26:12Z</time>
      </trkpt>
      <trkpt lat="45.15119" lon="4.7824">
        <ele>276</ele>
        <time>2022-04-18T10:26:19Z</time>
      </trkpt>
      <trkpt lat="45.15121" lon="4.78226">
        <ele>276</ele>
        <time>2022-04-18T10:26:24Z</time>
      </trkpt>
      <trkpt lat="45.1512" lon="4.78221">
        <ele>276</ele>
        <time>2022-04-18T10:26:26Z</time>
      </trkpt>
      <trkpt lat="45.15124" lon="4.78213">
        <ele>276.60000610352</ele>
        <time>2022-04-18T10:26:30Z</time>
      </trkpt>
      <trkpt lat="45.15138" lon="4.78191">
        <ele>278</ele>
        <time>2022-04-18T10:26:39Z</time>
      </trkpt>
      <trkpt lat="45.1514" lon="4.78189">
        <ele>278.20001220703</ele>
        <time>2022-04-18T10:26:40Z</time>
      </trkpt>
      <trkpt lat="45.15154" lon="4.78182">
        <ele>278.79998779297</ele>
        <time>2022-04-18T10:26:43Z</time>
      </trkpt>
      <trkpt lat="45.15158" lon="4.78176">
        <ele>279.39999389648</ele>
        <time>2022-04-18T10:26:47Z</time>
      </trkpt>
      <trkpt lat="45.15177" lon="4.7817">
        <ele>280</ele>
        <time>2022-04-18T10:26:52Z</time>
      </trkpt>
      <trkpt lat="45.15182" lon="4.78167">
        <ele>280</ele>
        <time>2022-04-18T10:26:54Z</time>
      </trkpt>
      <trkpt lat="45.15193" lon="4.78168">
        <ele>280.60000610352</ele>
        <time>2022-04-18T10:27:00Z</time>
      </trkpt>
      <trkpt lat="45.15202" lon="4.78164">
        <ele>281</ele>
        <time>2022-04-18T10:27:05Z</time>
      </trkpt>
      <trkpt lat="45.15215" lon="4.78162">
        <ele>282.20001220703</ele>
        <time>2022-04-18T10:27:14Z</time>
      </trkpt>
      <trkpt lat="45.15216" lon="4.78162">
        <ele>282.60000610352</ele>
        <time>2022-04-18T10:27:16Z</time>
      </trkpt>
      <trkpt lat="45.15217" lon="4.7816">
        <ele>283</ele>
        <time>2022-04-18T10:27:18Z</time>
      </trkpt>
      <trkpt lat="45.15224" lon="4.78156">
        <ele>283.79998779297</ele>
        <time>2022-04-18T10:27:22Z</time>
      </trkpt>
      <trkpt lat="45.15232" lon="4.78155">
        <ele>284.79998779297</ele>
        <time>2022-04-18T10:27:26Z</time>
      </trkpt>
      <trkpt lat="45.15241" lon="4.78154">
        <ele>285.39999389648</ele>
        <time>2022-04-18T10:27:31Z</time>
      </trkpt>
      <trkpt lat="45.15262" lon="4.78158">
        <ele>285.79998779297</ele>
        <time>2022-04-18T10:27:38Z</time>
      </trkpt>
      <trkpt lat="45.15267" lon="4.78163">
        <ele>285.79998779297</ele>
        <time>2022-04-18T10:27:42Z</time>
      </trkpt>
      <trkpt lat="45.1527" lon="4.78164">
        <ele>285.79998779297</ele>
        <time>2022-04-18T10:27:45Z</time>
      </trkpt>
      <trkpt lat="45.15275" lon="4.78164">
        <ele>285.79998779297</ele>
        <time>2022-04-18T10:27:48Z</time>
      </trkpt>
      <trkpt lat="45.15285" lon="4.78184">
        <ele>285.79998779297</ele>
        <time>2022-04-18T10:27:59Z</time>
      </trkpt>
      <trkpt lat="45.15291" lon="4.7819">
        <ele>286</ele>
        <time>2022-04-18T10:28:03Z</time>
      </trkpt>
      <trkpt lat="45.15297" lon="4.78195">
        <ele>286.20001220703</ele>
        <time>2022-04-18T10:28:06Z</time>
      </trkpt>
      <trkpt lat="45.15324" lon="4.78201">
        <ele>286.39999389648</ele>
        <time>2022-04-18T10:28:13Z</time>
      </trkpt>
      <trkpt lat="45.1534" lon="4.78194">
        <ele>286.79998779297</ele>
        <time>2022-04-18T10:28:22Z</time>
      </trkpt>
      <trkpt lat="45.15362" lon="4.78177">
        <ele>286.79998779297</ele>
        <time>2022-04-18T10:28:53Z</time>
      </trkpt>
      <trkpt lat="45.1538" lon="4.78158">
        <ele>287.39999389648</ele>
        <time>2022-04-18T10:29:00Z</time>
      </trkpt>
      <trkpt lat="45.15386" lon="4.78143">
        <ele>288.79998779297</ele>
        <time>2022-04-18T10:29:07Z</time>
      </trkpt>
      <trkpt lat="45.15398" lon="4.78131">
        <ele>289.79998779297</ele>
        <time>2022-04-18T10:29:15Z</time>
      </trkpt>
      <trkpt lat="45.1541" lon="4.78122">
        <ele>290</ele>
        <time>2022-04-18T10:29:21Z</time>
      </trkpt>
      <trkpt lat="45.15415" lon="4.7812">
        <ele>290.20001220703</ele>
        <time>2022-04-18T10:29:28Z</time>
      </trkpt>
      <trkpt lat="45.15425" lon="4.78114">
        <ele>291.79998779297</ele>
        <time>2022-04-18T10:29:40Z</time>
      </trkpt>
      <trkpt lat="45.15428" lon="4.78113">
        <ele>293</ele>
        <time>2022-04-18T10:29:44Z</time>
      </trkpt>
      <trkpt lat="45.15441" lon="4.78112">
        <ele>293.39999389648</ele>
        <time>2022-04-18T10:29:52Z</time>
      </trkpt>
      <trkpt lat="45.15447" lon="4.78112">
        <ele>293.39999389648</ele>
        <time>2022-04-18T10:29:59Z</time>
      </trkpt>
      <trkpt lat="45.15452" lon="4.7811">
        <ele>293.79998779297</ele>
        <time>2022-04-18T10:30:07Z</time>
      </trkpt>
      <trkpt lat="45.15469" lon="4.78104">
        <ele>294.39999389648</ele>
        <time>2022-04-18T10:30:14Z</time>
      </trkpt>
      <trkpt lat="45.15485" lon="4.78102">
        <ele>294.60000610352</ele>
        <time>2022-04-18T10:30:21Z</time>
      </trkpt>
      <trkpt lat="45.155" lon="4.78101">
        <ele>295.20001220703</ele>
        <time>2022-04-18T10:30:24Z</time>
      </trkpt>
      <trkpt lat="45.15519" lon="4.78097">
        <ele>296.20001220703</ele>
        <time>2022-04-18T10:30:33Z</time>
      </trkpt>
      <trkpt lat="45.15541" lon="4.78098">
        <ele>296.39999389648</ele>
        <time>2022-04-18T10:30:41Z</time>
      </trkpt>
      <trkpt lat="45.15544" lon="4.78097">
        <ele>296.60000610352</ele>
        <time>2022-04-18T10:30:42Z</time>
      </trkpt>
      <trkpt lat="45.15554" lon="4.78088">
        <ele>298.20001220703</ele>
        <time>2022-04-18T10:30:50Z</time>
      </trkpt>
      <trkpt lat="45.15554" lon="4.78086">
        <ele>299</ele>
        <time>2022-04-18T10:30:52Z</time>
      </trkpt>
      <trkpt lat="45.1556" lon="4.78083">
        <ele>300.60000610352</ele>
        <time>2022-04-18T10:30:56Z</time>
      </trkpt>
      <trkpt lat="45.15576" lon="4.78072">
        <ele>301.39999389648</ele>
        <time>2022-04-18T10:31:05Z</time>
      </trkpt>
      <trkpt lat="45.15584" lon="4.78063">
        <ele>301.60000610352</ele>
        <time>2022-04-18T10:31:09Z</time>
      </trkpt>
      <trkpt lat="45.15587" lon="4.78052">
        <ele>301.60000610352</ele>
        <time>2022-04-18T10:31:13Z</time>
      </trkpt>
      <trkpt lat="45.156" lon="4.78028">
        <ele>301.60000610352</ele>
        <time>2022-04-18T10:31:19Z</time>
      </trkpt>
      <trkpt lat="45.15605" lon="4.78011">
        <ele>302</ele>
        <time>2022-04-18T10:31:25Z</time>
      </trkpt>
      <trkpt lat="45.15605" lon="4.78007">
        <ele>302</ele>
        <time>2022-04-18T10:31:27Z</time>
      </trkpt>
      <trkpt lat="45.1561" lon="4.77996">
        <ele>302.20001220703</ele>
        <time>2022-04-18T10:31:30Z</time>
      </trkpt>
      <trkpt lat="45.1562" lon="4.77975">
        <ele>302</ele>
        <time>2022-04-18T10:31:36Z</time>
      </trkpt>
      <trkpt lat="45.15632" lon="4.77963">
        <ele>302.79998779297</ele>
        <time>2022-04-18T10:31:44Z</time>
      </trkpt>
      <trkpt lat="45.1566" lon="4.7794">
        <ele>304</ele>
        <time>2022-04-18T10:31:57Z</time>
      </trkpt>
      <trkpt lat="45.15678" lon="4.77932">
        <ele>304.79998779297</ele>
        <time>2022-04-18T10:32:05Z</time>
      </trkpt>
      <trkpt lat="45.1568" lon="4.77931">
        <ele>305.60000610352</ele>
        <time>2022-04-18T10:32:07Z</time>
      </trkpt>
      <trkpt lat="45.15682" lon="4.7793">
        <ele>306</ele>
        <time>2022-04-18T10:32:10Z</time>
      </trkpt>
      <trkpt lat="45.15699" lon="4.7792">
        <ele>306.39999389648</ele>
        <time>2022-04-18T10:32:16Z</time>
      </trkpt>
      <trkpt lat="45.15721" lon="4.77917">
        <ele>306.60000610352</ele>
        <time>2022-04-18T10:32:22Z</time>
      </trkpt>
      <trkpt lat="45.15728" lon="4.77913">
        <ele>307</ele>
        <time>2022-04-18T10:32:28Z</time>
      </trkpt>
      <trkpt lat="45.1574" lon="4.77911">
        <ele>307.39999389648</ele>
        <time>2022-04-18T10:32:33Z</time>
      </trkpt>
      <trkpt lat="45.15746" lon="4.77906">
        <ele>307.79998779297</ele>
        <time>2022-04-18T10:32:38Z</time>
      </trkpt>
      <trkpt lat="45.15747" lon="4.77903">
        <ele>309.60000610352</ele>
        <time>2022-04-18T10:32:43Z</time>
      </trkpt>
      <trkpt lat="45.15769" lon="4.77907">
        <ele>311.39999389648</ele>
        <time>2022-04-18T10:32:54Z</time>
      </trkpt>
      <trkpt lat="45.15772" lon="4.77908">
        <ele>311.39999389648</ele>
        <time>2022-04-18T10:32:55Z</time>
      </trkpt>
      <trkpt lat="45.15795" lon="4.77909">
        <ele>311.60000610352</ele>
        <time>2022-04-18T10:33:02Z</time>
      </trkpt>
      <trkpt lat="45.15807" lon="4.77909">
        <ele>312.20001220703</ele>
        <time>2022-04-18T10:33:10Z</time>
      </trkpt>
      <trkpt lat="45.15827" lon="4.779">
        <ele>313.39999389648</ele>
        <time>2022-04-18T10:33:16Z</time>
      </trkpt>
      <trkpt lat="45.15835" lon="4.779">
        <ele>315.20001220703</ele>
        <time>2022-04-18T10:33:22Z</time>
      </trkpt>
      <trkpt lat="45.15853" lon="4.77889">
        <ele>317.20001220703</ele>
        <time>2022-04-18T10:33:28Z</time>
      </trkpt>
      <trkpt lat="45.15856" lon="4.77888">
        <ele>317.60000610352</ele>
        <time>2022-04-18T10:33:29Z</time>
      </trkpt>
      <trkpt lat="45.1586" lon="4.77887">
        <ele>318.20001220703</ele>
        <time>2022-04-18T10:33:31Z</time>
      </trkpt>
      <trkpt lat="45.15867" lon="4.77881">
        <ele>319.39999389648</ele>
        <time>2022-04-18T10:33:35Z</time>
      </trkpt>
      <trkpt lat="45.15875" lon="4.77881">
        <ele>320.20001220703</ele>
        <time>2022-04-18T10:33:39Z</time>
      </trkpt>
      <trkpt lat="45.15888" lon="4.7788">
        <ele>320.60000610352</ele>
        <time>2022-04-18T10:33:42Z</time>
      </trkpt>
      <trkpt lat="45.15918" lon="4.77867">
        <ele>320.39999389648</ele>
        <time>2022-04-18T10:33:46Z</time>
      </trkpt>
      <trkpt lat="45.15935" lon="4.77854">
        <ele>319</ele>
        <time>2022-04-18T10:33:49Z</time>
      </trkpt>
      <trkpt lat="45.15952" lon="4.77842">
        <ele>318.20001220703</ele>
        <time>2022-04-18T10:33:51Z</time>
      </trkpt>
      <trkpt lat="45.15971" lon="4.77839">
        <ele>317.20001220703</ele>
        <time>2022-04-18T10:33:55Z</time>
      </trkpt>
      <trkpt lat="45.15982" lon="4.7784">
        <ele>316</ele>
        <time>2022-04-18T10:34:02Z</time>
      </trkpt>
      <trkpt lat="45.15995" lon="4.77826">
        <ele>317</ele>
        <time>2022-04-18T10:34:10Z</time>
      </trkpt>
      <trkpt lat="45.16002" lon="4.77808">
        <ele>319</ele>
        <time>2022-04-18T10:34:19Z</time>
      </trkpt>
      <trkpt lat="45.16002" lon="4.77794">
        <ele>320.60000610352</ele>
        <time>2022-04-18T10:34:26Z</time>
      </trkpt>
      <trkpt lat="45.16001" lon="4.7779">
        <ele>321</ele>
        <time>2022-04-18T10:34:28Z</time>
      </trkpt>
      <trkpt lat="45.16" lon="4.7778">
        <ele>321.39999389648</ele>
        <time>2022-04-18T10:34:32Z</time>
      </trkpt>
      <trkpt lat="45.16004" lon="4.77774">
        <ele>322</ele>
        <time>2022-04-18T10:34:34Z</time>
      </trkpt>
      <trkpt lat="45.15997" lon="4.77761">
        <ele>323.39999389648</ele>
        <time>2022-04-18T10:34:40Z</time>
      </trkpt>
      <trkpt lat="45.15993" lon="4.7775">
        <ele>324.79998779297</ele>
        <time>2022-04-18T10:34:47Z</time>
      </trkpt>
      <trkpt lat="45.15985" lon="4.77734">
        <ele>326.20001220703</ele>
        <time>2022-04-18T10:34:56Z</time>
      </trkpt>
      <trkpt lat="45.15985" lon="4.77732">
        <ele>326.20001220703</ele>
        <time>2022-04-18T10:34:57Z</time>
      </trkpt>
      <trkpt lat="45.15982" lon="4.77724">
        <ele>326.60000610352</ele>
        <time>2022-04-18T10:35:02Z</time>
      </trkpt>
      <trkpt lat="45.15978" lon="4.77711">
        <ele>329</ele>
        <time>2022-04-18T10:35:09Z</time>
      </trkpt>
      <trkpt lat="45.15978" lon="4.77711">
        <ele>328.79998779297</ele>
        <time>2022-04-18T10:35:10Z</time>
      </trkpt>
      <trkpt lat="45.15978" lon="4.77708">
        <ele>329</ele>
        <time>2022-04-18T10:35:12Z</time>
      </trkpt>
      <trkpt lat="45.15978" lon="4.77699">
        <ele>329.39999389648</ele>
        <time>2022-04-18T10:35:15Z</time>
      </trkpt>
      <trkpt lat="45.15979" lon="4.77694">
        <ele>329.79998779297</ele>
        <time>2022-04-18T10:35:17Z</time>
      </trkpt>
      <trkpt lat="45.15981" lon="4.77684">
        <ele>330.79998779297</ele>
        <time>2022-04-18T10:35:21Z</time>
      </trkpt>
      <trkpt lat="45.15985" lon="4.77678">
        <ele>331.39999389648</ele>
        <time>2022-04-18T10:35:23Z</time>
      </trkpt>
      <trkpt lat="45.15988" lon="4.77674">
        <ele>332.20001220703</ele>
        <time>2022-04-18T10:35:27Z</time>
      </trkpt>
      <trkpt lat="45.15986" lon="4.77669">
        <ele>332.79998779297</ele>
        <time>2022-04-18T10:35:30Z</time>
      </trkpt>
      <trkpt lat="45.15987" lon="4.77663">
        <ele>333.79998779297</ele>
        <time>2022-04-18T10:35:33Z</time>
      </trkpt>
      <trkpt lat="45.15991" lon="4.77651">
        <ele>334.79998779297</ele>
        <time>2022-04-18T10:35:40Z</time>
      </trkpt>
      <trkpt lat="45.15995" lon="4.77637">
        <ele>335.60000610352</ele>
        <time>2022-04-18T10:35:46Z</time>
      </trkpt>
      <trkpt lat="45.15995" lon="4.77636">
        <ele>336.20001220703</ele>
        <time>2022-04-18T10:35:48Z</time>
      </trkpt>
      <trkpt lat="45.15997" lon="4.7763">
        <ele>336.79998779297</ele>
        <time>2022-04-18T10:35:53Z</time>
      </trkpt>
      <trkpt lat="45.15998" lon="4.77619">
        <ele>337.79998779297</ele>
        <time>2022-04-18T10:35:59Z</time>
      </trkpt>
      <trkpt lat="45.16008" lon="4.77604">
        <ele>338.79998779297</ele>
        <time>2022-04-18T10:36:06Z</time>
      </trkpt>
      <trkpt lat="45.16011" lon="4.776">
        <ele>339.20001220703</ele>
        <time>2022-04-18T10:36:08Z</time>
      </trkpt>
      <trkpt lat="45.16018" lon="4.77584">
        <ele>340</ele>
        <time>2022-04-18T10:36:16Z</time>
      </trkpt>
      <trkpt lat="45.16021" lon="4.77578">
        <ele>340.20001220703</ele>
        <time>2022-04-18T10:36:19Z</time>
      </trkpt>
      <trkpt lat="45.16029" lon="4.77568">
        <ele>340.79998779297</ele>
        <time>2022-04-18T10:36:23Z</time>
      </trkpt>
      <trkpt lat="45.16035" lon="4.77555">
        <ele>341</ele>
        <time>2022-04-18T10:36:28Z</time>
      </trkpt>
      <trkpt lat="45.16044" lon="4.77541">
        <ele>342.39999389648</ele>
        <time>2022-04-18T10:36:35Z</time>
      </trkpt>
      <trkpt lat="45.16052" lon="4.77535">
        <ele>342.79998779297</ele>
        <time>2022-04-18T10:36:40Z</time>
      </trkpt>
      <trkpt lat="45.16055" lon="4.77531">
        <ele>343.60000610352</ele>
        <time>2022-04-18T10:36:42Z</time>
      </trkpt>
      <trkpt lat="45.16067" lon="4.77525">
        <ele>344.39999389648</ele>
        <time>2022-04-18T10:36:49Z</time>
      </trkpt>
      <trkpt lat="45.16072" lon="4.77519">
        <ele>345</ele>
        <time>2022-04-18T10:36:52Z</time>
      </trkpt>
      <trkpt lat="45.16073" lon="4.77516">
        <ele>345.20001220703</ele>
        <time>2022-04-18T10:36:54Z</time>
      </trkpt>
      <trkpt lat="45.16084" lon="4.775">
        <ele>346.39999389648</ele>
        <time>2022-04-18T10:37:02Z</time>
      </trkpt>
      <trkpt lat="45.16086" lon="4.77491">
        <ele>347.60000610352</ele>
        <time>2022-04-18T10:37:09Z</time>
      </trkpt>
      <trkpt lat="45.16085" lon="4.77483">
        <ele>349</ele>
        <time>2022-04-18T10:37:14Z</time>
      </trkpt>
      <trkpt lat="45.16084" lon="4.77468">
        <ele>351</ele>
        <time>2022-04-18T10:37:20Z</time>
      </trkpt>
      <trkpt lat="45.16084" lon="4.77468">
        <ele>351.60000610352</ele>
        <time>2022-04-18T10:37:21Z</time>
      </trkpt>
      <trkpt lat="45.16084" lon="4.77458">
        <ele>352.60000610352</ele>
        <time>2022-04-18T10:37:25Z</time>
      </trkpt>
      <trkpt lat="45.16087" lon="4.77446">
        <ele>353.79998779297</ele>
        <time>2022-04-18T10:37:30Z</time>
      </trkpt>
      <trkpt lat="45.16088" lon="4.77443">
        <ele>354.20001220703</ele>
        <time>2022-04-18T10:37:31Z</time>
      </trkpt>
      <trkpt lat="45.16088" lon="4.77441">
        <ele>354.39999389648</ele>
        <time>2022-04-18T10:37:32Z</time>
      </trkpt>
      <trkpt lat="45.16094" lon="4.77428">
        <ele>355.79998779297</ele>
        <time>2022-04-18T10:37:40Z</time>
      </trkpt>
      <trkpt lat="45.16096" lon="4.77425">
        <ele>356.20001220703</ele>
        <time>2022-04-18T10:37:42Z</time>
      </trkpt>
      <trkpt lat="45.16096" lon="4.77419">
        <ele>356.79998779297</ele>
        <time>2022-04-18T10:37:47Z</time>
      </trkpt>
      <trkpt lat="45.16093" lon="4.77415">
        <ele>357.39999389648</ele>
        <time>2022-04-18T10:37:51Z</time>
      </trkpt>
      <trkpt lat="45.16091" lon="4.77412">
        <ele>357.60000610352</ele>
        <time>2022-04-18T10:37:53Z</time>
      </trkpt>
      <trkpt lat="45.1609" lon="4.77405">
        <ele>358.39999389648</ele>
        <time>2022-04-18T10:37:56Z</time>
      </trkpt>
      <trkpt lat="45.16085" lon="4.77382">
        <ele>359.39999389648</ele>
        <time>2022-04-18T10:38:03Z</time>
      </trkpt>
      <trkpt lat="45.16079" lon="4.77377">
        <ele>360.20001220703</ele>
        <time>2022-04-18T10:38:07Z</time>
      </trkpt>
      <trkpt lat="45.16075" lon="4.77366">
        <ele>361</ele>
        <time>2022-04-18T10:38:11Z</time>
      </trkpt>
      <trkpt lat="45.16069" lon="4.77356">
        <ele>362.39999389648</ele>
        <time>2022-04-18T10:38:17Z</time>
      </trkpt>
      <trkpt lat="45.16067" lon="4.77351">
        <ele>362.79998779297</ele>
        <time>2022-04-18T10:38:19Z</time>
      </trkpt>
      <trkpt lat="45.16065" lon="4.77348">
        <ele>362.79998779297</ele>
        <time>2022-04-18T10:38:20Z</time>
      </trkpt>
      <trkpt lat="45.16065" lon="4.77337">
        <ele>363.60000610352</ele>
        <time>2022-04-18T10:38:24Z</time>
      </trkpt>
      <trkpt lat="45.16059" lon="4.77331">
        <ele>364.20001220703</ele>
        <time>2022-04-18T10:38:28Z</time>
      </trkpt>
      <trkpt lat="45.16059" lon="4.77322">
        <ele>365.39999389648</ele>
        <time>2022-04-18T10:38:33Z</time>
      </trkpt>
      <trkpt lat="45.16052" lon="4.77305">
        <ele>367.39999389648</ele>
        <time>2022-04-18T10:38:43Z</time>
      </trkpt>
      <trkpt lat="45.1605" lon="4.77282">
        <ele>369</ele>
        <time>2022-04-18T10:38:52Z</time>
      </trkpt>
      <trkpt lat="45.16045" lon="4.77269">
        <ele>370.39999389648</ele>
        <time>2022-04-18T10:38:59Z</time>
      </trkpt>
      <trkpt lat="45.16042" lon="4.77259">
        <ele>372.79998779297</ele>
        <time>2022-04-18T10:39:08Z</time>
      </trkpt>
      <trkpt lat="45.16035" lon="4.77254">
        <ele>374.39999389648</ele>
        <time>2022-04-18T10:39:14Z</time>
      </trkpt>
      <trkpt lat="45.16035" lon="4.77254">
        <ele>374.39999389648</ele>
        <time>2022-04-18T10:39:15Z</time>
      </trkpt>
      <trkpt lat="45.16027" lon="4.77249">
        <ele>375.39999389648</ele>
        <time>2022-04-18T10:39:20Z</time>
      </trkpt>
      <trkpt lat="45.16027" lon="4.77248">
        <ele>376.20001220703</ele>
        <time>2022-04-18T10:39:23Z</time>
      </trkpt>
      <trkpt lat="45.16009" lon="4.77238">
        <ele>377.60000610352</ele>
        <time>2022-04-18T10:39:29Z</time>
      </trkpt>
      <trkpt lat="45.16006" lon="4.77236">
        <ele>378</ele>
        <time>2022-04-18T10:39:31Z</time>
      </trkpt>
      <trkpt lat="45.16" lon="4.77225">
        <ele>379.20001220703</ele>
        <time>2022-04-18T10:39:36Z</time>
      </trkpt>
      <trkpt lat="45.16004" lon="4.7721">
        <ele>380.20001220703</ele>
        <time>2022-04-18T10:39:42Z</time>
      </trkpt>
      <trkpt lat="45.16003" lon="4.77201">
        <ele>381.39999389648</ele>
        <time>2022-04-18T10:39:48Z</time>
      </trkpt>
      <trkpt lat="45.15997" lon="4.77188">
        <ele>384.20001220703</ele>
        <time>2022-04-18T10:39:58Z</time>
      </trkpt>
      <trkpt lat="45.15991" lon="4.7718">
        <ele>385.79998779297</ele>
        <time>2022-04-18T10:40:05Z</time>
      </trkpt>
      <trkpt lat="45.1599" lon="4.77162">
        <ele>387.79998779297</ele>
        <time>2022-04-18T10:40:15Z</time>
      </trkpt>
      <trkpt lat="45.15988" lon="4.77148">
        <ele>388.39999389648</ele>
        <time>2022-04-18T10:40:22Z</time>
      </trkpt>
      <trkpt lat="45.15981" lon="4.77119">
        <ele>390.79998779297</ele>
        <time>2022-04-18T10:40:37Z</time>
      </trkpt>
      <trkpt lat="45.15976" lon="4.77087">
        <ele>393</ele>
        <time>2022-04-18T10:40:50Z</time>
      </trkpt>
      <trkpt lat="45.15971" lon="4.77047">
        <ele>395</ele>
        <time>2022-04-18T10:41:04Z</time>
      </trkpt>
      <trkpt lat="45.15967" lon="4.77001">
        <ele>397</ele>
        <time>2022-04-18T10:41:20Z</time>
      </trkpt>
      <trkpt lat="45.15959" lon="4.7695">
        <ele>399</ele>
        <time>2022-04-18T10:41:36Z</time>
      </trkpt>
      <trkpt lat="45.15953" lon="4.76908">
        <ele>400</ele>
        <time>2022-04-18T10:41:48Z</time>
      </trkpt>
      <trkpt lat="45.15945" lon="4.7686">
        <ele>403</ele>
        <time>2022-04-18T10:42:03Z</time>
      </trkpt>
      <trkpt lat="45.15933" lon="4.7681">
        <ele>405.79998779297</ele>
        <time>2022-04-18T10:42:19Z</time>
      </trkpt>
      <trkpt lat="45.15924" lon="4.76758">
        <ele>407</ele>
        <time>2022-04-18T10:42:34Z</time>
      </trkpt>
      <trkpt lat="45.15918" lon="4.76694">
        <ele>408.60000610352</ele>
        <time>2022-04-18T10:42:51Z</time>
      </trkpt>
      <trkpt lat="45.15911" lon="4.76653">
        <ele>412</ele>
        <time>2022-04-18T10:43:04Z</time>
      </trkpt>
      <trkpt lat="45.15903" lon="4.76602">
        <ele>415</ele>
        <time>2022-04-18T10:43:19Z</time>
      </trkpt>
      <trkpt lat="45.15893" lon="4.7654">
        <ele>416.60000610352</ele>
        <time>2022-04-18T10:43:36Z</time>
      </trkpt>
      <trkpt lat="45.15884" lon="4.76483">
        <ele>419.20001220703</ele>
        <time>2022-04-18T10:43:52Z</time>
      </trkpt>
      <trkpt lat="45.15881" lon="4.76426">
        <ele>421.60000610352</ele>
        <time>2022-04-18T10:44:07Z</time>
      </trkpt>
      <trkpt lat="45.15878" lon="4.76353">
        <ele>424.39999389648</ele>
        <time>2022-04-18T10:44:25Z</time>
      </trkpt>
      <trkpt lat="45.15871" lon="4.76319">
        <ele>425.39999389648</ele>
        <time>2022-04-18T10:44:35Z</time>
      </trkpt>
      <trkpt lat="45.15867" lon="4.7629">
        <ele>427.20001220703</ele>
        <time>2022-04-18T10:44:45Z</time>
      </trkpt>
      <trkpt lat="45.15866" lon="4.76289">
        <ele>427.39999389648</ele>
        <time>2022-04-18T10:44:46Z</time>
      </trkpt>
      <trkpt lat="45.15863" lon="4.7628">
        <ele>428.20001220703</ele>
        <time>2022-04-18T10:44:55Z</time>
      </trkpt>
      <trkpt lat="45.15876" lon="4.76291">
        <ele>428.39999389648</ele>
        <time>2022-04-18T10:45:02Z</time>
      </trkpt>
      <trkpt lat="45.15891" lon="4.76297">
        <ele>428.39999389648</ele>
        <time>2022-04-18T10:45:06Z</time>
      </trkpt>
      <trkpt lat="45.15977" lon="4.76339">
        <ele>426</ele>
        <time>2022-04-18T10:45:22Z</time>
      </trkpt>
      <trkpt lat="45.16047" lon="4.76375">
        <ele>423.60000610352</ele>
        <time>2022-04-18T10:45:34Z</time>
      </trkpt>
      <trkpt lat="45.16067" lon="4.76384">
        <ele>422.20001220703</ele>
        <time>2022-04-18T10:45:41Z</time>
      </trkpt>
      <trkpt lat="45.16088" lon="4.76394">
        <ele>421.60000610352</ele>
        <time>2022-04-18T10:45:46Z</time>
      </trkpt>
      <trkpt lat="45.16149" lon="4.76423">
        <ele>420</ele>
        <time>2022-04-18T10:45:58Z</time>
      </trkpt>
      <trkpt lat="45.16202" lon="4.76445">
        <ele>418.39999389648</ele>
        <time>2022-04-18T10:46:07Z</time>
      </trkpt>
      <trkpt lat="45.16329" lon="4.765">
        <ele>416.20001220703</ele>
        <time>2022-04-18T10:46:31Z</time>
      </trkpt>
      <trkpt lat="45.16348" lon="4.76498">
        <ele>416</ele>
        <time>2022-04-18T10:46:35Z</time>
      </trkpt>
      <trkpt lat="45.16358" lon="4.76497">
        <ele>416</ele>
        <time>2022-04-18T10:46:37Z</time>
      </trkpt>
      <trkpt lat="45.16381" lon="4.76508">
        <ele>415</ele>
        <time>2022-04-18T10:46:41Z</time>
      </trkpt>
      <trkpt lat="45.1641" lon="4.76525">
        <ele>412.60000610352</ele>
        <time>2022-04-18T10:46:47Z</time>
      </trkpt>
      <trkpt lat="45.16426" lon="4.76521">
        <ele>409.79998779297</ele>
        <time>2022-04-18T10:46:54Z</time>
      </trkpt>
      <trkpt lat="45.16432" lon="4.76525">
        <ele>409.39999389648</ele>
        <time>2022-04-18T10:46:56Z</time>
      </trkpt>
      <trkpt lat="45.16439" lon="4.7653">
        <ele>409.20001220703</ele>
        <time>2022-04-18T10:46:58Z</time>
      </trkpt>
      <trkpt lat="45.16471" lon="4.76526">
        <ele>406.79998779297</ele>
        <time>2022-04-18T10:47:05Z</time>
      </trkpt>
      <trkpt lat="45.16472" lon="4.76517">
        <ele>405.60000610352</ele>
        <time>2022-04-18T10:47:07Z</time>
      </trkpt>
      <trkpt lat="45.16476" lon="4.76495">
        <ele>403.60000610352</ele>
        <time>2022-04-18T10:47:10Z</time>
      </trkpt>
      <trkpt lat="45.16477" lon="4.76468">
        <ele>401</ele>
        <time>2022-04-18T10:47:13Z</time>
      </trkpt>
      <trkpt lat="45.16471" lon="4.76436">
        <ele>397.79998779297</ele>
        <time>2022-04-18T10:47:17Z</time>
      </trkpt>
      <trkpt lat="45.16471" lon="4.7642">
        <ele>394.60000610352</ele>
        <time>2022-04-18T10:47:22Z</time>
      </trkpt>
      <trkpt lat="45.16474" lon="4.76419">
        <ele>394</ele>
        <time>2022-04-18T10:47:25Z</time>
      </trkpt>
      <trkpt lat="45.16477" lon="4.7642">
        <ele>393.79998779297</ele>
        <time>2022-04-18T10:47:29Z</time>
      </trkpt>
      <trkpt lat="45.16483" lon="4.76425">
        <ele>394</ele>
        <time>2022-04-18T10:47:35Z</time>
      </trkpt>
      <trkpt lat="45.16506" lon="4.76451">
        <ele>395.60000610352</ele>
        <time>2022-04-18T10:47:47Z</time>
      </trkpt>
      <trkpt lat="45.16515" lon="4.76474">
        <ele>395.79998779297</ele>
        <time>2022-04-18T10:47:55Z</time>
      </trkpt>
      <trkpt lat="45.16534" lon="4.76493">
        <ele>397.60000610352</ele>
        <time>2022-04-18T10:48:06Z</time>
      </trkpt>
      <trkpt lat="45.16542" lon="4.76501">
        <ele>398.39999389648</ele>
        <time>2022-04-18T10:48:11Z</time>
      </trkpt>
      <trkpt lat="45.16565" lon="4.76518">
        <ele>399.79998779297</ele>
        <time>2022-04-18T10:48:22Z</time>
      </trkpt>
      <trkpt lat="45.16591" lon="4.76522">
        <ele>401.79998779297</ele>
        <time>2022-04-18T10:48:35Z</time>
      </trkpt>
      <trkpt lat="45.16619" lon="4.76515">
        <ele>404.39999389648</ele>
        <time>2022-04-18T10:48:49Z</time>
      </trkpt>
      <trkpt lat="45.16634" lon="4.76515">
        <ele>405.39999389648</ele>
        <time>2022-04-18T10:48:58Z</time>
      </trkpt>
      <trkpt lat="45.16636" lon="4.76502">
        <ele>406.60000610352</ele>
        <time>2022-04-18T10:49:04Z</time>
      </trkpt>
      <trkpt lat="45.16631" lon="4.76458">
        <ele>408.79998779297</ele>
        <time>2022-04-18T10:49:21Z</time>
      </trkpt>
      <trkpt lat="45.16619" lon="4.76414">
        <ele>410.60000610352</ele>
        <time>2022-04-18T10:49:37Z</time>
      </trkpt>
      <trkpt lat="45.16604" lon="4.76366">
        <ele>412.60000610352</ele>
        <time>2022-04-18T10:49:53Z</time>
      </trkpt>
      <trkpt lat="45.16594" lon="4.7632">
        <ele>414.39999389648</ele>
        <time>2022-04-18T10:50:08Z</time>
      </trkpt>
      <trkpt lat="45.16573" lon="4.76274">
        <ele>416.79998779297</ele>
        <time>2022-04-18T10:50:23Z</time>
      </trkpt>
      <trkpt lat="45.16551" lon="4.76207">
        <ele>418</ele>
        <time>2022-04-18T10:50:39Z</time>
      </trkpt>
      <trkpt lat="45.16544" lon="4.76165">
        <ele>417.79998779297</ele>
        <time>2022-04-18T10:50:46Z</time>
      </trkpt>
      <trkpt lat="45.16546" lon="4.76123">
        <ele>418</ele>
        <time>2022-04-18T10:50:53Z</time>
      </trkpt>
      <trkpt lat="45.16559" lon="4.76027">
        <ele>419.39999389648</ele>
        <time>2022-04-18T10:51:11Z</time>
      </trkpt>
      <trkpt lat="45.16572" lon="4.75942">
        <ele>422.39999389648</ele>
        <time>2022-04-18T10:51:29Z</time>
      </trkpt>
      <trkpt lat="45.16574" lon="4.7594">
        <ele>422.79998779297</ele>
        <time>2022-04-18T10:51:30Z</time>
      </trkpt>
      <trkpt lat="45.16587" lon="4.75941">
        <ele>424</ele>
        <time>2022-04-18T10:51:34Z</time>
      </trkpt>
      <trkpt lat="45.16645" lon="4.75963">
        <ele>424</ele>
        <time>2022-04-18T10:51:50Z</time>
      </trkpt>
      <trkpt lat="45.16703" lon="4.75975">
        <ele>424.79998779297</ele>
        <time>2022-04-18T10:52:06Z</time>
      </trkpt>
      <trkpt lat="45.16751" lon="4.75962">
        <ele>425.60000610352</ele>
        <time>2022-04-18T10:52:18Z</time>
      </trkpt>
      <trkpt lat="45.16797" lon="4.75933">
        <ele>427.79998779297</ele>
        <time>2022-04-18T10:52:34Z</time>
      </trkpt>
      <trkpt lat="45.16845" lon="4.75902">
        <ele>429.79998779297</ele>
        <time>2022-04-18T10:52:50Z</time>
      </trkpt>
      <trkpt lat="45.16878" lon="4.75885">
        <ele>430.39999389648</ele>
        <time>2022-04-18T10:53:00Z</time>
      </trkpt>
      <trkpt lat="45.16882" lon="4.7585">
        <ele>430.39999389648</ele>
        <time>2022-04-18T10:53:07Z</time>
      </trkpt>
      <trkpt lat="45.16879" lon="4.7574">
        <ele>432.20001220703</ele>
        <time>2022-04-18T10:53:28Z</time>
      </trkpt>
      <trkpt lat="45.16871" lon="4.75684">
        <ele>433</ele>
        <time>2022-04-18T10:53:38Z</time>
      </trkpt>
      <trkpt lat="45.16849" lon="4.75553">
        <ele>434.79998779297</ele>
        <time>2022-04-18T10:54:04Z</time>
      </trkpt>
      <trkpt lat="45.1686" lon="4.75505">
        <ele>436.79998779297</ele>
        <time>2022-04-18T10:54:18Z</time>
      </trkpt>
      <trkpt lat="45.16891" lon="4.75512">
        <ele>438.60000610352</ele>
        <time>2022-04-18T10:54:29Z</time>
      </trkpt>
      <trkpt lat="45.16972" lon="4.75552">
        <ele>435.60000610352</ele>
        <time>2022-04-18T10:54:44Z</time>
      </trkpt>
      <trkpt lat="45.17059" lon="4.75575">
        <ele>432</ele>
        <time>2022-04-18T10:54:56Z</time>
      </trkpt>
      <trkpt lat="45.17066" lon="4.75576">
        <ele>431.79998779297</ele>
        <time>2022-04-18T10:54:57Z</time>
      </trkpt>
      <trkpt lat="45.17111" lon="4.75584">
        <ele>430.20001220703</ele>
        <time>2022-04-18T10:55:04Z</time>
      </trkpt>
      <trkpt lat="45.17181" lon="4.75613">
        <ele>427.20001220703</ele>
        <time>2022-04-18T10:55:15Z</time>
      </trkpt>
      <trkpt lat="45.17249" lon="4.7565">
        <ele>423</ele>
        <time>2022-04-18T10:55:25Z</time>
      </trkpt>
      <trkpt lat="45.1732" lon="4.75676">
        <ele>420.39999389648</ele>
        <time>2022-04-18T10:55:35Z</time>
      </trkpt>
      <trkpt lat="45.17383" lon="4.75722">
        <ele>417.60000610352</ele>
        <time>2022-04-18T10:55:43Z</time>
      </trkpt>
      <trkpt lat="45.17417" lon="4.75757">
        <ele>414</ele>
        <time>2022-04-18T10:55:48Z</time>
      </trkpt>
      <trkpt lat="45.17446" lon="4.75781">
        <ele>411</ele>
        <time>2022-04-18T10:55:52Z</time>
      </trkpt>
      <trkpt lat="45.17471" lon="4.75807">
        <ele>409.60000610352</ele>
        <time>2022-04-18T10:55:56Z</time>
      </trkpt>
      <trkpt lat="45.17506" lon="4.75841">
        <ele>407.20001220703</ele>
        <time>2022-04-18T10:56:01Z</time>
      </trkpt>
      <trkpt lat="45.17539" lon="4.75864">
        <ele>404.20001220703</ele>
        <time>2022-04-18T10:56:05Z</time>
      </trkpt>
      <trkpt lat="45.17566" lon="4.75889">
        <ele>401.79998779297</ele>
        <time>2022-04-18T10:56:08Z</time>
      </trkpt>
      <trkpt lat="45.1759" lon="4.75915">
        <ele>398.39999389648</ele>
        <time>2022-04-18T10:56:11Z</time>
      </trkpt>
      <trkpt lat="45.17604" lon="4.75927">
        <ele>396.60000610352</ele>
        <time>2022-04-18T10:56:13Z</time>
      </trkpt>
      <trkpt lat="45.1762" lon="4.75935">
        <ele>393.39999389648</ele>
        <time>2022-04-18T10:56:16Z</time>
      </trkpt>
      <trkpt lat="45.17624" lon="4.75934">
        <ele>393.20001220703</ele>
        <time>2022-04-18T10:56:17Z</time>
      </trkpt>
      <trkpt lat="45.17625" lon="4.75925">
        <ele>391</ele>
        <time>2022-04-18T10:56:20Z</time>
      </trkpt>
      <trkpt lat="45.17589" lon="4.75814">
        <ele>391.20001220703</ele>
        <time>2022-04-18T10:56:43Z</time>
      </trkpt>
      <trkpt lat="45.17576" lon="4.75777">
        <ele>391.20001220703</ele>
        <time>2022-04-18T10:56:50Z</time>
      </trkpt>
      <trkpt lat="45.1759" lon="4.75678">
        <ele>390.79998779297</ele>
        <time>2022-04-18T10:57:06Z</time>
      </trkpt>
      <trkpt lat="45.17609" lon="4.75554">
        <ele>389.79998779297</ele>
        <time>2022-04-18T10:57:21Z</time>
      </trkpt>
      <trkpt lat="45.17619" lon="4.75525">
        <ele>388.79998779297</ele>
        <time>2022-04-18T10:57:24Z</time>
      </trkpt>
      <trkpt lat="45.17649" lon="4.75472">
        <ele>386.79998779297</ele>
        <time>2022-04-18T10:57:31Z</time>
      </trkpt>
      <trkpt lat="45.17659" lon="4.75462">
        <ele>386.60000610352</ele>
        <time>2022-04-18T10:57:33Z</time>
      </trkpt>
      <trkpt lat="45.17659" lon="4.75431">
        <ele>385.60000610352</ele>
        <time>2022-04-18T10:57:39Z</time>
      </trkpt>
      <trkpt lat="45.17654" lon="4.75423">
        <ele>385.39999389648</ele>
        <time>2022-04-18T10:57:41Z</time>
      </trkpt>
      <trkpt lat="45.17625" lon="4.75388">
        <ele>386.20001220703</ele>
        <time>2022-04-18T10:57:51Z</time>
      </trkpt>
      <trkpt lat="45.17618" lon="4.75349">
        <ele>386.39999389648</ele>
        <time>2022-04-18T10:57:57Z</time>
      </trkpt>
      <trkpt lat="45.17617" lon="4.75333">
        <ele>385.79998779297</ele>
        <time>2022-04-18T10:57:59Z</time>
      </trkpt>
      <trkpt lat="45.17616" lon="4.75285">
        <ele>382.60000610352</ele>
        <time>2022-04-18T10:58:04Z</time>
      </trkpt>
      <trkpt lat="45.17602" lon="4.75258">
        <ele>378.39999389648</ele>
        <time>2022-04-18T10:58:08Z</time>
      </trkpt>
      <trkpt lat="45.17599" lon="4.75248">
        <ele>376.79998779297</ele>
        <time>2022-04-18T10:58:10Z</time>
      </trkpt>
      <trkpt lat="45.17599" lon="4.75243">
        <ele>375.79998779297</ele>
        <time>2022-04-18T10:58:11Z</time>
      </trkpt>
      <trkpt lat="45.17587" lon="4.75235">
        <ele>371.39999389648</ele>
        <time>2022-04-18T10:58:15Z</time>
      </trkpt>
      <trkpt lat="45.17565" lon="4.75228">
        <ele>368.20001220703</ele>
        <time>2022-04-18T10:58:18Z</time>
      </trkpt>
      <trkpt lat="45.17557" lon="4.75225">
        <ele>365.60000610352</ele>
        <time>2022-04-18T10:58:20Z</time>
      </trkpt>
      <trkpt lat="45.17559" lon="4.75216">
        <ele>362.39999389648</ele>
        <time>2022-04-18T10:58:24Z</time>
      </trkpt>
      <trkpt lat="45.17561" lon="4.75214">
        <ele>362.20001220703</ele>
        <time>2022-04-18T10:58:25Z</time>
      </trkpt>
      <trkpt lat="45.17565" lon="4.75203">
        <ele>358</ele>
        <time>2022-04-18T10:58:29Z</time>
      </trkpt>
      <trkpt lat="45.17569" lon="4.75197">
        <ele>356.60000610352</ele>
        <time>2022-04-18T10:58:31Z</time>
      </trkpt>
      <trkpt lat="45.17571" lon="4.75195">
        <ele>356.39999389648</ele>
        <time>2022-04-18T10:58:32Z</time>
      </trkpt>
      <trkpt lat="45.1757" lon="4.75185">
        <ele>354.39999389648</ele>
        <time>2022-04-18T10:58:35Z</time>
      </trkpt>
      <trkpt lat="45.17584" lon="4.7517">
        <ele>353.39999389648</ele>
        <time>2022-04-18T10:58:38Z</time>
      </trkpt>
      <trkpt lat="45.17604" lon="4.75156">
        <ele>350.79998779297</ele>
        <time>2022-04-18T10:58:42Z</time>
      </trkpt>
      <trkpt lat="45.17608" lon="4.7514">
        <ele>349</ele>
        <time>2022-04-18T10:58:46Z</time>
      </trkpt>
      <trkpt lat="45.17627" lon="4.75129">
        <ele>345.60000610352</ele>
        <time>2022-04-18T10:58:52Z</time>
      </trkpt>
      <trkpt lat="45.1764" lon="4.75128">
        <ele>344.39999389648</ele>
        <time>2022-04-18T10:58:55Z</time>
      </trkpt>
      <trkpt lat="45.17646" lon="4.75126">
        <ele>343.60000610352</ele>
        <time>2022-04-18T10:58:58Z</time>
      </trkpt>
      <trkpt lat="45.17659" lon="4.75135">
        <ele>342</ele>
        <time>2022-04-18T10:59:02Z</time>
      </trkpt>
      <trkpt lat="45.17666" lon="4.75142">
        <ele>340.60000610352</ele>
        <time>2022-04-18T10:59:04Z</time>
      </trkpt>
      <trkpt lat="45.17675" lon="4.75138">
        <ele>338</ele>
        <time>2022-04-18T10:59:09Z</time>
      </trkpt>
      <trkpt lat="45.17668" lon="4.75122">
        <ele>335</ele>
        <time>2022-04-18T10:59:14Z</time>
      </trkpt>
      <trkpt lat="45.17674" lon="4.75117">
        <ele>332</ele>
        <time>2022-04-18T10:59:18Z</time>
      </trkpt>
      <trkpt lat="45.17684" lon="4.75125">
        <ele>329.79998779297</ele>
        <time>2022-04-18T10:59:22Z</time>
      </trkpt>
      <trkpt lat="45.17702" lon="4.75144">
        <ele>328.79998779297</ele>
        <time>2022-04-18T10:59:27Z</time>
      </trkpt>
      <trkpt lat="45.17711" lon="4.75148">
        <ele>328.60000610352</ele>
        <time>2022-04-18T10:59:34Z</time>
      </trkpt>
      <trkpt lat="45.17733" lon="4.75159">
        <ele>329.79998779297</ele>
        <time>2022-04-18T10:59:43Z</time>
      </trkpt>
      <trkpt lat="45.17736" lon="4.75162">
        <ele>331</ele>
        <time>2022-04-18T10:59:47Z</time>
      </trkpt>
      <trkpt lat="45.17741" lon="4.75162">
        <ele>331.79998779297</ele>
        <time>2022-04-18T10:59:54Z</time>
      </trkpt>
      <trkpt lat="45.17746" lon="4.75164">
        <ele>332.79998779297</ele>
        <time>2022-04-18T10:59:59Z</time>
      </trkpt>
      <trkpt lat="45.17755" lon="4.75163">
        <ele>333.39999389648</ele>
        <time>2022-04-18T11:00:04Z</time>
      </trkpt>
      <trkpt lat="45.17757" lon="4.75164">
        <ele>333.79998779297</ele>
        <time>2022-04-18T11:00:05Z</time>
      </trkpt>
      <trkpt lat="45.1776" lon="4.75167">
        <ele>334.60000610352</ele>
        <time>2022-04-18T11:00:09Z</time>
      </trkpt>
      <trkpt lat="45.17766" lon="4.75171">
        <ele>336</ele>
        <time>2022-04-18T11:00:15Z</time>
      </trkpt>
      <trkpt lat="45.1777" lon="4.75174">
        <ele>336.79998779297</ele>
        <time>2022-04-18T11:00:19Z</time>
      </trkpt>
      <trkpt lat="45.17777" lon="4.75176">
        <ele>337.60000610352</ele>
        <time>2022-04-18T11:00:25Z</time>
      </trkpt>
      <trkpt lat="45.17782" lon="4.75177">
        <ele>338.20001220703</ele>
        <time>2022-04-18T11:00:29Z</time>
      </trkpt>
      <trkpt lat="45.17795" lon="4.75183">
        <ele>341</ele>
        <time>2022-04-18T11:00:40Z</time>
      </trkpt>
      <trkpt lat="45.17797" lon="4.75175">
        <ele>343.20001220703</ele>
        <time>2022-04-18T11:00:49Z</time>
      </trkpt>
      <trkpt lat="45.17791" lon="4.75169">
        <ele>344.39999389648</ele>
        <time>2022-04-18T11:00:55Z</time>
      </trkpt>
      <trkpt lat="45.17784" lon="4.75156">
        <ele>346</ele>
        <time>2022-04-18T11:01:05Z</time>
      </trkpt>
      <trkpt lat="45.1778" lon="4.75144">
        <ele>347.39999389648</ele>
        <time>2022-04-18T11:01:14Z</time>
      </trkpt>
      <trkpt lat="45.17779" lon="4.7514">
        <ele>348</ele>
        <time>2022-04-18T11:01:17Z</time>
      </trkpt>
      <trkpt lat="45.17777" lon="4.75133">
        <ele>348.60000610352</ele>
        <time>2022-04-18T11:01:21Z</time>
      </trkpt>
      <trkpt lat="45.17772" lon="4.75125">
        <ele>349.79998779297</ele>
        <time>2022-04-18T11:01:26Z</time>
      </trkpt>
      <trkpt lat="45.17771" lon="4.75121">
        <ele>350.39999389648</ele>
        <time>2022-04-18T11:01:29Z</time>
      </trkpt>
      <trkpt lat="45.17769" lon="4.75118">
        <ele>350.79998779297</ele>
        <time>2022-04-18T11:01:31Z</time>
      </trkpt>
      <trkpt lat="45.17766" lon="4.75109">
        <ele>351.79998779297</ele>
        <time>2022-04-18T11:01:37Z</time>
      </trkpt>
      <trkpt lat="45.17763" lon="4.75105">
        <ele>352.79998779297</ele>
        <time>2022-04-18T11:01:40Z</time>
      </trkpt>
      <trkpt lat="45.17764" lon="4.751">
        <ele>353</ele>
        <time>2022-04-18T11:01:42Z</time>
      </trkpt>
      <trkpt lat="45.17776" lon="4.75091">
        <ele>355.60000610352</ele>
        <time>2022-04-18T11:01:54Z</time>
      </trkpt>
      <trkpt lat="45.17787" lon="4.75081">
        <ele>357.79998779297</ele>
        <time>2022-04-18T11:02:06Z</time>
      </trkpt>
      <trkpt lat="45.17795" lon="4.75068">
        <ele>359.20001220703</ele>
        <time>2022-04-18T11:02:14Z</time>
      </trkpt>
      <trkpt lat="45.17802" lon="4.7506">
        <ele>359.79998779297</ele>
        <time>2022-04-18T11:02:18Z</time>
      </trkpt>
      <trkpt lat="45.17807" lon="4.75056">
        <ele>360.60000610352</ele>
        <time>2022-04-18T11:02:22Z</time>
      </trkpt>
      <trkpt lat="45.17812" lon="4.75036">
        <ele>362.60000610352</ele>
        <time>2022-04-18T11:02:31Z</time>
      </trkpt>
      <trkpt lat="45.17813" lon="4.7503">
        <ele>363.39999389648</ele>
        <time>2022-04-18T11:02:34Z</time>
      </trkpt>
      <trkpt lat="45.17813" lon="4.75016">
        <ele>364.60000610352</ele>
        <time>2022-04-18T11:02:41Z</time>
      </trkpt>
      <trkpt lat="45.17816" lon="4.74989">
        <ele>367.20001220703</ele>
        <time>2022-04-18T11:02:55Z</time>
      </trkpt>
      <trkpt lat="45.17826" lon="4.74957">
        <ele>369.60000610352</ele>
        <time>2022-04-18T11:03:09Z</time>
      </trkpt>
      <trkpt lat="45.17838" lon="4.74924">
        <ele>372</ele>
        <time>2022-04-18T11:03:25Z</time>
      </trkpt>
      <trkpt lat="45.17861" lon="4.74893">
        <ele>373.20001220703</ele>
        <time>2022-04-18T11:03:39Z</time>
      </trkpt>
      <trkpt lat="45.17903" lon="4.74874">
        <ele>374</ele>
        <time>2022-04-18T11:03:55Z</time>
      </trkpt>
      <trkpt lat="45.17939" lon="4.74868">
        <ele>375.20001220703</ele>
        <time>2022-04-18T11:04:10Z</time>
      </trkpt>
      <trkpt lat="45.17966" lon="4.74851">
        <ele>377</ele>
        <time>2022-04-18T11:04:26Z</time>
      </trkpt>
      <trkpt lat="45.17968" lon="4.74798">
        <ele>379.20001220703</ele>
        <time>2022-04-18T11:04:43Z</time>
      </trkpt>
      <trkpt lat="45.1797" lon="4.74767">
        <ele>380.39999389648</ele>
        <time>2022-04-18T11:04:52Z</time>
      </trkpt>
      <trkpt lat="45.17961" lon="4.7476">
        <ele>380.39999389648</ele>
        <time>2022-04-18T11:04:56Z</time>
      </trkpt>
      <trkpt lat="45.17904" lon="4.74731">
        <ele>382.60000610352</ele>
        <time>2022-04-18T11:05:18Z</time>
      </trkpt>
      <trkpt lat="45.17853" lon="4.74695">
        <ele>385.79998779297</ele>
        <time>2022-04-18T11:05:39Z</time>
      </trkpt>
      <trkpt lat="45.17831" lon="4.74664">
        <ele>387.79998779297</ele>
        <time>2022-04-18T11:05:53Z</time>
      </trkpt>
      <trkpt lat="45.1783" lon="4.7462">
        <ele>390.39999389648</ele>
        <time>2022-04-18T11:06:08Z</time>
      </trkpt>
      <trkpt lat="45.17822" lon="4.74588">
        <ele>393.39999389648</ele>
        <time>2022-04-18T11:06:20Z</time>
      </trkpt>
      <trkpt lat="45.17809" lon="4.74549">
        <ele>394.39999389648</ele>
        <time>2022-04-18T11:06:35Z</time>
      </trkpt>
      <trkpt lat="45.17798" lon="4.7452">
        <ele>394.39999389648</ele>
        <time>2022-04-18T11:06:43Z</time>
      </trkpt>
      <trkpt lat="45.17796" lon="4.74514">
        <ele>394.39999389648</ele>
        <time>2022-04-18T11:06:44Z</time>
      </trkpt>
      <trkpt lat="45.17753" lon="4.74424">
        <ele>392.20001220703</ele>
        <time>2022-04-18T11:06:56Z</time>
      </trkpt>
      <trkpt lat="45.17731" lon="4.7437">
        <ele>389.79998779297</ele>
        <time>2022-04-18T11:07:04Z</time>
      </trkpt>
      <trkpt lat="45.1773" lon="4.74336">
        <ele>388.79998779297</ele>
        <time>2022-04-18T11:07:10Z</time>
      </trkpt>
      <trkpt lat="45.17727" lon="4.74325">
        <ele>388.20001220703</ele>
        <time>2022-04-18T11:07:12Z</time>
      </trkpt>
      <trkpt lat="45.17696" lon="4.74275">
        <ele>386</ele>
        <time>2022-04-18T11:07:19Z</time>
      </trkpt>
      <trkpt lat="45.17692" lon="4.74263">
        <ele>382.20001220703</ele>
        <time>2022-04-18T11:07:22Z</time>
      </trkpt>
      <trkpt lat="45.17708" lon="4.74261">
        <ele>379.20001220703</ele>
        <time>2022-04-18T11:07:27Z</time>
      </trkpt>
      <trkpt lat="45.17713" lon="4.74261">
        <ele>379</ele>
        <time>2022-04-18T11:07:28Z</time>
      </trkpt>
      <trkpt lat="45.17769" lon="4.74229">
        <ele>375.39999389648</ele>
        <time>2022-04-18T11:07:38Z</time>
      </trkpt>
      <trkpt lat="45.17818" lon="4.74212">
        <ele>373.60000610352</ele>
        <time>2022-04-18T11:07:44Z</time>
      </trkpt>
      <trkpt lat="45.17826" lon="4.74209">
        <ele>373.20001220703</ele>
        <time>2022-04-18T11:07:45Z</time>
      </trkpt>
      <trkpt lat="45.1786" lon="4.74197">
        <ele>369.79998779297</ele>
        <time>2022-04-18T11:07:50Z</time>
      </trkpt>
      <trkpt lat="45.17865" lon="4.7419">
        <ele>369.60000610352</ele>
        <time>2022-04-18T11:07:51Z</time>
      </trkpt>
      <trkpt lat="45.17876" lon="4.74176">
        <ele>367.60000610352</ele>
        <time>2022-04-18T11:07:53Z</time>
      </trkpt>
      <trkpt lat="45.17891" lon="4.74166">
        <ele>363.60000610352</ele>
        <time>2022-04-18T11:07:56Z</time>
      </trkpt>
      <trkpt lat="45.17894" lon="4.74163">
        <ele>362.20001220703</ele>
        <time>2022-04-18T11:07:57Z</time>
      </trkpt>
      <trkpt lat="45.17894" lon="4.74153">
        <ele>358.79998779297</ele>
        <time>2022-04-18T11:07:59Z</time>
      </trkpt>
      <trkpt lat="45.1789" lon="4.74139">
        <ele>356.79998779297</ele>
        <time>2022-04-18T11:08:01Z</time>
      </trkpt>
      <trkpt lat="45.1788" lon="4.74101">
        <ele>354.39999389648</ele>
        <time>2022-04-18T11:08:05Z</time>
      </trkpt>
      <trkpt lat="45.17877" lon="4.74042">
        <ele>351.39999389648</ele>
        <time>2022-04-18T11:08:10Z</time>
      </trkpt>
      <trkpt lat="45.17875" lon="4.73994">
        <ele>350</ele>
        <time>2022-04-18T11:08:14Z</time>
      </trkpt>
      <trkpt lat="45.17875" lon="4.73975">
        <ele>349.20001220703</ele>
        <time>2022-04-18T11:08:16Z</time>
      </trkpt>
      <trkpt lat="45.17902" lon="4.73943">
        <ele>345.39999389648</ele>
        <time>2022-04-18T11:08:22Z</time>
      </trkpt>
      <trkpt lat="45.17915" lon="4.73948">
        <ele>342.39999389648</ele>
        <time>2022-04-18T11:08:27Z</time>
      </trkpt>
      <trkpt lat="45.17919" lon="4.73946">
        <ele>340.79998779297</ele>
        <time>2022-04-18T11:08:30Z</time>
      </trkpt>
      <trkpt lat="45.17952" lon="4.73925">
        <ele>338.79998779297</ele>
        <time>2022-04-18T11:08:40Z</time>
      </trkpt>
      <trkpt lat="45.17958" lon="4.7392">
        <ele>338.60000610352</ele>
        <time>2022-04-18T11:08:41Z</time>
      </trkpt>
      <trkpt lat="45.17969" lon="4.73908">
        <ele>336.79998779297</ele>
        <time>2022-04-18T11:08:43Z</time>
      </trkpt>
      <trkpt lat="45.17989" lon="4.73902">
        <ele>333.79998779297</ele>
        <time>2022-04-18T11:08:46Z</time>
      </trkpt>
      <trkpt lat="45.18004" lon="4.73901">
        <ele>330.79998779297</ele>
        <time>2022-04-18T11:08:49Z</time>
      </trkpt>
      <trkpt lat="45.17999" lon="4.73887">
        <ele>327.20001220703</ele>
        <time>2022-04-18T11:08:52Z</time>
      </trkpt>
      <trkpt lat="45.17983" lon="4.73859">
        <ele>324.79998779297</ele>
        <time>2022-04-18T11:08:55Z</time>
      </trkpt>
      <trkpt lat="45.17974" lon="4.73835">
        <ele>322.39999389648</ele>
        <time>2022-04-18T11:08:57Z</time>
      </trkpt>
      <trkpt lat="45.17971" lon="4.73824">
        <ele>320.79998779297</ele>
        <time>2022-04-18T11:08:58Z</time>
      </trkpt>
      <trkpt lat="45.17972" lon="4.73804">
        <ele>316.39999389648</ele>
        <time>2022-04-18T11:09:01Z</time>
      </trkpt>
      <trkpt lat="45.17978" lon="4.73801">
        <ele>313.20001220703</ele>
        <time>2022-04-18T11:09:03Z</time>
      </trkpt>
      <trkpt lat="45.17992" lon="4.73789">
        <ele>310.20001220703</ele>
        <time>2022-04-18T11:09:06Z</time>
      </trkpt>
      <trkpt lat="45.18007" lon="4.73764">
        <ele>307.60000610352</ele>
        <time>2022-04-18T11:09:09Z</time>
      </trkpt>
      <trkpt lat="45.18014" lon="4.7375">
        <ele>305.20001220703</ele>
        <time>2022-04-18T11:09:11Z</time>
      </trkpt>
      <trkpt lat="45.18012" lon="4.73734">
        <ele>301.79998779297</ele>
        <time>2022-04-18T11:09:14Z</time>
      </trkpt>
      <trkpt lat="45.18008" lon="4.73724">
        <ele>298.20001220703</ele>
        <time>2022-04-18T11:09:17Z</time>
      </trkpt>
      <trkpt lat="45.18008" lon="4.73723">
        <ele>295.60000610352</ele>
        <time>2022-04-18T11:09:24Z</time>
      </trkpt>
      <trkpt lat="45.18008" lon="4.73723">
        <ele>296.20001220703</ele>
        <time>2022-04-18T11:09:49Z</time>
      </trkpt>
      <trkpt lat="45.18021" lon="4.73698">
        <ele>297.20001220703</ele>
        <time>2022-04-18T11:10:03Z</time>
      </trkpt>
      <trkpt lat="45.18022" lon="4.73692">
        <ele>297.20001220703</ele>
        <time>2022-04-18T11:10:08Z</time>
      </trkpt>
      <trkpt lat="45.18022" lon="4.73677">
        <ele>295.79998779297</ele>
        <time>2022-04-18T11:10:14Z</time>
      </trkpt>
      <trkpt lat="45.18017" lon="4.73663">
        <ele>296.79998779297</ele>
        <time>2022-04-18T11:10:25Z</time>
      </trkpt>
      <trkpt lat="45.18022" lon="4.7366">
        <ele>299.39999389648</ele>
        <time>2022-04-18T11:10:37Z</time>
      </trkpt>
      <trkpt lat="45.18022" lon="4.73661">
        <ele>299.39999389648</ele>
        <time>2022-04-18T11:10:38Z</time>
      </trkpt>
      <trkpt lat="45.18027" lon="4.73669">
        <ele>301.79998779297</ele>
        <time>2022-04-18T11:10:50Z</time>
      </trkpt>
      <trkpt lat="45.18031" lon="4.73673">
        <ele>302.39999389648</ele>
        <time>2022-04-18T11:10:55Z</time>
      </trkpt>
      <trkpt lat="45.18036" lon="4.73679">
        <ele>304.20001220703</ele>
        <time>2022-04-18T11:11:06Z</time>
      </trkpt>
      <trkpt lat="45.18043" lon="4.73688">
        <ele>306.60000610352</ele>
        <time>2022-04-18T11:11:17Z</time>
      </trkpt>
      <trkpt lat="45.18053" lon="4.73693">
        <ele>307.79998779297</ele>
        <time>2022-04-18T11:11:29Z</time>
      </trkpt>
      <trkpt lat="45.18056" lon="4.73692">
        <ele>308.39999389648</ele>
        <time>2022-04-18T11:11:38Z</time>
      </trkpt>
      <trkpt lat="45.18061" lon="4.73691">
        <ele>308.79998779297</ele>
        <time>2022-04-18T11:11:41Z</time>
      </trkpt>
      <trkpt lat="45.18066" lon="4.73689">
        <ele>309.39999389648</ele>
        <time>2022-04-18T11:11:46Z</time>
      </trkpt>
      <trkpt lat="45.18075" lon="4.73684">
        <ele>311</ele>
        <time>2022-04-18T11:11:52Z</time>
      </trkpt>
      <trkpt lat="45.18076" lon="4.73683">
        <ele>311.20001220703</ele>
        <time>2022-04-18T11:11:53Z</time>
      </trkpt>
      <trkpt lat="45.18081" lon="4.73678">
        <ele>311.60000610352</ele>
        <time>2022-04-18T11:11:58Z</time>
      </trkpt>
      <trkpt lat="45.18086" lon="4.73673">
        <ele>312.20001220703</ele>
        <time>2022-04-18T11:12:02Z</time>
      </trkpt>
      <trkpt lat="45.18104" lon="4.73653">
        <ele>313.20001220703</ele>
        <time>2022-04-18T11:12:14Z</time>
      </trkpt>
      <trkpt lat="45.18118" lon="4.73633">
        <ele>313.79998779297</ele>
        <time>2022-04-18T11:12:23Z</time>
      </trkpt>
      <trkpt lat="45.1812" lon="4.73629">
        <ele>314.20001220703</ele>
        <time>2022-04-18T11:12:25Z</time>
      </trkpt>
      <trkpt lat="45.18126" lon="4.73623">
        <ele>314.60000610352</ele>
        <time>2022-04-18T11:12:30Z</time>
      </trkpt>
      <trkpt lat="45.18146" lon="4.7359">
        <ele>315.39999389648</ele>
        <time>2022-04-18T11:12:42Z</time>
      </trkpt>
      <trkpt lat="45.18158" lon="4.73564">
        <ele>315</ele>
        <time>2022-04-18T11:12:46Z</time>
      </trkpt>
      <trkpt lat="45.18172" lon="4.73555">
        <ele>314.79998779297</ele>
        <time>2022-04-18T11:12:53Z</time>
      </trkpt>
      <trkpt lat="45.18188" lon="4.73553">
        <ele>316.79998779297</ele>
        <time>2022-04-18T11:12:59Z</time>
      </trkpt>
      <trkpt lat="45.18191" lon="4.73553">
        <ele>317.39999389648</ele>
        <time>2022-04-18T11:13:01Z</time>
      </trkpt>
      <trkpt lat="45.18199" lon="4.73554">
        <ele>318.20001220703</ele>
        <time>2022-04-18T11:13:06Z</time>
      </trkpt>
      <trkpt lat="45.18208" lon="4.73559">
        <ele>319.79998779297</ele>
        <time>2022-04-18T11:13:10Z</time>
      </trkpt>
      <trkpt lat="45.18211" lon="4.73567">
        <ele>321.39999389648</ele>
        <time>2022-04-18T11:13:15Z</time>
      </trkpt>
      <trkpt lat="45.18226" lon="4.73583">
        <ele>324</ele>
        <time>2022-04-18T11:13:29Z</time>
      </trkpt>
      <trkpt lat="45.18243" lon="4.7358">
        <ele>326.39999389648</ele>
        <time>2022-04-18T11:13:42Z</time>
      </trkpt>
      <trkpt lat="45.1825" lon="4.73575">
        <ele>328.60000610352</ele>
        <time>2022-04-18T11:13:48Z</time>
      </trkpt>
      <trkpt lat="45.18246" lon="4.73565">
        <ele>329.60000610352</ele>
        <time>2022-04-18T11:13:55Z</time>
      </trkpt>
      <trkpt lat="45.18239" lon="4.73549">
        <ele>332.60000610352</ele>
        <time>2022-04-18T11:14:06Z</time>
      </trkpt>
      <trkpt lat="45.18242" lon="4.73544">
        <ele>333.20001220703</ele>
        <time>2022-04-18T11:14:10Z</time>
      </trkpt>
      <trkpt lat="45.18255" lon="4.73547">
        <ele>336</ele>
        <time>2022-04-18T11:14:23Z</time>
      </trkpt>
      <trkpt lat="45.18274" lon="4.73545">
        <ele>338.39999389648</ele>
        <time>2022-04-18T11:14:39Z</time>
      </trkpt>
      <trkpt lat="45.18292" lon="4.73532">
        <ele>340.79998779297</ele>
        <time>2022-04-18T11:14:55Z</time>
      </trkpt>
      <trkpt lat="45.18308" lon="4.73516">
        <ele>343.79998779297</ele>
        <time>2022-04-18T11:15:12Z</time>
      </trkpt>
      <trkpt lat="45.18318" lon="4.73506">
        <ele>347</ele>
        <time>2022-04-18T11:15:22Z</time>
      </trkpt>
      <trkpt lat="45.18327" lon="4.73499">
        <ele>349.39999389648</ele>
        <time>2022-04-18T11:15:31Z</time>
      </trkpt>
      <trkpt lat="45.18329" lon="4.73497">
        <ele>350</ele>
        <time>2022-04-18T11:15:34Z</time>
      </trkpt>
      <trkpt lat="45.18333" lon="4.73492">
        <ele>351</ele>
        <time>2022-04-18T11:15:38Z</time>
      </trkpt>
      <trkpt lat="45.18344" lon="4.73482">
        <ele>353</ele>
        <time>2022-04-18T11:15:50Z</time>
      </trkpt>
      <trkpt lat="45.18348" lon="4.73479">
        <ele>353.39999389648</ele>
        <time>2022-04-18T11:15:53Z</time>
      </trkpt>
      <trkpt lat="45.18362" lon="4.73479">
        <ele>355.20001220703</ele>
        <time>2022-04-18T11:16:02Z</time>
      </trkpt>
      <trkpt lat="45.18368" lon="4.73485">
        <ele>356.60000610352</ele>
        <time>2022-04-18T11:16:07Z</time>
      </trkpt>
      <trkpt lat="45.18368" lon="4.73492">
        <ele>357.20001220703</ele>
        <time>2022-04-18T11:16:11Z</time>
      </trkpt>
      <trkpt lat="45.18372" lon="4.73498">
        <ele>357.60000610352</ele>
        <time>2022-04-18T11:16:16Z</time>
      </trkpt>
      <trkpt lat="45.18389" lon="4.73521">
        <ele>360.39999389648</ele>
        <time>2022-04-18T11:16:32Z</time>
      </trkpt>
      <trkpt lat="45.1839" lon="4.73522">
        <ele>360.60000610352</ele>
        <time>2022-04-18T11:16:33Z</time>
      </trkpt>
      <trkpt lat="45.18403" lon="4.7352">
        <ele>362</ele>
        <time>2022-04-18T11:16:44Z</time>
      </trkpt>
      <trkpt lat="45.18423" lon="4.73525">
        <ele>365</ele>
        <time>2022-04-18T11:16:58Z</time>
      </trkpt>
      <trkpt lat="45.18444" lon="4.73524">
        <ele>368.20001220703</ele>
        <time>2022-04-18T11:17:12Z</time>
      </trkpt>
      <trkpt lat="45.18472" lon="4.73526">
        <ele>370.79998779297</ele>
        <time>2022-04-18T11:17:29Z</time>
      </trkpt>
      <trkpt lat="45.18497" lon="4.7355">
        <ele>372.20001220703</ele>
        <time>2022-04-18T11:17:44Z</time>
      </trkpt>
      <trkpt lat="45.1851" lon="4.73562">
        <ele>372.60000610352</ele>
        <time>2022-04-18T11:17:51Z</time>
      </trkpt>
      <trkpt lat="45.18505" lon="4.7358">
        <ele>372.60000610352</ele>
        <time>2022-04-18T11:17:55Z</time>
      </trkpt>
      <trkpt lat="45.18476" lon="4.73658">
        <ele>370.39999389648</ele>
        <time>2022-04-18T11:18:04Z</time>
      </trkpt>
      <trkpt lat="45.18483" lon="4.73677">
        <ele>369</ele>
        <time>2022-04-18T11:18:06Z</time>
      </trkpt>
      <trkpt lat="45.18499" lon="4.73718">
        <ele>365.60000610352</ele>
        <time>2022-04-18T11:18:11Z</time>
      </trkpt>
      <trkpt lat="45.18502" lon="4.73725">
        <ele>365.20001220703</ele>
        <time>2022-04-18T11:18:12Z</time>
      </trkpt>
      <trkpt lat="45.18503" lon="4.73753">
        <ele>364.79998779297</ele>
        <time>2022-04-18T11:18:16Z</time>
      </trkpt>
      <trkpt lat="45.18501" lon="4.7376">
        <ele>364.60000610352</ele>
        <time>2022-04-18T11:18:17Z</time>
      </trkpt>
      <trkpt lat="45.18513" lon="4.73785">
        <ele>364.60000610352</ele>
        <time>2022-04-18T11:18:22Z</time>
      </trkpt>
      <trkpt lat="45.18551" lon="4.73799">
        <ele>365.39999389648</ele>
        <time>2022-04-18T11:18:34Z</time>
      </trkpt>
      <trkpt lat="45.18602" lon="4.73826">
        <ele>368.39999389648</ele>
        <time>2022-04-18T11:18:52Z</time>
      </trkpt>
      <trkpt lat="45.18639" lon="4.73835">
        <ele>370.20001220703</ele>
        <time>2022-04-18T11:19:06Z</time>
      </trkpt>
      <trkpt lat="45.18678" lon="4.73827">
        <ele>373</ele>
        <time>2022-04-18T11:19:21Z</time>
      </trkpt>
      <trkpt lat="45.18698" lon="4.73826">
        <ele>374.60000610352</ele>
        <time>2022-04-18T11:19:29Z</time>
      </trkpt>
      <trkpt lat="45.18712" lon="4.73806">
        <ele>376</ele>
        <time>2022-04-18T11:19:39Z</time>
      </trkpt>
      <trkpt lat="45.18712" lon="4.73805">
        <ele>376.20001220703</ele>
        <time>2022-04-18T11:19:40Z</time>
      </trkpt>
      <trkpt lat="45.18715" lon="4.73804">
        <ele>376.79998779297</ele>
        <time>2022-04-18T11:19:42Z</time>
      </trkpt>
      <trkpt lat="45.18723" lon="4.73802">
        <ele>377.60000610352</ele>
        <time>2022-04-18T11:19:46Z</time>
      </trkpt>
      <trkpt lat="45.1874" lon="4.73813">
        <ele>377.79998779297</ele>
        <time>2022-04-18T11:19:51Z</time>
      </trkpt>
      <trkpt lat="45.18762" lon="4.73832">
        <ele>377.79998779297</ele>
        <time>2022-04-18T11:19:56Z</time>
      </trkpt>
      <trkpt lat="45.18781" lon="4.73823">
        <ele>377.39999389648</ele>
        <time>2022-04-18T11:20:02Z</time>
      </trkpt>
      <trkpt lat="45.18783" lon="4.7382">
        <ele>377.20001220703</ele>
        <time>2022-04-18T11:20:03Z</time>
      </trkpt>
      <trkpt lat="45.18813" lon="4.73775">
        <ele>374.79998779297</ele>
        <time>2022-04-18T11:20:15Z</time>
      </trkpt>
      <trkpt lat="45.18834" lon="4.73757">
        <ele>374.79998779297</ele>
        <time>2022-04-18T11:20:22Z</time>
      </trkpt>
      <trkpt lat="45.1884" lon="4.73741">
        <ele>375.60000610352</ele>
        <time>2022-04-18T11:20:27Z</time>
      </trkpt>
      <trkpt lat="45.18841" lon="4.73737">
        <ele>376.79998779297</ele>
        <time>2022-04-18T11:20:38Z</time>
      </trkpt>
      <trkpt lat="45.18838" lon="4.73732">
        <ele>377.39999389648</ele>
        <time>2022-04-18T11:22:54Z</time>
      </trkpt>
      <trkpt lat="45.18836" lon="4.73729">
        <ele>377.20001220703</ele>
        <time>2022-04-18T11:23:12Z</time>
      </trkpt>
      <trkpt lat="45.18834" lon="4.73728">
        <ele>377.20001220703</ele>
        <time>2022-04-18T11:26:55Z</time>
      </trkpt>
      <trkpt lat="45.18835" lon="4.7373">
        <ele>377.60000610352</ele>
        <time>2022-04-18T11:28:10Z</time>
      </trkpt>
      <trkpt lat="45.18835" lon="4.7373">
        <ele>377.60000610352</ele>
        <time>2022-04-18T11:28:54Z</time>
      </trkpt>
      <trkpt lat="45.18837" lon="4.73734">
        <ele>377.60000610352</ele>
        <time>2022-04-18T11:29:45Z</time>
      </trkpt>
      <trkpt lat="45.18846" lon="4.73723">
        <ele>377.39999389648</ele>
        <time>2022-04-18T11:29:51Z</time>
      </trkpt>
      <trkpt lat="45.18865" lon="4.73701">
        <ele>377.20001220703</ele>
        <time>2022-04-18T11:30:00Z</time>
      </trkpt>
      <trkpt lat="45.18872" lon="4.73664">
        <ele>378</ele>
        <time>2022-04-18T11:30:12Z</time>
      </trkpt>
      <trkpt lat="45.18844" lon="4.73639">
        <ele>379</ele>
        <time>2022-04-18T11:30:27Z</time>
      </trkpt>
      <trkpt lat="45.18806" lon="4.73636">
        <ele>380</ele>
        <time>2022-04-18T11:30:46Z</time>
      </trkpt>
      <trkpt lat="45.18768" lon="4.73642">
        <ele>381</ele>
        <time>2022-04-18T11:31:04Z</time>
      </trkpt>
      <trkpt lat="45.18754" lon="4.73661">
        <ele>381.79998779297</ele>
        <time>2022-04-18T11:31:13Z</time>
      </trkpt>
      <trkpt lat="45.18749" lon="4.73648">
        <ele>382</ele>
        <time>2022-04-18T11:31:21Z</time>
      </trkpt>
      <trkpt lat="45.18748" lon="4.73623">
        <ele>382.39999389648</ele>
        <time>2022-04-18T11:31:41Z</time>
      </trkpt>
      <trkpt lat="45.18748" lon="4.73615">
        <ele>382.79998779297</ele>
        <time>2022-04-18T11:31:53Z</time>
      </trkpt>
      <trkpt lat="45.18743" lon="4.73607">
        <ele>383.20001220703</ele>
        <time>2022-04-18T11:31:57Z</time>
      </trkpt>
      <trkpt lat="45.18728" lon="4.73584">
        <ele>384.20001220703</ele>
        <time>2022-04-18T11:32:06Z</time>
      </trkpt>
      <trkpt lat="45.18745" lon="4.73558">
        <ele>385</ele>
        <time>2022-04-18T11:32:14Z</time>
      </trkpt>
      <trkpt lat="45.18776" lon="4.73501">
        <ele>385.20001220703</ele>
        <time>2022-04-18T11:32:28Z</time>
      </trkpt>
      <trkpt lat="45.18774" lon="4.7349">
        <ele>385.20001220703</ele>
        <time>2022-04-18T11:32:30Z</time>
      </trkpt>
      <trkpt lat="45.18763" lon="4.73455">
        <ele>384.79998779297</ele>
        <time>2022-04-18T11:32:36Z</time>
      </trkpt>
      <trkpt lat="45.18739" lon="4.73387">
        <ele>384.20001220703</ele>
        <time>2022-04-18T11:32:47Z</time>
      </trkpt>
      <trkpt lat="45.18736" lon="4.73383">
        <ele>384.20001220703</ele>
        <time>2022-04-18T11:32:48Z</time>
      </trkpt>
      <trkpt lat="45.18726" lon="4.73371">
        <ele>383.79998779297</ele>
        <time>2022-04-18T11:32:51Z</time>
      </trkpt>
      <trkpt lat="45.18712" lon="4.73305">
        <ele>383.79998779297</ele>
        <time>2022-04-18T11:33:01Z</time>
      </trkpt>
      <trkpt lat="45.18757" lon="4.73189">
        <ele>384</ele>
        <time>2022-04-18T11:33:19Z</time>
      </trkpt>
      <trkpt lat="45.18762" lon="4.73143">
        <ele>383.20001220703</ele>
        <time>2022-04-18T11:33:27Z</time>
      </trkpt>
      <trkpt lat="45.18758" lon="4.73141">
        <ele>383.20001220703</ele>
        <time>2022-04-18T11:33:28Z</time>
      </trkpt>
      <trkpt lat="45.18755" lon="4.73139">
        <ele>383.20001220703</ele>
        <time>2022-04-18T11:33:29Z</time>
      </trkpt>
      <trkpt lat="45.18743" lon="4.73132">
        <ele>383</ele>
        <time>2022-04-18T11:33:32Z</time>
      </trkpt>
      <trkpt lat="45.18691" lon="4.73117">
        <ele>383.79998779297</ele>
        <time>2022-04-18T11:33:46Z</time>
      </trkpt>
      <trkpt lat="45.18641" lon="4.73096">
        <ele>385.79998779297</ele>
        <time>2022-04-18T11:33:59Z</time>
      </trkpt>
      <trkpt lat="45.18616" lon="4.73082">
        <ele>386.39999389648</ele>
        <time>2022-04-18T11:34:06Z</time>
      </trkpt>
      <trkpt lat="45.18587" lon="4.73064">
        <ele>387.79998779297</ele>
        <time>2022-04-18T11:34:15Z</time>
      </trkpt>
      <trkpt lat="45.1855" lon="4.73041">
        <ele>390.20001220703</ele>
        <time>2022-04-18T11:34:29Z</time>
      </trkpt>
      <trkpt lat="45.18511" lon="4.73019">
        <ele>393.20001220703</ele>
        <time>2022-04-18T11:34:44Z</time>
      </trkpt>
      <trkpt lat="45.18454" lon="4.72978">
        <ele>394.79998779297</ele>
        <time>2022-04-18T11:35:02Z</time>
      </trkpt>
      <trkpt lat="45.18413" lon="4.72932">
        <ele>395.39999389648</ele>
        <time>2022-04-18T11:35:15Z</time>
      </trkpt>
      <trkpt lat="45.18366" lon="4.72855">
        <ele>394.39999389648</ele>
        <time>2022-04-18T11:35:29Z</time>
      </trkpt>
      <trkpt lat="45.18349" lon="4.72783">
        <ele>392.79998779297</ele>
        <time>2022-04-18T11:35:37Z</time>
      </trkpt>
      <trkpt lat="45.18332" lon="4.72742">
        <ele>391.20001220703</ele>
        <time>2022-04-18T11:35:41Z</time>
      </trkpt>
      <trkpt lat="45.18326" lon="4.72732">
        <ele>391</ele>
        <time>2022-04-18T11:35:42Z</time>
      </trkpt>
      <trkpt lat="45.18288" lon="4.72658">
        <ele>387.20001220703</ele>
        <time>2022-04-18T11:35:50Z</time>
      </trkpt>
      <trkpt lat="45.18284" lon="4.7265">
        <ele>387.20001220703</ele>
        <time>2022-04-18T11:35:51Z</time>
      </trkpt>
      <trkpt lat="45.1826" lon="4.72593">
        <ele>386.39999389648</ele>
        <time>2022-04-18T11:35:58Z</time>
      </trkpt>
      <trkpt lat="45.18244" lon="4.72575">
        <ele>386.20001220703</ele>
        <time>2022-04-18T11:36:02Z</time>
      </trkpt>
      <trkpt lat="45.18198" lon="4.72535">
        <ele>385</ele>
        <time>2022-04-18T11:36:10Z</time>
      </trkpt>
      <trkpt lat="45.18188" lon="4.72498">
        <ele>383.39999389648</ele>
        <time>2022-04-18T11:36:14Z</time>
      </trkpt>
      <trkpt lat="45.18188" lon="4.72488">
        <ele>382.79998779297</ele>
        <time>2022-04-18T11:36:15Z</time>
      </trkpt>
      <trkpt lat="45.18186" lon="4.72306">
        <ele>382.39999389648</ele>
        <time>2022-04-18T11:36:34Z</time>
      </trkpt>
      <trkpt lat="45.18179" lon="4.72266">
        <ele>382.39999389648</ele>
        <time>2022-04-18T11:36:40Z</time>
      </trkpt>
      <trkpt lat="45.18164" lon="4.72236">
        <ele>383</ele>
        <time>2022-04-18T11:36:46Z</time>
      </trkpt>
      <trkpt lat="45.18128" lon="4.72185">
        <ele>384.60000610352</ele>
        <time>2022-04-18T11:36:57Z</time>
      </trkpt>
      <trkpt lat="45.18084" lon="4.72139">
        <ele>386</ele>
        <time>2022-04-18T11:37:10Z</time>
      </trkpt>
      <trkpt lat="45.18028" lon="4.72088">
        <ele>387.39999389648</ele>
        <time>2022-04-18T11:37:26Z</time>
      </trkpt>
      <trkpt lat="45.18004" lon="4.72055">
        <ele>389.79998779297</ele>
        <time>2022-04-18T11:37:38Z</time>
      </trkpt>
      <trkpt lat="45.17974" lon="4.7201">
        <ele>391.60000610352</ele>
        <time>2022-04-18T11:37:51Z</time>
      </trkpt>
      <trkpt lat="45.17971" lon="4.72006">
        <ele>391.60000610352</ele>
        <time>2022-04-18T11:37:52Z</time>
      </trkpt>
      <trkpt lat="45.17946" lon="4.71949">
        <ele>392.60000610352</ele>
        <time>2022-04-18T11:38:04Z</time>
      </trkpt>
      <trkpt lat="45.17915" lon="4.71861">
        <ele>393.39999389648</ele>
        <time>2022-04-18T11:38:20Z</time>
      </trkpt>
      <trkpt lat="45.17876" lon="4.71726">
        <ele>395</ele>
        <time>2022-04-18T11:38:43Z</time>
      </trkpt>
      <trkpt lat="45.17854" lon="4.71686">
        <ele>395</ele>
        <time>2022-04-18T11:38:50Z</time>
      </trkpt>
      <trkpt lat="45.17826" lon="4.71649">
        <ele>394.60000610352</ele>
        <time>2022-04-18T11:38:57Z</time>
      </trkpt>
      <trkpt lat="45.178" lon="4.71599">
        <ele>394</ele>
        <time>2022-04-18T11:39:05Z</time>
      </trkpt>
      <trkpt lat="45.17784" lon="4.71549">
        <ele>393.79998779297</ele>
        <time>2022-04-18T11:39:12Z</time>
      </trkpt>
      <trkpt lat="45.17781" lon="4.71525">
        <ele>393.79998779297</ele>
        <time>2022-04-18T11:39:15Z</time>
      </trkpt>
      <trkpt lat="45.17775" lon="4.71469">
        <ele>394.39999389648</ele>
        <time>2022-04-18T11:39:22Z</time>
      </trkpt>
      <trkpt lat="45.17759" lon="4.71368">
        <ele>394.39999389648</ele>
        <time>2022-04-18T11:39:35Z</time>
      </trkpt>
      <trkpt lat="45.17757" lon="4.71322">
        <ele>394.20001220703</ele>
        <time>2022-04-18T11:39:41Z</time>
      </trkpt>
      <trkpt lat="45.17753" lon="4.71195">
        <ele>394.20001220703</ele>
        <time>2022-04-18T11:39:58Z</time>
      </trkpt>
      <trkpt lat="45.17749" lon="4.71149">
        <ele>394.20001220703</ele>
        <time>2022-04-18T11:40:04Z</time>
      </trkpt>
      <trkpt lat="45.17747" lon="4.71053">
        <ele>395.60000610352</ele>
        <time>2022-04-18T11:40:16Z</time>
      </trkpt>
      <trkpt lat="45.17749" lon="4.71032">
        <ele>395.39999389648</ele>
        <time>2022-04-18T11:40:19Z</time>
      </trkpt>
      <trkpt lat="45.17746" lon="4.70947">
        <ele>397.20001220703</ele>
        <time>2022-04-18T11:40:31Z</time>
      </trkpt>
      <trkpt lat="45.17747" lon="4.70926">
        <ele>397.60000610352</ele>
        <time>2022-04-18T11:40:34Z</time>
      </trkpt>
      <trkpt lat="45.17743" lon="4.70856">
        <ele>398</ele>
        <time>2022-04-18T11:40:44Z</time>
      </trkpt>
      <trkpt lat="45.17734" lon="4.70744">
        <ele>399</ele>
        <time>2022-04-18T11:41:00Z</time>
      </trkpt>
      <trkpt lat="45.17732" lon="4.70714">
        <ele>399.20001220703</ele>
        <time>2022-04-18T11:41:04Z</time>
      </trkpt>
      <trkpt lat="45.17723" lon="4.70658">
        <ele>399.79998779297</ele>
        <time>2022-04-18T11:41:12Z</time>
      </trkpt>
      <trkpt lat="45.1771" lon="4.70584">
        <ele>400.20001220703</ele>
        <time>2022-04-18T11:41:22Z</time>
      </trkpt>
      <trkpt lat="45.17689" lon="4.70517">
        <ele>398.39999389648</ele>
        <time>2022-04-18T11:41:30Z</time>
      </trkpt>
      <trkpt lat="45.17686" lon="4.70487">
        <ele>397.79998779297</ele>
        <time>2022-04-18T11:41:33Z</time>
      </trkpt>
      <trkpt lat="45.1768" lon="4.70381">
        <ele>395.20001220703</ele>
        <time>2022-04-18T11:41:42Z</time>
      </trkpt>
      <trkpt lat="45.17673" lon="4.70344">
        <ele>393</ele>
        <time>2022-04-18T11:41:48Z</time>
      </trkpt>
      <trkpt lat="45.17665" lon="4.70347">
        <ele>391.39999389648</ele>
        <time>2022-04-18T11:41:54Z</time>
      </trkpt>
      <trkpt lat="45.17619" lon="4.70372">
        <ele>392.79998779297</ele>
        <time>2022-04-18T11:42:14Z</time>
      </trkpt>
      <trkpt lat="45.17617" lon="4.70374">
        <ele>392.79998779297</ele>
        <time>2022-04-18T11:42:15Z</time>
      </trkpt>
      <trkpt lat="45.17611" lon="4.70376">
        <ele>393.20001220703</ele>
        <time>2022-04-18T11:42:18Z</time>
      </trkpt>
      <trkpt lat="45.17563" lon="4.70395">
        <ele>395.20001220703</ele>
        <time>2022-04-18T11:42:36Z</time>
      </trkpt>
      <trkpt lat="45.17525" lon="4.70408">
        <ele>397.79998779297</ele>
        <time>2022-04-18T11:42:50Z</time>
      </trkpt>
      <trkpt lat="45.17494" lon="4.70416">
        <ele>399.39999389648</ele>
        <time>2022-04-18T11:43:03Z</time>
      </trkpt>
      <trkpt lat="45.17464" lon="4.70422">
        <ele>401.60000610352</ele>
        <time>2022-04-18T11:43:17Z</time>
      </trkpt>
      <trkpt lat="45.17432" lon="4.70417">
        <ele>403.60000610352</ele>
        <time>2022-04-18T11:43:30Z</time>
      </trkpt>
      <trkpt lat="45.17393" lon="4.7041">
        <ele>405.20001220703</ele>
        <time>2022-04-18T11:43:44Z</time>
      </trkpt>
      <trkpt lat="45.17348" lon="4.70406">
        <ele>407.20001220703</ele>
        <time>2022-04-18T11:43:59Z</time>
      </trkpt>
      <trkpt lat="45.17305" lon="4.70395">
        <ele>408.39999389648</ele>
        <time>2022-04-18T11:44:13Z</time>
      </trkpt>
      <trkpt lat="45.17255" lon="4.70393">
        <ele>410.79998779297</ele>
        <time>2022-04-18T11:44:28Z</time>
      </trkpt>
      <trkpt lat="45.17225" lon="4.70391">
        <ele>411.39999389648</ele>
        <time>2022-04-18T11:44:36Z</time>
      </trkpt>
      <trkpt lat="45.17173" lon="4.70383">
        <ele>413</ele>
        <time>2022-04-18T11:44:50Z</time>
      </trkpt>
      <trkpt lat="45.17146" lon="4.7038">
        <ele>414.20001220703</ele>
        <time>2022-04-18T11:44:59Z</time>
      </trkpt>
      <trkpt lat="45.17119" lon="4.7041">
        <ele>414.60000610352</ele>
        <time>2022-04-18T11:45:09Z</time>
      </trkpt>
      <trkpt lat="45.17115" lon="4.70413">
        <ele>414.60000610352</ele>
        <time>2022-04-18T11:45:10Z</time>
      </trkpt>
      <trkpt lat="45.17103" lon="4.7043">
        <ele>415</ele>
        <time>2022-04-18T11:45:14Z</time>
      </trkpt>
      <trkpt lat="45.17068" lon="4.705">
        <ele>415.60000610352</ele>
        <time>2022-04-18T11:45:31Z</time>
      </trkpt>
      <trkpt lat="45.17044" lon="4.7054">
        <ele>415.79998779297</ele>
        <time>2022-04-18T11:45:42Z</time>
      </trkpt>
      <trkpt lat="45.17019" lon="4.70542">
        <ele>415.60000610352</ele>
        <time>2022-04-18T11:45:49Z</time>
      </trkpt>
      <trkpt lat="45.17016" lon="4.7057">
        <ele>415</ele>
        <time>2022-04-18T11:45:58Z</time>
      </trkpt>
      <trkpt lat="45.17016" lon="4.70585">
        <ele>415.60000610352</ele>
        <time>2022-04-18T11:46:03Z</time>
      </trkpt>
      <trkpt lat="45.16988" lon="4.70584">
        <ele>416.79998779297</ele>
        <time>2022-04-18T11:46:11Z</time>
      </trkpt>
      <trkpt lat="45.16959" lon="4.70585">
        <ele>416.60000610352</ele>
        <time>2022-04-18T11:46:16Z</time>
      </trkpt>
      <trkpt lat="45.16929" lon="4.70595">
        <ele>414</ele>
        <time>2022-04-18T11:46:23Z</time>
      </trkpt>
      <trkpt lat="45.16929" lon="4.70599">
        <ele>413.60000610352</ele>
        <time>2022-04-18T11:46:24Z</time>
      </trkpt>
      <trkpt lat="45.16916" lon="4.70699">
        <ele>413.20001220703</ele>
        <time>2022-04-18T11:46:45Z</time>
      </trkpt>
      <trkpt lat="45.16906" lon="4.70732">
        <ele>411.39999389648</ele>
        <time>2022-04-18T11:46:56Z</time>
      </trkpt>
      <trkpt lat="45.16907" lon="4.70738">
        <ele>410.79998779297</ele>
        <time>2022-04-18T11:47:23Z</time>
      </trkpt>
      <trkpt lat="45.16907" lon="4.70736">
        <ele>410.79998779297</ele>
        <time>2022-04-18T11:47:24Z</time>
      </trkpt>
      <trkpt lat="45.16919" lon="4.7069">
        <ele>412</ele>
        <time>2022-04-18T11:47:40Z</time>
      </trkpt>
      <trkpt lat="45.1693" lon="4.70605">
        <ele>412.60000610352</ele>
        <time>2022-04-18T11:47:58Z</time>
      </trkpt>
      <trkpt lat="45.16947" lon="4.70576">
        <ele>412.39999389648</ele>
        <time>2022-04-18T11:48:09Z</time>
      </trkpt>
      <trkpt lat="45.16951" lon="4.70508">
        <ele>412.60000610352</ele>
        <time>2022-04-18T11:48:26Z</time>
      </trkpt>
      <trkpt lat="45.16962" lon="4.70396">
        <ele>413</ele>
        <time>2022-04-18T11:48:50Z</time>
      </trkpt>
      <trkpt lat="45.16961" lon="4.70391">
        <ele>412.79998779297</ele>
        <time>2022-04-18T11:48:51Z</time>
      </trkpt>
      <trkpt lat="45.16939" lon="4.70378">
        <ele>412.39999389648</ele>
        <time>2022-04-18T11:48:57Z</time>
      </trkpt>
      <trkpt lat="45.1682" lon="4.70327">
        <ele>409.79998779297</ele>
        <time>2022-04-18T11:49:19Z</time>
      </trkpt>
      <trkpt lat="45.16788" lon="4.70291">
        <ele>408.60000610352</ele>
        <time>2022-04-18T11:49:26Z</time>
      </trkpt>
      <trkpt lat="45.16738" lon="4.70275">
        <ele>407</ele>
        <time>2022-04-18T11:49:34Z</time>
      </trkpt>
      <trkpt lat="45.16719" lon="4.70319">
        <ele>404.20001220703</ele>
        <time>2022-04-18T11:49:39Z</time>
      </trkpt>
      <trkpt lat="45.16705" lon="4.70381">
        <ele>400</ele>
        <time>2022-04-18T11:49:44Z</time>
      </trkpt>
      <trkpt lat="45.16691" lon="4.70448">
        <ele>397.39999389648</ele>
        <time>2022-04-18T11:49:50Z</time>
      </trkpt>
      <trkpt lat="45.16689" lon="4.70458">
        <ele>397.20001220703</ele>
        <time>2022-04-18T11:49:51Z</time>
      </trkpt>
      <trkpt lat="45.16674" lon="4.70477">
        <ele>396.60000610352</ele>
        <time>2022-04-18T11:49:55Z</time>
      </trkpt>
      <trkpt lat="45.16665" lon="4.70481">
        <ele>396.60000610352</ele>
        <time>2022-04-18T11:49:57Z</time>
      </trkpt>
      <trkpt lat="45.16641" lon="4.70506">
        <ele>398</ele>
        <time>2022-04-18T11:50:04Z</time>
      </trkpt>
      <trkpt lat="45.16596" lon="4.70566">
        <ele>400</ele>
        <time>2022-04-18T11:50:19Z</time>
      </trkpt>
      <trkpt lat="45.16574" lon="4.70612">
        <ele>399.79998779297</ele>
        <time>2022-04-18T11:50:26Z</time>
      </trkpt>
      <trkpt lat="45.16552" lon="4.7065">
        <ele>398.79998779297</ele>
        <time>2022-04-18T11:50:32Z</time>
      </trkpt>
      <trkpt lat="45.1653" lon="4.70703">
        <ele>398.20001220703</ele>
        <time>2022-04-18T11:50:39Z</time>
      </trkpt>
      <trkpt lat="45.16467" lon="4.70853">
        <ele>396.39999389648</ele>
        <time>2022-04-18T11:50:58Z</time>
      </trkpt>
      <trkpt lat="45.16422" lon="4.70901">
        <ele>394.39999389648</ele>
        <time>2022-04-18T11:51:05Z</time>
      </trkpt>
      <trkpt lat="45.16412" lon="4.70913">
        <ele>393</ele>
        <time>2022-04-18T11:51:07Z</time>
      </trkpt>
      <trkpt lat="45.16398" lon="4.7091">
        <ele>390</ele>
        <time>2022-04-18T11:51:12Z</time>
      </trkpt>
      <trkpt lat="45.16396" lon="4.709">
        <ele>389.20001220703</ele>
        <time>2022-04-18T11:51:15Z</time>
      </trkpt>
      <trkpt lat="45.16378" lon="4.7083">
        <ele>392.20001220703</ele>
        <time>2022-04-18T11:51:35Z</time>
      </trkpt>
      <trkpt lat="45.16368" lon="4.70797">
        <ele>394.79998779297</ele>
        <time>2022-04-18T11:51:45Z</time>
      </trkpt>
      <trkpt lat="45.16367" lon="4.70785">
        <ele>395.20001220703</ele>
        <time>2022-04-18T11:51:49Z</time>
      </trkpt>
      <trkpt lat="45.16361" lon="4.70752">
        <ele>397</ele>
        <time>2022-04-18T11:51:58Z</time>
      </trkpt>
      <trkpt lat="45.16356" lon="4.70731">
        <ele>397.60000610352</ele>
        <time>2022-04-18T11:52:03Z</time>
      </trkpt>
      <trkpt lat="45.16357" lon="4.70717">
        <ele>398.39999389648</ele>
        <time>2022-04-18T11:52:07Z</time>
      </trkpt>
      <trkpt lat="45.16354" lon="4.70671">
        <ele>401.39999389648</ele>
        <time>2022-04-18T11:52:21Z</time>
      </trkpt>
      <trkpt lat="45.16352" lon="4.70615">
        <ele>404</ele>
        <time>2022-04-18T11:52:38Z</time>
      </trkpt>
      <trkpt lat="45.16349" lon="4.70579">
        <ele>407</ele>
        <time>2022-04-18T11:52:51Z</time>
      </trkpt>
      <trkpt lat="45.16345" lon="4.70535">
        <ele>409.60000610352</ele>
        <time>2022-04-18T11:53:05Z</time>
      </trkpt>
      <trkpt lat="45.16344" lon="4.7048">
        <ele>412.60000610352</ele>
        <time>2022-04-18T11:53:22Z</time>
      </trkpt>
      <trkpt lat="45.16346" lon="4.70414">
        <ele>414.60000610352</ele>
        <time>2022-04-18T11:53:38Z</time>
      </trkpt>
      <trkpt lat="45.16344" lon="4.70308">
        <ele>414.79998779297</ele>
        <time>2022-04-18T11:53:56Z</time>
      </trkpt>
      <trkpt lat="45.16331" lon="4.70167">
        <ele>414.60000610352</ele>
        <time>2022-04-18T11:54:16Z</time>
      </trkpt>
      <trkpt lat="45.16327" lon="4.70133">
        <ele>414.60000610352</ele>
        <time>2022-04-18T11:54:21Z</time>
      </trkpt>
      <trkpt lat="45.16324" lon="4.701">
        <ele>415</ele>
        <time>2022-04-18T11:54:26Z</time>
      </trkpt>
      <trkpt lat="45.16318" lon="4.70052">
        <ele>416</ele>
        <time>2022-04-18T11:54:34Z</time>
      </trkpt>
      <trkpt lat="45.16302" lon="4.70037">
        <ele>416.60000610352</ele>
        <time>2022-04-18T11:54:39Z</time>
      </trkpt>
      <trkpt lat="45.16259" lon="4.70013">
        <ele>418.79998779297</ele>
        <time>2022-04-18T11:54:51Z</time>
      </trkpt>
      <trkpt lat="45.16242" lon="4.69987">
        <ele>419.39999389648</ele>
        <time>2022-04-18T11:54:57Z</time>
      </trkpt>
      <trkpt lat="45.16219" lon="4.6992">
        <ele>420.39999389648</ele>
        <time>2022-04-18T11:55:10Z</time>
      </trkpt>
      <trkpt lat="45.16216" lon="4.69917">
        <ele>420.39999389648</ele>
        <time>2022-04-18T11:55:11Z</time>
      </trkpt>
      <trkpt lat="45.16185" lon="4.69934">
        <ele>420.60000610352</ele>
        <time>2022-04-18T11:55:17Z</time>
      </trkpt>
      <trkpt lat="45.16157" lon="4.6996">
        <ele>419.39999389648</ele>
        <time>2022-04-18T11:55:22Z</time>
      </trkpt>
      <trkpt lat="45.16141" lon="4.69953">
        <ele>416</ele>
        <time>2022-04-18T11:55:26Z</time>
      </trkpt>
      <trkpt lat="45.16137" lon="4.69947">
        <ele>415</ele>
        <time>2022-04-18T11:55:27Z</time>
      </trkpt>
      <trkpt lat="45.16116" lon="4.69915">
        <ele>413.79998779297</ele>
        <time>2022-04-18T11:55:32Z</time>
      </trkpt>
      <trkpt lat="45.1607" lon="4.69797">
        <ele>413</ele>
        <time>2022-04-18T11:55:47Z</time>
      </trkpt>
      <trkpt lat="45.16067" lon="4.69756">
        <ele>413.20001220703</ele>
        <time>2022-04-18T11:55:52Z</time>
      </trkpt>
      <trkpt lat="45.16071" lon="4.69693">
        <ele>413.79998779297</ele>
        <time>2022-04-18T11:56:00Z</time>
      </trkpt>
      <trkpt lat="45.16084" lon="4.69579">
        <ele>414</ele>
        <time>2022-04-18T11:56:15Z</time>
      </trkpt>
      <trkpt lat="45.1609" lon="4.69518">
        <ele>414</ele>
        <time>2022-04-18T11:56:23Z</time>
      </trkpt>
      <trkpt lat="45.16105" lon="4.69495">
        <ele>415.20001220703</ele>
        <time>2022-04-18T11:56:30Z</time>
      </trkpt>
      <trkpt lat="45.16134" lon="4.69487">
        <ele>418.20001220703</ele>
        <time>2022-04-18T11:56:42Z</time>
      </trkpt>
      <trkpt lat="45.1616" lon="4.69478">
        <ele>421.39999389648</ele>
        <time>2022-04-18T11:56:54Z</time>
      </trkpt>
      <trkpt lat="45.16191" lon="4.69476">
        <ele>424.20001220703</ele>
        <time>2022-04-18T11:57:07Z</time>
      </trkpt>
      <trkpt lat="45.16227" lon="4.69471">
        <ele>427.20001220703</ele>
        <time>2022-04-18T11:57:22Z</time>
      </trkpt>
      <trkpt lat="45.16275" lon="4.69454">
        <ele>429.60000610352</ele>
        <time>2022-04-18T11:57:37Z</time>
      </trkpt>
      <trkpt lat="45.1632" lon="4.69429">
        <ele>429.79998779297</ele>
        <time>2022-04-18T11:57:51Z</time>
      </trkpt>
      <trkpt lat="45.16343" lon="4.69427">
        <ele>430</ele>
        <time>2022-04-18T11:57:57Z</time>
      </trkpt>
      <trkpt lat="45.16368" lon="4.69412">
        <ele>430</ele>
        <time>2022-04-18T11:58:04Z</time>
      </trkpt>
      <trkpt lat="45.16392" lon="4.69352">
        <ele>431.60000610352</ele>
        <time>2022-04-18T11:58:18Z</time>
      </trkpt>
      <trkpt lat="45.16409" lon="4.69296">
        <ele>433.60000610352</ele>
        <time>2022-04-18T11:58:34Z</time>
      </trkpt>
      <trkpt lat="45.16415" lon="4.69241">
        <ele>436.39999389648</ele>
        <time>2022-04-18T11:58:48Z</time>
      </trkpt>
      <trkpt lat="45.16421" lon="4.69174">
        <ele>437.79998779297</ele>
        <time>2022-04-18T11:59:01Z</time>
      </trkpt>
      <trkpt lat="45.16424" lon="4.69126">
        <ele>437.60000610352</ele>
        <time>2022-04-18T11:59:08Z</time>
      </trkpt>
      <trkpt lat="45.16426" lon="4.69096">
        <ele>437.20001220703</ele>
        <time>2022-04-18T11:59:12Z</time>
      </trkpt>
      <trkpt lat="45.16433" lon="4.68979">
        <ele>436</ele>
        <time>2022-04-18T11:59:28Z</time>
      </trkpt>
      <trkpt lat="45.16435" lon="4.68889">
        <ele>435</ele>
        <time>2022-04-18T11:59:39Z</time>
      </trkpt>
      <trkpt lat="45.16431" lon="4.68848">
        <ele>434.60000610352</ele>
        <time>2022-04-18T11:59:45Z</time>
      </trkpt>
      <trkpt lat="45.16427" lon="4.68733">
        <ele>437.60000610352</ele>
        <time>2022-04-18T12:00:03Z</time>
      </trkpt>
      <trkpt lat="45.16426" lon="4.68719">
        <ele>437.79998779297</ele>
        <time>2022-04-18T12:00:05Z</time>
      </trkpt>
      <trkpt lat="45.16416" lon="4.68681">
        <ele>438</ele>
        <time>2022-04-18T12:00:11Z</time>
      </trkpt>
      <trkpt lat="45.16387" lon="4.68622">
        <ele>438.79998779297</ele>
        <time>2022-04-18T12:00:22Z</time>
      </trkpt>
      <trkpt lat="45.16379" lon="4.68594">
        <ele>439</ele>
        <time>2022-04-18T12:00:27Z</time>
      </trkpt>
      <trkpt lat="45.16377" lon="4.68577">
        <ele>439.20001220703</ele>
        <time>2022-04-18T12:00:30Z</time>
      </trkpt>
      <trkpt lat="45.16375" lon="4.68525">
        <ele>440.39999389648</ele>
        <time>2022-04-18T12:00:38Z</time>
      </trkpt>
      <trkpt lat="45.16373" lon="4.68467">
        <ele>441</ele>
        <time>2022-04-18T12:00:47Z</time>
      </trkpt>
      <trkpt lat="45.16384" lon="4.68374">
        <ele>443.20001220703</ele>
        <time>2022-04-18T12:01:04Z</time>
      </trkpt>
      <trkpt lat="45.16406" lon="4.68257">
        <ele>444.39999389648</ele>
        <time>2022-04-18T12:01:24Z</time>
      </trkpt>
      <trkpt lat="45.16416" lon="4.68182">
        <ele>444.60000610352</ele>
        <time>2022-04-18T12:01:36Z</time>
      </trkpt>
      <trkpt lat="45.16425" lon="4.6811">
        <ele>448</ele>
        <time>2022-04-18T12:01:52Z</time>
      </trkpt>
      <trkpt lat="45.16426" lon="4.68106">
        <ele>448</ele>
        <time>2022-04-18T12:01:53Z</time>
      </trkpt>
      <trkpt lat="45.16435" lon="4.6805">
        <ele>450.39999389648</ele>
        <time>2022-04-18T12:02:06Z</time>
      </trkpt>
      <trkpt lat="45.16439" lon="4.68027">
        <ele>450.60000610352</ele>
        <time>2022-04-18T12:02:10Z</time>
      </trkpt>
      <trkpt lat="45.16443" lon="4.67981">
        <ele>450.39999389648</ele>
        <time>2022-04-18T12:02:18Z</time>
      </trkpt>
      <trkpt lat="45.16447" lon="4.67862">
        <ele>451.79998779297</ele>
        <time>2022-04-18T12:02:38Z</time>
      </trkpt>
      <trkpt lat="45.16457" lon="4.67814">
        <ele>453.20001220703</ele>
        <time>2022-04-18T12:02:47Z</time>
      </trkpt>
      <trkpt lat="45.16468" lon="4.67761">
        <ele>455.39999389648</ele>
        <time>2022-04-18T12:03:02Z</time>
      </trkpt>
      <trkpt lat="45.16478" lon="4.67702">
        <ele>457</ele>
        <time>2022-04-18T12:03:16Z</time>
      </trkpt>
      <trkpt lat="45.1648" lon="4.67643">
        <ele>458.39999389648</ele>
        <time>2022-04-18T12:03:29Z</time>
      </trkpt>
      <trkpt lat="45.16484" lon="4.67554">
        <ele>460.20001220703</ele>
        <time>2022-04-18T12:03:46Z</time>
      </trkpt>
      <trkpt lat="45.16489" lon="4.6743">
        <ele>461.79998779297</ele>
        <time>2022-04-18T12:04:08Z</time>
      </trkpt>
      <trkpt lat="45.1649" lon="4.67419">
        <ele>462.20001220703</ele>
        <time>2022-04-18T12:04:10Z</time>
      </trkpt>
      <trkpt lat="45.16484" lon="4.67368">
        <ele>463.20001220703</ele>
        <time>2022-04-18T12:04:19Z</time>
      </trkpt>
      <trkpt lat="45.16485" lon="4.67311">
        <ele>464.79998779297</ele>
        <time>2022-04-18T12:04:32Z</time>
      </trkpt>
      <trkpt lat="45.16495" lon="4.67296">
        <ele>465.79998779297</ele>
        <time>2022-04-18T12:04:43Z</time>
      </trkpt>
      <trkpt lat="45.165" lon="4.67243">
        <ele>465.60000610352</ele>
        <time>2022-04-18T12:04:52Z</time>
      </trkpt>
      <trkpt lat="45.16502" lon="4.67205">
        <ele>465.39999389648</ele>
        <time>2022-04-18T12:04:57Z</time>
      </trkpt>
      <trkpt lat="45.16503" lon="4.67149">
        <ele>465.39999389648</ele>
        <time>2022-04-18T12:05:03Z</time>
      </trkpt>
      <trkpt lat="45.16499" lon="4.6698">
        <ele>464.39999389648</ele>
        <time>2022-04-18T12:05:21Z</time>
      </trkpt>
      <trkpt lat="45.16493" lon="4.66915">
        <ele>463.60000610352</ele>
        <time>2022-04-18T12:05:28Z</time>
      </trkpt>
      <trkpt lat="45.16468" lon="4.66798">
        <ele>463</ele>
        <time>2022-04-18T12:05:42Z</time>
      </trkpt>
      <trkpt lat="45.16466" lon="4.66763">
        <ele>463.60000610352</ele>
        <time>2022-04-18T12:05:46Z</time>
      </trkpt>
      <trkpt lat="45.16465" lon="4.66754">
        <ele>463.79998779297</ele>
        <time>2022-04-18T12:05:47Z</time>
      </trkpt>
      <trkpt lat="45.16468" lon="4.66715">
        <ele>464.20001220703</ele>
        <time>2022-04-18T12:05:51Z</time>
      </trkpt>
      <trkpt lat="45.16469" lon="4.66704">
        <ele>464.20001220703</ele>
        <time>2022-04-18T12:05:52Z</time>
      </trkpt>
      <trkpt lat="45.16477" lon="4.6666">
        <ele>464</ele>
        <time>2022-04-18T12:05:56Z</time>
      </trkpt>
      <trkpt lat="45.16474" lon="4.6661">
        <ele>462.60000610352</ele>
        <time>2022-04-18T12:06:00Z</time>
      </trkpt>
      <trkpt lat="45.16461" lon="4.66517">
        <ele>460.39999389648</ele>
        <time>2022-04-18T12:06:08Z</time>
      </trkpt>
      <trkpt lat="45.1645" lon="4.66429">
        <ele>459.60000610352</ele>
        <time>2022-04-18T12:06:17Z</time>
      </trkpt>
      <trkpt lat="45.16446" lon="4.6632">
        <ele>458.60000610352</ele>
        <time>2022-04-18T12:06:30Z</time>
      </trkpt>
      <trkpt lat="45.16434" lon="4.66297">
        <ele>458.39999389648</ele>
        <time>2022-04-18T12:06:34Z</time>
      </trkpt>
      <trkpt lat="45.16407" lon="4.66244">
        <ele>457.79998779297</ele>
        <time>2022-04-18T12:06:44Z</time>
      </trkpt>
      <trkpt lat="45.16402" lon="4.6624">
        <ele>457.79998779297</ele>
        <time>2022-04-18T12:06:46Z</time>
      </trkpt>
      <trkpt lat="45.16388" lon="4.66252">
        <ele>458.20001220703</ele>
        <time>2022-04-18T12:06:55Z</time>
      </trkpt>
      <trkpt lat="45.16385" lon="4.66252">
        <ele>458.39999389648</ele>
        <time>2022-04-18T12:07:17Z</time>
      </trkpt>
      <trkpt lat="45.16385" lon="4.66252">
        <ele>458</ele>
        <time>2022-04-18T12:07:25Z</time>
      </trkpt>
    </trkseg>
  </trk>
</gpx>